# Wetter Temperatur Luftdruck Luftfeuchtigkeit Sichtweite Windgeschwindigkeit Windrichtung Zeit
1 Clouds 25 1018 61 16093 6.2 70 19:55 12.07.2020
2 Clouds 25 1018 61 16093 6.2 70 19:37 12.07.2020
3 Clouds 25 1017 65 16093 5.7 80 19:18 12.07.2020
4 Clouds 25 1017 65 16093 5.7 80 18:42 12.07.2020
5 Clouds 25 1017 65 16093 5.7 80 18:20 12.07.2020
6 Clouds 24 1017 65 16093 3.6 60 17:58 12.07.2020
7 Clouds 24 1017 65 16093 3.6 60 17:37 12.07.2020
8 Clouds 24 1017 65 16093 3.6 60 17:19 12.07.2020
9 Clouds 25 1017 57 16093 5.7 70 16:45 12.07.2020
10 Clouds 25 1017 57 16093 5.7 70 16:21 12.07.2020
11 Clouds 25 1017 61 16093 5.1 80 15:45 12.07.2020
12 Clouds 25 1017 61 16093 5.1 80 15:26 12.07.2020
13 Clouds 25 1017 61 16093 5.1 60 14:56 12.07.2020
14 Clouds 25 1017 61 16093 5.1 60 14:37 12.07.2020
15 Clouds 25 1017 61 16093 5.1 60 14:18 12.07.2020
16 Clouds 25 1017 61 16093 5.1 60 14:18 12.07.2020
17 Clouds 25 1018 61 16093 7.2 70 13:39 12.07.2020
18 Clouds 25 1018 61 16093 7.2 70 13:20 12.07.2020
19 Clouds 25 1018 61 16093 4.6 60 12:54 12.07.2020
20 Clouds 25 1018 61 16093 4.6 60 12:36 12.07.2020
21 Clouds 25 1018 61 16093 4.6 60 12:18 12.07.2020
22 Clouds 25 1019 61 16093 5.1 70 11:43 12.07.2020
23 Clouds 25 1019 61 16093 5.1 70 11:19 12.07.2020
24 Clouds 26 1019 57 16093 7.7 70 10:42 12.07.2020
25 Clouds 26 1019 57 16093 7.7 70 10:42 12.07.2020
26 Clouds 26 1019 57 16093 7.7 70 10:22 12.07.2020
27 Clouds 26 1018 57 16093 6.7 70 09:54 12.07.2020
28 Clouds 26 1018 57 16093 6.7 70 09:36 12.07.2020
29 Clouds 26 1018 57 16093 6.7 70 09:18 12.07.2020
30 Clouds 26 1018 61 16093 6.2 60 08:41 12.07.2020
31 Clouds 26 1018 61 16093 6.2 60 08:22 12.07.2020
32 Clouds 26 1018 61 16093 7.2 70 07:54 12.07.2020
33 Clouds 26 1018 61 16093 7.2 70 07:36 12.07.2020
34 Clouds 26 1018 61 16093 7.2 70 07:18 12.07.2020
35 Clouds 27 1017 54 16093 8.7 70 06:47 12.07.2020
36 Clouds 27 1017 54 16093 8.7 70 06:19 12.07.2020
37 Clouds 28 1017 51 16093 8.7 70 05:22 12.07.2020
38 Clouds 28 1017 48 16093 9.3 70 04:29 12.07.2020
39 Clouds 29 1017 48 16093 7.2 60 03:46 12.07.2020
40 Clouds 29 1017 48 16093 7.2 60 03:28 12.07.2020
41 Clouds 29 1017 48 16093 7.2 60 02:26 12.07.2020
42 Clouds 29 1017 48 16093 7.2 60 01:31 12.07.2020
43 Clouds 28 1018 48 16093 8.2 70 00:39 12.07.2020
44 Clouds 28 1018 48 16093 8.2 70 00:21 12.07.2020
45 Clouds 28 1018 48 16093 5.7 60 23:41 11.07.2020
46 Clouds 28 1018 48 16093 5.7 60 23:23 11.07.2020
47 Clouds 27 1018 61 16093 6.2 60 23:00 11.07.2020
48 Clouds 27 1018 61 16093 6.2 60 22:41 11.07.2020
49 Clouds 27 1018 61 16093 6.2 60 22:23 11.07.2020
50 Clouds 27 1018 58 16093 6.2 60 21:56 11.07.2020
51 Clouds 27 1018 58 16093 6.2 60 21:37 11.07.2020
52 Clouds 27 1018 58 16093 6.2 60 21:19 11.07.2020
53 Rain 26 1018 57 16093 6.7 50 20:54 11.07.2020
54 Rain 26 1018 57 16093 6.7 50 20:36 11.07.2020
55 Rain 26 1018 57 16093 6.7 50 20:18 11.07.2020
56 Clouds 25 1018 65 16093 5.7 50 19:46 11.07.2020
57 Clouds 25 1018 65 16093 5.7 50 19:27 11.07.2020
58 Clouds 24 1017 69 16093 4.6 50 18:58 11.07.2020
59 Clouds 24 1017 69 16093 4.6 50 18:39 11.07.2020
60 Clouds 24 1017 69 16093 4.6 50 18:20 11.07.2020
61 Clouds 25 1017 65 16093 4.6 40 17:56 11.07.2020
62 Clouds 25 1017 65 16093 4.6 40 17:38 11.07.2020
63 Clouds 25 1017 65 16093 4.6 40 17:19 11.07.2020
64 Clouds 25 1017 65 16093 4.6 40 17:19 11.07.2020
65 Clouds 25 1017 65 16093 4.1 60 16:43 11.07.2020
66 Clouds 25 1017 65 16093 4.1 60 16:24 11.07.2020
67 Clouds 25 1017 65 16093 4.6 50 15:58 11.07.2020
68 Clouds 25 1017 65 16093 4.6 50 15:40 11.07.2020
69 Clouds 25 1017 65 16093 4.6 50 15:20 11.07.2020
70 Clouds 25 1017 65 16093 5.1 50 14:57 11.07.2020
71 Clouds 25 1017 65 16093 5.1 50 14:37 11.07.2020
72 Clouds 25 1017 65 16093 5.1 50 14:19 11.07.2020
73 Clouds 25 1018 65 16093 4.1 50 13:42 11.07.2020
74 Clouds 25 1018 65 16093 4.1 50 13:22 11.07.2020
75 Clouds 25 1018 65 16093 4.1 50 12:57 11.07.2020
76 Clouds 25 1018 65 16093 4.1 50 12:39 11.07.2020
77 Clouds 25 1018 65 16093 4.1 50 12:20 11.07.2020
78 Rain 25 1018 65 16093 5.7 50 11:42 11.07.2020
79 Rain 25 1018 65 16093 5.7 50 11:21 11.07.2020
80 Clouds 25 1018 61 16093 5.1 60 10:57 11.07.2020
81 Clouds 25 1018 61 16093 5.1 60 10:39 11.07.2020
82 Clouds 26 1018 61 16093 5.1 60 10:21 11.07.2020
83 Clouds 26 1017 57 16093 5.7 60 09:43 11.07.2020
84 Clouds 26 1017 57 16093 5.7 60 09:20 11.07.2020
85 Clouds 26 1017 57 16093 5.1 70 08:49 11.07.2020
86 Clouds 26 1017 57 16093 5.1 70 08:31 11.07.2020
87 Clouds 26 1016 58 16093 6.7 60 07:59 11.07.2020
88 Clouds 26 1016 58 16093 6.7 60 07:40 11.07.2020
89 Clouds 26 1016 54 16093 6.2 70 07:19 11.07.2020
90 Clouds 26 1016 54 16093 6.2 70 06:46 11.07.2020
91 Clouds 27 1016 54 16093 6.2 70 06:18 11.07.2020
92 Clouds 27 1016 54 16093 8.2 50 05:20 11.07.2020
93 Clouds 27 1016 51 16093 6.7 60 04:53 11.07.2020
94 Clouds 28 1016 51 16093 6.7 60 04:31 11.07.2020
95 Clouds 28 1016 45 16093 6.7 60 02:57 11.07.2020
96 Clouds 29 1016 45 16093 6.7 60 02:35 11.07.2020
97 Clouds 29 1017 45 16093 10.8 60 01:27 11.07.2020
98 Clouds 29 1017 43 16093 8.7 60 00:58 11.07.2020
99 Clouds 29 1017 43 16093 8.7 60 00:38 11.07.2020
100 Clouds 29 1017 43 16093 8.7 60 00:19 11.07.2020
101 Clouds 29 1017 43 16093 7.7 80 23:46 10.07.2020
102 Clouds 28 1017 43 16093 7.7 80 23:27 10.07.2020
103 Clouds 28 1017 51 16093 6.7 80 22:59 10.07.2020
104 Clouds 28 1017 51 16093 6.7 80 22:41 10.07.2020
105 Clouds 28 1017 51 16093 6.7 80 22:19 10.07.2020
106 Clouds 28 1018 51 16093 8.2 60 21:40 10.07.2020
107 Clouds 27 1018 51 16093 8.2 60 21:21 10.07.2020
108 Clouds 26 1018 57 16093 7.2 70 20:58 10.07.2020
109 Clouds 26 1018 57 16093 7.2 70 20:40 10.07.2020
110 Clouds 26 1018 57 16093 7.2 70 20:20 10.07.2020
111 Clouds 25 1017 65 16093 6.7 70 19:57 10.07.2020
112 Clouds 25 1017 65 16093 6.7 70 19:38 10.07.2020
113 Clouds 25 1017 65 16093 7.2 60 19:19 10.07.2020
114 Clouds 25 1017 65 16093 7.2 60 18:41 10.07.2020
115 Clouds 25 1017 65 16093 7.2 60 18:19 10.07.2020
116 Clouds 25 1017 65 16093 6.2 70 17:56 10.07.2020
117 Clouds 25 1017 65 16093 6.2 70 17:38 10.07.2020
118 Clouds 25 1017 65 16093 6.2 70 17:20 10.07.2020
119 Clouds 25 1017 65 16093 3.6 40 16:42 10.07.2020
120 Clouds 25 1017 65 16093 3.6 40 16:20 10.07.2020
121 Clouds 25 1017 65 16093 4.6 60 15:45 10.07.2020
122 Clouds 25 1017 65 16093 4.6 60 15:23 10.07.2020
123 Clouds 25 1017 65 16093 4.6 60 14:55 10.07.2020
124 Clouds 25 1017 65 16093 4.6 60 14:37 10.07.2020
125 Clouds 25 1017 65 16093 4.6 60 14:19 10.07.2020
126 Clouds 25 1017 65 16093 5.1 70 13:56 10.07.2020
127 Clouds 25 1017 65 16093 5.1 70 13:37 10.07.2020
128 Clouds 25 1017 65 16093 5.1 70 13:37 10.07.2020
129 Clouds 25 1017 65 16093 5.1 70 13:37 10.07.2020
130 Clouds 25 1017 61 16093 6.2 70 13:19 10.07.2020
131 Clouds 26 1017 61 16093 6.2 70 12:43 10.07.2020
132 Clouds 26 1017 61 16093 6.2 70 12:24 10.07.2020
133 Clouds 26 1017 61 16093 4.6 60 11:59 10.07.2020
134 Clouds 26 1017 61 16093 4.6 60 11:38 10.07.2020
135 Clouds 26 1017 61 16093 4.6 60 11:19 10.07.2020
136 Clouds 26 1017 61 16093 6.2 80 10:54 10.07.2020
137 Clear 25 1014 81 0 8.68 76 10:36 10.07.2020
138 Clouds 26 1017 65 16093 5.7 80 10:18 10.07.2020
139 Clouds 26 1017 65 16093 5.7 80 09:37 10.07.2020
140 Clouds 26 1017 65 16093 5.7 80 09:19 10.07.2020
141 Rain 26 1016 65 16093 5.1 60 08:56 10.07.2020
142 Rain 26 1016 65 16093 5.1 60 08:37 10.07.2020
143 Rain 26 1016 65 16093 4.6 60 08:19 10.07.2020
144 Rain 26 1016 65 16093 4.6 60 07:41 10.07.2020
145 Rain 26 1016 65 16093 4.6 60 07:22 10.07.2020
146 Rain 26 1015 65 16093 3.1 40 06:49 10.07.2020
147 Rain 26 1016 61 16093 8.7 70 05:55 10.07.2020
148 Rain 26 1016 69 11265 8.7 60 04:33 10.07.2020
149 Clouds 29 1016 48 16093 6.2 50 03:31 10.07.2020
150 Clouds 29 1016 51 16093 6.7 70 02:51 10.07.2020
151 Clouds 29 1016 48 16093 7.2 90 01:48 10.07.2020
152 Clouds 29 1017 51 16093 6.7 60 00:47 10.07.2020
153 Clouds 29 1017 48 16093 7.2 60 00:19 10.07.2020
154 Clouds 28 1017 48 16093 7.2 60 23:46 09.07.2020
155 Clouds 28 1017 48 16093 7.2 60 23:21 09.07.2020
156 Clouds 28 1017 54 16093 5.7 80 22:58 09.07.2020
157 Clouds 28 1017 54 16093 5.7 80 22:40 09.07.2020
158 Clouds 28 1017 54 16093 5.7 80 22:21 09.07.2020
159 Clouds 27 1017 58 16093 5.7 60 21:56 09.07.2020
160 Clouds 27 1017 58 16093 5.7 60 21:38 09.07.2020
161 Clouds 27 1017 58 16093 5.7 60 21:19 09.07.2020
162 Clouds 26 1017 61 16093 4.1 50 20:44 09.07.2020
163 Clouds 26 1017 61 16093 4.1 50 20:25 09.07.2020
164 Clouds 25 1017 69 16093 2.1 360 19:58 09.07.2020
165 Clouds 25 1017 69 16093 2.1 360 19:40 09.07.2020
166 Clouds 25 1017 69 16093 2.1 360 19:20 09.07.2020
167 Rain 24 1017 69 16093 4.1 40 18:42 09.07.2020
168 Rain 24 1017 69 16093 4.1 40 18:21 09.07.2020
169 Clouds 24 1016 69 16093 5.7 40 17:55 09.07.2020
170 Clouds 24 1016 69 16093 5.7 40 17:37 09.07.2020
171 Clouds 24 1016 69 16093 5.7 40 17:18 09.07.2020
172 Clouds 24 1016 73 16093 3.1 50 16:55 09.07.2020
173 Clouds 24 1016 73 16093 3.1 50 16:36 09.07.2020
174 Clouds 24 1016 73 16093 3.1 50 16:18 09.07.2020
175 Clouds 23 1017 73 16093 4.6 40 15:45 09.07.2020
176 Clouds 23 1017 73 16093 4.6 40 15:27 09.07.2020
177 Clouds 23 1017 78 16093 3.6 70 14:59 09.07.2020
178 Clouds 23 1017 78 16093 3.6 70 14:41 09.07.2020
179 Clouds 23 1017 78 16093 3.6 70 14:22 09.07.2020
180 Rain 23 1018 83 16093 4.1 70 13:58 09.07.2020
181 Rain 24 1018 83 16093 4.1 70 13:40 09.07.2020
182 Rain 24 1018 83 16093 4.1 70 13:20 09.07.2020
183 Clouds 25 1018 65 16093 6.7 80 12:57 09.07.2020
184 Rain 25 1018 65 16093 6.7 80 12:38 09.07.2020
185 Rain 25 1018 65 16093 6.7 80 12:19 09.07.2020
186 Rain 25 1018 69 16093 3.6 70 11:43 09.07.2020
187 Rain 25 1018 69 16093 3.6 70 11:24 09.07.2020
188 Rain 25 1018 65 16093 4.1 60 10:58 09.07.2020
189 Rain 25 1018 65 16093 4.1 60 10:40 09.07.2020
190 Rain 25 1018 65 16093 4.1 60 10:40 09.07.2020
191 Clouds 25 1018 65 16093 4.1 60 10:22 09.07.2020
192 Clouds 25 1018 65 16093 2.6 60 09:55 09.07.2020
193 Clouds 25 1018 65 16093 2.6 60 09:37 09.07.2020
194 Clouds 25 1018 65 16093 2.6 60 09:18 09.07.2020
195 Clouds 26 1018 57 16093 5.7 60 08:43 09.07.2020
196 Clouds 26 1018 57 16093 5.7 60 08:24 09.07.2020
197 Rain 25 1018 65 16093 6.2 70 07:45 09.07.2020
198 Rain 25 1018 65 16093 6.2 70 07:22 09.07.2020
199 Rain 26 1017 58 16093 7.7 70 06:41 09.07.2020
200 Rain 27 1017 58 16093 7.7 70 06:19 09.07.2020
201 Clouds 28 1017 48 16093 9.3 60 04:29 09.07.2020
202 Rain 28 1017 51 16093 7.7 60 03:25 09.07.2020
203 Rain 28 1017 51 16093 5.7 30 02:18 09.07.2020
204 Clouds 28 1018 48 16093 6.2 50 01:23 09.07.2020
205 Rain 28 1018 45 16093 6.7 60 00:43 09.07.2020
206 Rain 28 1018 45 16093 6.7 60 00:23 09.07.2020
207 Clouds 28 1018 45 16093 8.2 40 23:44 08.07.2020
208 Clouds 28 1018 45 16093 8.2 40 23:26 08.07.2020
209 Clouds 28 1018 51 16093 5.7 40 22:57 08.07.2020
210 Clouds 28 1018 51 16093 5.7 40 22:38 08.07.2020
211 Clouds 28 1018 51 16093 5.7 40 22:38 08.07.2020
212 Clouds 28 1018 51 16093 5.7 40 22:20 08.07.2020
213 Clouds 27 1018 54 16093 7.2 60 21:56 08.07.2020
214 Clouds 27 1018 54 16093 7.2 60 21:37 08.07.2020
215 Clouds 27 1018 54 16093 7.2 60 21:37 08.07.2020
216 Clouds 27 1018 54 16093 7.2 60 21:19 08.07.2020
217 Clouds 26 1019 57 16093 5.1 50 20:41 08.07.2020
218 Clouds 26 1019 57 16093 5.1 50 20:23 08.07.2020
219 Rain 25 1019 61 16093 3.1 70 19:56 08.07.2020
220 Rain 25 1019 61 16093 3.1 70 19:37 08.07.2020
221 Rain 25 1019 61 16093 3.1 70 19:19 08.07.2020
222 Clouds 24 1018 65 16093 3.6 50 18:42 08.07.2020
223 Clouds 24 1018 65 16093 3.6 50 18:21 08.07.2020
224 Clouds 24 1018 65 16093 4.6 60 17:57 08.07.2020
225 Clouds 24 1018 65 16093 4.6 60 17:39 08.07.2020
226 Clouds 24 1018 65 16093 4.6 60 17:20 08.07.2020
227 Clouds 24 1018 65 16093 4.6 70 16:58 08.07.2020
228 Clouds 24 1018 65 16093 4.6 70 16:38 08.07.2020
229 Clouds 24 1018 65 16093 4.6 70 16:19 08.07.2020
230 Clouds 24 1018 69 16093 3.1 70 15:58 08.07.2020
231 Clouds 24 1018 69 16093 3.1 70 15:38 08.07.2020
232 Clouds 24 1018 69 16093 3.1 70 15:38 08.07.2020
233 Clouds 24 1018 69 16093 3.1 70 15:19 08.07.2020
234 Rain 24 1018 69 16093 5.1 60 14:42 08.07.2020
235 Rain 24 1018 69 16093 5.1 60 14:23 08.07.2020
236 Clouds 24 1018 69 16093 5.1 60 13:57 08.07.2020
237 Clouds 24 1018 69 16093 5.1 60 13:38 08.07.2020
238 Clouds 24 1018 69 16093 5.1 60 13:18 08.07.2020
239 Clouds 24 1019 73 16093 5.1 50 12:41 08.07.2020
240 Clouds 24 1019 73 16093 5.1 50 12:20 08.07.2020
241 Clouds 24 1019 73 16093 3.6 50 11:55 08.07.2020
242 Clouds 24 1019 73 16093 3.6 50 11:37 08.07.2020
243 Clouds 24 1019 73 16093 3.6 50 11:19 08.07.2020
244 Rain 25 1018 61 16093 4.6 60 10:42 08.07.2020
245 Rain 25 1018 61 16093 4.6 60 10:23 08.07.2020
246 Rain 25 1018 61 16093 5.1 40 09:45 08.07.2020
247 Rain 25 1018 61 16093 5.1 40 09:25 08.07.2020
248 Rain 26 1018 57 16093 4.6 50 08:44 08.07.2020
249 Rain 26 1018 57 16093 4.6 50 08:25 08.07.2020
250 Rain 26 1017 61 16093 4.6 70 07:51 08.07.2020
251 Rain 26 1017 69 16093 5.7 40 07:25 08.07.2020
252 Rain 26 1017 69 16093 5.7 40 06:59 08.07.2020
253 Rain 26 1017 69 16093 5.7 40 06:59 08.07.2020
254 Rain 26 1017 69 16093 5.7 40 06:39 08.07.2020
255 Rain 26 1017 69 16093 5.7 40 06:20 08.07.2020
256 Rain 27 1016 51 16093 7.2 60 05:44 08.07.2020
257 Rain 28 1016 48 16093 8.2 70 04:43 08.07.2020
258 Clouds 28 1016 48 16093 7.2 70 03:30 08.07.2020
259 Clouds 29 1017 48 16093 7.2 70 01:59 08.07.2020
260 Clouds 29 1017 48 16093 7.2 70 01:37 08.07.2020
261 Rain 28 1018 51 16093 7.2 70 00:46 08.07.2020
262 Rain 28 1018 51 16093 7.2 70 00:19 08.07.2020
263 Rain 28 1018 51 16093 5.7 60 23:43 07.07.2020
264 Rain 28 1018 51 16093 5.7 60 23:21 07.07.2020
265 Rain 28 1018 51 16093 5.7 60 23:21 07.07.2020
266 Clouds 28 1018 51 16093 6.7 50 22:54 07.07.2020
267 Clouds 28 1018 51 16093 6.7 50 22:36 07.07.2020
268 Rain 28 1018 51 16093 6.7 50 22:18 07.07.2020
269 Rain 27 1018 58 16093 7.2 60 21:41 07.07.2020
270 Rain 27 1018 58 16093 7.2 60 21:41 07.07.2020
271 Clouds 27 1018 58 16093 7.2 60 21:22 07.07.2020
272 Clouds 27 1018 58 16093 7.2 60 21:22 07.07.2020
273 Rain 24 1018 78 16093 3.6 70 20:58 07.07.2020
274 Rain 24 1018 78 16093 3.6 70 20:40 07.07.2020
275 Rain 25 1018 78 16093 3.6 70 20:22 07.07.2020
276 Rain 25 1018 73 16093 2.1 0 19:43 07.07.2020
277 Rain 24 1018 73 16093 2.1 0 19:22 07.07.2020
278 Rain 23 1017 88 16093 2.1 50 18:59 07.07.2020
279 Rain 23 1017 88 16093 2.1 50 18:41 07.07.2020
280 Rain 23 1017 88 16093 2.1 50 18:23 07.07.2020
281 Clouds 24 1017 73 16093 2.6 30 17:59 07.07.2020
282 Clouds 24 1017 73 16093 2.6 30 17:40 07.07.2020
283 Clouds 24 1017 73 16093 2.6 30 17:22 07.07.2020
284 Clouds 24 1017 73 16093 4.6 70 16:58 07.07.2020
285 Clouds 24 1017 73 16093 4.6 70 16:40 07.07.2020
286 Rain 24 1017 73 16093 4.6 70 16:20 07.07.2020
287 Rain 24 1017 73 16093 2.1 30 15:42 07.07.2020
288 Rain 24 1017 73 16093 2.1 30 15:21 07.07.2020
289 Clouds 23 1017 88 16093 2.1 40 14:47 07.07.2020
290 Clouds 23 1017 88 16093 2.1 40 14:27 07.07.2020
291 Clouds 24 1018 78 16093 4.6 80 13:59 07.07.2020
292 Clouds 24 1018 78 16093 4.6 80 13:40 07.07.2020
293 Clouds 24 1018 78 16093 4.6 80 13:18 07.07.2020
294 Rain 24 1018 78 16093 4.6 70 12:41 07.07.2020
295 Rain 24 1018 78 16093 4.6 70 12:22 07.07.2020
296 Rain 25 1018 65 16093 4.6 90 11:56 07.07.2020
297 Rain 25 1018 65 16093 4.6 90 11:38 07.07.2020
298 Rain 25 1018 65 16093 4.6 90 11:20 07.07.2020
299 Rain 25 1018 65 16093 4.6 60 10:55 07.07.2020
300 Rain 25 1018 65 16093 4.6 60 10:37 07.07.2020
301 Rain 25 1018 65 16093 4.6 60 10:18 07.07.2020
302 Rain 25 1018 65 16093 3.6 40 09:38 07.07.2020
303 Rain 25 1018 65 16093 3.6 40 09:20 07.07.2020
304 Rain 26 1017 61 16093 5.7 60 08:42 07.07.2020
305 Rain 26 1017 61 16093 5.7 60 08:23 07.07.2020
306 Clouds 26 1016 58 16093 6.2 70 07:45 07.07.2020
307 Clouds 26 1016 58 16093 6.2 70 07:23 07.07.2020
308 Clouds 27 1016 54 16093 7.2 60 06:49 07.07.2020
309 Clouds 27 1016 54 16093 7.2 60 06:30 07.07.2020
310 Clouds 28 1016 51 16093 7.2 40 05:53 07.07.2020
311 Clouds 28 1016 51 16093 7.2 40 05:22 07.07.2020
312 Clouds 29 1016 48 16093 5.7 30 04:38 07.07.2020
313 Clouds 29 1016 45 16093 6.7 40 03:35 07.07.2020
314 Clouds 30 1016 40 16093 6.7 30 02:21 07.07.2020
315 Clouds 29 1017 43 16093 6.2 80 01:22 07.07.2020
316 Clouds 29 1017 43 16093 6.7 40 00:43 07.07.2020
317 Clouds 29 1017 43 16093 6.7 40 00:24 07.07.2020
318 Clouds 29 1017 45 16093 6.2 80 23:55 06.07.2020
319 Clouds 29 1017 45 16093 6.2 80 23:36 06.07.2020
320 Clouds 29 1017 45 16093 6.2 80 23:18 06.07.2020
321 Clouds 28 1018 48 16093 4.1 60 22:41 06.07.2020
322 Clouds 28 1018 48 16093 4.1 60 22:20 06.07.2020
323 Clouds 27 1018 58 16093 4.1 60 21:57 06.07.2020
324 Clouds 27 1018 58 16093 4.1 60 21:38 06.07.2020
325 Clouds 27 1018 58 16093 4.1 60 21:19 06.07.2020
326 Clouds 26 1017 61 16093 3.6 60 20:59 06.07.2020
327 Clouds 26 1017 61 16093 3.6 60 20:37 06.07.2020
328 Clouds 26 1017 61 16093 3.6 60 20:19 06.07.2020
329 Clouds 25 1017 65 16093 4.1 60 19:56 06.07.2020
330 Clouds 25 1017 65 16093 4.1 60 19:37 06.07.2020
331 Clouds 25 1017 65 16093 4.1 60 19:19 06.07.2020
332 Clouds 24 1017 78 16093 3.1 80 18:41 06.07.2020
333 Clouds 24 1017 78 16093 3.1 80 18:23 06.07.2020
334 Clouds 24 1016 73 16093 3.6 50 17:59 06.07.2020
335 Clouds 24 1016 73 16093 3.6 50 17:40 06.07.2020
336 Clouds 24 1016 73 16093 3.6 50 17:20 06.07.2020
337 Clouds 24 1016 73 16093 3.6 50 17:20 06.07.2020
338 Clouds 24 1016 73 16093 3.1 80 16:43 06.07.2020
339 Clouds 24 1016 73 16093 3.1 80 16:24 06.07.2020
340 Clouds 24 1016 73 16093 2.6 60 15:57 06.07.2020
341 Clouds 24 1016 73 16093 2.6 60 15:39 06.07.2020
342 Clouds 24 1016 73 16093 2.6 60 15:21 06.07.2020
343 Clouds 24 1017 78 16093 2.6 40 14:55 06.07.2020
344 Clouds 24 1017 78 16093 2.6 40 14:37 06.07.2020
345 Clouds 24 1017 78 16093 2.6 40 14:18 06.07.2020
346 Clouds 25 1017 73 16093 3.1 60 13:44 06.07.2020
347 Clouds 25 1017 73 16093 3.1 60 13:24 06.07.2020
348 Clouds 25 1018 78 16093 3.1 80 12:54 06.07.2020
349 Clouds 25 1018 78 16093 3.1 80 12:36 06.07.2020
350 Clouds 25 1018 78 16093 3.1 80 12:18 06.07.2020
351 Rain 25 1018 78 16093 1.5 50 11:41 06.07.2020
352 Rain 25 1018 78 16093 1.5 50 11:23 06.07.2020
353 Clouds 26 1018 69 16093 2.6 100 10:59 06.07.2020
354 Clouds 26 1018 69 16093 2.6 100 10:40 06.07.2020
355 Clouds 26 1018 69 16093 2.6 100 10:20 06.07.2020
356 Clouds 26 1017 69 16093 2.6 90 09:54 06.07.2020
357 Clouds 26 1017 69 16093 2.6 90 09:36 06.07.2020
358 Clouds 26 1017 69 16093 2.6 90 09:18 06.07.2020
359 Clouds 26 1016 65 16093 2.6 80 08:40 06.07.2020
360 Clouds 26 1016 65 16093 2.6 80 08:22 06.07.2020
361 Clouds 26 1015 65 16093 3.6 70 07:48 06.07.2020
362 Clouds 26 1015 65 16093 3.6 70 07:29 06.07.2020
363 Clouds 26 1015 65 16093 3.6 70 06:55 06.07.2020
364 Clouds 28 1015 55 16093 5.7 80 06:36 06.07.2020
365 Clouds 28 1015 55 16093 5.7 80 05:47 06.07.2020
366 Clouds 27 1015 58 16093 3.6 120 05:26 06.07.2020
367 Clouds 28 1015 66 16093 6.7 130 03:53 06.07.2020
368 Clouds 29 1016 62 16093 7.2 140 02:29 06.07.2020
369 Clouds 28 1016 62 16093 7.7 140 01:45 06.07.2020
370 Clouds 28 1017 66 16093 8.2 130 00:44 06.07.2020
371 Clouds 28 1017 66 16093 8.2 130 00:22 06.07.2020
372 Clouds 28 1017 66 16093 5.1 130 23:54 05.07.2020
373 Clouds 28 1017 66 16093 5.1 130 23:36 05.07.2020
374 Clouds 29 1017 66 16093 5.1 130 23:18 05.07.2020
375 Clouds 28 1017 65 16093 2.6 110 22:41 05.07.2020
376 Clouds 28 1017 65 16093 2.6 110 22:20 05.07.2020
377 Clouds 27 1017 69 16093 1.5 140 21:58 05.07.2020
378 Clouds 27 1017 69 16093 1.5 140 21:40 05.07.2020
379 Clouds 27 1017 69 16093 1.5 140 21:19 05.07.2020
380 Clouds 26 1017 78 16093 2.1 60 20:58 05.07.2020
381 Clouds 26 1017 78 16093 2.1 60 20:39 05.07.2020
382 Rain 26 1017 78 16093 2.1 60 20:20 05.07.2020
383 Rain 26 1017 78 16093 2.1 60 20:20 05.07.2020
384 Rain 24 1016 83 16093 1.5 360 19:43 05.07.2020
385 Clouds 24 1016 83 16093 1.5 360 19:22 05.07.2020
386 Clouds 23 1016 88 16093 2.1 340 18:58 05.07.2020
387 Clouds 23 1016 88 16093 2.1 340 18:40 05.07.2020
388 Clouds 23 1016 88 16093 2.1 340 18:21 05.07.2020
389 Clouds 23 1015 83 16093 1.5 350 17:55 05.07.2020
390 Clouds 23 1015 83 16093 1.5 350 17:37 05.07.2020
391 Clouds 23 1015 83 16093 1.5 350 17:18 05.07.2020
392 Clouds 23 1015 83 16093 2.1 50 16:42 05.07.2020
393 Clouds 23 1015 83 16093 2.1 50 16:24 05.07.2020
394 Clouds 23 1015 83 16093 2.6 60 15:54 05.07.2020
395 Clouds 23 1015 83 16093 2.6 60 15:36 05.07.2020
396 Clouds 24 1015 83 16093 2.6 60 15:18 05.07.2020
397 Clouds 24 1016 78 16093 2.1 60 14:40 05.07.2020
398 Clouds 24 1016 78 16093 2.1 60 14:20 05.07.2020
399 Clouds 24 1016 78 16093 2.1 60 14:20 05.07.2020
400 Clouds 24 1016 78 16093 3.1 60 13:42 05.07.2020
401 Clouds 24 1016 78 16093 3.1 60 13:23 05.07.2020
402 Clouds 24 1017 78 16093 3.1 80 12:47 05.07.2020
403 Clouds 24 1017 78 16093 3.1 80 12:26 05.07.2020
404 Clouds 24 1017 78 16093 2.6 80 11:58 05.07.2020
405 Clouds 24 1017 78 16093 2.6 80 11:39 05.07.2020
406 Clouds 24 1017 78 16093 2.6 80 11:21 05.07.2020
407 Clouds 24 1017 78 16093 4.1 70 10:58 05.07.2020
408 Clouds 24 1017 78 16093 4.1 70 10:39 05.07.2020
409 Clouds 25 1016 74 16093 2.1 50 10:19 05.07.2020
410 Clouds 25 1016 74 16093 2.1 50 09:42 05.07.2020
411 Rain 25 1016 74 16093 2.1 50 09:21 05.07.2020
412 Rain 25 1016 65 16093 3.1 70 08:58 05.07.2020
413 Rain 25 1016 65 16093 3.1 70 08:38 05.07.2020
414 Rain 25 1016 65 16093 3.1 70 08:20 05.07.2020
415 Rain 25 1015 69 16093 3.6 30 07:44 05.07.2020
416 Rain 25 1015 69 16093 3.6 30 07:26 05.07.2020
417 Rain 26 1014 65 16093 5.7 90 06:49 05.07.2020
418 Rain 28 1014 62 16093 5.7 120 04:42 05.07.2020
419 Rain 28 1015 66 16093 4.6 130 03:19 05.07.2020
420 Rain 28 1015 66 16093 5.7 160 02:41 05.07.2020
421 Rain 27 1015 65 16093 3.6 130 01:59 05.07.2020
422 Rain 27 1015 65 16093 3.6 130 01:31 05.07.2020
423 Rain 27 1016 69 16093 1.5 230 00:53 05.07.2020
424 Rain 26 1016 69 16093 1.5 230 00:31 05.07.2020
425 Rain 25 1016 74 16093 3.86 134 23:58 04.07.2020
426 Rain 25 1016 74 16093 3.86 134 23:40 04.07.2020
427 Rain 25 1016 74 16093 3.93 124 23:22 04.07.2020
428 Rain 24 1016 88 16093 3.1 40 22:43 04.07.2020
429 Rain 24 1016 88 16093 3.1 40 22:25 04.07.2020
430 Rain 23 1016 94 12874 3.1 40 21:58 04.07.2020
431 Rain 23 1016 94 12874 3.1 40 21:40 04.07.2020
432 Rain 23 1016 94 11265 2.6 40 21:22 04.07.2020
433 Rain 23 1016 100 4828 2.6 230 20:43 04.07.2020
434 Rain 24 1016 100 4828 2.6 230 20:22 04.07.2020
435 Rain 24 1016 88 9656 2.1 140 20:00 04.07.2020
436 Clouds 24 1015 94 16093 1.5 300 19:41 04.07.2020
437 Rain 23 1015 88 16093 1.5 0 19:21 04.07.2020
438 Rain 23 1015 88 16093 1.5 0 19:21 04.07.2020
439 Rain 23 1015 94 16093 2.6 330 18:46 04.07.2020
440 Rain 23 1015 94 16093 2.1 300 18:24 04.07.2020
441 Rain 23 1015 94 16093 2.1 300 17:56 04.07.2020
442 Rain 23 1015 94 16093 2.1 300 17:38 04.07.2020
443 Rain 23 1015 94 16093 2.1 300 17:19 04.07.2020
444 Rain 23 1015 94 12874 2.6 320 16:56 04.07.2020
445 Rain 23 1015 94 12874 2.6 320 16:36 04.07.2020
446 Rain 23 1015 94 12874 2.6 320 16:36 04.07.2020
447 Rain 23 1015 94 12874 2.6 320 16:18 04.07.2020
448 Rain 23 1015 94 16093 2.1 270 15:41 04.07.2020
449 Rain 23 1015 94 16093 2.1 270 15:23 04.07.2020
450 Rain 24 1015 78 16093 2.1 350 14:57 04.07.2020
451 Rain 24 1015 78 16093 2.1 350 14:37 04.07.2020
452 Rain 24 1015 78 16093 2.1 350 14:18 04.07.2020
453 Rain 24 1015 78 16093 2.1 60 13:41 04.07.2020
454 Rain 24 1015 78 16093 2.1 60 13:19 04.07.2020
455 Clouds 24 1016 83 16093 1.5 50 12:56 04.07.2020
456 Clouds 24 1016 83 16093 1.5 50 12:38 04.07.2020
457 Clouds 24 1016 83 16093 1.5 50 12:18 04.07.2020
458 Clouds 24 1016 78 16093 1.5 80 11:43 04.07.2020
459 Clouds 24 1016 78 16093 1.5 80 11:23 04.07.2020
460 Rain 24 1016 78 16093 2.6 90 10:56 04.07.2020
461 Rain 24 1016 78 16093 2.6 90 10:37 04.07.2020
462 Rain 24 1016 78 16093 2.6 90 10:18 04.07.2020
463 Rain 24 1016 78 16093 2.6 90 10:18 04.07.2020
464 Rain 25 1015 65 16093 5.1 60 09:41 04.07.2020
465 Rain 25 1015 65 16093 5.1 60 09:21 04.07.2020
466 Rain 25 1014 61 16093 4.6 60 08:57 04.07.2020
467 Rain 25 1014 61 16093 4.6 60 08:39 04.07.2020
468 Rain 25 1014 61 16093 4.6 60 08:19 04.07.2020
469 Clouds 26 1014 58 16093 6.7 70 07:39 04.07.2020
470 Clouds 26 1014 54 16093 6.7 60 06:59 04.07.2020
471 Clouds 26 1014 54 16093 6.7 60 06:37 04.07.2020
472 Clouds 26 1014 54 16093 6.7 60 06:18 04.07.2020
473 Clouds 27 1013 54 16093 6.2 40 05:24 04.07.2020
474 Clouds 28 1014 51 16093 7.7 30 03:49 04.07.2020
475 Clouds 29 1014 45 16093 7.2 50 02:40 04.07.2020
476 Clouds 29 1015 48 16093 6.7 50 01:40 04.07.2020
477 Clouds 29 1015 45 16093 6.2 60 00:48 04.07.2020
478 Clouds 29 1015 45 16093 6.2 60 00:30 04.07.2020
479 Clouds 28 1016 48 16093 5.1 50 23:57 03.07.2020
480 Clouds 29 1016 48 16093 5.1 50 23:38 03.07.2020
481 Clouds 29 1016 48 16093 5.1 50 23:18 03.07.2020
482 Clouds 28 1016 51 16093 4.1 60 22:41 03.07.2020
483 Clouds 28 1016 51 16093 4.1 60 22:23 03.07.2020
484 Clouds 27 1015 58 16093 3.6 30 21:56 03.07.2020
485 Clouds 27 1015 58 16093 3.6 30 21:37 03.07.2020
486 Clouds 27 1015 58 16093 3.6 30 21:37 03.07.2020
487 Clouds 27 1015 58 16093 3.6 30 21:19 03.07.2020
488 Clouds 25 1015 65 16093 1.5 340 20:42 03.07.2020
489 Clouds 25 1015 65 16093 1.5 340 20:24 03.07.2020
490 Clear 24 1012 81 0 4.73 65 19:42 03.07.2020
491 Clouds 23 1015 78 16093 1.5 340 19:22 03.07.2020
492 Clouds 23 1015 78 16093 1.5 340 18:59 03.07.2020
493 Clouds 23 1015 78 16093 1.5 340 18:41 03.07.2020
494 Clouds 22 1015 78 16093 1.5 340 18:22 03.07.2020
495 Clouds 22 1015 78 16093 2.6 330 17:46 03.07.2020
496 Clouds 22 1015 78 16093 2.6 330 17:23 03.07.2020
497 Clear 22 1015 78 16093 2.6 350 16:59 03.07.2020
498 Clear 22 1015 78 16093 2.6 350 16:39 03.07.2020
499 Clear 22 1015 78 16093 2.6 350 16:39 03.07.2020
500 Clear 22 1015 78 16093 2.6 350 16:20 03.07.2020
501 Clouds 23 1015 73 16093 2.1 350 15:42 03.07.2020
502 Clouds 23 1015 73 16093 2.1 350 15:22 03.07.2020
503 Clouds 23 1015 73 16093 2.1 350 15:22 03.07.2020
504 Clear 23 1016 73 16093 3.1 350 14:55 03.07.2020
505 Clear 23 1016 73 16093 3.1 350 14:36 03.07.2020
506 Clear 23 1016 73 16093 3.1 350 14:18 03.07.2020
507 Clouds 23 1016 73 16093 1.5 360 13:41 03.07.2020
508 Clouds 23 1016 73 16093 1.5 360 13:22 03.07.2020
509 Clouds 24 1016 65 16093 2.6 0 12:44 03.07.2020
510 Clouds 24 1016 65 16093 2.6 0 12:23 03.07.2020
511 Clouds 25 1016 65 16093 2.6 40 11:56 03.07.2020
512 Clouds 25 1016 65 16093 2.6 40 11:38 03.07.2020
513 Clouds 25 1016 65 16093 2.6 40 11:19 03.07.2020
514 Clouds 25 1016 65 16093 2.1 20 10:42 03.07.2020
515 Clouds 25 1016 65 16093 2.1 20 10:21 03.07.2020
516 Clouds 25 1016 65 16093 1.5 30 09:59 03.07.2020
517 Clouds 25 1016 65 16093 1.5 30 09:40 03.07.2020
518 Clouds 25 1016 65 16093 1.5 30 09:21 03.07.2020
519 Clouds 25 1015 65 16093 3.1 30 08:57 03.07.2020
520 Clouds 25 1015 65 16093 3.1 30 08:38 03.07.2020
521 Clouds 25 1015 65 16093 3.1 30 08:18 03.07.2020
522 Clouds 26 1015 57 16093 5.7 60 07:43 03.07.2020
523 Clouds 26 1015 57 16093 5.7 60 07:21 03.07.2020
524 Clouds 27 1014 54 16093 4.6 50 06:30 03.07.2020
525 Clouds 28 1014 48 16093 6.7 60 05:43 03.07.2020
526 Rain 29 1015 45 16093 6.7 50 03:59 03.07.2020
527 Clouds 29 1015 48 16093 5.7 70 02:55 03.07.2020
528 Clouds 29 1015 48 16093 5.7 70 02:31 03.07.2020
529 Clouds 30 1015 45 16093 6.7 30 01:41 03.07.2020
530 Clouds 30 1015 45 16093 6.7 30 01:41 03.07.2020
531 Clouds 29 1015 45 16093 6.7 30 01:20 03.07.2020
532 Clouds 29 1015 45 16093 6.7 30 01:20 03.07.2020
533 Clouds 28 1016 51 16093 4.6 60 00:41 03.07.2020
534 Clouds 28 1016 51 16093 3.1 70 23:56 02.07.2020
535 Clouds 28 1016 51 16093 3.1 70 23:37 02.07.2020
536 Clouds 28 1016 51 16093 3.1 70 23:18 02.07.2020
537 Clouds 28 1016 54 16093 4.6 50 22:54 02.07.2020
538 Clouds 27 1016 54 16093 4.6 50 22:36 02.07.2020
539 Clouds 27 1016 54 16093 4.6 50 22:18 02.07.2020
540 Rain 26 1017 65 16093 2.6 0 21:42 02.07.2020
541 Rain 26 1017 65 16093 2.6 0 21:20 02.07.2020
542 Rain 26 1017 65 16093 3.1 10 20:58 02.07.2020
543 Rain 26 1017 65 16093 3.1 10 20:40 02.07.2020
544 Rain 25 1017 65 16093 3.1 10 20:20 02.07.2020
545 Rain 24 1016 73 16093 3.1 40 19:43 02.07.2020
546 Clouds 24 1016 73 16093 3.1 40 19:24 02.07.2020
547 Clouds 24 1016 69 16093 2.6 10 18:59 02.07.2020
548 Clouds 24 1016 69 16093 2.6 10 18:40 02.07.2020
549 Clouds 24 1016 69 16093 2.6 10 18:22 02.07.2020
550 Clouds 23 1016 73 16093 2.6 30 17:57 02.07.2020
551 Clouds 24 1016 73 16093 2.6 30 17:38 02.07.2020
552 Clouds 24 1016 73 16093 2.6 30 17:18 02.07.2020
553 Clouds 24 1016 73 16093 2.1 20 16:42 02.07.2020
554 Clouds 24 1016 73 16093 2.1 20 16:21 02.07.2020
555 Clouds 24 1016 73 16093 2.6 50 15:58 02.07.2020
556 Clouds 24 1016 73 16093 2.6 50 15:38 02.07.2020
557 Clouds 24 1016 73 16093 2.6 50 15:20 02.07.2020
558 Clouds 24 1016 69 16093 5.1 50 14:45 02.07.2020
559 Clouds 24 1016 69 16093 5.1 50 14:23 02.07.2020
560 Clouds 25 1017 65 16093 3.6 50 13:57 02.07.2020
561 Clouds 25 1017 65 16093 3.6 50 13:38 02.07.2020
562 Rain 25 1017 65 16093 3.6 50 13:19 02.07.2020
563 Rain 25 1017 61 16093 4.1 60 12:42 02.07.2020
564 Rain 25 1017 61 16093 4.1 60 12:22 02.07.2020
565 Rain 25 1017 69 16093 5.1 50 11:59 02.07.2020
566 Rain 25 1017 69 16093 5.1 50 11:40 02.07.2020
567 Rain 25 1017 69 16093 5.1 50 11:22 02.07.2020
568 Rain 25 1017 69 16093 3.1 60 10:44 02.07.2020
569 Rain 25 1017 69 16093 3.1 60 10:26 02.07.2020
570 Rain 25 1017 78 16093 3.6 40 09:56 02.07.2020
571 Rain 25 1017 78 16093 3.6 40 09:37 02.07.2020
572 Rain 25 1017 78 16093 3.6 40 09:18 02.07.2020
573 Rain 25 1016 69 16093 3.6 10 08:42 02.07.2020
574 Rain 25 1016 69 16093 3.6 10 08:22 02.07.2020
575 Rain 26 1016 61 16093 6.7 50 07:43 02.07.2020
576 Rain 26 1016 61 16093 6.7 50 07:25 02.07.2020
577 Clouds 26 1015 65 16093 6.2 60 06:53 02.07.2020
578 Clouds 25 1015 65 16093 6.2 60 06:35 02.07.2020
579 Rain 27 1015 58 16093 6.2 30 05:50 02.07.2020
580 Rain 27 1015 58 16093 6.2 30 05:29 02.07.2020
581 Clouds 29 1016 48 16093 6.7 50 03:35 02.07.2020
582 Clouds 29 1016 43 16093 8.2 60 01:53 02.07.2020
583 Clouds 29 1017 40 16093 8.2 60 00:46 02.07.2020
584 Clouds 29 1017 40 16093 8.2 60 00:22 02.07.2020
585 Clouds 29 1017 40 16093 8.2 80 23:45 01.07.2020
586 Clouds 29 1017 40 16093 8.2 80 23:26 01.07.2020
587 Clouds 28 1017 51 16093 7.2 60 22:55 01.07.2020
588 Clouds 28 1017 51 16093 7.2 60 22:37 01.07.2020
589 Clouds 28 1017 51 16093 7.2 60 22:19 01.07.2020
590 Clouds 27 1017 54 16093 7.2 50 21:58 01.07.2020
591 Clouds 27 1017 54 16093 7.2 50 21:39 01.07.2020
592 Clouds 26 1017 54 16093 7.2 50 21:20 01.07.2020
593 Clouds 26 1017 54 16093 5.1 70 20:46 01.07.2020
594 Clouds 26 1017 54 16093 5.1 70 20:28 01.07.2020
595 Clouds 25 1017 57 16093 5.7 70 19:58 01.07.2020
596 Clouds 25 1017 57 16093 5.7 70 19:39 01.07.2020
597 Clouds 25 1017 57 16093 5.7 70 19:20 01.07.2020
598 Clouds 25 1016 65 16093 2.6 40 18:56 01.07.2020
599 Clouds 24 1016 65 16093 2.6 40 18:38 01.07.2020
600 Clouds 24 1016 65 16093 2.6 40 18:20 01.07.2020
601 Clouds 24 1016 61 16093 2.1 40 17:41 01.07.2020
602 Clouds 24 1016 61 16093 2.1 40 17:20 01.07.2020
603 Clouds 24 1016 65 16093 4.1 60 16:56 01.07.2020
604 Clouds 24 1016 65 16093 4.1 60 16:38 01.07.2020
605 Clouds 24 1016 65 16093 4.1 60 16:20 01.07.2020
606 Clouds 24 1016 61 16093 5.7 70 15:41 01.07.2020
607 Clouds 24 1016 61 16093 5.7 70 15:22 01.07.2020
608 Clouds 24 1016 61 16093 3.1 60 14:56 01.07.2020
609 Clouds 24 1016 61 16093 3.1 60 14:37 01.07.2020
610 Clouds 25 1016 61 16093 3.1 60 14:19 01.07.2020
611 Clouds 25 1016 61 16093 2.1 0 13:40 01.07.2020
612 Clouds 25 1016 61 16093 2.1 0 13:22 01.07.2020
613 Clouds 25 1017 61 16093 4.6 80 12:59 01.07.2020
614 Clouds 25 1017 61 16093 4.6 80 12:40 01.07.2020
615 Clouds 25 1017 61 16093 4.6 80 12:22 01.07.2020
616 Clouds 25 1017 65 16093 5.1 70 11:57 01.07.2020
617 Clouds 25 1017 65 16093 5.1 70 11:38 01.07.2020
618 Clouds 25 1017 65 16093 5.1 70 11:19 01.07.2020
619 Clouds 25 1017 61 16093 7.2 70 10:43 01.07.2020
620 Clouds 25 1017 61 16093 7.2 70 10:23 01.07.2020
621 Clouds 26 1017 61 16093 6.2 60 09:59 01.07.2020
622 Clouds 26 1017 61 16093 6.2 60 09:59 01.07.2020
623 Clouds 26 1017 61 16093 6.2 60 09:38 01.07.2020
624 Clouds 26 1017 61 16093 6.2 60 09:19 01.07.2020
625 Clouds 26 1016 61 16093 6.2 60 08:55 01.07.2020
626 Clouds 26 1016 61 16093 6.2 60 08:37 01.07.2020
627 Clouds 26 1016 61 16093 6.2 60 08:18 01.07.2020
628 Clouds 27 1016 58 16093 6.7 70 07:39 01.07.2020
629 Clouds 27 1016 58 16093 6.7 70 07:20 01.07.2020
630 Clouds 27 1015 51 16093 8.7 70 06:50 01.07.2020
631 Clouds 27 1015 51 16093 8.7 70 06:28 01.07.2020
632 Clouds 28 1015 48 16093 6.2 60 05:23 01.07.2020
633 Clouds 28 1015 43 16093 6.7 60 03:48 01.07.2020
634 Clouds 29 1015 43 16093 6.7 60 03:27 01.07.2020
635 Clouds 29 1015 45 16093 8.2 60 02:41 01.07.2020
636 Clouds 29 1015 45 16093 6.7 60 01:48 01.07.2020
637 Clouds 29 1016 45 16093 7.2 60 00:43 01.07.2020
638 Clouds 29 1016 45 16093 7.2 60 00:25 01.07.2020
639 Clouds 28 1016 45 16093 8.2 80 23:42 30.06.2020
640 Clouds 29 1016 45 16093 8.2 80 23:23 30.06.2020
641 Clouds 28 1016 51 16093 6.7 60 22:59 30.06.2020
642 Clouds 28 1016 51 16093 6.7 60 22:40 30.06.2020
643 Clouds 27 1016 51 16093 6.7 60 22:18 30.06.2020
644 Clouds 27 1016 58 16093 4.1 70 21:41 30.06.2020
645 Clouds 27 1016 58 16093 4.1 70 21:19 30.06.2020
646 Clouds 26 1016 61 16093 4.1 70 20:44 30.06.2020
647 Clouds 26 1016 61 16093 4.1 70 20:22 30.06.2020
648 Clouds 25 1016 65 16093 4.1 60 20:00 30.06.2020
649 Clouds 25 1016 65 16093 4.1 60 19:41 30.06.2020
650 Clouds 25 1016 65 16093 4.1 60 19:19 30.06.2020
651 Clouds 25 1016 69 16093 3.1 70 19:19 30.06.2020
652 Clouds 25 1016 69 16093 3.1 70 18:43 30.06.2020
653 Clouds 25 1016 69 16093 3.1 70 18:21 30.06.2020
654 Clouds 25 1015 65 16093 2.6 50 17:58 30.06.2020
655 Clouds 25 1015 65 16093 2.6 50 17:37 30.06.2020
656 Clouds 25 1015 65 16093 2.6 50 17:18 30.06.2020
657 Clouds 25 1015 65 16093 2.6 50 17:18 30.06.2020
658 Clouds 24 1015 69 16093 1.5 90 16:41 30.06.2020
659 Clouds 24 1015 69 16093 1.5 90 16:23 30.06.2020
660 Clouds 24 1015 69 16093 3.1 60 15:57 30.06.2020
661 Clouds 25 1015 69 16093 3.1 60 15:39 30.06.2020
662 Clouds 25 1015 69 16093 3.1 60 15:20 30.06.2020
663 Clouds 25 1016 65 16093 4.6 60 14:47 30.06.2020
664 Clouds 25 1016 65 16093 4.6 60 14:47 30.06.2020
665 Clouds 25 1016 65 16093 4.6 60 14:22 30.06.2020
666 Clouds 25 1016 65 16093 3.1 50 13:59 30.06.2020
667 Clouds 25 1016 65 16093 3.1 50 13:39 30.06.2020
668 Clouds 25 1016 65 16093 3.1 50 13:19 30.06.2020
669 Clouds 25 1016 65 16093 3.1 60 12:57 30.06.2020
670 Clouds 25 1016 65 16093 3.1 60 12:39 30.06.2020
671 Clouds 25 1016 65 16093 3.1 60 12:20 30.06.2020
672 Clouds 25 1016 65 16093 4.1 60 11:57 30.06.2020
673 Clouds 25 1016 65 16093 4.1 60 11:38 30.06.2020
674 Clouds 25 1016 65 16093 4.1 60 11:18 30.06.2020
675 Clouds 25 1016 65 16093 4.1 70 10:54 30.06.2020
676 Clouds 23 1014 69 16093 1.5 50 16:38 28.06.2020
677 Clouds 23 1014 69 16093 1.5 50 16:18 28.06.2020
678 Clouds 23 1015 73 16093 2.6 40 15:54 28.06.2020
679 Clouds 23 1015 73 16093 2.6 40 15:36 28.06.2020
680 Clouds 23 1015 73 16093 2.6 40 15:18 28.06.2020
681 Clouds 24 1015 69 16093 2.1 40 14:41 28.06.2020
682 Clouds 23 1015 69 16093 2.1 40 14:23 28.06.2020
683 Clouds 24 1015 69 16093 3.1 50 13:40 28.06.2020
684 Clouds 24 1015 69 16093 3.1 50 13:21 28.06.2020
685 Clouds 24 1016 69 16093 2.6 50 12:58 28.06.2020
686 Clouds 25 1016 69 16093 2.6 50 12:38 28.06.2020
687 Clouds 25 1016 69 16093 2.6 50 12:38 28.06.2020
688 Clouds 25 1016 69 16093 2.6 50 12:19 28.06.2020
689 Clouds 25 1016 65 16093 2.1 40 11:59 28.06.2020
690 Clouds 25 1016 65 16093 2.1 40 11:40 28.06.2020
691 Clouds 25 1016 65 16093 2.1 40 11:20 28.06.2020
692 Clouds 25 1017 65 16093 2.6 60 10:58 28.06.2020
693 Clouds 25 1017 65 16093 2.6 60 10:58 28.06.2020
694 Clouds 25 1017 65 16093 2.6 60 10:39 28.06.2020
695 Clouds 25 1017 65 16093 2.6 60 10:21 28.06.2020
696 Clouds 25 1017 65 16093 2.6 60 10:21 28.06.2020
697 Rain 25 1016 65 16093 3.6 50 09:41 28.06.2020
698 Rain 25 1016 65 16093 3.6 50 09:22 28.06.2020
699 Clouds 25 1016 65 16093 1.5 30 08:55 28.06.2020
700 Clouds 25 1016 65 16093 1.5 30 08:35 28.06.2020
701 Rain 26 1015 61 16093 4.6 40 07:55 28.06.2020
702 Rain 26 1015 61 16093 4.6 40 07:31 28.06.2020
703 Rain 26 1015 58 16093 7.7 60 06:55 28.06.2020
704 Rain 27 1015 58 16093 7.7 60 06:32 28.06.2020
705 Rain 27 1015 54 16093 6.2 50 05:30 28.06.2020
706 Clouds 28 1015 55 16093 5.1 30 03:52 28.06.2020
707 Clouds 29 1016 48 16093 6.7 10 02:51 28.06.2020
708 Clouds 29 1016 48 16093 6.7 10 02:19 28.06.2020
709 Clouds 28 1017 54 16093 4.1 10 01:27 28.06.2020
710 Clouds 28 1017 54 16093 2.1 10 00:51 28.06.2020
711 Clouds 28 1017 54 16093 2.1 10 00:27 28.06.2020
712 Clouds 28 1017 51 16093 4.6 70 23:43 27.06.2020
713 Clouds 28 1017 51 16093 4.6 70 23:24 27.06.2020
714 Clouds 28 1018 51 16093 5.7 50 22:59 27.06.2020
715 Clouds 28 1018 51 16093 5.7 50 22:40 27.06.2020
716 Clouds 28 1018 51 16093 5.7 50 22:40 27.06.2020
717 Clouds 28 1018 51 16093 5.7 50 22:22 27.06.2020
718 Clouds 27 1018 58 16093 2.1 60 21:56 27.06.2020
719 Clouds 27 1018 58 16093 2.1 60 21:38 27.06.2020
720 Clouds 27 1018 58 16093 2.1 60 21:19 27.06.2020
721 Clouds 25 1018 65 16093 2.6 30 20:44 27.06.2020
722 Clouds 25 1018 65 16093 2.6 30 20:19 27.06.2020
723 Rain 24 1018 73 12874 2.6 50 19:56 27.06.2020
724 Rain 24 1018 73 12874 2.6 50 19:37 27.06.2020
725 Rain 24 1018 73 12874 2.6 50 19:18 27.06.2020
726 Clouds 24 1018 73 16093 2.6 50 18:46 27.06.2020
727 Clouds 24 1018 73 16093 2.6 50 18:28 27.06.2020
728 Clouds 24 1017 73 16093 5.1 60 17:57 27.06.2020
729 Clouds 24 1017 73 16093 5.1 60 17:38 27.06.2020
730 Clouds 24 1017 73 16093 5.1 60 17:19 27.06.2020
731 Clouds 24 1017 78 16093 2.6 30 16:46 27.06.2020
732 Clouds 24 1017 78 16093 2.6 30 16:27 27.06.2020
733 Clouds 24 1018 78 16093 4.6 50 15:55 27.06.2020
734 Clouds 24 1018 78 16093 4.6 50 15:55 27.06.2020
735 Clouds 24 1018 78 16093 4.6 50 15:37 27.06.2020
736 Clouds 24 1018 78 16093 4.6 50 15:18 27.06.2020
737 Clouds 25 1018 65 16093 2.6 50 14:41 27.06.2020
738 Clouds 24 1018 65 16093 2.6 50 14:23 27.06.2020
739 Clouds 24 1018 69 16093 1.5 20 13:57 27.06.2020
740 Clouds 24 1018 69 16093 1.5 20 13:37 27.06.2020
741 Clouds 24 1018 69 16093 1.5 20 13:19 27.06.2020
742 Clouds 24 1018 69 16093 1.5 20 13:19 27.06.2020
743 Clouds 25 1019 65 16093 6.2 70 12:56 27.06.2020
744 Clouds 25 1019 65 16093 6.2 70 12:37 27.06.2020
745 Clouds 25 1019 65 16093 6.2 70 12:19 27.06.2020
746 Clouds 25 1019 65 16093 5.7 70 11:41 27.06.2020
747 Clouds 25 1019 65 16093 5.7 70 11:23 27.06.2020
748 Clear 25 1018 65 16093 6.2 60 10:57 27.06.2020
749 Clear 25 1018 65 16093 6.2 60 10:38 27.06.2020
750 Clear 25 1018 65 16093 6.2 60 10:18 27.06.2020
751 Clouds 26 1018 61 16093 6.7 50 09:41 27.06.2020
752 Clouds 26 1018 61 16093 6.7 50 09:21 27.06.2020
753 Clouds 26 1018 57 16093 7.7 60 08:46 27.06.2020
754 Clouds 26 1018 57 16093 7.7 60 08:23 27.06.2020
755 Clouds 26 1018 54 16093 7.2 70 07:50 27.06.2020
756 Clouds 26 1018 54 16093 7.2 70 07:30 27.06.2020
757 Clouds 27 1017 51 16093 8.2 60 06:55 27.06.2020
758 Clouds 27 1017 51 16093 8.2 60 06:34 27.06.2020
759 Clouds 28 1017 51 16093 7.2 60 05:31 27.06.2020
760 Clouds 28 1017 43 16093 7.2 60 04:19 27.06.2020
761 Clouds 28 1017 43 16093 8.7 60 03:51 27.06.2020
762 Clouds 29 1017 40 16093 8.7 70 02:45 27.06.2020
763 Clouds 29 1017 40 16093 8.7 70 02:26 27.06.2020
764 Clouds 29 1017 43 16093 6.7 70 01:37 27.06.2020
765 Clouds 29 1018 45 16093 5.7 60 00:49 27.06.2020
766 Clouds 29 1018 45 16093 7.2 60 23:56 26.06.2020
767 Clouds 28 1018 45 16093 7.2 60 23:37 26.06.2020
768 Clouds 29 1018 45 16093 7.2 60 23:19 26.06.2020
769 Clouds 28 1018 48 16093 8.2 60 22:42 26.06.2020
770 Clouds 28 1018 48 16093 8.2 60 22:24 26.06.2020
771 Clouds 27 1018 54 16093 6.7 80 21:58 26.06.2020
772 Clouds 27 1018 54 16093 6.7 80 21:39 26.06.2020
773 Clouds 27 1018 54 16093 6.7 80 21:21 26.06.2020
774 Clouds 27 1018 51 16093 4.6 90 20:58 26.06.2020
775 Clouds 26 1018 51 16093 4.6 90 20:37 26.06.2020
776 Clouds 26 1018 61 16093 4.1 60 20:18 26.06.2020
777 Clouds 26 1018 61 16093 4.1 60 19:40 26.06.2020
778 Clouds 25 1018 61 16093 4.1 60 19:20 26.06.2020
779 Clouds 24 1017 65 16093 3.1 90 18:42 26.06.2020
780 Clouds 24 1017 65 16093 3.1 90 18:23 26.06.2020
781 Clouds 25 1017 65 16093 5.7 60 17:46 26.06.2020
782 Clouds 25 1017 65 16093 5.7 60 17:28 26.06.2020
783 Clouds 24 1017 69 16093 4.1 70 16:59 26.06.2020
784 Clouds 24 1017 69 16093 4.1 70 16:41 26.06.2020
785 Clouds 24 1017 69 16093 4.1 70 16:22 26.06.2020
786 Clouds 25 1017 65 16093 5.7 60 15:41 26.06.2020
787 Clouds 25 1017 65 16093 5.7 60 15:21 26.06.2020
788 Clouds 25 1017 65 16093 5.7 80 14:58 26.06.2020
789 Clouds 25 1017 65 16093 5.7 80 14:39 26.06.2020
790 Clouds 25 1017 65 16093 5.7 80 14:21 26.06.2020
791 Clouds 25 1017 65 16093 4.1 60 13:45 26.06.2020
792 Clouds 25 1017 65 16093 4.1 60 13:24 26.06.2020
793 Clouds 25 1018 65 16093 5.7 50 12:56 26.06.2020
794 Clouds 25 1018 65 16093 5.7 50 12:38 26.06.2020
795 Clouds 25 1018 65 16093 6.7 80 12:19 26.06.2020
796 Clouds 25 1018 65 16093 6.7 80 11:56 26.06.2020
797 Clouds 25 1018 65 16093 6.7 80 11:38 26.06.2020
798 Clouds 25 1018 65 16093 6.7 80 11:19 26.06.2020
799 Clouds 25 1018 61 16093 6.2 70 10:56 26.06.2020
800 Clouds 25 1018 61 16093 6.2 70 10:37 26.06.2020
801 Clouds 25 1018 61 16093 6.2 70 10:37 26.06.2020
802 Clouds 25 1018 61 16093 6.2 70 10:18 26.06.2020
803 Clear 25 1017 61 16093 5.7 80 09:41 26.06.2020
804 Clear 25 1017 61 16093 5.7 80 09:20 26.06.2020
805 Clouds 26 1016 57 16093 6.7 60 08:46 26.06.2020
806 Clouds 26 1016 57 16093 6.7 60 08:27 26.06.2020
807 Clouds 26 1016 61 16093 6.7 70 07:48 26.06.2020
808 Clouds 26 1016 61 16093 6.7 70 07:23 26.06.2020
809 Clear 26 1016 58 16093 6.2 50 06:49 26.06.2020
810 Clear 27 1016 58 16093 6.2 50 06:30 26.06.2020
811 Clouds 27 1015 51 16093 7.2 50 05:52 26.06.2020
812 Clouds 28 1015 51 16093 7.2 50 05:18 26.06.2020
813 Clouds 28 1016 48 16093 7.2 50 02:32 26.06.2020
814 Clouds 29 1016 48 16093 8.2 40 01:34 26.06.2020
815 Clouds 29 1017 48 16093 7.7 70 00:46 26.06.2020
816 Clouds 28 1017 48 16093 7.7 70 00:27 26.06.2020
817 Clouds 28 1017 58 16093 4.6 90 23:47 25.06.2020
818 Clouds 28 1017 58 16093 4.6 90 23:22 25.06.2020
819 Clouds 28 1017 58 16093 4.6 90 23:22 25.06.2020
820 Clouds 27 1017 58 16093 4.6 80 22:58 25.06.2020
821 Clouds 27 1017 58 16093 4.6 80 22:39 25.06.2020
822 Clouds 27 1017 58 16093 4.6 80 22:20 25.06.2020
823 Clouds 26 1017 65 16093 4.6 90 21:57 25.06.2020
824 Clouds 26 1017 65 16093 4.6 90 21:39 25.06.2020
825 Clouds 26 1017 65 16093 4.6 90 21:20 25.06.2020
826 Clouds 25 1017 74 16093 2.1 30 20:55 25.06.2020
827 Clouds 25 1017 74 16093 2.1 30 20:37 25.06.2020
828 Clouds 25 1017 74 16093 2.1 30 20:19 25.06.2020
829 Clouds 25 1017 78 16093 3.1 70 19:41 25.06.2020
830 Clouds 24 1016 78 16093 4.6 70 19:19 25.06.2020
831 Clouds 24 1016 78 16093 4.6 70 18:58 25.06.2020
832 Clouds 24 1016 78 16093 4.6 70 18:38 25.06.2020
833 Clouds 24 1016 78 16093 4.6 70 18:19 25.06.2020
834 Clouds 24 1016 83 16093 3.1 60 17:42 25.06.2020
835 Clouds 24 1016 83 16093 3.1 60 17:20 25.06.2020
836 Clouds 24 1016 83 16093 3.1 60 17:20 25.06.2020
837 Rain 24 1016 78 16093 4.1 60 16:57 25.06.2020
838 Rain 24 1016 78 16093 4.1 60 16:57 25.06.2020
839 Rain 24 1016 78 16093 4.1 60 16:37 25.06.2020
840 Rain 24 1016 78 16093 4.1 60 16:18 25.06.2020
841 Clouds 24 1016 78 16093 1.5 360 15:41 25.06.2020
842 Clouds 24 1016 78 16093 1.5 360 15:21 25.06.2020
843 Clouds 24 1016 73 16093 1.5 30 14:44 25.06.2020
844 Clouds 24 1016 73 16093 1.5 30 14:25 25.06.2020
845 Clouds 23 1017 78 16093 2.1 70 13:57 25.06.2020
846 Clouds 24 1017 78 16093 2.1 70 13:38 25.06.2020
847 Clouds 24 1017 78 16093 2.1 70 13:38 25.06.2020
848 Clouds 24 1017 78 16093 2.1 70 13:19 25.06.2020
849 Clouds 24 1017 78 16093 2.6 90 12:45 25.06.2020
850 Clouds 24 1017 78 16093 2.6 90 12:21 25.06.2020
851 Clouds 25 1017 74 16093 1.5 130 11:58 25.06.2020
852 Clouds 25 1017 74 16093 1.5 130 11:40 25.06.2020
853 Clouds 25 1017 74 16093 1.5 130 11:21 25.06.2020
854 Rain 25 1016 74 16093 2.37 100 10:42 25.06.2020
855 Rain 25 1016 74 16093 2.97 86 10:23 25.06.2020
856 Clouds 25 1016 69 16093 4.1 60 09:41 25.06.2020
857 Clouds 25 1016 69 16093 4.1 60 09:23 25.06.2020
858 Clouds 25 1016 65 16093 6.2 60 08:49 25.06.2020
859 Clouds 25 1016 65 16093 6.2 60 08:21 25.06.2020
860 Rain 25 1015 65 16093 4.6 70 07:57 25.06.2020
861 Rain 25 1015 65 16093 4.6 70 07:38 25.06.2020
862 Rain 25 1015 65 16093 4.6 70 07:38 25.06.2020
863 Rain 26 1015 58 16093 6.2 30 07:20 25.06.2020
864 Rain 27 1015 58 16093 6.2 30 06:30 25.06.2020
865 Rain 27 1015 54 16093 8.2 60 05:55 25.06.2020
866 Clouds 27 1015 54 16093 8.2 60 05:25 25.06.2020
867 Rain 28 1015 48 14484 6.7 50 03:36 25.06.2020
868 Clouds 29 1015 43 16093 4.6 30 02:44 25.06.2020
869 Clouds 30 1015 43 16093 4.6 30 02:19 25.06.2020
870 Clouds 28 1015 61 16093 4.6 150 01:34 25.06.2020
871 Rain 28 1016 65 16093 7.7 140 00:47 25.06.2020
872 Rain 28 1016 65 16093 7.7 140 00:22 25.06.2020
873 Clouds 28 1016 54 16093 6.7 130 23:58 24.06.2020
874 Clouds 28 1016 54 16093 6.7 130 23:37 24.06.2020
875 Clouds 28 1016 54 16093 6.7 130 23:18 24.06.2020
876 Clouds 28 1016 54 16093 4.6 110 22:41 24.06.2020
877 Clouds 28 1016 54 16093 4.6 110 22:20 24.06.2020
878 Clouds 27 1016 57 16093 2.1 110 21:56 24.06.2020
879 Clouds 27 1016 57 16093 2.1 110 21:37 24.06.2020
880 Clouds 27 1016 57 16093 2.1 110 21:19 24.06.2020
881 Clouds 27 1016 57 16093 3.1 70 20:58 24.06.2020
882 Clouds 26 1016 57 16093 3.1 70 20:39 24.06.2020
883 Clouds 26 1016 57 16093 3.1 70 20:20 24.06.2020
884 Clouds 26 1016 61 16093 2.1 60 19:57 24.06.2020
885 Clouds 25 1016 61 16093 2.1 60 19:37 24.06.2020
886 Clouds 25 1015 69 16093 1.5 50 19:18 24.06.2020
887 Clouds 24 1015 69 16093 1.5 50 18:57 24.06.2020
888 Clouds 24 1015 69 16093 1.5 50 18:38 24.06.2020
889 Clouds 24 1015 69 16093 1.5 50 18:20 24.06.2020
890 Clouds 24 1015 69 16093 3.1 40 17:43 24.06.2020
891 Clouds 24 1015 69 16093 3.1 40 17:21 24.06.2020
892 Clouds 24 1015 65 16093 3.6 70 16:59 24.06.2020
893 Clouds 24 1015 65 16093 3.6 70 16:40 24.06.2020
894 Clouds 24 1015 65 16093 3.6 70 16:22 24.06.2020
895 Clouds 24 1015 65 16093 3.1 60 15:59 24.06.2020
896 Clouds 24 1015 65 16093 3.1 60 15:39 24.06.2020
897 Clouds 24 1015 65 16093 3.1 60 15:20 24.06.2020
898 Clouds 24 1015 65 16093 3.6 50 14:54 24.06.2020
899 Clouds 24 1015 65 16093 3.6 50 14:36 24.06.2020
900 Clouds 24 1015 65 16093 3.6 50 14:18 24.06.2020
901 Clouds 24 1016 65 16093 4.1 70 13:41 24.06.2020
902 Clouds 24 1016 65 16093 4.1 70 13:20 24.06.2020
903 Clouds 24 1016 65 16093 4.6 60 12:42 24.06.2020
904 Clouds 25 1016 65 16093 4.6 60 12:21 24.06.2020
905 Clouds 25 1017 61 16093 4.6 50 11:57 24.06.2020
906 Clouds 25 1017 61 16093 4.6 50 11:39 24.06.2020
907 Clouds 25 1017 61 16093 4.6 50 11:21 24.06.2020
908 Clouds 25 1017 61 16093 6.2 70 10:44 24.06.2020
909 Clouds 25 1017 61 16093 6.2 70 10:19 24.06.2020
910 Clouds 25 1016 61 16093 5.7 70 09:45 24.06.2020
911 Clouds 25 1016 61 16093 5.7 70 09:23 24.06.2020
912 Clouds 25 1016 61 16093 4.6 50 08:54 24.06.2020
913 Clouds 25 1016 61 16093 4.6 50 08:36 24.06.2020
914 Clouds 25 1016 57 16093 5.1 80 08:18 24.06.2020
915 Clouds 26 1016 57 16093 5.1 80 07:42 24.06.2020
916 Clouds 26 1015 54 16093 6.2 60 07:23 24.06.2020
917 Clouds 26 1015 54 16093 6.2 60 06:40 24.06.2020
918 Clouds 26 1015 54 16093 5.7 60 06:22 24.06.2020
919 Clouds 27 1015 54 16093 5.7 60 05:38 24.06.2020
920 Clouds 28 1015 48 16093 6.7 60 04:38 24.06.2020
921 Rain 28 1015 45 16093 6.7 90 03:37 24.06.2020
922 Clouds 28 1016 48 16093 5.1 90 02:53 24.06.2020
923 Clouds 28 1016 48 16093 5.7 110 01:59 24.06.2020
924 Clouds 28 1016 48 16093 5.1 90 00:50 24.06.2020
925 Clouds 28 1016 48 16093 5.1 90 00:31 24.06.2020
926 Clouds 28 1017 48 16093 5.7 70 23:46 23.06.2020
927 Clouds 28 1017 48 16093 5.7 70 23:21 23.06.2020
928 Clouds 27 1017 48 16093 7.2 70 22:57 23.06.2020
929 Clouds 27 1017 48 16093 7.2 70 22:38 23.06.2020
930 Clouds 28 1017 48 16093 7.2 70 22:18 23.06.2020
931 Clouds 27 1017 51 16093 6.2 70 21:42 23.06.2020
932 Clouds 27 1017 51 16093 6.2 70 21:20 23.06.2020
933 Clouds 26 1017 61 16093 2.1 0 20:56 23.06.2020
934 Clouds 26 1017 61 16093 2.1 0 20:37 23.06.2020
935 Clouds 24 1016 73 16093 4.86 82 20:19 23.06.2020
936 Clouds 25 1016 73 16093 4.86 82 19:49 23.06.2020
937 Clouds 24 1016 73 16093 4.28 80 19:28 23.06.2020
938 Clouds 23 1016 73 16093 1.5 60 18:42 23.06.2020
939 Clear 23 1016 73 16093 1.5 40 18:19 23.06.2020
940 Clear 23 1016 73 16093 1.5 40 17:59 23.06.2020
941 Clear 23 1016 73 16093 1.5 40 17:39 23.06.2020
942 Clear 23 1016 73 16093 1.5 40 17:21 23.06.2020
943 Clouds 23 1016 69 16093 3.67 80 16:56 23.06.2020
944 Clouds 23 1016 69 16093 3.67 80 16:37 23.06.2020
945 Clouds 23 1016 69 16093 3.67 80 16:18 23.06.2020
946 Clouds 23 1016 69 16093 3.67 80 16:18 23.06.2020
947 Clouds 23 1016 73 16093 3.1 60 15:45 23.06.2020
948 Clouds 23 1016 73 16093 3.1 60 15:25 23.06.2020
949 Clouds 23 1016 69 16093 2.1 0 14:58 23.06.2020
950 Clouds 23 1016 69 16093 2.1 0 14:40 23.06.2020
951 Clouds 23 1017 69 16093 5.1 80 14:18 23.06.2020
952 Clouds 23 1017 69 16093 5.1 80 14:18 23.06.2020
953 Clouds 24 1017 69 16093 5.1 80 13:55 23.06.2020
954 Clouds 24 1017 69 16093 5.1 80 13:55 23.06.2020
955 Clouds 24 1017 69 16093 5.1 80 13:37 23.06.2020
956 Clouds 24 1017 65 16093 3.6 50 13:19 23.06.2020
957 Clouds 24 1017 65 16093 3.6 50 12:40 23.06.2020
958 Clouds 24 1017 65 16093 3.6 50 12:22 23.06.2020
959 Clouds 24 1018 65 16093 2.6 60 11:44 23.06.2020
960 Clouds 24 1018 65 16093 2.6 60 11:44 23.06.2020
961 Clouds 24 1018 65 16093 2.6 60 11:23 23.06.2020
962 Clouds 25 1018 61 16093 3.6 70 10:59 23.06.2020
963 Clouds 25 1018 61 16093 3.6 70 10:41 23.06.2020
964 Clouds 25 1018 61 16093 3.6 70 10:22 23.06.2020
965 Clouds 25 1017 61 16093 5.1 70 09:57 23.06.2020
966 Clouds 25 1017 61 16093 5.1 70 09:57 23.06.2020
967 Clouds 25 1017 61 16093 5.1 70 09:38 23.06.2020
968 Clouds 25 1017 61 16093 5.1 70 09:20 23.06.2020
969 Clouds 25 1016 61 16093 4.6 80 08:46 23.06.2020
970 Clouds 25 1016 61 16093 4.6 80 08:26 23.06.2020
971 Clouds 26 1016 54 16093 6.2 90 07:49 23.06.2020
972 Clouds 26 1016 54 16093 6.2 90 07:24 23.06.2020
973 Clouds 26 1016 51 16093 7.7 90 06:53 23.06.2020
974 Clouds 26 1016 51 16093 7.7 90 06:32 23.06.2020
975 Clouds 27 1016 48 16093 6.7 80 05:56 23.06.2020
976 Clouds 28 1016 42 16093 5.1 60 04:53 23.06.2020
977 Clouds 28 1016 42 16093 6.2 70 03:21 23.06.2020
978 Clouds 28 1016 42 16093 7.7 50 02:48 23.06.2020
979 Clouds 28 1016 42 16093 7.7 50 02:29 23.06.2020
980 Clouds 28 1017 42 16093 7.2 70 01:46 23.06.2020
981 Clouds 28 1017 42 16093 7.2 70 01:22 23.06.2020
982 Clouds 29 1017 40 16093 6.7 70 00:41 23.06.2020
983 Clouds 28 1018 45 16093 5.1 40 00:20 23.06.2020
984 Clouds 28 1018 45 16093 5.1 40 23:40 22.06.2020
985 Clouds 28 1018 45 16093 5.1 40 23:19 22.06.2020
986 Clouds 28 1018 48 16093 5.7 40 22:59 22.06.2020
987 Clouds 28 1018 48 16093 5.7 40 22:41 22.06.2020
988 Clouds 27 1018 48 16093 5.7 40 22:20 22.06.2020
989 Clouds 27 1018 54 16093 5.1 100 21:59 22.06.2020
990 Clouds 27 1018 54 16093 5.1 100 21:40 22.06.2020
991 Clouds 26 1018 54 16093 5.1 100 21:21 22.06.2020
992 Clouds 26 1017 57 16093 6.7 60 20:58 22.06.2020
993 Clouds 26 1017 57 16093 6.7 60 20:39 22.06.2020
994 Clouds 26 1017 57 16093 6.7 60 20:20 22.06.2020
995 Clouds 25 1017 61 16093 3.1 40 19:44 22.06.2020
996 Clouds 25 1017 61 16093 3.1 40 19:19 22.06.2020
997 Clouds 24 1016 69 16093 2.6 40 18:56 22.06.2020
998 Clouds 24 1016 69 16093 2.6 40 18:36 22.06.2020
999 Clouds 24 1016 69 16093 2.6 40 18:18 22.06.2020
1000 Clouds 24 1016 69 16093 2.1 90 17:55 22.06.2020
1001 Clouds 23 1016 69 16093 2.1 90 17:36 22.06.2020
1002 Clouds 24 1017 65 16093 4.6 60 17:18 22.06.2020
1003 Rain 24 1017 65 16093 4.6 60 16:41 22.06.2020
1004 Rain 23 1016 69 16093 3.1 90 16:18 22.06.2020
1005 Rain 23 1016 69 16093 3.1 90 15:55 22.06.2020
1006 Clouds 23 1016 69 16093 3.1 90 15:37 22.06.2020
1007 Clouds 23 1016 69 16093 3.1 90 15:19 22.06.2020
1008 Clouds 24 1017 69 16093 1.5 20 14:39 22.06.2020
1009 Clouds 24 1017 69 16093 1.5 20 14:20 22.06.2020
1010 Clear 24 1017 65 16093 5.1 80 13:56 22.06.2020
1011 Clear 24 1017 65 16093 5.1 80 13:37 22.06.2020
1012 Clear 24 1017 65 16093 5.1 80 13:19 22.06.2020
1013 Clouds 24 1018 65 16093 3.1 40 12:41 22.06.2020
1014 Clouds 24 1018 65 16093 3.1 40 12:22 22.06.2020
1015 Clouds 24 1018 65 16093 3.6 80 11:39 22.06.2020
1016 Clouds 24 1018 65 16093 3.6 80 11:20 22.06.2020
1017 Clouds 24 1018 65 16093 3.6 70 10:57 22.06.2020
1018 Clouds 24 1018 65 16093 3.6 70 10:57 22.06.2020
1019 Clouds 24 1018 65 16093 3.6 70 10:39 22.06.2020
1020 Clouds 24 1018 65 16093 3.6 70 10:19 22.06.2020
1021 Clouds 25 1018 61 16093 4.6 80 09:59 22.06.2020
1022 Clouds 25 1018 61 16093 4.6 80 09:41 22.06.2020
1023 Clouds 25 1018 61 16093 4.6 80 09:20 22.06.2020
1024 Clouds 26 1017 61 16093 4.6 70 08:57 22.06.2020
1025 Clouds 26 1017 61 16093 4.6 70 08:38 22.06.2020
1026 Clouds 26 1017 57 16093 5.1 60 08:19 22.06.2020
1027 Clouds 27 1017 57 16093 5.1 60 07:50 22.06.2020
1028 Clouds 26 1017 57 16093 5.1 60 07:31 22.06.2020
1029 Clouds 27 1017 54 16093 5.1 40 06:44 22.06.2020
1030 Clouds 27 1017 54 16093 5.1 40 06:25 22.06.2020
1031 Rain 27 1016 48 16093 4.6 80 05:43 22.06.2020
1032 Rain 28 1017 45 16093 7.7 90 03:48 22.06.2020
1033 Rain 28 1017 51 16093 5.7 60 02:28 22.06.2020
1034 Clouds 28 1018 45 16093 6.7 40 01:18 22.06.2020
1035 Clouds 28 1018 45 16093 6.7 40 00:39 22.06.2020
1036 Rain 28 1018 51 16093 4.6 70 23:58 21.06.2020
1037 Rain 28 1018 51 16093 4.6 70 23:39 21.06.2020
1038 Rain 28 1018 51 16093 4.6 70 23:39 21.06.2020
1039 Clouds 28 1018 48 16093 6.7 40 23:20 21.06.2020
1040 Clouds 28 1018 48 16093 6.7 40 22:56 21.06.2020
1041 Clouds 27 1018 48 16093 6.7 40 22:37 21.06.2020
1042 Clouds 27 1018 48 16093 6.7 40 22:19 21.06.2020
1043 Clouds 27 1018 48 16093 6.7 40 22:19 21.06.2020
1044 Clouds 27 1018 54 16093 4.6 70 21:56 21.06.2020
1045 Clouds 27 1018 54 16093 4.6 70 21:56 21.06.2020
1046 Clouds 27 1018 54 16093 4.6 70 21:37 21.06.2020
1047 Clouds 26 1018 65 16093 4.6 60 21:19 21.06.2020
1048 Clouds 25 1018 65 16093 4.6 60 20:57 21.06.2020
1049 Clouds 25 1018 65 16093 4.6 60 20:36 21.06.2020
1050 Clouds 25 1017 73 16093 2.1 40 20:18 21.06.2020
1051 Clouds 24 1017 73 16093 2.1 40 19:41 21.06.2020
1052 Clouds 24 1017 73 16093 2.1 40 19:22 21.06.2020
1053 Clouds 23 1017 73 16093 4.6 60 18:57 21.06.2020
1054 Clouds 23 1017 73 16093 4.6 60 18:39 21.06.2020
1055 Clouds 23 1017 78 16093 2.1 30 18:21 21.06.2020
1056 Clouds 23 1017 78 16093 2.1 30 17:56 21.06.2020
1057 Clouds 23 1017 78 16093 2.1 30 17:38 21.06.2020
1058 Rain 23 1017 78 12874 3.6 110 17:19 21.06.2020
1059 Rain 23 1017 78 12874 3.6 110 16:40 21.06.2020
1060 Rain 23 1017 78 12874 3.6 110 16:22 21.06.2020
1061 Rain 23 1017 73 16093 5.1 50 15:42 21.06.2020
1062 Rain 23 1017 73 16093 5.1 50 15:24 21.06.2020
1063 -273 0 0 0 0 0 14:59 21.06.2020
1064 Clouds 23 1017 73 16093 4.1 50 14:38 21.06.2020
1065 Clouds 23 1017 73 16093 4.1 50 14:20 21.06.2020
1066 Clouds 23 1018 73 16093 4.1 50 13:56 21.06.2020
1067 Clouds 23 1018 73 16093 4.1 50 13:56 21.06.2020
1068 Clouds 23 1018 73 16093 4.1 50 13:38 21.06.2020
1069 Clouds 24 1018 69 16093 3.6 50 13:18 21.06.2020
1070 Clouds 24 1018 69 16093 3.6 50 12:43 21.06.2020
1071 Clouds 24 1018 69 16093 3.6 50 12:24 21.06.2020
1072 Clouds 24 1019 69 16093 4.1 60 11:54 21.06.2020
1073 Clouds 24 1019 69 16093 4.1 60 11:36 21.06.2020
1074 Clouds 24 1019 69 16093 4.1 70 11:18 21.06.2020
1075 Clouds 24 1019 69 16093 4.1 70 10:41 21.06.2020
1076 Clouds 25 1019 69 16093 4.1 70 10:23 21.06.2020
1077 Rain 25 1018 69 16093 4.6 80 09:58 21.06.2020
1078 Rain 25 1018 69 16093 4.6 80 09:37 21.06.2020
1079 Rain 25 1018 69 16093 5.7 80 09:18 21.06.2020
1080 Rain 25 1018 69 16093 5.7 80 08:55 21.06.2020
1081 Rain 25 1018 69 16093 5.7 80 08:55 21.06.2020
1082 Rain 25 1018 69 16093 5.7 80 08:37 21.06.2020
1083 Clouds 25 1017 65 16093 4.6 60 08:18 21.06.2020
1084 Clouds 25 1017 65 16093 4.6 60 07:41 21.06.2020
1085 Clouds 25 1017 65 16093 4.6 60 07:21 21.06.2020
1086 Rain 25 1017 69 16093 4.1 80 06:48 21.06.2020
1087 Clouds 26 1017 54 16093 6.2 60 05:59 21.06.2020
1088 Clouds 27 1017 54 16093 6.2 60 05:25 21.06.2020
1089 Clouds 27 1017 48 16093 6.7 50 03:21 21.06.2020
1090 Clouds 28 1017 48 16093 6.7 50 02:54 21.06.2020
1091 Clouds 28 1017 48 16093 8.7 70 01:49 21.06.2020
1092 Clouds 28 1017 48 16093 8.7 70 01:21 21.06.2020
1093 Clouds 28 1017 48 16093 9.8 80 00:55 21.06.2020
1094 Clouds 28 1017 48 16093 9.8 80 00:37 21.06.2020
1095 Rain 27 1018 61 16093 7.2 60 00:18 21.06.2020
1096 Rain 27 1018 61 16093 7.2 60 23:43 20.06.2020
1097 Rain 27 1017 61 16093 5.7 100 23:21 20.06.2020
1098 Rain 26 1017 61 16093 5.7 100 22:55 20.06.2020
1099 Rain 26 1017 61 16093 5.7 100 22:37 20.06.2020
1100 Clouds 26 1017 57 16093 6.7 60 22:18 20.06.2020
1101 Clouds 26 1017 57 16093 6.7 60 22:18 20.06.2020
1102 Clouds 26 1017 57 16093 6.7 60 21:55 20.06.2020
1103 Clouds 26 1017 57 16093 6.7 60 21:37 20.06.2020
1104 Clouds 25 1017 57 16093 6.7 60 21:19 20.06.2020
1105 Clouds 25 1017 65 16093 4.6 60 20:55 20.06.2020
1106 Clouds 25 1017 65 16093 4.6 60 20:37 20.06.2020
1107 Clouds 25 1017 65 16093 4.6 60 20:19 20.06.2020
1108 Rain 24 1017 73 16093 4.6 60 19:42 20.06.2020
1109 Rain 24 1017 73 16093 4.6 60 19:22 20.06.2020
1110 Clouds 24 1017 73 16093 4.6 50 18:43 20.06.2020
1111 Clouds 24 1017 73 16093 4.6 50 18:21 20.06.2020
1112 Clouds 23 1016 78 16093 2.6 20 17:59 20.06.2020
1113 Clouds 23 1016 78 16093 2.6 20 17:40 20.06.2020
1114 Clouds 23 1016 78 16093 6.59 78 17:21 20.06.2020
1115 Clouds 23 1016 78 16093 6.59 78 17:21 20.06.2020
1116 Clouds 22 1016 78 16093 6.59 78 16:56 20.06.2020
1117 Clouds 22 1016 78 16093 6.59 78 16:38 20.06.2020
1118 Clouds 23 1017 73 16093 3.1 70 16:18 20.06.2020
1119 Rain 23 1017 73 16093 3.1 70 15:42 20.06.2020
1120 Rain 24 1017 69 16093 4.1 50 15:18 20.06.2020
1121 Rain 24 1017 69 16093 4.1 50 14:43 20.06.2020
1122 Rain 24 1017 69 16093 4.1 50 14:22 20.06.2020
1123 Rain 24 1017 65 16093 3.1 30 13:55 20.06.2020
1124 Rain 24 1017 65 16093 3.1 30 13:37 20.06.2020
1125 Clouds 25 1018 65 16093 5.1 50 13:19 20.06.2020
1126 Clouds 25 1018 65 16093 5.1 50 12:42 20.06.2020
1127 Rain 24 1018 69 16093 7.2 60 12:21 20.06.2020
1128 Rain 24 1018 69 16093 7.2 60 11:57 20.06.2020
1129 Rain 24 1018 69 16093 7.2 60 11:38 20.06.2020
1130 Rain 25 1018 69 16093 7.2 60 11:20 20.06.2020
1131 Rain 25 1018 69 16093 7.2 60 11:20 20.06.2020
1132 Clouds 24 1017 61 16093 5.7 60 10:50 20.06.2020
1133 Clouds 25 1017 61 16093 5.7 60 10:22 20.06.2020
1134 Rain 25 1017 61 16093 7.2 60 09:56 20.06.2020
1135 Rain 25 1017 61 16093 7.2 60 09:38 20.06.2020
1136 Clouds 25 1017 61 16093 6.7 60 09:20 20.06.2020
1137 Clouds 25 1017 61 16093 6.7 60 08:46 20.06.2020
1138 Clouds 25 1017 61 16093 6.7 60 08:27 20.06.2020
1139 Clouds 26 1017 54 16093 6.7 60 07:52 20.06.2020
1140 Clouds 26 1017 54 16093 6.7 60 07:28 20.06.2020
1141 Clouds 26 1016 57 16093 4.6 50 06:56 20.06.2020
1142 Clouds 26 1016 57 16093 4.6 50 06:23 20.06.2020
1143 Clouds 27 1016 51 16093 9.3 60 05:52 20.06.2020
1144 Clouds 27 1016 51 16093 9.3 60 04:58 20.06.2020
1145 Clouds 27 1017 54 16093 6.2 40 02:27 20.06.2020
1146 Rain 27 1018 54 16093 6.7 30 01:48 20.06.2020
1147 Clouds 27 1018 48 16093 8.7 60 00:55 20.06.2020
1148 Clouds 27 1018 48 16093 8.7 60 00:21 20.06.2020
1149 Clouds 27 1019 54 16093 7.7 70 23:55 19.06.2020
1150 Clouds 27 1019 54 16093 7.7 70 23:37 19.06.2020
1151 Clouds 26 1019 54 16093 7.7 70 23:18 19.06.2020
1152 Clouds 26 1019 54 16093 7.7 70 22:40 19.06.2020
1153 Clouds 26 1019 54 16093 7.7 70 22:22 19.06.2020
1154 Clouds 25 1019 61 16093 7.2 60 21:58 19.06.2020
1155 Clouds 25 1019 61 16093 7.2 60 21:38 19.06.2020
1156 Rain 25 1019 65 16093 4.1 80 21:18 19.06.2020
1157 Rain 25 1019 65 16093 4.1 80 20:58 19.06.2020
1158 Rain 24 1019 65 16093 4.1 80 20:40 19.06.2020
1159 Rain 24 1018 69 16093 6.7 70 20:21 19.06.2020
1160 Rain 23 1018 69 16093 6.7 70 19:57 19.06.2020
1161 Rain 23 1018 69 16093 6.7 70 19:38 19.06.2020
1162 Clear 23 1018 69 16093 6.2 60 19:19 19.06.2020
1163 Clear 25 1018 69 16093 6.2 60 18:41 19.06.2020
1164 Clear 25 1018 69 16093 6.2 60 18:21 19.06.2020
1165 Clouds 25 1017 73 16093 5.7 50 17:58 19.06.2020
1166 Clouds 25 1017 73 16093 5.7 50 17:38 19.06.2020
1167 Clouds 25 1017 73 16093 5.7 50 17:20 19.06.2020
1168 Rain 26 1017 65 16093 3.1 50 16:41 19.06.2020
1169 Rain 25 1017 65 16093 3.1 50 16:23 19.06.2020
1170 Rain 25 1018 65 16093 5.7 60 15:59 19.06.2020
1171 Clouds 26 1018 65 16093 5.7 60 15:40 19.06.2020
1172 Clouds 26 1018 65 16093 5.1 60 15:20 19.06.2020
1173 Clouds 26 1018 65 16093 5.1 60 14:55 19.06.2020
1174 Clouds 26 1018 65 16093 5.1 60 14:37 19.06.2020
1175 Clouds 27 1018 61 16093 6.2 60 14:18 19.06.2020
1176 Clouds 27 1018 61 16093 6.2 60 13:41 19.06.2020
1177 Clouds 27 1018 61 16093 6.2 60 13:23 19.06.2020
1178 Clouds 27 1019 61 16093 4.1 60 12:46 19.06.2020
1179 Clouds 27 1019 61 16093 4.1 60 12:22 19.06.2020
1180 Clouds 27 1019 61 16093 6.7 60 11:57 19.06.2020
1181 Clouds 27 1019 61 16093 6.7 60 11:37 19.06.2020
1182 Clouds 27 1019 61 16093 6.7 60 11:37 19.06.2020
1183 Clouds 27 1019 61 16093 8.2 70 11:18 19.06.2020
1184 Clouds 27 1019 61 16093 8.2 70 10:45 19.06.2020
1185 Clouds 27 1019 61 16093 8.2 70 10:26 19.06.2020
1186 Clouds 27 1019 65 16093 8.7 60 09:57 19.06.2020
1187 Clouds 27 1019 65 16093 8.7 60 09:39 19.06.2020
1188 Clouds 28 1018 61 16093 7.7 70 09:19 19.06.2020
1189 Clouds 28 1018 61 16093 7.7 70 08:41 19.06.2020
1190 Clouds 28 1018 61 16093 7.7 70 08:23 19.06.2020
1191 Clouds 28 1018 61 16093 7.7 60 07:55 19.06.2020
1192 Clouds 28 1018 61 16093 7.7 60 07:36 19.06.2020
1193 Rain 28 1017 58 16093 8.2 60 07:18 19.06.2020
1194 Rain 28 1017 58 16093 8.2 60 06:23 19.06.2020
1195 Clouds 28 1017 54 16093 9.3 70 05:41 19.06.2020
1196 Clouds 29 1017 54 16093 8.2 50 04:23 19.06.2020
1197 Clouds 30 1018 45 16093 10.3 70 02:27 19.06.2020
1198 Clouds 29 1018 48 16093 8.7 60 00:46 19.06.2020
1199 Clouds 29 1018 48 16093 8.7 60 00:22 19.06.2020
1200 Clouds 29 1019 54 16093 9.3 60 23:58 18.06.2020
1201 Clouds 29 1019 54 16093 9.3 60 23:39 18.06.2020
1202 Clouds 29 1019 54 16093 9.3 60 23:21 18.06.2020
1203 Clouds 27 1019 58 16093 5.1 60 22:41 18.06.2020
1204 Clouds 27 1019 58 16093 5.1 60 22:21 18.06.2020
1205 Rain 26 1019 74 16093 7.2 60 21:57 18.06.2020
1206 Rain 25 1019 74 16093 7.2 60 21:38 18.06.2020
1207 Rain 25 1019 74 16093 7.2 60 21:19 18.06.2020
1208 Rain 24 1019 83 16093 5.1 60 20:43 18.06.2020
1209 Rain 24 1019 83 16093 5.1 60 20:22 18.06.2020
1210 Rain 24 1018 83 16093 3.6 70 19:58 18.06.2020
1211 Rain 24 1018 83 16093 3.6 70 19:40 18.06.2020
1212 Rain 24 1018 83 16093 3.6 70 19:20 18.06.2020
1213 Rain 25 1017 83 16093 2.1 40 18:42 18.06.2020
1214 Rain 25 1017 83 16093 2.1 40 18:23 18.06.2020
1215 Rain 26 1017 78 16093 3.6 50 17:58 18.06.2020
1216 Clouds 26 1017 78 16093 3.6 50 17:39 18.06.2020
1217 Rain 26 1017 78 16093 3.1 70 17:21 18.06.2020
1218 Rain 26 1017 78 16093 3.1 70 16:44 18.06.2020
1219 Rain 25 1017 78 16093 3.1 70 16:25 18.06.2020
1220 Clear 24 1017 78 16093 3.6 60 15:59 18.06.2020
1221 Clear 26 1017 78 16093 3.6 60 15:40 18.06.2020
1222 Clouds 26 1018 73 16093 2.1 60 15:20 18.06.2020
1223 Clouds 26 1018 73 16093 2.1 60 14:57 18.06.2020
1224 Clouds 26 1018 73 16093 2.1 60 14:38 18.06.2020
1225 Clouds 26 1018 73 16093 2.1 60 14:20 18.06.2020
1226 Clouds 26 1018 69 16093 4.1 50 13:48 18.06.2020
1227 Clouds 26 1018 69 16093 4.1 50 13:29 18.06.2020
1228 Clouds 26 1019 69 16093 2.6 80 12:58 18.06.2020
1229 Clouds 26 1019 69 16093 2.6 80 12:40 18.06.2020
1230 Clouds 26 1019 69 16093 2.6 80 12:20 18.06.2020
1231 Clouds 25 1019 65 16093 4.1 80 11:57 18.06.2020
1232 Clouds 25 1019 65 16093 4.1 80 11:38 18.06.2020
1233 Clouds 25 1019 65 16093 4.1 80 11:19 18.06.2020
1234 Clouds 25 1019 65 16093 3.6 80 10:40 18.06.2020
1235 Clouds 25 1018 65 16093 3.1 60 10:19 18.06.2020
1236 Rain 25 1018 65 16093 3.1 60 09:46 18.06.2020
1237 Rain 25 1018 65 16093 3.1 60 09:27 18.06.2020
1238 Clouds 27 1018 61 16093 5.1 60 08:58 18.06.2020
1239 Clouds 27 1018 61 16093 5.1 60 08:38 18.06.2020
1240 Clouds 26 1018 61 16093 5.1 60 08:19 18.06.2020
1241 Clouds 26 1017 57 16093 6.2 70 07:45 18.06.2020
1242 Clouds 26 1017 57 16093 6.2 70 07:25 18.06.2020
1243 Clouds 27 1017 54 16093 6.7 60 06:42 18.06.2020
1244 Clouds 29 1016 51 16093 6.7 70 05:31 18.06.2020
1245 Clouds 30 1016 45 16093 8.7 60 04:20 18.06.2020
1246 Clouds 29 1017 45 16093 7.2 70 01:48 18.06.2020
1247 Clouds 29 1017 45 16093 7.2 70 01:27 18.06.2020
1248 Clouds 29 1018 48 16093 7.7 60 00:52 18.06.2020
1249 Clouds 29 1018 48 16093 7.7 60 00:31 18.06.2020
1250 Clouds 28 1018 54 16093 6.2 60 23:56 17.06.2020
1251 Clouds 27 1018 54 16093 6.2 60 23:37 17.06.2020
1252 Clouds 27 1018 54 16093 6.2 60 23:19 17.06.2020
1253 Clouds 29 1018 51 16093 9.3 80 22:55 17.06.2020
1254 Clouds 28 1018 54 16093 7.2 80 22:37 17.06.2020
1255 Clouds 28 1018 57 16093 6.7 60 22:18 17.06.2020
1256 Clouds 28 1018 57 16093 6.7 60 21:40 17.06.2020
1257 Clouds 28 1018 57 16093 6.7 60 21:21 17.06.2020
1258 Clouds 27 1018 61 16093 2.1 20 20:56 17.06.2020
1259 Clouds 27 1018 61 16093 2.1 20 20:37 17.06.2020
1260 Clouds 27 1018 61 16093 2.1 20 20:19 17.06.2020
1261 Clouds 25 1018 69 16093 4.1 50 19:43 17.06.2020
1262 Clouds 25 1017 73 16093 5.24 55 19:21 17.06.2020
1263 Clouds 24 1017 73 16093 5.24 55 18:56 17.06.2020
1264 Clouds 24 1017 73 16093 5.24 55 18:37 17.06.2020
1265 Clouds 24 1017 73 16093 5.24 55 18:37 17.06.2020
1266 Clouds 24 1017 73 16093 5.03 53 18:19 17.06.2020
1267 Clear 24 1017 73 16093 1.5 0 17:42 17.06.2020
1268 Clear 24 1017 73 16093 1.5 0 17:21 17.06.2020
1269 Clouds 24 1017 73 16093 5.11 58 16:56 17.06.2020
1270 Clouds 24 1017 73 16093 5.11 58 16:38 17.06.2020
1271 Clouds 24 1018 69 16093 1.5 10 16:19 17.06.2020
1272 Clouds 25 1017 48 16093 2.6 70 15:40 17.06.2020
1273 Clouds 25 1018 69 16093 2.1 350 15:21 17.06.2020
1274 Clouds 25 1018 69 16093 2.1 350 14:59 17.06.2020
1275 Clouds 25 1018 69 16093 2.1 350 14:40 17.06.2020
1276 Clouds 25 1018 69 16093 2.1 20 14:20 17.06.2020
1277 Clouds 25 1018 69 16093 2.1 20 13:58 17.06.2020
1278 Clouds 25 1018 69 16093 2.1 20 13:40 17.06.2020
1279 Clouds 25 1018 69 16093 2.1 20 13:21 17.06.2020
1280 Clouds 25 1019 65 16093 1.5 60 12:55 17.06.2020
1281 Clouds 25 1019 65 16093 1.5 60 12:36 17.06.2020
1282 Clouds 25 1020 65 16093 1.5 0 12:18 17.06.2020
1283 Clouds 26 1020 65 16093 1.5 0 11:43 17.06.2020
1284 Clouds 26 1020 65 16093 1.5 0 11:23 17.06.2020
1285 Clouds 26 1019 61 16093 1.5 20 10:39 17.06.2020
1286 Clouds 26 1019 61 16093 1.5 20 10:19 17.06.2020
1287 Clouds 26 1019 61 16093 1.5 20 10:19 17.06.2020
1288 Clouds 26 1019 61 16093 2.6 10 09:58 17.06.2020
1289 Clouds 26 1019 61 16093 2.6 10 09:40 17.06.2020
1290 Clouds 26 1019 61 16093 2.6 10 09:21 17.06.2020
1291 Clouds 26 1019 61 16093 6.2 80 08:46 17.06.2020
1292 Clouds 26 1019 61 16093 6.2 80 08:21 17.06.2020
1293 Clouds 26 1018 61 16093 4.6 50 07:57 17.06.2020
1294 Clouds 26 1018 61 16093 4.6 50 07:39 17.06.2020
1295 Clouds 26 1018 61 16093 4.6 50 07:20 17.06.2020
1296 Rain 26 1018 46 16093 4.1 70 06:55 17.06.2020
1297 Rain 26 1018 46 16093 4.1 70 06:37 17.06.2020
1298 Clouds 26 1017 43 16093 4.6 70 06:19 17.06.2020
1299 Clouds 27 1018 51 16093 8.2 80 04:53 17.06.2020
1300 Clouds 28 1018 54 16093 10.8 80 02:49 17.06.2020
1301 Clouds 29 1019 54 16093 6.2 50 01:29 17.06.2020
1302 Rain 27 1019 58 16093 7.2 50 00:38 17.06.2020
1303 Rain 27 1019 58 16093 7.2 50 00:19 17.06.2020
1304 Clouds 27 1019 61 16093 6.2 60 23:55 16.06.2020
1305 Clouds 26 1019 61 16093 6.2 60 23:37 16.06.2020
1306 Rain 26 1019 61 16093 6.2 60 23:18 16.06.2020
1307 Rain 27 1020 69 16093 6.2 60 22:40 16.06.2020
1308 Rain 26 1020 69 16093 6.2 60 22:19 16.06.2020
1309 Rain 26 1020 69 16093 6.2 60 22:19 16.06.2020
1310 Rain 26 1020 78 16093 3.6 30 21:58 16.06.2020
1311 Rain 25 1020 78 16093 3.6 30 21:40 16.06.2020
1312 Rain 25 1020 78 16093 3.6 30 21:22 16.06.2020
1313 Rain 25 1020 83 16093 4.6 80 20:57 16.06.2020
1314 Rain 25 1020 83 16093 4.6 80 20:39 16.06.2020
1315 Rain 25 1020 83 16093 4.6 80 20:18 16.06.2020
1316 Rain 24 1019 94 16093 2.6 90 19:56 16.06.2020
1317 Rain 24 1019 94 16093 2.6 90 19:37 16.06.2020
1318 Rain 24 1019 88 16093 8.92 74 19:18 16.06.2020
1319 Rain 24 1019 88 16093 8.92 74 18:41 16.06.2020
1320 Rain 24 1019 88 16093 8.92 74 18:41 16.06.2020
1321 Rain 24 1019 88 16093 7.93 72 18:21 16.06.2020
1322 Rain 24 1018 88 16093 2.1 320 17:58 16.06.2020
1323 Rain 24 1018 88 16093 2.1 320 17:38 16.06.2020
1324 Rain 24 1018 88 16093 2.1 320 17:20 16.06.2020
1325 Rain 24 1018 83 6437 1.5 60 16:56 16.06.2020
1326 Rain 24 1018 73 16093 3.1 70 16:38 16.06.2020
1327 Rain 24 1018 73 16093 4.1 50 16:19 16.06.2020
1328 Clouds 25 1018 73 16093 4.1 50 15:56 16.06.2020
1329 Clouds 25 1018 73 16093 4.1 50 15:38 16.06.2020
1330 Clouds 25 1018 73 16093 4.1 50 15:38 16.06.2020
1331 Clear 24 1018 73 16093 3.1 70 15:20 16.06.2020
1332 Rain 24 1018 73 16093 3.1 70 14:43 16.06.2020
1333 Rain 24 1018 73 16093 3.1 70 14:25 16.06.2020
1334 Clouds 24 1019 78 16093 3.6 60 13:59 16.06.2020
1335 Clouds 24 1019 78 16093 3.6 60 13:41 16.06.2020
1336 Rain 24 1019 78 16093 3.6 60 13:22 16.06.2020
1337 Rain 24 1019 73 16093 3.6 70 12:42 16.06.2020
1338 Clouds 25 1019 73 16093 4.6 80 12:21 16.06.2020
1339 Clouds 25 1019 73 16093 4.6 80 11:57 16.06.2020
1340 Clouds 25 1019 73 16093 4.6 80 11:39 16.06.2020
1341 Clouds 25 1019 73 16093 4.6 80 11:20 16.06.2020
1342 Rain 25 1019 65 16093 5.7 50 10:56 16.06.2020
1343 Rain 26 1019 65 16093 5.7 50 10:37 16.06.2020
1344 Clouds 26 1019 61 16093 5.7 70 10:18 16.06.2020
1345 Clouds 26 1019 61 16093 5.7 70 09:43 16.06.2020
1346 Clouds 26 1019 61 16093 5.7 70 09:22 16.06.2020
1347 Clouds 26 1019 65 16093 5.7 70 08:48 16.06.2020
1348 Clouds 26 1019 65 16093 5.7 70 08:30 16.06.2020
1349 Rain 26 1018 57 16093 6.7 60 07:51 16.06.2020
1350 Rain 26 1018 57 16093 6.7 60 07:28 16.06.2020
1351 Clouds 26 1018 57 16093 5.7 40 06:56 16.06.2020
1352 Clouds 26 1018 57 16093 5.7 40 06:29 16.06.2020
1353 Clouds 27 1017 51 16093 6.7 60 05:47 16.06.2020
1354 Clouds 29 1017 48 16093 7.7 50 04:42 16.06.2020
1355 Clouds 28 1017 48 16093 9.3 70 03:48 16.06.2020
1356 Clouds 29 1018 45 16093 8.2 50 02:19 16.06.2020
1357 Clouds 29 1018 43 16093 7.7 80 01:31 16.06.2020
1358 Clouds 29 1018 40 16093 7.2 60 00:52 16.06.2020
1359 Clouds 29 1018 40 16093 7.2 60 00:22 16.06.2020
1360 Clouds 30 1019 42 16093 8.7 50 23:43 15.06.2020
1361 Clouds 30 1019 42 16093 8.7 50 23:23 15.06.2020
1362 Clouds 29 1018 48 16093 8.2 60 22:56 15.06.2020
1363 Clouds 29 1018 48 16093 8.2 60 22:38 15.06.2020
1364 Clouds 28 1018 54 16093 7.7 50 22:18 15.06.2020
1365 Clouds 28 1018 54 16093 7.7 50 21:56 15.06.2020
1366 Clouds 28 1018 54 16093 7.7 50 21:37 15.06.2020
1367 Clouds 27 1018 57 16093 6.2 50 21:19 15.06.2020
1368 Clouds 27 1018 57 16093 6.2 50 21:19 15.06.2020
1369 Clouds 27 1018 57 16093 6.2 50 20:55 15.06.2020
1370 Clouds 27 1018 57 16093 6.2 50 20:37 15.06.2020
1371 Clouds 26 1018 61 16093 5.1 60 20:18 15.06.2020
1372 Clouds 26 1018 61 16093 5.1 60 19:54 15.06.2020
1373 Clouds 26 1018 61 16093 5.1 60 19:36 15.06.2020
1374 Clouds 24 1017 64 16093 4.1 70 19:18 15.06.2020
1375 Clouds 24 1017 64 16093 4.1 70 18:43 15.06.2020
1376 Clouds 23 1017 69 16093 6.2 50 18:22 15.06.2020
1377 Clouds 23 1017 69 16093 6.2 50 17:59 15.06.2020
1378 Clouds 23 1017 69 16093 6.2 50 17:40 15.06.2020
1379 Clouds 24 1017 64 16093 4.6 50 17:20 15.06.2020
1380 Clouds 24 1017 64 16093 4.6 50 16:57 15.06.2020
1381 Clouds 24 1017 64 16093 4.6 50 16:39 15.06.2020
1382 Clear 24 1017 69 16093 7.7 50 16:18 15.06.2020
1383 Clear 24 1017 69 16093 7.7 50 15:41 15.06.2020
1384 Clear 24 1017 69 16093 7.7 50 15:21 15.06.2020
1385 Clear 25 1017 65 16093 4.6 70 14:58 15.06.2020
1386 Clear 25 1017 65 16093 4.6 70 14:40 15.06.2020
1387 Clouds 25 1018 65 16093 5.7 70 14:19 15.06.2020
1388 Clouds 25 1018 65 16093 5.7 70 13:56 15.06.2020
1389 Clouds 25 1018 65 16093 5.7 70 13:38 15.06.2020
1390 Clouds 25 1019 65 16093 5.1 70 13:18 15.06.2020
1391 Clouds 25 1019 65 16093 5.1 70 12:42 15.06.2020
1392 Clouds 25 1019 65 16093 5.1 70 12:22 15.06.2020
1393 Clouds 25 1019 61 16093 6.7 50 11:47 15.06.2020
1394 Clouds 25 1019 61 16093 6.7 50 11:27 15.06.2020
1395 -273 0 0 0 0 0 10:59 15.06.2020
1396 Clear 25 1019 61 16093 6.7 60 10:41 15.06.2020
1397 Clear 25 1019 61 16093 6.7 60 10:20 15.06.2020
1398 Clouds 25 1018 61 16093 5.7 60 09:43 15.06.2020
1399 Clouds 25 1018 61 16093 5.7 60 09:23 15.06.2020
1400 Clouds 25 1018 61 16093 5.1 40 08:46 15.06.2020
1401 Clouds 25 1018 61 16093 5.1 40 08:26 15.06.2020
1402 Clouds 26 1017 57 16093 7.7 60 07:53 15.06.2020
1403 Clouds 26 1017 57 16093 7.7 60 07:34 15.06.2020
1404 Clouds 26 1017 57 16093 8.2 60 06:58 15.06.2020
1405 Clouds 26 1017 57 16093 8.2 60 06:27 15.06.2020
1406 Clouds 27 1017 54 16093 6.7 60 05:50 15.06.2020
1407 Clouds 27 1017 54 16093 6.7 60 05:28 15.06.2020
1408 Clouds 27 1017 46 16093 5.7 70 04:22 15.06.2020
1409 Clouds 27 1017 46 16093 6.2 80 03:48 15.06.2020
1410 Clouds 27 1017 46 16093 6.2 80 03:48 15.06.2020
1411 Rain 29 1017 48 16093 8.7 50 02:56 15.06.2020
1412 Rain 29 1017 48 16093 8.7 50 02:20 15.06.2020
1413 Clouds 28 1017 48 16093 9.8 50 01:40 15.06.2020
1414 Clouds 28 1017 48 16093 9.8 50 01:40 15.06.2020
1415 Clouds 28 1017 48 16093 9.8 50 01:40 15.06.2020
1416 Clouds 28 1017 48 16093 9.8 50 01:22 15.06.2020
1417 Rain 28 1018 51 16093 7.7 70 00:41 15.06.2020
1418 Rain 28 1018 51 16093 7.7 70 00:22 15.06.2020
1419 Rain 28 1018 51 16093 7.2 70 23:55 14.06.2020
1420 Rain 28 1018 51 16093 7.2 70 23:36 14.06.2020
1421 Rain 28 1018 51 16093 6.7 70 23:18 14.06.2020
1422 Rain 28 1018 51 16093 6.7 70 22:55 14.06.2020
1423 Rain 27 1018 51 16093 6.7 70 22:37 14.06.2020
1424 Clouds 27 1018 57 16093 4.6 50 22:18 14.06.2020
1425 Clouds 27 1018 57 16093 4.6 50 21:55 14.06.2020
1426 Clouds 27 1018 57 16093 4.6 50 21:36 14.06.2020
1427 Rain 27 1018 61 16093 6.2 80 21:18 14.06.2020
1428 Rain 26 1018 61 16093 6.2 80 20:40 14.06.2020
1429 Rain 26 1018 61 16093 6.2 80 20:21 14.06.2020
1430 Clouds 26 1017 61 16093 4.1 60 19:59 14.06.2020
1431 Clouds 26 1017 61 16093 4.1 60 19:59 14.06.2020
1432 Clouds 25 1017 61 16093 4.1 60 19:40 14.06.2020
1433 Clouds 25 1017 61 16093 4.1 60 19:20 14.06.2020
1434 Clouds 25 1017 69 16093 5.7 60 18:58 14.06.2020
1435 Clouds 24 1017 69 16093 5.7 60 18:40 14.06.2020
1436 Clouds 24 1017 69 16093 5.7 60 18:21 14.06.2020
1437 Clouds 24 1016 64 16093 5.1 70 17:58 14.06.2020
1438 Clouds 24 1016 64 16093 5.1 70 17:39 14.06.2020
1439 Clouds 24 1017 64 16093 5.1 60 17:20 14.06.2020
1440 Clouds 24 1017 64 16093 5.1 60 16:55 14.06.2020
1441 Clouds 24 1017 64 16093 5.1 60 16:37 14.06.2020
1442 Clear 24 1017 64 16093 5.1 60 16:18 14.06.2020
1443 Clear 24 1017 64 16093 5.1 60 15:41 14.06.2020
1444 Clouds 24 1017 64 16093 5.1 70 15:20 14.06.2020
1445 Clouds 24 1017 64 16093 5.1 70 14:59 14.06.2020
1446 Clouds 24 1017 64 16093 5.1 70 14:40 14.06.2020
1447 Clouds 24 1017 64 16093 5.1 70 14:21 14.06.2020
1448 Clouds 25 1018 61 16093 5.7 60 13:57 14.06.2020
1449 Clouds 25 1018 61 16093 5.7 60 13:39 14.06.2020
1450 Clouds 25 1018 61 16093 5.7 60 13:21 14.06.2020
1451 Clouds 25 1019 61 16093 5.7 60 12:55 14.06.2020
1452 Clouds 25 1019 61 16093 5.7 60 12:37 14.06.2020
1453 Clouds 25 1019 61 16093 5.7 60 12:18 14.06.2020
1454 Clouds 25 1019 61 16093 5.7 60 11:56 14.06.2020
1455 Clouds 25 1019 61 16093 5.7 60 11:37 14.06.2020
1456 Clouds 25 1019 61 16093 6.7 60 11:18 14.06.2020
1457 Clouds 25 1019 61 16093 6.7 60 10:41 14.06.2020
1458 Clouds 25 1019 61 16093 6.7 60 10:19 14.06.2020
1459 Clouds 25 1019 57 16093 6.2 60 09:45 14.06.2020
1460 Clouds 25 1019 57 16093 6.2 60 09:25 14.06.2020
1461 Clouds 25 1018 54 16093 7.7 40 08:47 14.06.2020
1462 Clouds 25 1018 54 16093 7.7 40 08:22 14.06.2020
1463 Clouds 26 1018 51 16093 6.2 50 08:00 14.06.2020
1464 Clouds 26 1018 51 16093 6.2 50 07:41 14.06.2020
1465 Clouds 26 1018 51 16093 6.2 50 07:23 14.06.2020
1466 Clouds 26 1017 48 16093 8.7 70 06:25 14.06.2020
1467 Clouds 27 1017 45 16093 8.2 60 05:39 14.06.2020
1468 Clouds 28 1017 45 16093 8.7 60 04:51 14.06.2020
1469 Clouds 28 1017 45 16093 8.7 60 04:25 14.06.2020
1470 Clouds 28 1018 40 16093 10.3 60 02:53 14.06.2020
1471 Clouds 29 1018 40 16093 10.3 60 02:23 14.06.2020
1472 Clouds 29 1018 37 16093 7.7 60 01:36 14.06.2020
1473 Clouds 29 1018 42 16093 6.2 40 00:50 14.06.2020
1474 Clouds 29 1018 42 16093 6.2 40 00:31 14.06.2020
1475 Clouds 29 1019 40 16093 9.8 80 23:59 13.06.2020
1476 Clouds 29 1019 40 16093 9.8 80 23:41 13.06.2020
1477 Clouds 28 1019 40 16093 9.8 80 23:22 13.06.2020
1478 Clouds 28 1019 45 16093 8.7 60 22:54 13.06.2020
1479 Clouds 28 1019 45 16093 8.7 60 22:54 13.06.2020
1480 Clouds 28 1019 45 16093 8.7 60 22:36 13.06.2020
1481 Clouds 27 1019 51 16093 6.2 70 22:18 13.06.2020
1482 Clouds 27 1019 51 16093 6.2 70 21:42 13.06.2020
1483 Clouds 27 1019 51 16093 6.2 70 21:24 13.06.2020
1484 Clouds 27 1019 51 16093 6.2 70 20:57 13.06.2020
1485 Clouds 26 1019 51 16093 6.2 70 20:39 13.06.2020
1486 Clouds 26 1019 61 16093 5.7 80 20:18 13.06.2020
1487 Clouds 25 1019 61 16093 5.7 80 19:40 13.06.2020
1488 Clouds 25 1019 61 16093 5.7 80 19:20 13.06.2020
1489 Clouds 25 1018 53 16093 7.2 70 18:58 13.06.2020
1490 Clouds 25 1018 53 16093 7.2 70 18:40 13.06.2020
1491 Clouds 25 1018 53 16093 7.2 70 18:20 13.06.2020
1492 Clouds 25 1018 61 16093 5.7 60 18:20 13.06.2020
1493 Clouds 24 1018 61 16093 5.7 60 17:57 13.06.2020
1494 Clouds 25 1018 61 16093 5.7 60 17:38 13.06.2020
1495 Clouds 24 1018 65 16093 5.7 50 17:20 13.06.2020
1496 Clouds 24 1018 65 16093 5.7 50 16:54 13.06.2020
1497 Clouds 24 1018 65 16093 5.7 50 16:36 13.06.2020
1498 Clouds 24 1019 65 16093 5.1 60 16:18 13.06.2020
1499 Clouds 24 1019 65 16093 5.1 60 15:41 13.06.2020
1500 Clouds 25 1019 65 16093 5.1 60 15:21 13.06.2020
1501 Clouds 25 1019 65 16093 6.2 60 14:44 13.06.2020
1502 Clouds 25 1019 65 16093 6.2 60 14:23 13.06.2020
1503 Clouds 25 1019 61 16093 6.7 60 13:57 13.06.2020
1504 Clouds 25 1019 61 16093 6.7 60 13:37 13.06.2020
1505 Rain 25 1020 61 16093 6.2 60 13:18 13.06.2020
1506 Rain 25 1020 61 16093 6.2 60 12:43 13.06.2020
1507 Rain 25 1020 61 16093 6.2 60 12:25 13.06.2020
1508 Clouds 25 1020 61 16093 7.7 60 11:57 13.06.2020
1509 Clouds 25 1020 61 16093 7.7 60 11:37 13.06.2020
1510 Clouds 25 1020 61 16093 8.7 60 11:19 13.06.2020
1511 Clouds 25 1020 61 16093 8.7 60 10:54 13.06.2020
1512 Clouds 25 1020 61 16093 8.7 60 10:28 13.06.2020
1513 Clouds 25 1020 61 16093 8.7 70 09:57 13.06.2020
1514 Clouds 25 1020 61 16093 8.7 70 09:39 13.06.2020
1515 Clouds 25 1019 61 16093 8.7 60 09:20 13.06.2020
1516 Clouds 25 1019 61 16093 8.7 60 08:45 13.06.2020
1517 Clouds 25 1019 61 16093 8.7 60 08:26 13.06.2020
1518 Clouds 26 1018 57 16093 9.8 60 07:45 13.06.2020
1519 Clouds 26 1018 57 16093 9.8 60 07:26 13.06.2020
1520 Clouds 27 1018 51 16093 12.3 70 06:44 13.06.2020
1521 Clouds 27 1018 51 16093 12.3 70 06:26 13.06.2020
1522 Clouds 27 1018 51 16093 9.8 70 05:30 13.06.2020
1523 Clouds 28 1018 48 16093 10.8 60 04:41 13.06.2020
1524 Clouds 28 1019 45 16093 8.2 50 03:43 13.06.2020
1525 Clouds 28 1019 45 16093 10.3 60 02:52 13.06.2020
1526 Clouds 28 1019 51 16093 9.3 70 01:50 13.06.2020
1527 Clouds 28 1019 51 16093 9.3 70 01:24 13.06.2020
1528 Clouds 28 1020 48 16093 10.3 70 00:55 13.06.2020
1529 Clouds 28 1021 48 16093 9.3 70 00:29 13.06.2020
1530 Clouds 28 1021 48 16093 9.3 70 23:59 12.06.2020
1531 Clouds 28 1021 48 16093 9.3 70 23:38 12.06.2020
1532 Clouds 28 1021 48 16093 7.2 50 23:18 12.06.2020
1533 Clouds 28 1021 48 16093 7.2 50 22:54 12.06.2020
1534 Clouds 28 1021 48 16093 7.2 50 22:36 12.06.2020
1535 Clouds 27 1021 51 16093 9.8 60 22:18 12.06.2020
1536 Clouds 27 1021 51 16093 9.8 60 21:42 12.06.2020
1537 Clouds 27 1021 51 16093 9.8 60 21:23 12.06.2020
1538 Clouds 26 1021 54 16093 5.1 50 20:56 12.06.2020
1539 Clouds 26 1021 54 16093 5.1 50 20:37 12.06.2020
1540 Clouds 26 1020 61 16093 6.7 70 20:19 12.06.2020
1541 Clouds 25 1020 61 16093 6.7 70 19:40 12.06.2020
1542 Clouds 25 1020 61 16093 6.7 70 19:21 12.06.2020
1543 Clouds 25 1020 61 16093 6.2 50 18:58 12.06.2020
1544 Clouds 25 1020 61 16093 6.2 50 18:36 12.06.2020
1545 Clouds 25 1019 61 16093 6.2 50 18:18 12.06.2020
1546 Clouds 25 1019 61 16093 6.2 50 17:40 12.06.2020
1547 Clouds 25 1019 61 16093 6.2 50 17:22 12.06.2020
1548 Clouds 25 1019 61 16093 4.6 50 16:45 12.06.2020
1549 Clouds 25 1019 61 16093 6.7 70 16:21 12.06.2020
1550 Clouds 25 1019 61 16093 6.7 70 15:50 12.06.2020
1551 Clouds 25 1019 61 16093 6.7 70 15:28 12.06.2020
1552 Clouds 25 1019 61 16093 6.2 70 14:59 12.06.2020
1553 Clouds 25 1019 61 16093 6.2 70 14:39 12.06.2020
1554 Clouds 25 1020 61 16093 7.2 60 14:21 12.06.2020
1555 Clouds 25 1020 61 16093 7.2 60 13:43 12.06.2020
1556 Clouds 25 1020 61 16093 7.2 60 13:22 12.06.2020
1557 Clouds 25 1021 57 16093 5.7 60 12:55 12.06.2020
1558 Clouds 25 1021 57 16093 5.7 60 12:37 12.06.2020
1559 Clouds 25 1021 57 16093 5.1 50 12:18 12.06.2020
1560 Clouds 25 1021 57 16093 5.1 50 11:43 12.06.2020
1561 Clouds 25 1021 57 16093 5.1 50 11:23 12.06.2020
1562 Rain 25 1020 65 16093 8.7 40 10:49 12.06.2020
1563 Rain 25 1020 65 16093 8.7 40 10:26 12.06.2020
1564 Clouds 25 1020 61 16093 9.3 60 09:58 12.06.2020
1565 Clouds 25 1020 61 16093 9.3 60 09:38 12.06.2020
1566 Clouds 25 1019 61 16093 5.7 70 09:18 12.06.2020
1567 Clouds 25 1019 61 16093 5.7 70 08:41 12.06.2020
1568 Clouds 25 1019 61 16093 5.7 70 08:22 12.06.2020
1569 Rain 25 1019 61 16093 8.7 60 07:40 12.06.2020
1570 Rain 25 1019 61 16093 8.7 60 07:22 12.06.2020
1571 Clouds 26 1018 57 16093 9.3 60 06:40 12.06.2020
1572 Clouds 26 1018 57 16093 8.7 70 06:19 12.06.2020
1573 Clouds 26 1018 57 16093 8.7 70 05:49 12.06.2020
1574 Clouds 26 1018 57 16093 8.7 70 05:20 12.06.2020
1575 Clouds 27 1018 48 16093 9.8 60 03:43 12.06.2020
1576 Clouds 28 1019 43 16093 10.3 70 01:58 12.06.2020
1577 Clouds 28 1019 43 16093 10.3 70 01:32 12.06.2020
1578 Clouds 28 1019 54 16093 9.3 60 00:55 12.06.2020
1579 Clouds 28 1019 54 16093 9.3 60 00:37 12.06.2020
1580 Clouds 28 1020 54 16093 10.8 60 00:18 12.06.2020
1581 Clouds 27 1020 54 16093 10.8 60 23:41 11.06.2020
1582 Clouds 27 1020 54 16093 10.8 60 23:22 11.06.2020
1583 Clouds 27 1020 58 16093 12.3 70 22:59 11.06.2020
1584 Clouds 26 1020 58 16093 12.3 70 22:39 11.06.2020
1585 Clouds 26 1020 58 16093 12.3 70 22:20 11.06.2020
1586 Clouds 26 1019 51 16093 6.2 50 22:20 11.06.2020
1587 Clouds 27 1019 51 16093 6.2 50 21:56 11.06.2020
1588 Clouds 27 1019 51 16093 6.2 50 21:38 11.06.2020
1589 Clouds 26 1019 61 16093 9.3 70 21:20 11.06.2020
1590 Clouds 26 1019 61 16093 9.3 70 21:20 11.06.2020
1591 Clouds 26 1019 61 16093 9.3 70 20:45 11.06.2020
1592 Clouds 25 1019 61 16093 7.2 60 20:22 11.06.2020
1593 Clouds 25 1019 61 16093 7.2 60 19:55 11.06.2020
1594 Rain 25 1018 65 16093 6.2 70 19:37 11.06.2020
1595 Clouds 25 1016 77 0 0.89 83 19:37 11.06.2020
1596 Rain 25 1018 65 16093 7.2 60 19:18 11.06.2020
1597 Rain 25 1018 65 16093 7.2 60 18:42 11.06.2020
1598 Rain 24 1018 65 16093 7.2 60 18:24 11.06.2020
1599 Rain 24 1018 65 16093 8.2 60 17:57 11.06.2020
1600 Rain 24 1018 65 16093 8.2 60 17:57 11.06.2020
1601 Rain 24 1018 65 16093 8.2 60 17:38 11.06.2020
1602 Rain 24 1018 65 16093 8.2 60 17:19 11.06.2020
1603 Clouds 25 1018 65 16093 5.7 70 16:56 11.06.2020
1604 Clouds 25 1018 65 16093 5.7 70 16:38 11.06.2020
1605 Clouds 24 1018 65 16093 5.7 70 16:19 11.06.2020
1606 Clouds 25 1018 61 16093 7.2 60 15:42 11.06.2020
1607 Clouds 25 1018 61 16093 7.2 60 15:24 11.06.2020
1608 Clouds 25 1018 57 16093 6.7 80 14:56 11.06.2020
1609 Clouds 25 1018 57 16093 6.7 80 14:56 11.06.2020
1610 Clouds 25 1018 57 16093 6.7 80 14:38 11.06.2020
1611 Clouds 25 1018 57 16093 6.7 80 14:20 11.06.2020
1612 Clouds 25 1018 57 16093 6.7 80 14:20 11.06.2020
1613 Clouds 25 1019 61 16093 7.2 70 13:54 11.06.2020
1614 Clouds 25 1019 61 16093 7.2 70 13:36 11.06.2020
1615 Clouds 25 1019 61 16093 7.2 70 13:18 11.06.2020
1616 Clouds 25 1020 61 16093 6.7 60 12:39 11.06.2020
1617 Clouds 25 1020 61 16093 6.7 60 12:21 11.06.2020
1618 Rain 25 1020 61 16093 4.6 40 11:59 11.06.2020
1619 Rain 25 1020 61 16093 4.6 40 11:40 11.06.2020
1620 Rain 25 1020 61 16093 4.6 40 11:22 11.06.2020
1621 Clouds 25 1020 61 16093 6.2 70 10:57 11.06.2020
1622 Clouds 25 1020 61 16093 6.2 70 10:39 11.06.2020
1623 Clouds 25 1020 61 16093 6.2 70 10:39 11.06.2020
1624 Clouds 25 1020 61 16093 6.2 70 10:18 11.06.2020
1625 Rain 25 1019 65 16093 5.1 50 09:42 11.06.2020
1626 Rain 25 1019 65 16093 5.1 50 09:24 11.06.2020
1627 Rain 25 1019 65 16093 6.7 60 08:44 11.06.2020
1628 Rain 25 1019 65 16093 6.7 60 08:20 11.06.2020
1629 Clouds 26 1018 61 16093 7.2 60 07:58 11.06.2020
1630 Clouds 25 1018 61 16093 7.2 60 07:40 11.06.2020
1631 Clouds 25 1018 57 16093 9.3 60 07:20 11.06.2020
1632 Clouds 26 1018 57 16093 9.3 60 06:29 11.06.2020
1633 Clouds 27 1018 54 16093 9.8 70 05:39 11.06.2020
1634 Clouds 28 1018 48 16093 7.7 60 03:54 11.06.2020
1635 Clouds 28 1018 48 16093 7.7 60 03:23 11.06.2020
1636 Clouds 28 1018 48 16093 9.3 60 02:32 11.06.2020
1637 Clouds 29 1018 48 16093 8.2 50 01:51 11.06.2020
1638 Clouds 29 1018 48 16093 8.2 50 01:25 11.06.2020
1639 Clouds 28 1019 48 16093 10.3 70 00:50 11.06.2020
1640 Clouds 28 1019 48 16093 10.3 70 00:29 11.06.2020
1641 Clouds 28 1019 48 16093 8.7 60 23:47 10.06.2020
1642 Clouds 28 1019 48 16093 8.7 60 23:27 10.06.2020
1643 Clouds 28 1019 51 16093 8.7 60 22:57 10.06.2020
1644 Clouds 28 1019 51 16093 8.7 60 22:38 10.06.2020
1645 Clouds 28 1019 51 16093 8.7 60 22:19 10.06.2020
1646 Clouds 27 1019 58 16093 6.2 50 21:56 10.06.2020
1647 Clouds 27 1019 58 16093 6.2 50 21:38 10.06.2020
1648 Clouds 27 1019 58 16093 6.2 50 21:18 10.06.2020
1649 Clouds 26 1019 61 16093 4.6 50 20:56 10.06.2020
1650 Clouds 26 1019 61 16093 4.6 50 20:38 10.06.2020
1651 Clouds 26 1019 61 16093 4.6 50 20:20 10.06.2020
1652 Rain 25 1018 69 16093 7.7 70 19:41 10.06.2020
1653 Rain 25 1018 69 16093 7.7 70 19:20 10.06.2020
1654 Rain 24 1018 78 16093 3.1 30 18:58 10.06.2020
1655 Rain 24 1018 78 16093 3.1 30 18:58 10.06.2020
1656 Rain 23 1018 78 16093 3.1 30 18:40 10.06.2020
1657 Rain 23 1018 78 16093 4.6 50 18:19 10.06.2020
1658 Rain 23 1018 78 16093 4.6 50 17:55 10.06.2020
1659 Rain 23 1018 78 16093 4.6 50 17:37 10.06.2020
1660 Rain 23 1018 78 16093 4.6 50 17:37 10.06.2020
1661 Rain 23 1018 78 16093 4.6 50 17:19 10.06.2020
1662 Rain 23 1018 78 16093 5.1 70 16:56 10.06.2020
1663 Rain 23 1018 78 16093 5.1 70 16:38 10.06.2020
1664 Rain 23 1018 78 16093 5.1 70 16:18 10.06.2020
1665 Clouds 23 1017 73 16093 4.6 50 15:40 10.06.2020
1666 Rain 24 1017 73 16093 4.6 50 15:40 10.06.2020
1667 Rain 24 1017 73 16093 4.6 50 15:21 10.06.2020
1668 Rain 24 1018 69 16093 6.2 60 14:56 10.06.2020
1669 Rain 24 1018 69 16093 6.2 60 14:37 10.06.2020
1670 Rain 24 1018 69 16093 6.2 60 14:19 10.06.2020
1671 Clouds 25 1018 69 16093 5.1 50 13:40 10.06.2020
1672 Clouds 25 1019 65 16093 4.1 70 13:21 10.06.2020
1673 Clouds 25 1019 65 16093 4.1 70 12:43 10.06.2020
1674 Clouds 25 1019 65 16093 4.1 70 12:20 10.06.2020
1675 Clouds 25 1019 65 16093 8.2 70 11:57 10.06.2020
1676 Clouds 25 1019 65 16093 8.2 70 11:39 10.06.2020
1677 Clouds 25 1019 74 16093 5.1 70 11:19 10.06.2020
1678 Clouds 25 1019 74 16093 5.1 70 10:55 10.06.2020
1679 Clouds 25 1019 74 16093 5.1 70 10:36 10.06.2020
1680 Clouds 25 1018 74 16093 5.7 70 10:18 10.06.2020
1681 Clouds 25 1018 74 16093 5.7 70 09:40 10.06.2020
1682 Clouds 25 1018 74 16093 5.7 70 09:22 10.06.2020
1683 Clouds 25 1018 69 16093 6.7 60 08:44 10.06.2020
1684 Clouds 25 1018 69 16093 6.7 60 08:23 10.06.2020
1685 Clouds 26 1017 61 16093 6.7 60 07:54 10.06.2020
1686 Clouds 26 1017 61 16093 6.7 60 07:36 10.06.2020
1687 Clouds 26 1017 58 16093 8.2 60 07:18 10.06.2020
1688 Clouds 27 1017 58 16093 8.2 60 06:44 10.06.2020
1689 Clouds 27 1017 58 16093 8.2 60 06:20 10.06.2020
1690 Clouds 27 1017 54 16093 7.7 60 05:55 10.06.2020
1691 Clouds 27 1017 54 16093 7.7 60 05:23 10.06.2020
1692 Clouds 28 1017 51 16093 8.2 60 04:32 10.06.2020
1693 Rain 28 1017 51 16093 8.7 90 02:50 10.06.2020
1694 Rain 28 1018 51 16093 7.7 90 01:54 10.06.2020
1695 Rain 28 1018 51 16093 7.7 90 01:31 10.06.2020
1696 Rain 27 1018 54 16093 7.7 50 00:39 10.06.2020
1697 Rain 28 1018 54 16093 7.7 50 00:21 10.06.2020
1698 Rain 28 1018 48 16093 8.7 70 23:55 09.06.2020
1699 Rain 28 1018 48 16093 8.7 70 23:36 09.06.2020
1700 Rain 28 1018 48 16093 8.7 70 23:18 09.06.2020
1701 Clouds 27 1018 58 16093 3.1 100 22:54 09.06.2020
1702 Clouds 27 1018 58 16093 3.1 100 22:36 09.06.2020
1703 Clouds 27 1018 58 16093 3.1 100 22:18 09.06.2020
1704 Clouds 27 1018 65 16093 2.6 360 21:54 09.06.2020
1705 Clouds 27 1018 65 16093 2.6 360 21:36 09.06.2020
1706 Clouds 27 1018 65 16093 2.6 360 21:36 09.06.2020
1707 Clouds 27 1018 65 16093 2.6 360 21:18 09.06.2020
1708 Clouds 26 1018 65 16093 2.1 40 20:55 09.06.2020
1709 Clouds 26 1018 65 16093 2.1 40 20:37 09.06.2020
1710 Rain 25 1018 73 16093 2.6 320 20:18 09.06.2020
1711 Rain 24 1018 73 16093 2.6 320 19:54 09.06.2020
1712 Rain 24 1018 73 16093 2.6 320 19:36 09.06.2020
1713 Rain 24 1018 73 16093 2.6 320 19:18 09.06.2020
1714 Rain 24 1017 73 16093 2.1 10 18:42 09.06.2020
1715 Rain 24 1017 73 16093 2.1 10 18:24 09.06.2020
1716 Clouds 24 1017 78 16093 1.5 350 17:57 09.06.2020
1717 Clouds 24 1017 78 16093 1.5 350 17:38 09.06.2020
1718 Clouds 24 1017 78 16093 1.5 350 17:20 09.06.2020
1719 Clouds 24 1017 78 16093 1.5 10 16:46 09.06.2020
1720 Clouds 24 1017 78 16093 1.5 10 16:28 09.06.2020
1721 Clouds 24 1017 78 16093 2.1 330 15:59 09.06.2020
1722 Clouds 24 1017 78 16093 2.1 330 15:39 09.06.2020
1723 Clouds 24 1017 78 16093 2.1 330 15:21 09.06.2020
1724 Clouds 24 1018 78 16093 1.5 340 14:55 09.06.2020
1725 Clouds 24 1018 78 16093 1.5 340 14:37 09.06.2020
1726 Clouds 24 1018 78 16093 1.5 340 14:18 09.06.2020
1727 Clouds 25 1018 69 16093 1.67 132 13:43 09.06.2020
1728 Clouds 25 1019 65 16093 3.6 70 13:21 09.06.2020
1729 Clouds 25 1019 65 16093 3.6 70 12:59 09.06.2020
1730 Clouds 25 1019 65 16093 3.6 70 12:41 09.06.2020
1731 Clouds 25 1019 65 16093 3.6 70 12:19 09.06.2020
1732 Clouds 25 1019 65 16093 2.6 60 11:55 09.06.2020
1733 Clouds 25 1019 65 16093 2.6 60 11:37 09.06.2020
1734 Clouds 25 1019 65 16093 2.6 60 11:37 09.06.2020
1735 Clouds 25 1019 65 16093 2.6 60 11:19 09.06.2020
1736 Clouds 25 1019 73 16093 3.1 90 10:44 09.06.2020
1737 Clouds 25 1019 73 16093 3.1 90 10:25 09.06.2020
1738 Clouds 25 1019 65 16093 2.1 90 09:44 09.06.2020
1739 Clouds 25 1019 65 16093 2.1 90 09:25 09.06.2020
1740 Clouds 25 1018 65 16093 4.6 50 08:57 09.06.2020
1741 Clouds 25 1018 65 16093 4.6 50 08:38 09.06.2020
1742 Clouds 25 1018 65 16093 4.6 50 08:20 09.06.2020
1743 Rain 26 1018 57 16093 4.1 60 07:39 09.06.2020
1744 Rain 25 1018 57 16093 4.1 60 07:20 09.06.2020
1745 Clouds 26 1017 51 16093 6.2 70 06:54 09.06.2020
1746 Clouds 27 1017 51 16093 6.2 70 06:35 09.06.2020
1747 Clouds 27 1017 48 16093 6.2 90 05:35 09.06.2020
1748 Clouds 28 1018 45 16093 6.2 30 03:34 09.06.2020
1749 Clouds 29 1018 45 16093 8.2 80 01:43 09.06.2020
1750 Clouds 28 1018 45 16093 8.2 80 01:19 09.06.2020
1751 Clouds 29 1019 43 16093 6.7 50 00:50 09.06.2020
1752 Clouds 29 1019 43 16093 6.7 50 00:26 09.06.2020
1753 Clouds 28 1019 45 16093 6.7 70 23:59 08.06.2020
1754 Clouds 28 1019 45 16093 6.7 70 23:39 08.06.2020
1755 Clouds 28 1019 45 16093 6.7 70 23:19 08.06.2020
1756 Clouds 28 1019 51 16093 5.7 70 22:42 08.06.2020
1757 Clouds 28 1019 51 16093 5.7 70 22:23 08.06.2020
1758 Clouds 27 1019 51 16093 6.2 60 21:59 08.06.2020
1759 Clouds 27 1019 51 16093 6.2 60 21:41 08.06.2020
1760 Clouds 27 1019 51 16093 6.2 60 21:22 08.06.2020
1761 Clouds 26 1019 57 16093 5.7 80 20:58 08.06.2020
1762 Clouds 26 1019 57 16093 5.7 80 20:39 08.06.2020
1763 Clouds 26 1019 57 16093 5.7 80 20:20 08.06.2020
1764 Clouds 25 1019 65 16093 3.6 80 19:59 08.06.2020
1765 Clouds 25 1019 65 16093 3.6 80 19:41 08.06.2020
1766 Clouds 25 1019 65 16093 2.6 40 19:20 08.06.2020
1767 Clouds 25 1019 65 16093 2.6 40 18:41 08.06.2020
1768 Clouds 24 1019 69 16093 2.6 40 18:19 08.06.2020
1769 Clouds 24 1019 69 16093 2.6 40 17:57 08.06.2020
1770 Clouds 24 1019 69 16093 2.6 40 17:39 08.06.2020
1771 Clouds 24 1019 69 16093 2.6 40 17:19 08.06.2020
1772 Clouds 24 1019 73 16093 2.1 20 16:46 08.06.2020
1773 Clouds 24 1019 73 16093 2.1 20 16:25 08.06.2020
1774 Clouds 24 1019 69 16093 1.5 10 15:59 08.06.2020
1775 Clouds 24 1019 69 16093 1.5 10 15:41 08.06.2020
1776 Clouds 24 1019 69 16093 1.5 10 15:20 08.06.2020
1777 Clouds 24 1019 65 16093 4.69 65 14:56 08.06.2020
1778 Clouds 25 1019 65 16093 4.69 65 14:36 08.06.2020
1779 Clouds 25 1019 65 16093 4.15 67 14:18 08.06.2020
1780 Clouds 25 1019 65 16093 4.15 67 14:18 08.06.2020
1781 Clouds 24 1020 69 16093 4.15 67 13:42 08.06.2020
1782 Clouds 25 1020 65 16093 4.41 73 13:20 08.06.2020
1783 Clouds 25 1020 65 16093 4.41 73 12:40 08.06.2020
1784 Clouds 25 1020 65 16093 4.66 75 12:19 08.06.2020
1785 Clouds 25 1021 65 16093 6.7 70 11:57 08.06.2020
1786 Clouds 25 1021 65 16093 6.7 70 11:38 08.06.2020
1787 Clouds 25 1021 65 16093 6.7 70 11:38 08.06.2020
1788 Clouds 25 1021 65 16093 6.7 70 11:20 08.06.2020
1789 Clouds 25 1020 65 16093 1.5 0 10:56 08.06.2020
1790 Clouds 25 1020 65 16093 1.5 0 10:37 08.06.2020
1791 Clouds 25 1020 65 16093 1.5 0 10:19 08.06.2020
1792 Clouds 25 1020 65 16093 4.6 60 09:43 08.06.2020
1793 Clouds 25 1020 65 16093 4.6 60 09:23 08.06.2020
1794 Clouds 25 1020 65 16093 4.6 70 08:49 08.06.2020
1795 Clouds 25 1020 65 16093 4.6 70 08:23 08.06.2020
1796 Clouds 26 1019 61 16093 6.2 90 07:51 08.06.2020
1797 Clouds 26 1019 61 16093 6.2 90 07:29 08.06.2020
1798 Clouds 26 1019 54 16093 7.2 70 06:58 08.06.2020
1799 Clouds 26 1019 54 16093 7.2 70 06:36 08.06.2020
1800 Rain 27 1019 54 16093 6.2 60 05:54 08.06.2020
1801 Rain 28 1019 54 16093 6.2 70 04:36 08.06.2020
1802 Rain 28 1020 48 16093 8.7 60 02:56 08.06.2020
1803 Rain 28 1020 48 16093 8.7 60 02:25 08.06.2020
1804 Rain 28 1020 45 16093 6.7 80 01:40 08.06.2020
1805 Clouds 29 1020 45 16093 7.2 70 00:41 08.06.2020
1806 Clouds 29 1020 45 16093 7.2 70 00:19 08.06.2020
1807 Clouds 28 1021 48 16093 5.7 70 23:38 07.06.2020
1808 Clouds 28 1021 48 16093 5.7 70 23:18 07.06.2020
1809 Clouds 28 1020 54 16093 7.2 50 22:55 07.06.2020
1810 Clouds 28 1020 54 16093 7.2 50 22:36 07.06.2020
1811 Clouds 28 1020 54 16093 7.2 50 22:18 07.06.2020
1812 Rain 27 1020 58 16093 6.2 50 21:56 07.06.2020
1813 Rain 27 1020 58 16093 6.2 50 21:36 07.06.2020
1814 Rain 27 1020 58 16093 6.2 50 21:18 07.06.2020
1815 Rain 25 1020 65 16093 3.6 70 20:39 07.06.2020
1816 Rain 25 1020 65 16093 3.6 70 20:20 07.06.2020
1817 Clouds 25 1020 73 16093 4.1 40 19:56 07.06.2020
1818 Clouds 25 1020 73 16093 4.1 40 19:38 07.06.2020
1819 Clouds 24 1019 78 16093 5.49 72 19:19 07.06.2020
1820 Clouds 24 1019 78 16093 5.49 72 18:55 07.06.2020
1821 Clouds 24 1019 78 16093 5.49 72 18:37 07.06.2020
1822 Rain 24 1019 78 16093 1.5 10 18:18 07.06.2020
1823 Rain 24 1019 78 16093 1.5 10 17:55 07.06.2020
1824 Rain 24 1019 78 16093 1.5 10 17:36 07.06.2020
1825 Rain 24 1019 78 16093 1.5 10 17:18 07.06.2020
1826 Clouds 24 1019 78 16093 1.5 20 16:42 07.06.2020
1827 Clouds 24 1019 78 16093 1.5 20 16:21 07.06.2020
1828 Clouds 24 1019 78 16093 3.1 50 15:40 07.06.2020
1829 Clouds 24 1019 78 16093 3.1 50 15:20 07.06.2020
1830 Clouds 24 1019 78 16093 2.6 60 14:39 07.06.2020
1831 Clouds 24 1019 78 16093 2.6 60 14:39 07.06.2020
1832 Clouds 24 1019 78 16093 2.6 60 14:21 07.06.2020
1833 Clouds 24 1020 78 16093 2.6 20 13:47 07.06.2020
1834 Clouds 24 1020 78 16093 2.6 20 13:21 07.06.2020
1835 Clouds 25 1020 73 16093 2.1 100 12:55 07.06.2020
1836 Clouds 25 1020 73 16093 2.1 100 12:36 07.06.2020
1837 Clouds 25 1020 73 16093 3.1 50 12:18 07.06.2020
1838 Clouds 25 1020 73 16093 3.1 50 11:54 07.06.2020
1839 Clouds 25 1020 73 16093 3.1 50 11:36 07.06.2020
1840 Clouds 25 1020 73 16093 3.1 50 11:18 07.06.2020
1841 Rain 24 1020 73 16093 4.1 80 10:42 07.06.2020
1842 Rain 24 1020 73 16093 4.1 80 10:20 07.06.2020
1843 Rain 24 1020 69 16093 5.1 70 09:57 07.06.2020
1844 Rain 25 1020 69 16093 5.1 70 09:38 07.06.2020
1845 Rain 25 1020 69 16093 5.1 70 09:20 07.06.2020
1846 Rain 25 1019 65 16093 5.1 60 08:48 07.06.2020
1847 Rain 25 1019 65 16093 5.1 60 08:48 07.06.2020
1848 Rain 25 1019 65 16093 5.1 60 08:23 07.06.2020
1849 Rain 25 1019 61 16093 5.7 70 07:49 07.06.2020
1850 Rain 25 1019 61 16093 5.7 70 07:28 07.06.2020
1851 Rain 26 1018 58 16093 5.7 50 06:43 07.06.2020
1852 Clouds 27 1018 58 16093 8.2 60 05:40 07.06.2020
1853 Clouds 27 1018 58 16093 6.7 60 04:20 07.06.2020
1854 Clouds 28 1019 48 16093 6.7 80 02:32 07.06.2020
1855 Clouds 28 1019 48 16093 6.2 60 01:50 07.06.2020
1856 Clouds 28 1019 48 16093 6.2 60 01:25 07.06.2020
1857 Clouds 28 1019 51 16093 6.2 70 00:42 07.06.2020
1858 Clouds 28 1019 51 16093 6.2 70 00:19 07.06.2020
1859 Rain 28 1019 54 16093 7.7 60 23:57 06.06.2020
1860 Rain 28 1019 54 16093 7.7 60 23:36 06.06.2020
1861 Rain 28 1019 54 16093 7.7 60 23:36 06.06.2020
1862 Rain 28 1019 54 16093 7.7 60 23:18 06.06.2020
1863 Clouds 28 1019 54 16093 8.2 60 22:56 06.06.2020
1864 Clouds 28 1019 54 16093 8.2 60 22:37 06.06.2020
1865 Clouds 28 1019 54 16093 8.2 60 22:18 06.06.2020
1866 Clouds 27 1019 58 16093 4.6 80 21:43 06.06.2020
1867 Clouds 27 1019 58 16093 4.6 80 21:22 06.06.2020
1868 Clouds 26 1019 61 16093 5.1 60 20:56 06.06.2020
1869 Clouds 26 1019 61 16093 5.1 60 20:37 06.06.2020
1870 Clouds 26 1019 61 16093 5.1 60 20:18 06.06.2020
1871 Clouds 25 1018 65 16093 5.7 50 19:56 06.06.2020
1872 Clouds 25 1018 65 16093 5.7 50 19:36 06.06.2020
1873 Rain 25 1018 73 16093 4.1 60 19:18 06.06.2020
1874 Rain 24 1018 73 16093 4.1 60 18:42 06.06.2020
1875 Rain 24 1018 73 16093 4.1 60 18:24 06.06.2020
1876 Rain 24 1018 73 16093 4.1 60 18:24 06.06.2020
1877 Clouds 24 1017 69 16093 3.1 50 17:44 06.06.2020
1878 Clouds 24 1017 69 16093 3.1 50 17:21 06.06.2020
1879 Clouds 24 1017 73 16093 4.1 80 16:58 06.06.2020
1880 Clouds 24 1017 73 16093 4.1 80 16:39 06.06.2020
1881 Clouds 24 1017 73 16093 4.1 80 16:21 06.06.2020
1882 Clouds 24 1017 73 16093 3.1 40 15:55 06.06.2020
1883 Clouds 24 1017 73 16093 3.1 40 15:36 06.06.2020
1884 Clouds 24 1017 73 16093 3.1 40 15:18 06.06.2020
1885 Clouds 24 1017 73 16093 3.6 70 14:39 06.06.2020
1886 Clouds 24 1017 73 16093 3.6 70 14:20 06.06.2020
1887 Clouds 24 1018 69 16093 3.6 50 13:55 06.06.2020
1888 Clouds 25 1018 69 16093 3.6 50 13:37 06.06.2020
1889 Clouds 25 1018 61 16093 3.6 60 13:18 06.06.2020
1890 Clouds 25 1018 61 16093 3.6 60 12:42 06.06.2020
1891 Clouds 25 1018 61 16093 3.6 60 12:22 06.06.2020
1892 Clouds 25 1018 65 16093 3.6 50 11:58 06.06.2020
1893 Clouds 25 1018 65 16093 3.6 50 11:58 06.06.2020
1894 Clouds 25 1018 65 16093 3.6 50 11:38 06.06.2020
1895 Clouds 25 1018 65 16093 3.6 50 11:19 06.06.2020
1896 Clouds 25 1018 61 16093 2.6 50 10:57 06.06.2020
1897 Clouds 25 1018 61 16093 2.6 50 10:39 06.06.2020
1898 Clouds 25 1018 61 16093 2.6 50 10:20 06.06.2020
1899 Clouds 25 1017 61 16093 4.1 60 09:45 06.06.2020
1900 Clouds 25 1017 61 16093 4.1 60 09:27 06.06.2020
1901 Clouds 25 1016 61 16093 4.6 80 08:50 06.06.2020
1902 Clouds 25 1016 61 16093 4.6 80 08:25 06.06.2020
1903 Clouds 26 1016 57 16093 5.7 60 07:59 06.06.2020
1904 Clouds 26 1016 57 16093 5.7 60 07:40 06.06.2020
1905 Clouds 26 1016 57 16093 5.7 60 07:20 06.06.2020
1906 Clouds 26 1015 51 16093 6.2 60 06:46 06.06.2020
1907 Clouds 26 1015 51 16093 6.2 60 06:26 06.06.2020
1908 Clouds 27 1015 48 16093 7.2 60 05:44 06.06.2020
1909 Clouds 27 1015 48 16093 7.2 60 05:24 06.06.2020
1910 Clouds 29 1015 48 16093 7.2 80 04:24 06.06.2020
1911 Clouds 30 1016 40 16093 9.8 80 02:36 06.06.2020
1912 Clouds 30 1016 43 16093 9.3 60 01:24 06.06.2020
1913 Clouds 28 1017 45 16093 11.3 60 00:59 06.06.2020
1914 Clouds 28 1017 45 16093 11.3 60 00:40 06.06.2020
1915 Clouds 28 1017 45 16093 11.3 60 00:22 06.06.2020
1916 Clouds 28 1017 48 16093 8.2 50 23:40 05.06.2020
1917 Clouds 28 1017 48 16093 8.2 50 23:20 05.06.2020
1918 Clouds 27 1017 48 16093 7.7 60 22:57 05.06.2020
1919 Clouds 27 1017 48 16093 7.7 60 22:39 05.06.2020
1920 Clouds 27 1017 48 16093 7.7 60 22:20 05.06.2020
1921 Clouds 27 1017 48 16093 7.2 60 21:54 05.06.2020
1922 Clouds 27 1017 48 16093 7.2 60 21:36 05.06.2020
1923 Clouds 27 1017 48 16093 7.2 60 21:18 05.06.2020
1924 Clouds 26 1017 57 16093 5.7 60 20:44 05.06.2020
1925 Clouds 26 1017 57 16093 5.7 60 20:22 05.06.2020
1926 Clouds 25 1017 61 16093 5.7 80 19:44 05.06.2020
1927 Clouds 25 1017 61 16093 5.7 80 19:24 05.06.2020
1928 Clouds 24 1016 73 16093 6.2 60 18:59 05.06.2020
1929 Clouds 24 1016 73 16093 6.2 60 18:39 05.06.2020
1930 Rain 23 1016 73 16093 4.1 40 18:20 05.06.2020
1931 Rain 23 1016 73 16093 4.1 40 17:58 05.06.2020
1932 Rain 23 1016 73 16093 4.1 40 17:58 05.06.2020
1933 Rain 23 1016 73 16093 4.1 40 17:40 05.06.2020
1934 Rain 23 1016 73 16093 4.1 40 17:19 05.06.2020
1935 Rain 24 1016 73 16093 3.1 50 16:40 05.06.2020
1936 Clouds 24 1016 73 16093 3.1 50 16:22 05.06.2020
1937 Clouds 25 1016 69 16093 4.6 50 15:57 05.06.2020
1938 Clouds 25 1016 69 16093 4.6 50 15:37 05.06.2020
1939 Clouds 25 1016 69 16093 4.6 50 15:19 05.06.2020
1940 Clouds 25 1016 65 16093 5.1 60 14:56 05.06.2020
1941 Clouds 25 1016 65 16093 5.1 60 14:37 05.06.2020
1942 Clouds 25 1016 65 16093 5.1 60 14:19 05.06.2020
1943 Clouds 25 1016 65 16093 4.6 60 13:42 05.06.2020
1944 Clouds 25 1016 65 16093 4.6 60 13:24 05.06.2020
1945 Clouds 25 1017 65 16093 5.7 50 12:55 05.06.2020
1946 Clouds 25 1017 65 16093 5.7 50 12:36 05.06.2020
1947 Clouds 25 1017 65 16093 5.7 50 12:18 05.06.2020
1948 Clouds 25 1017 65 16093 5.1 50 11:42 05.06.2020
1949 Clouds 25 1017 65 16093 5.1 50 11:22 05.06.2020
1950 Clouds 25 1017 65 16093 5.7 60 10:55 05.06.2020
1951 Clouds 25 1017 65 16093 5.7 60 10:36 05.06.2020
1952 Clouds 25 1017 65 16093 5.7 60 10:18 05.06.2020
1953 Clouds 25 1017 65 16093 6.2 60 09:55 05.06.2020
1954 Clouds 25 1017 65 16093 6.2 60 09:36 05.06.2020
1955 Clouds 25 1017 65 16093 6.2 60 09:18 05.06.2020
1956 Clouds 26 1016 61 16093 6.2 50 08:41 05.06.2020
1957 Clouds 26 1016 61 16093 6.2 50 08:20 05.06.2020
1958 Clouds 26 1015 61 16093 5.7 60 07:58 05.06.2020
1959 Clouds 26 1015 61 16093 5.7 60 07:39 05.06.2020
1960 Clouds 26 1015 61 16093 5.7 60 07:19 05.06.2020
1961 Rain 27 1015 61 16093 6.7 50 05:50 05.06.2020
1962 Rain 27 1015 61 16093 6.7 50 05:19 05.06.2020
1963 Rain 28 1015 54 16093 7.7 60 03:53 05.06.2020
1964 Clouds 29 1016 51 16093 7.7 50 02:45 05.06.2020
1965 Clouds 29 1016 51 16093 7.7 50 02:21 05.06.2020
1966 Clouds 28 1016 54 16093 7.2 40 01:52 05.06.2020
1967 Rain 28 1017 58 16093 7.2 60 00:59 05.06.2020
1968 Rain 28 1017 58 16093 7.2 60 00:39 05.06.2020
1969 Rain 28 1017 51 16093 8.7 60 00:19 05.06.2020
1970 Clouds 28 1017 51 16093 8.7 60 23:46 04.06.2020
1971 Clouds 28 1017 51 16093 8.7 60 23:46 04.06.2020
1972 Clouds 27 1017 51 16093 8.7 60 23:24 04.06.2020
1973 Clouds 28 1017 54 16093 7.2 60 22:44 04.06.2020
1974 Clouds 28 1017 54 16093 7.2 60 22:22 04.06.2020
1975 Clouds 28 1017 58 16093 7.2 60 21:59 04.06.2020
1976 Clouds 27 1017 58 16093 7.2 60 21:40 04.06.2020
1977 Clouds 27 1017 58 16093 7.2 60 21:21 04.06.2020
1978 Clouds 27 1017 61 16093 4.1 60 20:58 04.06.2020
1979 Clouds 26 1017 61 16093 4.1 60 20:39 04.06.2020
1980 Clouds 26 1017 61 16093 4.1 60 20:20 04.06.2020
1981 Clouds 26 1017 65 16093 5.7 50 19:55 04.06.2020
1982 Clouds 26 1017 65 16093 5.7 50 19:37 04.06.2020
1983 Clouds 25 1016 69 16093 4.6 60 19:19 04.06.2020
1984 Clouds 25 1016 69 16093 4.6 60 18:39 04.06.2020
1985 Clouds 25 1016 69 16093 4.6 60 18:21 04.06.2020
1986 Clouds 25 1016 69 16093 3.1 50 17:58 04.06.2020
1987 Clouds 25 1016 69 16093 3.1 50 17:40 04.06.2020
1988 Clouds 25 1016 69 16093 3.1 50 17:19 04.06.2020
1989 Rain 25 1016 73 16093 4.6 60 16:41 04.06.2020
1990 Rain 25 1016 73 16093 4.6 60 16:20 04.06.2020
1991 Clouds 25 1016 65 16093 4.6 60 15:46 04.06.2020
1992 Clouds 25 1016 65 16093 4.6 60 15:27 04.06.2020
1993 Clouds 25 1016 65 16093 4.1 60 14:56 04.06.2020
1994 Clouds 25 1016 65 16093 4.1 60 14:37 04.06.2020
1995 Clouds 25 1016 65 16093 4.1 60 14:18 04.06.2020
1996 Clouds 25 1017 65 16093 5.7 70 13:41 04.06.2020
1997 Clouds 25 1018 65 16093 6.2 80 13:21 04.06.2020
1998 Clouds 25 1018 65 16093 6.2 80 12:59 04.06.2020
1999 Clouds 25 1018 65 16093 6.2 80 12:41 04.06.2020
2000 Clouds 25 1018 65 16093 6.2 80 12:22 04.06.2020
2001 Clouds 25 1018 61 16093 7.7 70 11:55 04.06.2020
2002 Clouds 25 1018 61 16093 7.7 70 11:37 04.06.2020
2003 Clouds 25 1018 61 16093 7.7 70 11:19 04.06.2020
2004 Clouds 25 1018 61 16093 7.7 60 10:41 04.06.2020
2005 Clouds 25 1018 61 16093 7.7 60 10:23 04.06.2020
2006 Clouds 26 1017 61 16093 6.2 50 09:58 04.06.2020
2007 Clouds 26 1017 61 16093 6.2 50 09:40 04.06.2020
2008 Clouds 26 1017 61 16093 6.2 50 09:20 04.06.2020
2009 Clouds 26 1017 61 16093 5.7 60 08:42 04.06.2020
2010 Clouds 26 1017 61 16093 5.7 60 08:24 04.06.2020
2011 Clouds 26 1016 58 16093 6.7 50 07:46 04.06.2020
2012 Clouds 26 1016 58 16093 6.7 50 07:22 04.06.2020
2013 Rain 27 1015 54 16093 7.2 60 06:42 04.06.2020
2014 Rain 27 1015 58 16093 6.2 50 06:23 04.06.2020
2015 Rain 28 1015 58 16093 6.2 50 05:34 04.06.2020
2016 Rain 28 1015 58 16093 6.2 50 05:34 04.06.2020
2017 Rain 29 1015 48 16093 7.2 60 03:54 04.06.2020
2018 Clouds 30 1016 48 16093 8.2 70 02:38 04.06.2020
2019 Clouds 30 1016 48 16093 7.7 50 01:39 04.06.2020
2020 Clouds 30 1017 48 16093 5.7 30 01:19 04.06.2020
2021 Clouds 30 1017 51 16093 6.7 70 00:20 04.06.2020
2022 Clouds 30 1017 51 16093 6.7 70 23:39 03.06.2020
2023 Clouds 29 1017 51 16093 6.7 70 23:19 03.06.2020
2024 Clouds 29 1017 51 16093 6.7 50 22:56 03.06.2020
2025 Clouds 29 1017 51 16093 6.7 50 22:38 03.06.2020
2026 Clouds 29 1017 51 16093 6.7 50 22:18 03.06.2020
2027 Clouds 28 1017 58 16093 4.6 40 21:55 03.06.2020
2028 Clouds 28 1017 58 16093 4.6 40 21:37 03.06.2020
2029 Clouds 28 1017 58 16093 4.6 40 21:18 03.06.2020
2030 Clouds 27 1017 65 16093 3.6 60 20:42 03.06.2020
2031 Clouds 27 1017 65 16093 3.6 60 20:21 03.06.2020
2032 Clouds 27 1017 65 16093 3.6 60 20:21 03.06.2020
2033 Clouds 26 1016 73 16093 1.5 360 19:57 03.06.2020
2034 Clouds 25 1016 73 16093 1.5 360 19:39 03.06.2020
2035 Clouds 25 1016 78 16093 1.5 50 19:20 03.06.2020
2036 Clouds 24 1016 78 16093 1.5 50 18:58 03.06.2020
2037 Clouds 24 1016 78 16093 1.5 50 18:40 03.06.2020
2038 Clouds 24 1015 73 16093 2.1 60 18:19 03.06.2020
2039 Clouds 24 1015 73 16093 2.1 60 17:45 03.06.2020
2040 Clouds 24 1015 73 16093 2.1 60 17:23 03.06.2020
2041 Clouds 24 1015 78 16093 4.1 60 16:58 03.06.2020
2042 Clouds 24 1015 78 16093 4.1 60 16:39 03.06.2020
2043 Clouds 24 1015 78 16093 4.1 60 16:19 03.06.2020
2044 Clouds 25 1015 73 16093 3.1 50 15:54 03.06.2020
2045 Clouds 25 1015 73 16093 3.1 50 15:36 03.06.2020
2046 Clouds 25 1015 73 16093 3.1 50 15:18 03.06.2020
2047 Clouds 25 1016 73 16093 4.1 50 14:42 03.06.2020
2048 Clouds 25 1016 73 16093 4.1 50 14:22 03.06.2020
2049 Clouds 25 1016 78 16093 5.1 60 13:40 03.06.2020
2050 Clouds 25 1017 74 16093 4.1 60 13:20 03.06.2020
2051 Clouds 25 1016 78 16093 5.1 60 13:20 03.06.2020
2052 Clouds 25 1017 74 16093 4.1 60 12:54 03.06.2020
2053 Clouds 25 1017 74 16093 4.1 60 12:36 03.06.2020
2054 Clouds 25 1017 74 16093 4.1 60 12:36 03.06.2020
2055 Clouds 25 1017 69 16093 4.1 40 12:18 03.06.2020
2056 Clouds 25 1017 69 16093 4.1 40 11:41 03.06.2020
2057 Clouds 25 1017 69 16093 4.1 40 11:23 03.06.2020
2058 Clouds 25 1017 74 16093 3.1 60 10:43 03.06.2020
2059 Clouds 25 1017 74 16093 3.1 60 10:24 03.06.2020
2060 Clouds 25 1017 74 16093 4.1 70 09:47 03.06.2020
2061 Clouds 25 1017 74 16093 4.1 70 09:23 03.06.2020
2062 Rain 25 1017 74 16093 4.1 40 08:59 03.06.2020
2063 Rain 25 1017 74 16093 4.1 40 08:41 03.06.2020
2064 Rain 26 1016 69 16093 3.6 30 08:21 03.06.2020
2065 Rain 26 1016 69 16093 3.6 30 07:44 03.06.2020
2066 Rain 26 1016 61 16093 5.1 30 07:23 03.06.2020
2067 Rain 27 1016 61 16093 5.1 30 06:54 03.06.2020
2068 Rain 28 1016 61 16093 5.1 30 06:33 03.06.2020
2069 Clouds 28 1015 55 16093 6.7 30 05:49 03.06.2020
2070 Clouds 29 1015 55 16093 6.7 30 05:21 03.06.2020
2071 Clouds 30 1016 52 16093 6.7 40 03:52 03.06.2020
2072 Clouds 30 1016 52 16093 6.7 40 03:23 03.06.2020
2073 Clouds 30 1016 52 16093 6.2 50 02:24 03.06.2020
2074 Clouds 30 1017 55 16093 4.6 20 00:49 03.06.2020
2075 Clouds 30 1017 55 16093 4.6 20 00:26 03.06.2020
2076 Clouds 30 1017 55 16093 5.1 70 23:52 02.06.2020
2077 Clouds 30 1017 55 16093 5.1 70 23:28 02.06.2020
2078 Clouds 29 1017 54 16093 3.6 60 22:58 02.06.2020
2079 Clouds 29 1017 54 16093 3.6 60 22:39 02.06.2020
2080 Clouds 29 1017 54 16093 3.6 60 22:39 02.06.2020
2081 Clouds 29 1017 54 16093 3.6 60 22:19 02.06.2020
2082 Clouds 28 1017 61 16093 2.6 0 21:57 02.06.2020
2083 Clouds 27 1017 61 16093 2.6 0 21:38 02.06.2020
2084 Clouds 27 1017 61 16093 2.6 0 21:20 02.06.2020
2085 Clouds 26 1017 69 16093 2.1 60 20:58 02.06.2020
2086 Clouds 26 1017 69 16093 2.1 60 20:40 02.06.2020
2087 Clouds 26 1017 69 16093 2.1 60 20:21 02.06.2020
2088 Clouds 25 1016 69 16093 2.6 40 19:44 02.06.2020
2089 Clouds 25 1016 69 16093 2.6 40 19:26 02.06.2020
2090 Clouds 25 1016 69 16093 2.6 40 19:26 02.06.2020
2091 Clouds 24 1016 78 16093 1.5 30 18:58 02.06.2020
2092 Clouds 24 1016 78 16093 1.5 30 18:58 02.06.2020
2093 Clouds 24 1016 78 16093 1.5 30 18:40 02.06.2020
2094 Clouds 24 1016 78 16093 1.5 30 18:20 02.06.2020
2095 Clouds 24 1015 73 16093 2.1 40 17:55 02.06.2020
2096 Clouds 24 1015 73 16093 2.1 40 17:37 02.06.2020
2097 Clouds 24 1015 73 16093 2.1 40 17:19 02.06.2020
2098 Clouds 25 1015 78 16093 2.1 20 16:54 02.06.2020
2099 Clouds 25 1015 78 16093 2.1 20 16:36 02.06.2020
2100 Clouds 25 1015 78 16093 2.1 20 16:18 02.06.2020
2101 Clouds 25 1016 78 16093 2.1 30 15:40 02.06.2020
2102 Clouds 25 1016 78 16093 2.1 30 15:20 02.06.2020
2103 Clouds 25 1016 78 16093 2.1 30 15:20 02.06.2020
2104 Rain 25 1016 73 16093 4.1 60 14:46 02.06.2020
2105 Rain 25 1016 73 16093 4.1 60 14:27 02.06.2020
2106 Rain 26 1017 69 16093 4.1 80 13:55 02.06.2020
2107 Rain 26 1017 69 16093 4.1 80 13:36 02.06.2020
2108 Rain 26 1017 69 16093 4.1 80 13:18 02.06.2020
2109 Rain 26 1017 69 16093 1.5 40 12:54 02.06.2020
2110 Clouds 24 1017 69 16093 1.5 40 12:36 02.06.2020
2111 Clouds 25 1017 69 16093 1.5 40 12:18 02.06.2020
2112 Clouds 26 1017 69 16093 3.6 70 11:40 02.06.2020
2113 Clouds 26 1017 69 16093 3.6 70 11:21 02.06.2020
2114 Clouds 26 1017 74 16093 2.1 40 10:55 02.06.2020
2115 Clouds 26 1017 74 16093 2.1 40 10:37 02.06.2020
2116 Clouds 26 1017 74 16093 2.1 40 10:18 02.06.2020
2117 Clouds 27 1017 61 16093 2.1 20 09:42 02.06.2020
2118 Clouds 27 1017 61 16093 2.1 20 09:21 02.06.2020
2119 Clouds 26 1016 65 16093 3.6 30 08:53 02.06.2020
2120 Clouds 26 1016 65 16093 3.6 30 08:28 02.06.2020
2121 Rain 27 1016 65 16093 3.6 30 07:55 02.06.2020
2122 Rain 27 1016 61 16093 4.1 20 07:31 02.06.2020
2123 Rain 28 1015 58 16093 5.1 50 06:51 02.06.2020
2124 Rain 28 1015 58 16093 5.1 50 06:31 02.06.2020
2125 Clouds 29 1015 51 16093 5.7 50 05:28 02.06.2020
2126 Clouds 30 1016 45 16093 4.1 50 03:53 02.06.2020
2127 Clouds 31 1016 45 16093 5.7 40 02:30 02.06.2020
2128 Clouds 30 1017 48 16093 5.1 50 01:34 02.06.2020
2129 Clouds 30 1017 48 16093 4.1 10 00:26 02.06.2020
2130 Clouds 30 1017 45 16093 5.7 60 23:59 01.06.2020
2131 Clouds 30 1017 45 16093 5.7 60 23:38 01.06.2020
2132 Clouds 30 1017 45 16093 5.7 60 23:18 01.06.2020
2133 Clouds 29 1018 54 16093 4.1 40 22:54 01.06.2020
2134 Clouds 29 1018 54 16093 4.1 40 22:36 01.06.2020
2135 Clouds 29 1018 54 16093 4.1 40 22:18 01.06.2020
2136 Clouds 28 1018 54 16093 3.6 30 21:40 01.06.2020
2137 Clouds 28 1018 54 16093 3.6 30 21:40 01.06.2020
2138 Clouds 28 1018 54 16093 3.6 30 21:20 01.06.2020
2139 Clouds 28 1018 61 16093 2.1 0 20:56 01.06.2020
2140 Clouds 28 1018 61 16093 2.1 0 20:56 01.06.2020
2141 Clouds 27 1017 65 16093 2.1 40 20:38 01.06.2020
2142 Clouds 27 1017 65 16093 2.1 40 20:19 01.06.2020
2143 Clouds 26 1017 65 16093 2.1 40 19:43 01.06.2020
2144 Clouds 25 1017 73 16093 1.5 30 19:21 01.06.2020
2145 Clouds 25 1017 73 16093 1.5 30 18:59 01.06.2020
2146 Clouds 25 1017 73 16093 1.5 30 18:39 01.06.2020
2147 Rain 25 1017 73 16093 3.1 360 18:20 01.06.2020
2148 Rain 25 1017 73 16093 3.1 360 18:20 01.06.2020
2149 Rain 25 1017 73 16093 3.1 360 17:58 01.06.2020
2150 Rain 25 1017 73 16093 3.1 360 17:40 01.06.2020
2151 Rain 25 1017 73 16093 3.1 360 17:19 01.06.2020
2152 Rain 25 1017 69 16093 2.1 360 16:42 01.06.2020
2153 Rain 25 1017 69 16093 2.1 360 16:22 01.06.2020
2154 Clouds 25 1017 69 16093 2.1 30 15:57 01.06.2020
2155 Clouds 25 1017 69 16093 2.1 30 15:39 01.06.2020
2156 Clouds 25 1017 69 16093 2.1 30 15:19 01.06.2020
2157 Clouds 25 1017 69 16093 1.5 50 14:57 01.06.2020
2158 Clouds 25 1017 69 16093 1.5 50 14:38 01.06.2020
2159 Clouds 25 1017 69 16093 1.5 50 14:20 01.06.2020
2160 Clouds 25 1018 65 16093 3.1 70 13:44 01.06.2020
2161 Clouds 25 1018 65 16093 3.1 70 13:22 01.06.2020
2162 Clouds 26 1018 65 16093 3.1 60 12:59 01.06.2020
2163 Clouds 26 1018 65 16093 3.1 60 12:40 01.06.2020
2164 Clouds 26 1018 65 16093 3.1 60 12:40 01.06.2020
2165 Clouds 26 1018 65 16093 3.1 60 12:40 01.06.2020
2166 Clouds 26 1018 65 16093 3.1 60 12:22 01.06.2020
2167 Clouds 26 1019 65 16093 4.1 40 11:58 01.06.2020
2168 Clouds 26 1019 65 16093 4.1 40 11:37 01.06.2020
2169 Clouds 26 1019 65 16093 3.6 40 11:19 01.06.2020
2170 Clouds 26 1019 65 16093 3.6 40 11:19 01.06.2020
2171 Clouds 26 1019 65 16093 3.6 40 10:56 01.06.2020
2172 Clouds 26 1019 65 16093 3.6 40 10:36 01.06.2020
2173 Clouds 26 1019 65 16093 3.6 40 10:18 01.06.2020
2174 Clouds 26 1018 65 16093 4.1 60 09:44 01.06.2020
2175 Clouds 26 1018 65 16093 4.1 60 09:25 01.06.2020
2176 Clouds 26 1018 65 16093 5.7 50 08:57 01.06.2020
2177 Clouds 26 1018 65 16093 5.7 50 08:34 01.06.2020
2178 Clouds 27 1018 57 16093 5.1 70 07:59 01.06.2020
2179 Clouds 27 1018 57 16093 5.1 70 07:40 01.06.2020
2180 Clouds 27 1018 57 16093 5.1 70 07:22 01.06.2020
2181 Clouds 27 1017 57 16093 5.7 50 06:49 01.06.2020
2182 Clouds 28 1017 51 16093 6.7 50 05:57 01.06.2020
2183 Clouds 28 1017 51 16093 6.2 70 04:56 01.06.2020
2184 Clouds 29 1017 51 16093 5.1 20 03:56 01.06.2020
2185 Clouds 29 1017 51 16093 5.1 20 03:37 01.06.2020
2186 Clouds 29 1018 48 16093 7.7 20 02:42 01.06.2020
2187 Clouds 29 1018 48 16093 5.1 30 01:38 01.06.2020
2188 Clouds 30 1018 40 16093 8.2 60 01:18 01.06.2020
2189 Clouds 30 1018 40 16093 8.2 60 00:40 01.06.2020
2190 Clouds 30 1018 40 16093 8.2 60 00:21 01.06.2020
2191 Clouds 29 1019 48 16093 7.2 30 23:58 31.05.2020
2192 Clouds 29 1019 48 16093 7.2 30 23:40 31.05.2020
2193 Clouds 29 1019 48 16093 7.2 30 23:22 31.05.2020
2194 Clouds 28 1019 54 16093 5.7 60 22:57 31.05.2020
2195 Clouds 28 1019 54 16093 5.7 60 22:38 31.05.2020
2196 Clouds 28 1019 54 16093 5.7 60 22:20 31.05.2020
2197 Clouds 28 1019 54 16093 6.2 40 21:42 31.05.2020
2198 Clouds 28 1019 54 16093 6.2 40 21:24 31.05.2020
2199 Clouds 27 1019 57 16093 5.1 50 20:59 31.05.2020
2200 Clouds 27 1019 57 16093 5.1 50 20:58 31.05.2020
2201 Clouds 27 1019 57 16093 5.1 50 20:40 31.05.2020
2202 Clouds 27 1019 57 16093 5.1 50 20:21 31.05.2020
2203 Clouds 25 1019 69 16093 1.5 0 19:56 31.05.2020
2204 Clouds 25 1019 69 16093 1.5 0 19:37 31.05.2020
2205 Clouds 25 1019 69 16093 1.5 0 19:19 31.05.2020
2206 Clouds 24 1019 69 16093 3.1 70 18:44 31.05.2020
2207 Clouds 24 1019 69 16093 3.1 70 18:25 31.05.2020
2208 Clouds 24 1019 64 16093 3.1 70 17:46 31.05.2020
2209 Clouds 24 1019 64 16093 3.1 70 17:26 31.05.2020
2210 Clouds 24 1018 64 16093 5.7 50 17:00 31.05.2020
2211 Clouds 24 1018 64 16093 5.7 50 16:40 31.05.2020
2212 Clouds 24 1018 64 16093 5.7 50 16:21 31.05.2020
2213 Clouds 24 1019 64 16093 3.6 40 15:40 31.05.2020
2214 Clouds 24 1019 64 16093 3.6 40 15:40 31.05.2020
2215 Clouds 24 1019 64 16093 3.6 40 15:21 31.05.2020
2216 Clouds 24 1019 64 16093 3.6 40 15:21 31.05.2020
2217 Clouds 24 1019 69 16093 3.1 50 14:47 31.05.2020
2218 Clouds 24 1019 69 16093 3.1 50 14:23 31.05.2020
2219 Clouds 24 1020 69 16093 3.6 60 13:57 31.05.2020
2220 Clouds 24 1020 69 16093 3.6 60 13:38 31.05.2020
2221 Clouds 24 1020 69 16093 3.6 60 13:20 31.05.2020
2222 Clouds 25 1020 65 16093 5.1 50 12:58 31.05.2020
2223 Clouds 25 1020 65 16093 5.1 50 12:39 31.05.2020
2224 Clouds 25 1020 65 16093 5.1 50 12:21 31.05.2020
2225 Clouds 25 1020 65 16093 5.1 70 11:49 31.05.2020
2226 Clouds 25 1020 65 16093 5.1 70 11:24 31.05.2020
2227 Clouds 25 1020 61 16093 2.1 30 10:57 31.05.2020
2228 Clouds 25 1020 61 16093 2.1 30 10:39 31.05.2020
2229 Clouds 25 1020 61 16093 2.1 30 10:21 31.05.2020
2230 Clouds 25 1020 61 16093 2.6 70 09:42 31.05.2020
2231 Clouds 25 1020 61 16093 2.6 70 09:23 31.05.2020
2232 Clouds 25 1020 57 16093 5.7 50 08:59 31.05.2020
2233 Clouds 25 1020 57 16093 5.7 50 08:40 31.05.2020
2234 Clouds 25 1020 57 16093 5.7 50 08:21 31.05.2020
2235 Clouds 25 1019 54 16093 3.6 20 07:46 31.05.2020
2236 Clouds 26 1019 54 16093 3.6 20 07:21 31.05.2020
2237 Clouds 26 1019 54 16093 4.1 40 06:54 31.05.2020
2238 Clouds 26 1019 54 16093 4.1 40 06:32 31.05.2020
2239 Clouds 27 1019 54 16093 4.6 50 05:44 31.05.2020
2240 Clouds 28 1019 54 16093 5.1 70 04:31 31.05.2020
2241 Clouds 28 1019 51 16093 6.2 30 03:49 31.05.2020
2242 Clouds 29 1019 51 16093 8.2 40 02:59 31.05.2020
2243 Clouds 29 1019 48 16093 6.7 50 01:50 31.05.2020
2244 Clouds 28 1019 48 16093 6.7 50 01:27 31.05.2020
2245 Clouds 30 1020 48 16093 7.2 30 00:31 31.05.2020
2246 Clouds 29 1020 51 16093 6.7 40 23:57 30.05.2020
2247 Clouds 29 1020 51 16093 6.7 40 23:38 30.05.2020
2248 Clouds 28 1021 54 16093 5.7 40 23:19 30.05.2020
2249 Clouds 28 1021 54 16093 5.7 40 22:41 30.05.2020
2250 Clouds 28 1021 54 16093 5.7 40 22:23 30.05.2020
2251 Clouds 28 1021 51 16093 4.1 30 21:56 30.05.2020
2252 Clouds 28 1021 51 16093 4.1 30 21:56 30.05.2020
2253 Clouds 28 1021 51 16093 4.1 30 21:37 30.05.2020
2254 Clouds 27 1021 61 16093 3.1 80 21:19 30.05.2020
2255 Clouds 26 1021 61 16093 3.1 80 20:56 30.05.2020
2256 Clouds 26 1021 61 16093 3.1 80 20:37 30.05.2020
2257 Clouds 26 1021 61 16093 3.1 80 20:19 30.05.2020
2258 Clouds 24 1020 78 16093 2.1 320 19:42 30.05.2020
2259 Clouds 24 1020 78 16093 2.1 320 19:21 30.05.2020
2260 Clouds 24 1020 78 16093 1.5 340 18:45 30.05.2020
2261 Clouds 24 1020 78 16093 1.5 340 18:24 30.05.2020
2262 Clear 24 1020 78 16093 3.1 330 17:55 30.05.2020
2263 Clear 24 1020 78 16093 3.1 330 17:37 30.05.2020
2264 Clouds 24 1020 78 16093 2.1 350 17:18 30.05.2020
2265 Clouds 24 1020 78 16093 2.1 350 16:41 30.05.2020
2266 Clouds 24 1020 78 16093 2.1 350 16:22 30.05.2020
2267 Rain 24 1020 69 16093 4.46 53 15:48 30.05.2020
2268 Rain 24 1020 69 16093 4.76 57 15:28 30.05.2020
2269 Clouds 24 1020 73 16093 2.6 70 14:46 30.05.2020
2270 Clouds 24 1020 73 16093 2.6 70 14:27 30.05.2020
2271 Clouds 24 1021 69 16093 3.6 90 13:46 30.05.2020
2272 Clouds 24 1021 69 16093 3.6 90 13:27 30.05.2020
2273 Clouds 25 1021 65 16093 2.1 40 12:55 30.05.2020
2274 Clouds 25 1021 65 16093 2.1 40 12:36 30.05.2020
2275 Clouds 25 1022 69 16093 1.5 10 12:18 30.05.2020
2276 Clouds 24 1022 69 16093 1.5 10 11:41 30.05.2020
2277 Clouds 24 1022 69 16093 1.5 10 11:22 30.05.2020
2278 Clouds 25 1021 65 16093 4.6 50 10:55 30.05.2020
2279 Clouds 25 1021 65 16093 4.6 50 10:37 30.05.2020
2280 Clouds 25 1021 61 16093 4.1 40 10:19 30.05.2020
2281 Clouds 25 1021 61 16093 4.1 40 09:42 30.05.2020
2282 Clouds 25 1021 61 16093 4.1 40 09:24 30.05.2020
2283 Clouds 25 1021 61 16093 4.6 60 08:41 30.05.2020
2284 Clouds 25 1021 61 16093 4.6 60 08:22 30.05.2020
2285 Clouds 26 1020 57 16093 4.1 60 07:39 30.05.2020
2286 Clouds 26 1020 57 16093 4.1 60 07:18 30.05.2020
2287 Clouds 27 1019 51 16093 5.1 50 06:28 30.05.2020
2288 Clouds 28 1019 48 16093 8.2 50 05:49 30.05.2020
2289 Clouds 28 1019 51 16093 8.7 60 04:37 30.05.2020
2290 Clouds 29 1019 45 16093 6.7 40 02:34 30.05.2020
2291 Clouds 29 1020 45 16093 6.2 70 01:57 30.05.2020
2292 Clouds 29 1020 42 16093 6.7 50 00:44 30.05.2020
2293 Clouds 29 1020 42 16093 6.7 50 00:24 30.05.2020
2294 Clouds 29 1020 48 16093 7.2 40 23:59 29.05.2020
2295 Clouds 29 1020 48 16093 7.2 40 23:38 29.05.2020
2296 Clouds 28 1020 48 16093 7.2 40 23:19 29.05.2020
2297 Clouds 28 1021 51 16093 3.6 70 22:42 29.05.2020
2298 Clouds 28 1021 51 16093 5.7 70 22:21 29.05.2020
2299 Clouds 28 1021 51 16093 5.7 70 21:59 29.05.2020
2300 Clouds 28 1021 51 16093 5.7 70 21:39 29.05.2020
2301 Clouds 27 1021 61 16093 2.1 50 21:20 29.05.2020
2302 Clouds 27 1021 61 16093 2.1 50 20:55 29.05.2020
2303 Clouds 27 1021 61 16093 2.1 50 20:37 29.05.2020
2304 Clouds 26 1021 61 16093 2.1 50 20:18 29.05.2020
2305 Clouds 25 1021 65 16093 3.6 70 19:42 29.05.2020
2306 Clouds 25 1021 65 16093 3.6 70 19:23 29.05.2020
2307 Clouds 24 1020 64 16093 5.1 60 18:47 29.05.2020
2308 Clouds 24 1020 64 16093 5.1 60 18:22 29.05.2020
2309 Clouds 24 1020 69 16093 2.1 0 17:57 29.05.2020
2310 Clouds 24 1020 69 16093 2.1 0 17:38 29.05.2020
2311 Clouds 24 1020 69 16093 2.1 0 17:38 29.05.2020
2312 Clouds 24 1020 64 16093 2.6 0 17:20 29.05.2020
2313 Clouds 24 1020 64 16093 2.6 0 16:45 29.05.2020
2314 Clouds 24 1020 64 16093 2.6 0 16:27 29.05.2020
2315 Clouds 24 1020 69 16093 2.1 60 15:58 29.05.2020
2316 Clouds 24 1020 69 16093 2.1 60 15:39 29.05.2020
2317 Clouds 24 1020 69 16093 2.1 60 15:20 29.05.2020
2318 Rain 25 1020 65 16093 4.1 60 14:51 29.05.2020
2319 Rain 24 1020 65 16093 4.1 60 14:24 29.05.2020
2320 Clouds 24 1021 65 16093 3.6 70 13:58 29.05.2020
2321 Clouds 25 1021 65 16093 3.6 70 13:40 29.05.2020
2322 Clouds 25 1021 65 16093 3.6 70 13:21 29.05.2020
2323 Clouds 25 1021 65 16093 3.6 60 12:44 29.05.2020
2324 Clouds 25 1021 65 16093 3.6 60 12:25 29.05.2020
2325 Clouds 25 1021 61 16093 4.6 50 11:46 29.05.2020
2326 Clouds 25 1021 61 16093 4.6 50 11:27 29.05.2020
2327 Clouds 25 1021 65 16093 3.6 40 10:58 29.05.2020
2328 Clouds 25 1021 65 16093 3.6 40 10:38 29.05.2020
2329 Clouds 25 1021 65 16093 3.6 40 10:20 29.05.2020
2330 Clouds 25 1020 61 16093 4.1 40 09:45 29.05.2020
2331 Clouds 25 1020 61 16093 4.1 40 09:21 29.05.2020
2332 Clouds 25 1020 57 16093 5.7 50 08:57 29.05.2020
2333 Clouds 25 1020 57 16093 5.7 50 08:39 29.05.2020
2334 Clouds 25 1020 57 16093 5.7 50 08:20 29.05.2020
2335 Clouds 25 1020 57 16093 5.7 50 07:40 29.05.2020
2336 Clouds 25 1020 57 16093 5.7 50 07:22 29.05.2020
2337 Clouds 26 1019 54 16093 6.2 70 06:48 29.05.2020
2338 Clouds 26 1019 54 16093 6.2 70 06:28 29.05.2020
2339 Clouds 27 1019 45 16093 6.7 70 05:52 29.05.2020
2340 Clouds 28 1019 42 16093 9.3 60 02:56 29.05.2020
2341 Clouds 28 1020 45 16093 7.2 50 01:42 29.05.2020
2342 Clouds 28 1020 45 16093 7.2 50 01:23 29.05.2020
2343 Clouds 28 1020 45 16093 8.2 60 00:46 29.05.2020
2344 Clouds 28 1020 45 16093 8.2 60 00:21 29.05.2020
2345 Clouds 28 1020 45 16093 7.7 70 23:40 28.05.2020
2346 Clouds 28 1020 45 16093 7.7 70 23:19 28.05.2020
2347 Rain 27 1021 48 16093 5.1 60 22:44 28.05.2020
2348 Rain 27 1021 48 16093 5.1 60 22:26 28.05.2020
2349 Rain 27 1021 54 16093 7.2 50 21:58 28.05.2020
2350 Clouds 27 1021 54 16093 7.2 50 21:40 28.05.2020
2351 Clouds 26 1021 54 16093 7.2 50 21:20 28.05.2020
2352 Clouds 26 1021 54 16093 7.2 60 20:57 28.05.2020
2353 Clouds 26 1021 54 16093 7.2 60 20:39 28.05.2020
2354 Clouds 25 1021 54 16093 7.2 60 20:18 28.05.2020
2355 Clouds 24 1020 69 16093 2.1 80 19:56 28.05.2020
2356 Clouds 25 1020 69 16093 2.1 80 19:37 28.05.2020
2357 Clouds 24 1020 69 16093 2.6 40 19:19 28.05.2020
2358 Clouds 23 1020 69 16093 2.6 40 18:42 28.05.2020
2359 Clouds 23 1020 69 16093 2.6 40 18:23 28.05.2020
2360 Clouds 23 1020 73 16093 2.1 360 17:43 28.05.2020
2361 Clouds 23 1020 73 16093 2.1 360 17:43 28.05.2020
2362 Clouds 23 1020 73 16093 2.1 360 17:23 28.05.2020
2363 Clouds 23 1020 73 16093 2.1 20 16:58 28.05.2020
2364 Clouds 23 1020 73 16093 2.1 20 16:39 28.05.2020
2365 Clouds 23 1020 73 16093 2.1 20 16:20 28.05.2020
2366 Clear 24 1020 69 16093 3.1 50 15:45 28.05.2020
2367 Clear 24 1020 69 16093 3.1 50 15:24 28.05.2020
2368 Clouds 24 1020 69 16093 4.1 40 14:57 28.05.2020
2369 Clouds 24 1020 69 16093 4.1 40 14:38 28.05.2020
2370 Clouds 24 1020 69 16093 4.1 40 14:20 28.05.2020
2371 Clouds 24 1020 69 16093 3.6 50 13:43 28.05.2020
2372 Clouds 24 1020 69 16093 3.6 50 13:24 28.05.2020
2373 Clouds 24 1021 69 16093 5.1 60 12:42 28.05.2020
2374 Clouds 24 1021 69 16093 5.1 60 12:19 28.05.2020
2375 Clouds 25 1021 65 16093 4.1 60 11:44 28.05.2020
2376 Clouds 24 1021 65 16093 4.1 60 11:26 28.05.2020
2377 Clouds 24 1021 65 16093 4.1 60 11:26 28.05.2020
2378 Clouds 24 1020 69 16093 5.1 60 10:57 28.05.2020
2379 Clouds 24 1020 69 16093 5.1 60 10:57 28.05.2020
2380 Clouds 24 1020 69 16093 5.1 60 10:39 28.05.2020
2381 Clouds 24 1020 69 16093 5.1 60 10:21 28.05.2020
2382 Clouds 25 1020 65 16093 5.1 60 09:39 28.05.2020
2383 Clouds 25 1020 65 16093 5.1 60 09:39 28.05.2020
2384 Clouds 25 1020 65 16093 5.1 60 09:21 28.05.2020
2385 Clouds 25 1020 65 16093 5.1 60 09:21 28.05.2020
2386 Clouds 25 1020 65 16093 7.42 78 08:50 28.05.2020
2387 Clouds 25 1020 65 16093 8.07 74 08:27 28.05.2020
2388 Clouds 25 1019 61 16093 4.1 50 07:46 28.05.2020
2389 Clouds 25 1019 61 16093 4.1 50 07:26 28.05.2020
2390 Rain 25 1019 61 16093 8.7 80 06:59 28.05.2020
2391 Rain 26 1019 61 16093 8.7 80 06:38 28.05.2020
2392 Rain 26 1018 58 16093 6.2 60 06:19 28.05.2020
2393 Rain 26 1018 58 16093 6.2 60 05:36 28.05.2020
2394 Clouds 27 1018 58 16093 7.7 60 04:29 28.05.2020
2395 Clouds 27 1018 58 16093 6.2 30 03:46 28.05.2020
2396 Rain 27 1019 74 16093 2.1 0 02:45 28.05.2020
2397 Rain 27 1019 74 6437 5.82 80 01:52 28.05.2020
2398 Rain 26 1020 74 16093 4.6 150 00:55 28.05.2020
2399 Rain 26 1020 74 16093 4.6 150 00:28 28.05.2020
2400 Clouds 28 1020 51 16093 4.6 90 23:58 27.05.2020
2401 Clouds 28 1020 51 16093 4.6 90 23:39 27.05.2020
2402 Clouds 28 1020 51 16093 4.6 70 23:21 27.05.2020
2403 Clouds 28 1020 51 16093 4.6 70 22:56 27.05.2020
2404 Clouds 28 1020 51 16093 4.6 70 22:38 27.05.2020
2405 Clouds 28 1020 51 16093 4.6 70 22:19 27.05.2020
2406 Clouds 27 1020 57 16093 3.1 0 21:41 27.05.2020
2407 Clouds 27 1020 57 16093 3.1 0 21:23 27.05.2020
2408 Clouds 25 1019 69 16093 5.35 76 20:59 27.05.2020
2409 Clouds 25 1019 69 16093 5.35 76 20:59 27.05.2020
2410 Clouds 25 1019 69 16093 5.35 76 20:59 27.05.2020
2411 Clouds 25 1019 69 16093 5.35 76 20:40 27.05.2020
2412 Clouds 25 1019 69 16093 5.24 72 20:21 27.05.2020
2413 Rain 24 1019 73 16093 5.24 72 19:55 27.05.2020
2414 Rain 24 1019 73 16093 5.24 72 19:37 27.05.2020
2415 Clouds 23 1018 78 16093 2.6 360 19:18 27.05.2020
2416 Rain 22 1018 78 16093 2.6 360 18:40 27.05.2020
2417 Rain 22 1018 78 16093 2.6 360 18:19 27.05.2020
2418 Clouds 23 1018 73 16093 4.85 66 17:45 27.05.2020
2419 Clouds 23 1018 73 16093 4.88 60 17:26 27.05.2020
2420 Clouds 23 1018 73 16093 1.5 340 16:57 27.05.2020
2421 Rain 23 1018 73 16093 1.5 340 16:38 27.05.2020
2422 Rain 23 1018 73 16093 1.5 340 16:38 27.05.2020
2423 Rain 23 1018 73 16093 1.5 340 16:20 27.05.2020
2424 Clouds 23 1018 73 16093 3.1 310 15:59 27.05.2020
2425 Clouds 23 1018 73 16093 3.1 310 15:37 27.05.2020
2426 Clear 23 1018 69 16093 2.1 40 15:18 27.05.2020
2427 Clear 24 1018 69 16093 2.1 40 14:42 27.05.2020
2428 Clear 24 1018 69 16093 2.1 40 14:21 27.05.2020
2429 Clouds 24 1019 69 16093 2.6 30 13:44 27.05.2020
2430 Clouds 24 1019 69 16093 2.6 30 13:25 27.05.2020
2431 Clouds 24 1019 65 16093 5.1 70 12:57 27.05.2020
2432 Clouds 24 1019 65 16093 5.1 70 12:39 27.05.2020
2433 Clouds 24 1020 69 16093 3.6 50 12:21 27.05.2020
2434 Clouds 24 1020 69 16093 3.6 50 11:39 27.05.2020
2435 Clouds 24 1020 69 16093 3.6 50 11:21 27.05.2020
2436 Clouds 25 1020 61 16093 3.6 50 10:56 27.05.2020
2437 Clouds 25 1020 61 16093 3.6 50 10:38 27.05.2020
2438 Clouds 25 1020 65 16093 2.6 90 10:19 27.05.2020
2439 Clouds 25 1020 65 16093 2.6 90 09:40 27.05.2020
2440 Clouds 25 1020 65 16093 2.6 90 09:21 27.05.2020
2441 Clouds 25 1019 65 16093 6.7 70 08:55 27.05.2020
2442 Clouds 25 1019 65 16093 6.7 70 08:36 27.05.2020
2443 Clouds 25 1018 61 16093 6.2 70 08:18 27.05.2020
2444 Clouds 25 1018 61 16093 6.2 70 07:41 27.05.2020
2445 Clouds 25 1018 61 16093 6.2 70 07:23 27.05.2020
2446 Clouds 25 1018 57 16093 6.2 80 06:45 27.05.2020
2447 Clouds 26 1018 57 16093 6.2 80 06:20 27.05.2020
2448 Clouds 27 1017 54 16093 5.7 70 05:48 27.05.2020
2449 Clouds 27 1017 61 16093 7.2 140 04:24 27.05.2020
2450 Clouds 28 1017 48 16093 4.6 90 02:31 27.05.2020
2451 Clouds 28 1018 54 16093 2.1 0 01:53 27.05.2020
2452 Clouds 28 1018 54 16093 2.1 0 01:53 27.05.2020
2453 Clouds 28 1018 54 16093 2.1 0 01:24 27.05.2020
2454 Clouds 28 1018 51 16093 5.1 50 00:45 27.05.2020
2455 Clouds 28 1018 51 16093 5.1 50 00:20 27.05.2020
2456 Clouds 27 1018 54 16093 4.6 70 23:44 26.05.2020
2457 Clouds 27 1018 54 16093 4.6 70 23:26 26.05.2020
2458 Rain 26 1019 65 16093 3.1 40 22:59 26.05.2020
2459 Rain 26 1019 65 16093 3.1 40 22:39 26.05.2020
2460 Rain 26 1019 65 16093 3.1 40 22:21 26.05.2020
2461 Rain 25 1018 69 16093 4.1 40 21:57 26.05.2020
2462 Rain 25 1018 69 16093 4.1 40 21:39 26.05.2020
2463 Rain 24 1018 73 16093 3.1 50 21:20 26.05.2020
2464 Rain 24 1018 73 16093 3.1 50 20:43 26.05.2020
2465 Rain 24 1018 73 16093 3.1 50 20:43 26.05.2020
2466 Rain 24 1018 73 16093 3.1 50 20:21 26.05.2020
2467 Rain 23 1018 78 16093 1.5 330 19:57 26.05.2020
2468 Rain 23 1018 78 16093 1.5 330 19:37 26.05.2020
2469 Clouds 22 1017 78 16093 2.1 360 19:18 26.05.2020
2470 Clouds 22 1017 78 16093 2.1 360 18:43 26.05.2020
2471 Clouds 22 1017 78 16093 2.1 360 18:22 26.05.2020
2472 Clouds 22 1017 78 16093 2.6 330 17:55 26.05.2020
2473 Clouds 22 1017 78 16093 2.6 330 17:37 26.05.2020
2474 Clouds 22 1017 83 16093 2.1 330 17:19 26.05.2020
2475 Rain 22 1017 83 16093 2.1 330 16:41 26.05.2020
2476 Rain 22 1017 83 16093 2.1 330 16:19 26.05.2020
2477 Rain 22 1017 83 16093 2.1 330 16:19 26.05.2020
2478 Clouds 23 1017 78 16093 2.6 340 15:44 26.05.2020
2479 Clouds 23 1017 78 16093 2.6 340 15:21 26.05.2020
2480 Clear 23 1017 83 16093 2.1 10 14:59 26.05.2020
2481 Clear 23 1017 83 16093 2.1 10 14:41 26.05.2020
2482 Clear 23 1017 83 16093 2.1 10 14:22 26.05.2020
2483 Clear 23 1018 78 16093 2.1 350 13:42 26.05.2020
2484 Clear 23 1018 78 16093 2.1 350 13:42 26.05.2020
2485 Clear 23 1018 78 16093 2.1 350 13:24 26.05.2020
2486 Clouds 23 1018 78 16093 2.1 340 12:59 26.05.2020
2487 Clouds 23 1018 78 16093 2.1 340 12:39 26.05.2020
2488 Clouds 24 1019 78 16093 2.6 330 12:19 26.05.2020
2489 Clouds 24 1019 78 16093 2.6 330 11:41 26.05.2020
2490 Clouds 24 1019 78 16093 2.6 330 11:21 26.05.2020
2491 Clouds 24 1019 78 16093 3.6 350 10:58 26.05.2020
2492 Clouds 24 1019 78 16093 3.6 350 10:38 26.05.2020
2493 Clouds 24 1019 78 16093 3.6 350 10:18 26.05.2020
2494 Rain 24 1018 78 16093 3.1 340 09:39 26.05.2020
2495 Clouds 24 1018 73 16093 3.6 340 09:19 26.05.2020
2496 Clouds 24 1018 73 16093 3.6 340 08:42 26.05.2020
2497 Clouds 25 1018 73 16093 3.6 340 08:22 26.05.2020
2498 Rain 25 1017 65 16093 3.1 90 07:44 26.05.2020
2499 Rain 25 1017 65 16093 3.1 90 07:24 26.05.2020
2500 Clouds 25 1017 61 16093 4.1 140 06:54 26.05.2020
2501 Clouds 26 1017 61 16093 4.1 140 06:36 26.05.2020
2502 Clear 26 1017 61 16093 5.1 150 05:48 26.05.2020
2503 Clear 26 1017 61 16093 5.1 150 05:28 26.05.2020
2504 Clouds 27 1017 58 16093 5.1 150 04:49 26.05.2020
2505 Clouds 27 1017 58 16093 5.1 150 04:31 26.05.2020
2506 Clouds 27 1017 54 16093 5.7 140 03:52 26.05.2020
2507 Clouds 27 1017 58 16093 4.6 150 02:40 26.05.2020
2508 Clouds 27 1018 58 16093 4.1 160 01:47 26.05.2020
2509 Clouds 27 1018 54 16093 5.1 150 00:56 26.05.2020
2510 Clouds 27 1018 54 16093 5.1 150 00:36 26.05.2020
2511 Clouds 27 1018 54 16093 5.1 150 00:36 26.05.2020
2512 Clouds 27 1018 54 16093 5.1 150 00:18 26.05.2020
2513 Clouds 27 1019 54 16093 3.6 180 23:39 25.05.2020
2514 Clouds 28 1019 54 16093 3.6 180 23:20 25.05.2020
2515 Clouds 27 1019 54 16093 3.6 170 22:56 25.05.2020
2516 Clouds 27 1019 54 16093 3.6 170 22:56 25.05.2020
2517 Clouds 27 1019 54 16093 3.6 170 22:38 25.05.2020
2518 Clouds 27 1019 54 16093 3.6 170 22:20 25.05.2020
2519 Clouds 27 1019 57 16093 3.1 210 21:59 25.05.2020
2520 Clouds 27 1019 57 16093 3.1 210 21:59 25.05.2020
2521 Clouds 27 1019 57 16093 3.1 210 21:39 25.05.2020
2522 Clouds 27 1019 57 16093 3.1 210 21:20 25.05.2020
2523 Clouds 25 1019 69 16093 1.5 320 20:59 25.05.2020
2524 Clouds 25 1019 69 16093 1.5 320 20:41 25.05.2020
2525 Clouds 24 1019 69 16093 1.5 320 20:20 25.05.2020
2526 Clouds 23 1019 83 16093 1.5 330 19:58 25.05.2020
2527 Clouds 23 1019 83 16093 1.5 330 19:38 25.05.2020
2528 Clouds 22 1018 83 16093 3.1 350 19:18 25.05.2020
2529 Clouds 23 1019 83 16093 1.5 330 19:18 25.05.2020
2530 Clouds 21 1018 83 16093 3.1 350 18:43 25.05.2020
2531 Clouds 21 1018 83 16093 3.1 350 18:22 25.05.2020
2532 Clouds 21 1018 83 16093 2.1 350 17:56 25.05.2020
2533 Clouds 21 1018 83 16093 2.1 350 17:38 25.05.2020
2534 Clouds 22 1018 78 16093 2.1 340 17:19 25.05.2020
2535 Clouds 22 1018 78 16093 2.1 340 16:41 25.05.2020
2536 Clouds 22 1018 78 16093 2.1 340 16:22 25.05.2020
2537 Clouds 22 1018 78 16093 2.6 350 15:58 25.05.2020
2538 Clouds 22 1018 78 16093 2.6 350 15:40 25.05.2020
2539 Clouds 22 1018 73 16093 2.1 340 15:18 25.05.2020
2540 Clouds 22 1018 73 16093 2.1 340 14:43 25.05.2020
2541 Clouds 23 1018 73 16093 2.1 340 14:24 25.05.2020
2542 Clouds 23 1019 73 16093 1.5 310 13:57 25.05.2020
2543 Clouds 23 1019 73 16093 1.5 310 13:37 25.05.2020
2544 Clouds 23 1019 73 16093 1.5 310 13:19 25.05.2020
2545 Clouds 24 1019 64 16093 2.1 10 12:54 25.05.2020
2546 Clouds 23 1019 64 16093 2.1 10 12:36 25.05.2020
2547 Clouds 23 1019 64 16093 2.1 10 12:18 25.05.2020
2548 Clouds 23 1019 69 16093 2.6 30 11:38 25.05.2020
2549 Clouds 23 1019 69 16093 2.6 30 11:19 25.05.2020
2550 Clouds 24 1019 69 16093 3.1 70 10:43 25.05.2020
2551 Clouds 24 1019 69 16093 3.1 70 10:21 25.05.2020
2552 Clouds 24 1019 65 16093 4.1 80 09:57 25.05.2020
2553 Clouds 24 1019 65 16093 4.1 80 09:38 25.05.2020
2554 Clouds 24 1018 61 16093 6.2 50 09:19 25.05.2020
2555 Clouds 24 1018 61 16093 6.2 50 08:57 25.05.2020
2556 Clouds 25 1018 61 16093 6.2 50 08:36 25.05.2020
2557 Clouds 25 1017 57 16093 4.6 50 08:18 25.05.2020
2558 Clouds 25 1017 57 16093 4.6 50 07:43 25.05.2020
2559 Clouds 25 1017 57 16093 4.6 50 07:21 25.05.2020
2560 Clouds 26 1017 51 16093 6.2 50 06:49 25.05.2020
2561 Clouds 26 1017 51 16093 6.2 50 06:31 25.05.2020
2562 Clouds 28 1017 45 16093 6.7 50 03:48 25.05.2020
2563 Clouds 28 1017 61 16093 5.1 120 03:22 25.05.2020
2564 Clouds 28 1017 61 16093 5.1 120 02:45 25.05.2020
2565 Clouds 28 1018 45 16093 5.7 40 01:46 25.05.2020
2566 Clouds 28 1018 45 16093 5.7 40 01:28 25.05.2020
2567 Clouds 28 1018 48 16093 5.7 100 00:36 25.05.2020
2568 Clouds 28 1018 51 16093 5.7 70 00:18 25.05.2020
2569 Clouds 28 1018 51 16093 5.7 70 23:40 24.05.2020
2570 Clouds 28 1018 51 16093 5.7 70 23:22 24.05.2020
2571 Clouds 27 1018 54 16093 2.6 100 22:58 24.05.2020
2572 Clouds 27 1018 54 16093 2.6 100 22:40 24.05.2020
2573 Clouds 27 1018 54 16093 2.6 100 22:18 24.05.2020
2574 Clouds 27 1018 61 16093 3.6 70 21:55 24.05.2020
2575 Clouds 27 1018 61 16093 3.6 70 21:55 24.05.2020
2576 Clouds 26 1018 61 16093 3.6 70 21:37 24.05.2020
2577 Clouds 26 1018 61 16093 3.6 70 21:18 24.05.2020
2578 Rain 25 1018 65 16093 2.1 40 20:43 24.05.2020
2579 Rain 25 1018 65 16093 2.1 40 20:43 24.05.2020
2580 Rain 25 1018 65 16093 2.1 40 20:21 24.05.2020
2581 Clouds 23 1018 83 16093 2.6 360 19:58 24.05.2020
2582 Clouds 23 1018 83 16093 2.6 360 19:40 24.05.2020
2583 Clouds 23 1018 83 16093 1.5 340 19:19 24.05.2020
2584 Clouds 22 1018 83 16093 1.5 340 18:44 24.05.2020
2585 Clouds 22 1018 83 16093 1.5 340 18:24 24.05.2020
2586 Clouds 21 1018 83 16093 1.5 10 17:59 24.05.2020
2587 Clouds 22 1018 83 16093 1.5 10 17:40 24.05.2020
2588 Clear 22 1018 83 16093 1.5 340 17:21 24.05.2020
2589 Clear 22 1018 83 16093 1.5 340 16:56 24.05.2020
2590 Clear 22 1018 83 16093 1.5 340 16:38 24.05.2020
2591 Clear 22 1018 83 16093 1.5 340 16:19 24.05.2020
2592 Clouds 22 1017 78 16093 1.74 122 15:56 24.05.2020
2593 Clouds 22 1017 78 16093 1.74 122 15:38 24.05.2020
2594 Clouds 23 1017 78 16093 1.78 134 15:18 24.05.2020
2595 Clouds 22 1017 78 16093 1.5 340 14:44 24.05.2020
2596 Clouds 23 1017 78 16093 1.5 340 14:24 24.05.2020
2597 Clouds 23 1018 78 16093 1.5 60 13:57 24.05.2020
2598 Clouds 23 1018 78 16093 1.5 60 13:38 24.05.2020
2599 Clouds 23 1018 78 16093 1.5 60 13:20 24.05.2020
2600 Clouds 22 1019 83 16093 2.1 280 12:57 24.05.2020
2601 Clouds 23 1019 83 16093 2.1 280 12:38 24.05.2020
2602 Clouds 23 1019 83 16093 2.1 280 12:20 24.05.2020
2603 Clouds 23 1019 78 16093 1.5 330 11:56 24.05.2020
2604 Clouds 23 1019 78 16093 1.5 330 11:56 24.05.2020
2605 Clouds 23 1019 78 16093 1.5 330 11:38 24.05.2020
2606 Clouds 23 1019 78 16093 1.5 330 11:19 24.05.2020
2607 Clouds 24 1019 73 16093 3.1 350 10:43 24.05.2020
2608 Clouds 24 1019 73 16093 3.1 350 10:24 24.05.2020
2609 Clouds 25 1018 65 16093 2.1 20 09:59 24.05.2020
2610 Clouds 25 1018 65 16093 2.1 20 09:41 24.05.2020
2611 Clouds 25 1017 65 16093 1.5 50 09:18 24.05.2020
2612 Clouds 25 1017 65 16093 1.5 50 08:43 24.05.2020
2613 Clouds 25 1017 65 16093 1.5 50 08:25 24.05.2020
2614 Rain 25 1017 61 16093 3.6 80 07:59 24.05.2020
2615 Rain 25 1017 61 16093 3.6 80 07:41 24.05.2020
2616 Rain 25 1017 61 16093 3.6 80 07:21 24.05.2020
2617 Clouds 26 1016 61 16093 4.6 50 06:45 24.05.2020
2618 Clouds 26 1015 51 16093 7.2 70 05:50 24.05.2020
2619 Clouds 28 1016 51 16093 5.7 50 03:59 24.05.2020
2620 Clouds 28 1016 51 16093 5.7 50 03:40 24.05.2020
2621 Clouds 28 1016 51 16093 4.6 50 02:30 24.05.2020
2622 Clouds 28 1016 48 16093 5.1 70 01:32 24.05.2020
2623 Clouds 28 1016 58 16093 6.7 140 00:38 24.05.2020
2624 Clouds 28 1016 58 16093 6.7 140 00:20 24.05.2020
2625 Clouds 28 1017 48 16093 5.7 90 23:40 23.05.2020
2626 Clouds 27 1017 54 16093 2.1 40 23:21 23.05.2020
2627 Clouds 27 1017 54 16093 2.1 40 22:57 23.05.2020
2628 Clouds 27 1017 54 16093 2.1 40 22:37 23.05.2020
2629 Clouds 26 1017 69 16093 4.96 91 22:19 23.05.2020
2630 Clouds 25 1017 69 16093 4.96 91 21:57 23.05.2020
2631 Clouds 26 1017 69 16093 4.96 91 21:37 23.05.2020
2632 Rain 25 1017 83 16093 2.6 330 21:19 23.05.2020
2633 Rain 24 1017 83 16093 2.6 330 20:54 23.05.2020
2634 Rain 24 1017 83 16093 2.6 330 20:36 23.05.2020
2635 Clouds 24 1017 83 16093 2.6 330 20:18 23.05.2020
2636 Clouds 23 1017 88 16093 2.1 350 19:41 23.05.2020
2637 Clouds 22 1017 83 16093 3.9 72 19:19 23.05.2020
2638 Clouds 22 1017 83 16093 3.9 72 18:55 23.05.2020
2639 Clouds 22 1017 83 16093 3.9 72 18:36 23.05.2020
2640 Clouds 22 1016 83 16093 2.6 320 18:18 23.05.2020
2641 Clouds 22 1016 83 16093 2.6 320 17:54 23.05.2020
2642 Clouds 22 1016 83 16093 2.6 320 17:36 23.05.2020
2643 Clouds 22 1016 83 16093 2.6 320 17:18 23.05.2020
2644 Clouds 22 1016 83 16093 2.1 340 16:41 23.05.2020
2645 Rain 22 1016 78 16093 1.5 340 16:21 23.05.2020
2646 Rain 23 1016 78 16093 1.5 340 15:58 23.05.2020
2647 Rain 22 1016 78 16093 1.5 340 15:39 23.05.2020
2648 Rain 22 1016 78 16093 1.5 340 15:21 23.05.2020
2649 Rain 22 1017 78 16093 3.35 49 14:42 23.05.2020
2650 Rain 22 1017 78 16093 3.35 49 14:42 23.05.2020
2651 Rain 22 1017 78 16093 3.65 49 14:24 23.05.2020
2652 Rain 22 1017 78 16093 2.6 350 13:56 23.05.2020
2653 Clouds 22 1017 78 16093 2.6 350 13:37 23.05.2020
2654 Clouds 23 1017 78 16093 2.6 350 13:18 23.05.2020
2655 Rain 23 1018 83 16093 2.6 340 12:41 23.05.2020
2656 Rain 23 1018 83 16093 2.6 340 12:20 23.05.2020
2657 Rain 23 1018 69 16093 4.1 60 11:57 23.05.2020
2658 Rain 23 1018 69 16093 4.1 60 11:38 23.05.2020
2659 Rain 23 1018 69 16093 4.1 60 11:19 23.05.2020
2660 Rain 24 1018 65 16093 4.6 50 10:55 23.05.2020
2661 Clouds 24 1018 65 16093 4.6 50 10:36 23.05.2020
2662 Clouds 24 1018 65 16093 5.7 50 10:18 23.05.2020
2663 Clouds 24 1018 65 16093 5.7 50 09:42 23.05.2020
2664 Clouds 24 1018 65 16093 5.7 50 09:24 23.05.2020
2665 Clouds 25 1017 61 16093 6.7 70 08:57 23.05.2020
2666 Clouds 25 1017 61 16093 6.7 70 08:37 23.05.2020
2667 Clouds 25 1017 61 16093 6.7 70 08:18 23.05.2020
2668 Clouds 25 1016 61 16093 7.2 50 08:18 23.05.2020
2669 Clouds 25 1016 61 16093 7.2 50 07:43 23.05.2020
2670 Clouds 25 1016 61 16093 7.2 50 07:22 23.05.2020
2671 Clouds 26 1016 54 16093 8.7 50 06:42 23.05.2020
2672 Clouds 26 1015 48 16093 8.2 60 05:51 23.05.2020
2673 Clouds 27 1016 42 16093 9.3 60 03:52 23.05.2020
2674 Clouds 27 1016 42 16093 9.3 60 03:23 23.05.2020
2675 Clouds 28 1016 45 16093 9.3 50 02:29 23.05.2020
2676 Clouds 28 1016 43 16093 6.7 50 01:28 23.05.2020
2677 Clouds 28 1017 42 16093 8.7 80 00:49 23.05.2020
2678 Clouds 28 1017 42 16093 8.7 80 00:30 23.05.2020
2679 Clouds 28 1017 48 16093 8.2 30 23:59 22.05.2020
2680 Clouds 28 1017 48 16093 8.2 30 23:40 22.05.2020
2681 Clouds 27 1017 48 16093 8.2 30 23:20 22.05.2020
2682 Clouds 27 1017 51 16093 7.2 40 22:57 22.05.2020
2683 Clouds 27 1017 51 16093 7.2 40 22:38 22.05.2020
2684 Clouds 27 1017 51 16093 7.2 40 22:18 22.05.2020
2685 Clouds 26 1017 54 16093 6.7 60 21:44 22.05.2020
2686 Clouds 26 1017 54 16093 6.7 60 21:21 22.05.2020
2687 Clouds 25 1017 57 16093 2.6 100 20:54 22.05.2020
2688 Clouds 25 1017 57 16093 2.6 100 20:36 22.05.2020
2689 Clouds 25 1017 69 16093 7.51 62 20:18 22.05.2020
2690 Clouds 24 1017 69 16093 7.51 62 19:41 22.05.2020
2691 Clouds 24 1017 69 16093 7.51 62 19:41 22.05.2020
2692 Clouds 24 1017 69 16093 6.97 60 19:23 22.05.2020
2693 Clouds 23 1017 64 16093 2.6 50 18:40 22.05.2020
2694 Clouds 23 1017 64 16093 2.6 50 18:21 22.05.2020
2695 Clouds 23 1016 64 16093 6.61 55 17:58 22.05.2020
2696 Clouds 24 1016 64 16093 6.61 55 17:38 22.05.2020
2697 Clouds 24 1016 69 16093 4.1 50 17:18 22.05.2020
2698 Clouds 23 1016 69 16093 4.1 50 16:44 22.05.2020
2699 Clouds 23 1016 69 16093 4.1 50 16:20 22.05.2020
2700 Clouds 23 1016 69 16093 4.1 80 15:59 22.05.2020
2701 Clouds 23 1016 69 16093 4.1 80 15:41 22.05.2020
2702 Clouds 23 1016 69 16093 4.1 80 15:19 22.05.2020
2703 Clouds 23 1017 69 16093 3.1 70 14:44 22.05.2020
2704 Clouds 23 1018 73 16093 4.6 10 14:24 22.05.2020
2705 Clouds 23 1018 73 16093 4.6 10 13:46 22.05.2020
2706 Rain 23 1018 73 16093 4.6 10 13:21 22.05.2020
2707 Rain 23 1018 69 16093 4.1 40 12:54 22.05.2020
2708 Rain 23 1018 69 16093 4.1 40 12:36 22.05.2020
2709 Clouds 23 1018 69 16093 4.1 40 12:18 22.05.2020
2710 Rain 23 1019 78 16093 4.1 40 11:42 22.05.2020
2711 Rain 23 1019 78 16093 4.1 40 11:42 22.05.2020
2712 Rain 23 1019 73 16093 3.1 90 11:20 22.05.2020
2713 Rain 23 1019 73 16093 3.1 90 10:55 22.05.2020
2714 Rain 23 1019 73 16093 3.1 90 10:36 22.05.2020
2715 Rain 23 1019 83 11265 4.1 90 10:18 22.05.2020
2716 Rain 23 1019 83 11265 4.1 90 09:41 22.05.2020
2717 Rain 24 1018 65 16093 5.1 50 09:19 22.05.2020
2718 Rain 24 1018 65 16093 5.1 50 08:44 22.05.2020
2719 Rain 24 1017 69 16093 2.6 0 08:21 22.05.2020
2720 Rain 24 1018 65 16093 5.1 50 08:21 22.05.2020
2721 Rain 24 1017 69 16093 2.6 0 07:57 22.05.2020
2722 Rain 24 1017 69 16093 7.7 50 07:27 22.05.2020
2723 Rain 25 1016 61 16093 7.2 50 06:58 22.05.2020
2724 Rain 25 1016 61 16093 7.2 50 06:40 22.05.2020
2725 Rain 26 1016 61 16093 8.2 60 05:40 22.05.2020
2726 Rain 26 1016 58 16093 8.7 60 04:51 22.05.2020
2727 Rain 26 1016 58 16093 8.7 60 04:28 22.05.2020
2728 Clouds 27 1016 54 16093 6.7 70 03:47 22.05.2020
2729 Clouds 27 1017 54 16093 9.3 50 02:59 22.05.2020
2730 Rain 28 1018 58 16093 8.7 80 01:56 22.05.2020
2731 Rain 28 1018 58 16093 8.7 80 01:28 22.05.2020
2732 Clouds 27 1018 58 16093 6.7 60 00:48 22.05.2020
2733 Clouds 27 1018 58 16093 6.7 60 00:28 22.05.2020
2734 Clouds 27 1018 58 16093 6.2 70 23:43 21.05.2020
2735 Clouds 27 1018 58 16093 6.2 70 23:25 21.05.2020
2736 Rain 25 1018 83 16093 2.6 360 22:58 21.05.2020
2737 Rain 25 1018 83 16093 2.6 360 22:58 21.05.2020
2738 Rain 25 1018 83 16093 2.6 360 22:38 21.05.2020
2739 Rain 25 1018 83 16093 2.6 360 22:20 21.05.2020
2740 Rain 25 1018 61 16093 4.6 30 21:58 21.05.2020
2741 Rain 25 1018 61 16093 4.6 30 21:39 21.05.2020
2742 Rain 25 1018 61 16093 4.6 30 21:19 21.05.2020
2743 Rain 25 1018 65 16093 2.1 0 20:43 21.05.2020
2744 Rain 25 1018 65 16093 2.1 0 20:22 21.05.2020
2745 Clouds 25 1018 65 16093 3.1 30 19:41 21.05.2020
2746 Clouds 25 1018 65 16093 3.1 30 19:21 21.05.2020
2747 Clouds 24 1017 73 16093 1.5 10 18:59 21.05.2020
2748 Clouds 23 1017 73 16093 1.5 10 18:39 21.05.2020
2749 Clouds 23 1017 73 16093 3.1 40 18:19 21.05.2020
2750 Clouds 23 1017 73 16093 3.1 40 17:56 21.05.2020
2751 Clouds 23 1017 73 16093 3.1 40 17:38 21.05.2020
2752 Clouds 23 1017 73 16093 3.1 40 17:38 21.05.2020
2753 Clouds 23 1017 73 16093 3.1 10 17:19 21.05.2020
2754 Clouds 23 1017 73 16093 3.1 10 16:44 21.05.2020
2755 Clouds 23 1017 73 16093 3.1 10 16:22 21.05.2020
2756 Clouds 23 1017 73 16093 2.1 350 15:44 21.05.2020
2757 Clouds 23 1017 73 16093 2.1 350 15:24 21.05.2020
2758 Clouds 23 1018 73 16093 2.6 40 14:43 21.05.2020
2759 Clouds 23 1018 73 16093 2.6 40 14:25 21.05.2020
2760 Clouds 24 1018 69 16093 2.1 20 14:00 21.05.2020
2761 Clouds 23 1018 69 16093 2.1 20 13:39 21.05.2020
2762 Clouds 24 1018 69 16093 2.1 20 13:20 21.05.2020
2763 Clouds 23 1019 64 16093 2.1 20 12:40 21.05.2020
2764 Clouds 23 1019 64 16093 2.1 20 12:22 21.05.2020
2765 Clouds 24 1019 64 16093 4.6 50 11:59 21.05.2020
2766 Clouds 23 1019 64 16093 4.6 50 11:39 21.05.2020
2767 Clouds 24 1019 61 16093 5.7 40 11:21 21.05.2020
2768 Clouds 24 1019 61 16093 5.7 40 10:54 21.05.2020
2769 Clouds 24 1019 61 16093 5.7 40 10:36 21.05.2020
2770 Clouds 24 1019 61 16093 5.7 40 10:18 21.05.2020
2771 Clouds 24 1019 65 16093 4.1 40 09:42 21.05.2020
2772 Clouds 24 1019 65 16093 4.1 40 09:24 21.05.2020
2773 Clouds 24 1019 65 16093 3.6 40 08:57 21.05.2020
2774 Clouds 24 1019 65 16093 3.6 40 08:38 21.05.2020
2775 Clouds 25 1018 57 16093 5.1 40 08:20 21.05.2020
2776 Clouds 25 1018 57 16093 5.1 40 07:42 21.05.2020
2777 Clouds 25 1018 57 16093 5.1 40 07:22 21.05.2020
2778 Clouds 25 1017 54 16093 6.2 50 06:37 21.05.2020
2779 Clouds 26 1017 51 16093 6.7 60 05:50 21.05.2020
2780 Clouds 26 1017 48 16093 6.7 40 04:18 21.05.2020
2781 Clouds 27 1018 48 16093 8.2 30 03:21 21.05.2020
2782 Clouds 27 1018 48 16093 8.2 30 03:21 21.05.2020
2783 Clouds 28 1018 51 16093 6.7 40 02:31 21.05.2020
2784 Clouds 28 1019 51 16093 6.7 50 01:51 21.05.2020
2785 Clouds 27 1019 51 16093 6.7 50 01:24 21.05.2020
2786 Clouds 27 1019 48 16093 8.7 50 00:54 21.05.2020
2787 Clouds 27 1019 48 16093 8.7 50 00:27 21.05.2020
2788 Clouds 27 1019 54 16093 6.7 40 23:59 20.05.2020
2789 Clouds 27 1019 54 16093 6.7 40 23:59 20.05.2020
2790 Rain 27 1019 54 16093 6.7 40 23:38 20.05.2020
2791 Rain 27 1019 54 16093 6.7 40 23:18 20.05.2020
2792 Clouds 25 1020 57 16093 7.2 60 22:42 20.05.2020
2793 Clouds 26 1020 57 16093 7.2 60 22:24 20.05.2020
2794 Rain 25 1019 65 16093 5.1 40 21:56 20.05.2020
2795 Rain 25 1019 65 16093 5.1 40 21:56 20.05.2020
2796 Rain 25 1019 65 16093 5.1 40 21:37 20.05.2020
2797 Rain 25 1019 65 16093 5.1 40 21:19 20.05.2020
2798 Rain 25 1019 69 16093 6.2 40 20:41 20.05.2020
2799 Rain 25 1019 69 16093 6.2 40 20:23 20.05.2020
2800 Rain 25 1019 69 16093 6.2 40 20:23 20.05.2020
2801 Clouds 24 1019 73 16093 4.6 50 19:42 20.05.2020
2802 Clouds 23 1019 73 16093 4.6 50 19:24 20.05.2020
2803 Clouds 23 1018 73 16093 2.6 50 18:58 20.05.2020
2804 Clouds 23 1018 73 16093 2.6 50 18:39 20.05.2020
2805 Clouds 23 1018 73 16093 2.6 50 18:20 20.05.2020
2806 Clouds 23 1018 78 16093 3.6 60 17:39 20.05.2020
2807 Clouds 23 1018 78 16093 3.6 60 17:21 20.05.2020
2808 Clouds 23 1018 73 16093 4.6 40 16:43 20.05.2020
2809 Clouds 23 1018 73 16093 4.6 40 16:24 20.05.2020
2810 Rain 23 1018 73 16093 4.1 40 15:58 20.05.2020
2811 Rain 23 1018 73 16093 4.1 40 15:40 20.05.2020
2812 Rain 23 1018 73 16093 4.1 40 15:22 20.05.2020
2813 Clouds 23 1019 73 16093 2.6 40 14:43 20.05.2020
2814 Clouds 23 1019 73 16093 5.7 60 14:21 20.05.2020
2815 Clouds 23 1019 73 16093 5.7 60 13:41 20.05.2020
2816 Clouds 23 1020 73 16093 4.1 70 13:20 20.05.2020
2817 Clouds 23 1020 73 16093 4.1 70 12:57 20.05.2020
2818 Clouds 23 1020 73 16093 4.1 70 12:37 20.05.2020
2819 Clouds 23 1020 73 16093 4.1 70 12:19 20.05.2020
2820 Clouds 23 1020 73 16093 5.7 50 11:36 20.05.2020
2821 Clouds 23 1020 73 16093 5.7 50 11:18 20.05.2020
2822 Clouds 24 1020 69 16093 6.2 50 10:42 20.05.2020
2823 Rain 24 1020 73 16093 4.6 40 10:20 20.05.2020
2824 Rain 24 1020 73 16093 4.6 40 09:44 20.05.2020
2825 Clouds 24 1019 61 16093 3.1 40 09:21 20.05.2020
2826 Clouds 25 1019 61 16093 3.1 40 08:56 20.05.2020
2827 Clouds 24 1019 61 16093 3.1 40 08:38 20.05.2020
2828 Clouds 25 1019 61 16093 3.1 40 08:18 20.05.2020
2829 Clouds 25 1018 61 16093 4.6 50 07:45 20.05.2020
2830 Rain 25 1018 57 16093 7.2 60 07:19 20.05.2020
2831 Clouds 25 1018 57 16093 7.2 60 06:35 20.05.2020
2832 Clouds 27 1017 51 16093 8.7 70 05:23 20.05.2020
2833 Clouds 27 1017 48 16093 7.7 40 04:26 20.05.2020
2834 Clouds 28 1017 51 16093 7.2 40 03:38 20.05.2020
2835 Clouds 27 1018 51 16093 8.2 70 02:23 20.05.2020
2836 Clouds 27 1018 48 16093 6.7 70 01:28 20.05.2020
2837 Clouds 27 1019 51 16093 6.7 80 00:44 20.05.2020
2838 Clouds 27 1019 51 16093 6.7 80 00:23 20.05.2020
2839 Clouds 27 1019 51 16093 8.2 80 23:40 19.05.2020
2840 Clouds 26 1019 57 16093 6.7 60 23:19 19.05.2020
2841 Clouds 26 1019 57 16093 6.7 60 22:56 19.05.2020
2842 Clouds 26 1019 57 16093 6.7 60 22:38 19.05.2020
2843 Clouds 26 1019 57 16093 6.7 60 22:18 19.05.2020
2844 Clouds 26 1019 54 16093 9.3 80 21:55 19.05.2020
2845 Clouds 26 1019 54 16093 9.3 80 21:37 19.05.2020
2846 Clouds 26 1019 54 16093 9.3 80 21:18 19.05.2020
2847 Rain 26 1019 61 16093 5.1 50 20:56 19.05.2020
2848 Rain 26 1019 61 16093 5.1 50 20:38 19.05.2020
2849 Clouds 25 1018 69 16093 3.6 60 20:19 19.05.2020
2850 Clouds 24 1018 69 16093 3.6 60 19:39 19.05.2020
2851 Clouds 24 1018 69 16093 3.6 60 19:20 19.05.2020
2852 Clouds 23 1018 69 16093 4.6 50 18:46 19.05.2020
2853 Clouds 23 1018 69 16093 4.6 50 18:24 19.05.2020
2854 Clouds 23 1018 73 16093 3.6 70 17:59 19.05.2020
2855 Clouds 23 1018 73 16093 3.6 70 17:40 19.05.2020
2856 Clouds 23 1018 73 16093 3.6 70 17:20 19.05.2020
2857 Clouds 23 1018 73 16093 2.1 30 16:56 19.05.2020
2858 Clouds 23 1018 73 16093 2.1 30 16:37 19.05.2020
2859 Clouds 23 1018 73 16093 2.1 30 16:19 19.05.2020
2860 Clouds 23 1018 73 16093 3.1 40 15:43 19.05.2020
2861 Clouds 23 1018 73 16093 5.52 59 15:20 19.05.2020
2862 Clouds 23 1018 73 16093 5.52 59 14:55 19.05.2020
2863 Clouds 23 1018 73 16093 6.54 63 14:37 19.05.2020
2864 Clouds 23 1018 73 16093 5.9 62 14:19 19.05.2020
2865 Rain 24 1019 69 11265 4.1 40 13:55 19.05.2020
2866 Rain 24 1019 69 11265 4.1 40 13:37 19.05.2020
2867 Rain 24 1019 69 11265 4.1 40 13:18 19.05.2020
2868 Clouds 24 1020 69 16093 3.6 50 12:55 19.05.2020
2869 Clouds 24 1020 69 16093 3.6 50 12:36 19.05.2020
2870 Rain 24 1020 69 16093 2.6 40 12:18 19.05.2020
2871 Rain 24 1020 69 16093 2.6 40 11:41 19.05.2020
2872 Rain 24 1020 69 16093 2.6 40 11:22 19.05.2020
2873 Clouds 24 1020 69 16093 5.7 40 11:22 19.05.2020
2874 Clouds 24 1020 69 16093 5.7 40 10:55 19.05.2020
2875 Clouds 24 1020 69 16093 5.7 40 10:37 19.05.2020
2876 Clouds 24 1020 69 16093 5.7 40 10:18 19.05.2020
2877 Clouds 24 1019 73 16093 4.1 40 09:42 19.05.2020
2878 Clouds 24 1019 73 16093 4.1 40 09:24 19.05.2020
2879 Clouds 25 1019 65 16093 5.1 50 08:47 19.05.2020
2880 Clouds 25 1019 65 16093 5.1 50 08:24 19.05.2020
2881 Clouds 24 1018 69 16093 4.6 80 07:45 19.05.2020
2882 Clouds 24 1018 69 16093 4.6 80 07:27 19.05.2020
2883 Rain 25 1018 65 16093 4.6 50 06:54 19.05.2020
2884 Rain 25 1018 65 16093 4.6 50 06:25 19.05.2020
2885 Clouds 25 1017 61 16093 5.7 50 05:42 19.05.2020
2886 Rain 25 1017 61 16093 5.7 60 04:57 19.05.2020
2887 Rain 25 1017 61 16093 5.7 60 04:34 19.05.2020
2888 Clouds 25 1018 65 16093 8.7 70 01:51 19.05.2020
2889 Rain 25 1019 69 16093 5.7 70 00:47 19.05.2020
2890 Rain 25 1019 69 16093 5.7 70 00:25 19.05.2020
2891 Rain 25 1019 74 14484 4.6 40 23:58 18.05.2020
2892 Rain 25 1019 74 14484 4.6 40 23:39 18.05.2020
2893 Rain 25 1019 74 14484 4.6 40 23:19 18.05.2020
2894 Rain 24 1019 78 16093 4.1 50 22:41 18.05.2020
2895 Rain 24 1019 78 16093 4.1 50 22:22 18.05.2020
2896 Rain 25 1019 69 16093 3.1 60 21:56 18.05.2020
2897 Rain 25 1019 69 16093 3.1 60 21:38 18.05.2020
2898 Rain 25 1019 69 16093 3.1 60 21:38 18.05.2020
2899 Rain 24 1019 83 6437 2.6 140 21:18 18.05.2020
2900 Rain 24 1019 83 6437 2.6 140 20:43 18.05.2020
2901 Rain 24 1018 78 16093 3.1 330 20:22 18.05.2020
2902 Rain 23 1018 78 16093 3.1 330 19:58 18.05.2020
2903 Rain 23 1018 78 16093 3.1 330 19:40 18.05.2020
2904 Rain 23 1018 83 16093 3.1 350 19:19 18.05.2020
2905 Clouds 23 1018 83 16093 3.1 350 18:46 18.05.2020
2906 Clouds 23 1018 83 16093 2.1 350 18:24 18.05.2020
2907 Clouds 23 1018 83 16093 2.1 350 17:55 18.05.2020
2908 Clouds 23 1018 83 16093 2.1 350 17:36 18.05.2020
2909 Clouds 23 1018 83 16093 2.6 330 17:18 18.05.2020
2910 Clouds 23 1018 83 16093 2.1 350 17:18 18.05.2020
2911 Clouds 23 1018 83 16093 2.6 330 17:18 18.05.2020
2912 Clouds 23 1018 83 16093 2.6 330 16:43 18.05.2020
2913 Clouds 23 1018 83 16093 2.6 330 16:20 18.05.2020
2914 Rain 23 1018 83 16093 2.6 360 15:57 18.05.2020
2915 Rain 23 1018 83 16093 2.6 360 15:38 18.05.2020
2916 Rain 23 1018 83 16093 2.6 360 15:20 18.05.2020
2917 Clouds 23 1018 73 16093 2.1 340 14:55 18.05.2020
2918 Clouds 23 1018 73 16093 2.1 340 14:37 18.05.2020
2919 Clouds 24 1018 73 16093 2.1 340 14:19 18.05.2020
2920 Clouds 23 1019 73 16093 2.1 360 13:40 18.05.2020
2921 Clouds 24 1019 73 16093 2.1 360 13:20 18.05.2020
2922 Rain 24 1019 69 16093 4.6 60 12:58 18.05.2020
2923 Rain 24 1019 69 16093 4.6 60 12:39 18.05.2020
2924 Clouds 24 1020 69 16093 5.7 70 12:19 18.05.2020
2925 Clouds 24 1020 69 16093 5.7 70 11:47 18.05.2020
2926 Clouds 24 1020 69 16093 5.7 70 11:27 18.05.2020
2927 Clouds 24 1019 65 16093 4.6 40 10:58 18.05.2020
2928 Clouds 24 1019 65 16093 4.6 40 10:40 18.05.2020
2929 Clouds 24 1019 65 16093 4.6 40 10:22 18.05.2020
2930 Clouds 24 1019 65 16093 4.6 40 10:22 18.05.2020
2931 Clouds 25 1019 61 16093 6.2 50 09:43 18.05.2020
2932 Clouds 25 1019 61 16093 6.2 50 09:24 18.05.2020
2933 Clouds 25 1019 61 16093 3.1 40 08:45 18.05.2020
2934 Clouds 25 1019 61 16093 3.1 40 08:26 18.05.2020
2935 Clouds 25 1018 57 16093 3.6 20 07:54 18.05.2020
2936 Clouds 25 1018 57 16093 3.6 20 07:26 18.05.2020
2937 Clouds 26 1017 51 16093 4.6 60 06:51 18.05.2020
2938 Clouds 26 1017 51 16093 4.6 60 06:33 18.05.2020
2939 Clouds 27 1017 51 16093 5.7 40 05:49 18.05.2020
2940 Clouds 28 1017 45 16093 6.2 30 04:52 18.05.2020
2941 Clouds 28 1017 37 16093 5.7 60 03:30 18.05.2020
2942 Clouds 28 1017 35 16093 6.2 70 02:21 18.05.2020
2943 Clouds 29 1018 40 16093 6.2 50 00:55 18.05.2020
2944 Clouds 29 1018 40 16093 6.2 50 00:24 18.05.2020
2945 Clouds 28 1019 42 16093 5.1 80 23:57 17.05.2020
2946 Clouds 28 1019 42 16093 5.1 80 23:38 17.05.2020
2947 Clouds 28 1019 45 16093 6.2 40 23:19 17.05.2020
2948 Clouds 28 1019 45 16093 6.2 40 22:56 17.05.2020
2949 Clouds 28 1019 45 16093 6.2 40 22:37 17.05.2020
2950 Clouds 27 1019 54 16093 3.6 60 22:18 17.05.2020
2951 Clouds 28 1019 45 16093 6.2 40 22:18 17.05.2020
2952 Clouds 27 1019 54 16093 3.6 60 21:42 17.05.2020
2953 Clouds 26 1019 61 16093 4.6 50 21:20 17.05.2020
2954 Clouds 26 1019 61 16093 4.6 50 20:59 17.05.2020
2955 Clouds 26 1019 61 16093 4.6 50 20:40 17.05.2020
2956 Clouds 26 1019 61 16093 4.6 50 20:20 17.05.2020
2957 Clouds 25 1019 65 16093 3.1 70 19:55 17.05.2020
2958 Clouds 25 1019 65 16093 3.1 70 19:37 17.05.2020
2959 Clouds 24 1019 64 16093 3.1 60 19:18 17.05.2020
2960 Clouds 23 1019 64 16093 3.1 60 18:39 17.05.2020
2961 Clouds 23 1019 64 16093 3.1 60 18:21 17.05.2020
2962 Clouds 23 1018 64 16093 3.1 70 17:56 17.05.2020
2963 Clouds 23 1018 64 16093 3.1 70 17:36 17.05.2020
2964 Clouds 23 1018 64 16093 3.6 60 17:18 17.05.2020
2965 Clouds 23 1018 64 16093 3.6 60 16:39 17.05.2020
2966 Clouds 23 1018 64 16093 3.6 60 16:20 17.05.2020
2967 Clouds 23 1018 64 16093 5.1 80 15:56 17.05.2020
2968 Clouds 23 1018 64 16093 5.1 80 15:36 17.05.2020
2969 Clouds 23 1019 64 16093 4.6 70 15:18 17.05.2020
2970 Clouds 23 1019 64 16093 4.6 70 14:42 17.05.2020
2971 Clouds 24 1019 64 16093 4.6 70 14:24 17.05.2020
2972 Clouds 23 1020 64 16093 4.6 70 13:43 17.05.2020
2973 Clouds 24 1020 64 16093 4.6 70 13:21 17.05.2020
2974 Clouds 24 1020 61 16093 2.6 0 10:50 17.05.2020
2975 Clouds 28 1017 43 16093 7.7 30 03:55 17.05.2020
2976 Clouds 28 1018 40 16093 6.2 40 02:28 17.05.2020
2977 Clouds 29 1018 40 16093 6.7 40 01:55 17.05.2020
2978 Clouds 29 1019 40 16093 8.2 50 00:56 17.05.2020
2979 Clouds 29 1019 40 16093 8.2 50 00:37 17.05.2020
2980 Clouds 28 1020 42 16093 8.7 80 23:57 16.05.2020
2981 Clouds 28 1020 42 16093 8.7 80 23:57 16.05.2020
2982 Clouds 28 1020 42 16093 8.7 80 23:39 16.05.2020
2983 Clouds 27 1020 51 16093 4.1 60 23:19 16.05.2020
2984 Clouds 28 1020 51 16093 4.1 60 22:55 16.05.2020
2985 Clouds 28 1020 51 16093 4.1 60 22:36 16.05.2020
2986 Clouds 28 1020 54 16093 5.1 50 22:18 16.05.2020
2987 Clouds 28 1020 54 16093 5.1 50 21:42 16.05.2020
2988 Clouds 28 1020 54 16093 5.1 50 21:24 16.05.2020
2989 Clouds 27 1020 57 16093 4.6 60 20:57 16.05.2020
2990 Clouds 27 1020 57 16093 4.6 60 20:39 16.05.2020
2991 Clouds 26 1020 65 16093 3.1 40 20:20 16.05.2020
2992 Clouds 25 1020 65 16093 3.1 40 19:43 16.05.2020
2993 Clouds 25 1020 65 16093 3.1 40 19:23 16.05.2020
2994 Clouds 25 1019 69 16093 3.1 70 18:59 16.05.2020
2995 Clouds 24 1019 69 16093 3.1 70 18:41 16.05.2020
2996 Clouds 24 1019 69 16093 3.1 70 18:22 16.05.2020
2997 Clouds 24 1019 69 16093 3.6 70 17:42 16.05.2020
2998 Clouds 24 1019 69 16093 3.6 70 17:22 16.05.2020
2999 Clouds 24 1019 69 16093 4.1 40 16:59 16.05.2020
3000 Clouds 24 1019 69 16093 4.1 40 16:39 16.05.2020
3001 Clouds 24 1019 69 16093 4.1 40 16:19 16.05.2020
3002 Clouds 24 1019 69 16093 4.6 70 15:54 16.05.2020
3003 Clouds 24 1019 69 16093 4.6 70 15:54 16.05.2020
3004 Clouds 24 1019 69 16093 4.6 70 15:36 16.05.2020
3005 Clouds 24 1019 64 16093 3.1 40 15:18 16.05.2020
3006 Clouds 24 1019 64 16093 3.1 40 14:42 16.05.2020
3007 Clouds 24 1019 64 16093 3.1 40 14:20 16.05.2020
3008 Clouds 24 1020 69 16093 3.6 60 13:56 16.05.2020
3009 Clouds 24 1020 69 16093 3.6 60 13:36 16.05.2020
3010 Clouds 24 1021 69 16093 3.6 50 13:18 16.05.2020
3011 Clouds 24 1021 69 16093 3.6 50 12:43 16.05.2020
3012 Clouds 24 1021 65 16093 3.6 50 12:20 16.05.2020
3013 Clouds 24 1021 65 16093 3.6 50 12:20 16.05.2020
3014 Clouds 25 1021 65 16093 3.6 50 11:44 16.05.2020
3015 Clouds 25 1021 65 16093 3.6 50 11:24 16.05.2020
3016 Rain 25 1020 65 16093 4.1 40 10:59 16.05.2020
3017 Rain 25 1020 65 16093 4.1 40 10:40 16.05.2020
3018 Rain 25 1020 65 16093 4.1 40 10:22 16.05.2020
3019 Rain 25 1020 65 16093 4.6 50 09:58 16.05.2020
3020 Clouds 25 1020 65 16093 4.6 50 09:38 16.05.2020
3021 Clouds 25 1019 61 16093 6.2 60 09:18 16.05.2020
3022 Clouds 25 1020 65 16093 4.6 50 09:18 16.05.2020
3023 Clouds 25 1019 61 16093 6.2 60 08:42 16.05.2020
3024 Clouds 25 1019 61 16093 6.2 60 08:21 16.05.2020
3025 Clouds 25 1018 57 16093 8.2 80 07:43 16.05.2020
3026 Clouds 25 1018 57 16093 8.2 80 07:24 16.05.2020
3027 Clouds 26 1017 54 16093 6.2 60 06:49 16.05.2020
3028 Clouds 26 1017 51 16093 6.2 50 06:24 16.05.2020
3029 Clouds 26 1017 51 16093 6.2 50 05:56 16.05.2020
3030 Clouds 27 1017 51 16093 6.2 50 05:29 16.05.2020
3031 Clouds 28 1017 48 16093 3.1 50 03:34 16.05.2020
3032 Clouds 29 1017 40 16093 5.7 70 02:52 16.05.2020
3033 Clouds 29 1017 40 16093 5.7 70 02:20 16.05.2020
3034 Clouds 29 1018 45 16093 5.7 50 01:43 16.05.2020
3035 Clouds 28 1018 51 16093 4.6 170 00:59 16.05.2020
3036 Clouds 28 1018 51 16093 4.6 170 00:41 16.05.2020
3037 Clouds 28 1018 51 16093 4.6 170 00:20 16.05.2020
3038 Clouds 27 1019 61 16093 3.1 180 23:40 15.05.2020
3039 Clouds 27 1019 61 16093 3.6 170 23:20 15.05.2020
3040 Clouds 27 1019 61 16093 3.6 170 22:42 15.05.2020
3041 Clouds 27 1019 61 16093 3.6 170 22:23 15.05.2020
3042 Clouds 27 1019 57 16093 2.6 80 21:58 15.05.2020
3043 Clouds 27 1019 57 16093 2.6 80 21:39 15.05.2020
3044 Clouds 27 1019 57 16093 2.6 80 21:21 15.05.2020
3045 Clouds 24 1019 73 16093 1.5 350 20:56 15.05.2020
3046 Clouds 25 1019 73 16093 1.5 350 20:38 15.05.2020
3047 Clouds 24 1018 78 16093 2.6 340 20:19 15.05.2020
3048 Clouds 23 1018 78 16093 2.6 340 19:44 15.05.2020
3049 Clouds 23 1018 78 16093 2.6 340 19:44 15.05.2020
3050 Clouds 23 1018 78 16093 2.6 340 19:24 15.05.2020
3051 Clouds 22 1017 83 16093 2.6 340 18:58 15.05.2020
3052 Clouds 22 1017 83 16093 2.6 340 18:39 15.05.2020
3053 Clouds 22 1017 83 16093 2.1 140 18:18 15.05.2020
3054 Clouds 22 1017 83 16093 2.1 140 17:38 15.05.2020
3055 Clouds 22 1017 83 16093 2.1 140 17:19 15.05.2020
3056 Clouds 22 1017 78 16093 2.6 330 16:56 15.05.2020
3057 Clouds 22 1017 78 16093 2.6 330 16:38 15.05.2020
3058 Clouds 22 1017 78 16093 2.6 330 16:18 15.05.2020
3059 Clouds 22 1017 83 16093 3.1 320 15:41 15.05.2020
3060 Clouds 22 1017 83 16093 3.1 320 15:21 15.05.2020
3061 Clouds 22 1017 83 16093 2.1 340 14:58 15.05.2020
3062 Clouds 22 1017 83 16093 2.1 340 14:58 15.05.2020
3063 Clouds 22 1017 83 16093 2.1 340 14:40 15.05.2020
3064 Clouds 22 1017 83 16093 2.6 320 14:22 15.05.2020
3065 Clouds 22 1017 83 16093 2.6 320 13:42 15.05.2020
3066 Clouds 22 1017 83 16093 2.6 320 13:22 15.05.2020
3067 Clouds 23 1018 78 16093 1.5 10 12:56 15.05.2020
3068 Clouds 23 1018 78 16093 1.5 10 12:37 15.05.2020
3069 Clouds 23 1018 78 16093 2.1 20 12:18 15.05.2020
3070 Clouds 23 1018 78 16093 2.1 20 11:56 15.05.2020
3071 Clouds 23 1018 78 16093 2.1 20 11:37 15.05.2020
3072 Clouds 23 1018 78 16093 2.1 20 11:19 15.05.2020
3073 Clouds 24 1018 73 16093 3.6 50 10:55 15.05.2020
3074 Clouds 24 1018 73 16093 3.6 50 10:37 15.05.2020
3075 Clouds 24 1017 73 16093 2.1 90 10:19 15.05.2020
3076 Clouds 24 1017 73 16093 2.1 90 09:40 15.05.2020
3077 Clouds 24 1017 69 16093 1.5 40 09:20 15.05.2020
3078 Clouds 24 1017 69 16093 1.5 40 08:58 15.05.2020
3079 Clouds 24 1017 69 16093 1.5 40 08:38 15.05.2020
3080 Clouds 24 1016 65 16093 1.5 160 08:19 15.05.2020
3081 Clouds 24 1016 65 16093 1.5 160 07:44 15.05.2020
3082 Clouds 25 1016 65 16093 1.5 160 07:25 15.05.2020
3083 Clouds 25 1016 61 16093 1.5 210 06:54 15.05.2020
3084 Rain 25 1016 65 16093 2.1 10 05:49 15.05.2020
3085 Rain 23 1016 73 16093 2.6 30 04:28 15.05.2020
3086 Rain 25 1016 65 16093 3.1 140 03:48 15.05.2020
3087 Clouds 26 1016 65 16093 4.6 170 02:35 15.05.2020
3088 Clouds 26 1017 65 16093 4.1 150 01:24 15.05.2020
3089 Clouds 27 1017 61 16093 4.1 190 00:50 15.05.2020
3090 Clouds 27 1017 61 16093 4.1 190 00:30 15.05.2020
3091 Clouds 28 1017 58 16093 4.1 220 23:45 14.05.2020
3092 Clouds 28 1017 58 16093 4.1 220 23:25 14.05.2020
3093 Clouds 27 1017 61 16093 3.6 190 23:00 14.05.2020
3094 Clouds 27 1017 61 16093 3.6 190 22:40 14.05.2020
3095 Clouds 27 1017 61 16093 3.6 190 22:19 14.05.2020
3096 Clouds 25 1017 69 16093 2.4 159 21:58 14.05.2020
3097 Clouds 25 1017 69 16093 2.4 159 21:39 14.05.2020
3098 Clouds 24 1017 69 16093 2.59 161 21:19 14.05.2020
3099 Clouds 24 1017 69 16093 2.59 161 20:55 14.05.2020
3100 Clouds 24 1017 69 16093 2.59 161 20:55 14.05.2020
3101 Clouds 25 1017 69 16093 2.59 161 20:36 14.05.2020
3102 Clouds 24 1016 78 16093 2.1 330 20:18 14.05.2020
3103 Clouds 23 1016 78 16093 2.1 330 19:41 14.05.2020
3104 Clouds 23 1016 78 16093 2.1 330 19:21 14.05.2020
3105 Clouds 21 1016 83 16093 2.1 360 18:58 14.05.2020
3106 Clouds 21 1016 83 16093 2.1 360 18:38 14.05.2020
3107 Clouds 21 1016 83 16093 2.1 360 18:20 14.05.2020
3108 Clouds 21 1015 83 16093 2.1 350 17:59 14.05.2020
3109 Clouds 21 1015 83 16093 2.1 350 17:37 14.05.2020
3110 Clouds 21 1015 83 16093 2.1 350 17:19 14.05.2020
3111 Clouds 22 1015 78 16093 2.1 340 16:57 14.05.2020
3112 Clouds 22 1015 78 16093 2.1 340 16:38 14.05.2020
3113 Clouds 22 1015 78 16093 1.08 55 16:19 14.05.2020
3114 Clouds 22 1015 78 16093 1.08 55 15:56 14.05.2020
3115 Clouds 22 1015 78 16093 1.28 72 15:37 14.05.2020
3116 Clouds 22 1016 73 16093 2.6 330 15:18 14.05.2020
3117 Clouds 23 1016 73 16093 2.6 330 14:40 14.05.2020
3118 Clouds 23 1016 73 16093 2.6 330 14:21 14.05.2020
3119 Clear 23 1016 73 16093 2.1 340 13:59 14.05.2020
3120 -273 0 0 0 0 0 13:59 14.05.2020
3121 Clear 23 1016 73 16093 2.1 340 13:59 14.05.2020
3122 Clear 23 1016 73 16093 2.1 340 13:41 14.05.2020
3123 Clear 23 1016 73 16093 2.1 340 13:20 14.05.2020
3124 Clouds 23 1016 73 16093 1.71 66 12:59 14.05.2020
3125 Clouds 23 1016 73 16093 1.71 66 12:39 14.05.2020
3126 Clouds 23 1016 73 16093 1.71 66 12:39 14.05.2020
3127 Clouds 23 1017 69 16093 1.5 360 12:20 14.05.2020
3128 Rain 23 1017 69 16093 1.5 360 11:58 14.05.2020
3129 Rain 23 1017 69 16093 1.5 360 11:39 14.05.2020
3130 Rain 23 1017 69 16093 1.5 360 11:20 14.05.2020
3131 Rain 23 1017 69 16093 2.6 30 10:55 14.05.2020
3132 Rain 23 1017 69 16093 2.6 30 10:36 14.05.2020
3133 Clouds 23 1017 64 16093 2.1 30 10:18 14.05.2020
3134 Clouds 23 1017 64 16093 2.1 30 09:39 14.05.2020
3135 Clouds 24 1017 64 16093 2.1 30 09:19 14.05.2020
3136 Clouds 24 1016 61 16093 3.1 40 08:41 14.05.2020
3137 Clouds 24 1015 61 16093 3.1 330 08:20 14.05.2020
3138 Clouds 25 1015 61 16093 3.1 330 07:46 14.05.2020
3139 Clouds 25 1015 61 16093 3.1 330 07:25 14.05.2020
3140 Clouds 25 1015 57 16093 5.1 340 06:54 14.05.2020
3141 Clouds 26 1015 57 16093 5.1 340 06:29 14.05.2020
3142 Clouds 26 1015 51 16093 5.7 40 05:46 14.05.2020
3143 Clouds 26 1015 51 16093 5.7 40 05:23 14.05.2020
3144 Rain 27 1015 51 16093 5.1 60 04:25 14.05.2020
3145 Clouds 27 1015 61 16093 6.7 150 03:22 14.05.2020
3146 Clouds 28 1015 58 16093 6.2 140 02:41 14.05.2020
3147 Clouds 28 1015 54 16093 8.7 130 01:56 14.05.2020
3148 Clouds 27 1016 61 16093 8.2 140 01:19 14.05.2020
3149 Clouds 27 1016 61 16093 8.2 140 00:43 14.05.2020
3150 Clouds 27 1016 61 16093 6.2 140 00:21 14.05.2020
3151 Clouds 27 1016 61 16093 6.2 140 23:40 13.05.2020
3152 Clouds 27 1017 61 16093 3.1 160 23:21 13.05.2020
3153 Clouds 26 1017 61 16093 3.1 160 22:42 13.05.2020
3154 Clouds 26 1017 61 16093 3.1 160 22:42 13.05.2020
3155 Clouds 26 1017 61 16093 3.1 160 22:23 13.05.2020
3156 Clouds 26 1017 61 16093 3.6 40 21:59 13.05.2020
3157 Clouds 26 1017 61 16093 3.6 40 21:59 13.05.2020
3158 Clouds 26 1017 61 16093 3.6 40 21:40 13.05.2020
3159 Clouds 26 1017 61 16093 3.6 40 21:20 13.05.2020
3160 Clouds 25 1017 73 16093 2.6 350 20:58 13.05.2020
3161 Clouds 24 1017 73 16093 2.6 350 20:39 13.05.2020
3162 Clouds 24 1017 73 16093 2.6 350 20:21 13.05.2020
3163 Clouds 24 1017 78 16093 2.1 350 19:43 13.05.2020
3164 Clouds 23 1017 78 16093 2.1 350 19:24 13.05.2020
3165 Clouds 23 1017 78 16093 1.5 350 18:45 13.05.2020
3166 Clouds 23 1017 78 16093 1.5 350 18:22 13.05.2020
3167 Clouds 23 1016 73 16093 2.1 40 17:59 13.05.2020
3168 Rain 23 1016 73 16093 2.1 40 17:38 13.05.2020
3169 Rain 23 1016 73 16093 2.1 40 17:18 13.05.2020
3170 Clouds 23 1016 73 16093 3.61 80 16:41 13.05.2020
3171 Rain 23 1017 73 16093 4.06 77 16:20 13.05.2020
3172 Rain 23 1017 73 16093 4.06 77 15:57 13.05.2020
3173 Rain 23 1017 73 16093 4.06 77 15:39 13.05.2020
3174 Clouds 23 1017 69 16093 2.1 30 15:18 13.05.2020
3175 Clouds 23 1017 69 16093 2.1 30 14:55 13.05.2020
3176 Clouds 23 1017 69 16093 2.1 30 14:55 13.05.2020
3177 Clouds 24 1017 69 16093 2.1 30 14:36 13.05.2020
3178 Clouds 24 1018 69 16093 3.6 80 14:18 13.05.2020
3179 Clouds 24 1018 69 16093 3.6 80 13:42 13.05.2020
3180 Clouds 24 1018 69 16093 3.6 80 13:23 13.05.2020
3181 Clouds 23 1018 73 16093 4.6 80 12:59 13.05.2020
3182 Clouds 23 1018 73 16093 4.6 80 12:41 13.05.2020
3183 Clouds 23 1018 73 16093 4.6 80 12:21 13.05.2020
3184 Clouds 24 1019 69 16093 4.1 70 11:56 13.05.2020
3185 Clouds 24 1019 69 16093 4.1 70 11:37 13.05.2020
3186 Clouds 24 1019 69 16093 5.1 70 11:19 13.05.2020
3187 Clouds 24 1019 69 16093 5.1 70 10:57 13.05.2020
3188 Clouds 24 1019 69 16093 5.1 70 10:38 13.05.2020
3189 Clouds 24 1019 69 16093 5.1 70 10:19 13.05.2020
3190 Clouds 24 1019 65 16093 2.6 50 09:46 13.05.2020
3191 Clouds 24 1019 65 16093 2.6 50 09:24 13.05.2020
3192 Clouds 24 1018 65 16093 5.7 50 08:58 13.05.2020
3193 Clouds 24 1018 65 16093 5.7 50 08:39 13.05.2020
3194 Clouds 24 1018 65 16093 5.7 50 08:20 13.05.2020
3195 Clouds 24 1018 61 16093 5.1 50 07:51 13.05.2020
3196 Clouds 24 1018 61 16093 5.1 50 07:31 13.05.2020
3197 Clouds 24 1017 61 16093 5.1 50 06:52 13.05.2020
3198 Clouds 24 1017 61 16093 5.1 50 06:33 13.05.2020
3199 Rain 25 1017 61 16093 7.2 50 05:34 13.05.2020
3200 Rain 25 1017 65 14484 5.1 70 03:37 13.05.2020
3201 Rain 25 1017 57 16093 6.2 30 02:34 13.05.2020
3202 Clouds 26 1018 54 16093 6.7 30 01:45 13.05.2020
3203 Clouds 26 1018 45 16093 7.7 30 00:55 13.05.2020
3204 Clouds 26 1018 45 16093 7.7 30 00:22 13.05.2020
3205 Clouds 27 1019 45 16093 3.1 20 23:55 12.05.2020
3206 Clouds 28 1019 45 16093 3.1 20 23:36 12.05.2020
3207 Clouds 28 1019 51 16093 4.6 30 23:18 12.05.2020
3208 Clouds 28 1019 51 16093 4.6 30 22:42 12.05.2020
3209 Clouds 28 1019 51 16093 4.6 30 22:22 12.05.2020
3210 Clouds 26 1019 54 16093 4.1 40 21:56 12.05.2020
3211 Clouds 26 1019 54 16093 4.1 40 21:38 12.05.2020
3212 Clouds 26 1019 54 16093 4.1 40 21:19 12.05.2020
3213 Clouds 25 1019 64 16093 4.57 54 20:57 12.05.2020
3214 Clouds 25 1019 64 16093 4.57 54 20:38 12.05.2020
3215 Clouds 25 1019 64 16093 4.53 49 20:20 12.05.2020
3216 Clouds 23 1019 73 16093 1.5 310 19:56 12.05.2020
3217 Clouds 23 1019 73 16093 1.5 310 19:56 12.05.2020
3218 Clouds 23 1019 73 16093 1.5 310 19:38 12.05.2020
3219 Clouds 23 1018 77 16093 3.1 330 19:20 12.05.2020
3220 Clouds 22 1018 77 16093 3.1 330 18:43 12.05.2020
3221 Clouds 22 1018 77 16093 3.1 330 18:24 12.05.2020
3222 Clouds 23 1018 73 16093 2.1 320 17:58 12.05.2020
3223 Clouds 23 1018 73 16093 2.1 320 17:39 12.05.2020
3224 Clouds 23 1018 73 16093 2.1 320 17:21 12.05.2020
3225 Clouds 23 1018 73 16093 2.6 310 16:43 12.05.2020
3226 Clouds 23 1018 73 16093 2.6 310 16:23 12.05.2020
3227 Clouds 23 1018 73 16093 2.1 330 15:56 12.05.2020
3228 Clouds 23 1018 73 16093 2.1 330 15:37 12.05.2020
3229 Clouds 23 1019 73 16093 2.1 310 15:18 12.05.2020
3230 Clouds 23 1019 73 16093 2.1 310 14:55 12.05.2020
3231 Clouds 23 1019 73 16093 2.1 310 14:36 12.05.2020
3232 Clouds 23 1019 73 16093 2.1 310 14:36 12.05.2020
3233 Clouds 23 1019 73 16093 2.1 310 14:18 12.05.2020
3234 Clouds 23 1019 69 16093 3.1 80 13:55 12.05.2020
3235 Clouds 23 1019 69 16093 3.1 80 13:37 12.05.2020
3236 Clouds 24 1020 64 16093 4.1 60 13:18 12.05.2020
3237 Clouds 24 1020 64 16093 4.1 60 12:56 12.05.2020
3238 Clouds 24 1020 64 16093 4.1 60 12:56 12.05.2020
3239 Clouds 24 1020 64 16093 4.1 60 12:37 12.05.2020
3240 Clouds 24 1020 64 16093 4.1 60 12:37 12.05.2020
3241 Clouds 24 1020 64 16093 4.1 60 12:19 12.05.2020
3242 Clouds 23 1020 64 16093 4.6 60 11:56 12.05.2020
3243 Clouds 24 1020 64 16093 4.6 60 11:37 12.05.2020
3244 Clouds 24 1020 64 16093 4.6 60 11:19 12.05.2020
3245 Clouds 24 1020 64 16093 3.1 60 10:55 12.05.2020
3246 Clouds 24 1020 64 16093 3.1 60 10:37 12.05.2020
3247 Clouds 24 1020 64 16093 3.1 60 10:18 12.05.2020
3248 Clouds 24 1020 64 16093 5.7 60 09:55 12.05.2020
3249 Clouds 24 1020 64 16093 5.7 60 09:37 12.05.2020
3250 Clouds 24 1019 64 16093 5.1 60 09:19 12.05.2020
3251 Clouds 24 1019 64 16093 5.1 60 08:39 12.05.2020
3252 Clouds 24 1019 64 16093 5.1 60 08:20 12.05.2020
3253 Clouds 25 1018 57 16093 4.1 40 07:44 12.05.2020
3254 Clouds 25 1018 57 16093 4.1 40 07:26 12.05.2020
3255 Clouds 25 1018 54 16093 5.7 70 06:55 12.05.2020
3256 Clouds 26 1018 54 16093 5.7 70 06:36 12.05.2020
3257 Clouds 26 1018 51 16093 6.7 50 06:18 12.05.2020
3258 Clouds 26 1018 51 16093 6.7 50 05:44 12.05.2020
3259 Clouds 27 1018 48 16093 7.7 60 03:48 12.05.2020
3260 Clouds 28 1019 45 16093 8.7 70 02:53 12.05.2020
3261 Clouds 28 1019 45 16093 8.7 70 02:26 12.05.2020
3262 Clouds 27 1019 51 16093 8.7 60 01:29 12.05.2020
3263 Clouds 27 1020 51 16093 8.2 70 00:37 12.05.2020
3264 Clouds 27 1020 61 16093 6.7 60 00:18 12.05.2020
3265 Clouds 26 1020 61 16093 6.7 60 23:42 11.05.2020
3266 Clouds 26 1020 61 16093 6.7 60 23:22 11.05.2020
3267 Rain 25 1020 69 16093 5.7 50 22:59 11.05.2020
3268 Rain 25 1020 69 16093 5.7 50 22:59 11.05.2020
3269 Rain 25 1020 69 16093 5.7 50 22:41 11.05.2020
3270 Rain 25 1020 69 16093 5.7 50 22:20 11.05.2020
3271 Rain 24 1020 83 16093 2.6 60 21:58 11.05.2020
3272 Rain 24 1020 83 16093 2.6 60 21:40 11.05.2020
3273 Rain 24 1020 69 16093 4.1 70 21:19 11.05.2020
3274 Rain 24 1020 69 16093 4.1 70 20:59 11.05.2020
3275 Rain 24 1020 69 16093 4.1 70 20:40 11.05.2020
3276 Rain 24 1020 69 16093 4.1 70 20:21 11.05.2020
3277 Clouds 24 1019 73 16093 5.74 84 19:55 11.05.2020
3278 Clouds 23 1019 73 16093 5.74 84 19:37 11.05.2020
3279 Clouds 23 1019 73 16093 4.55 75 19:19 11.05.2020
3280 Clouds 24 1019 73 16093 2.6 70 18:55 11.05.2020
3281 Clouds 24 1019 73 16093 2.6 70 18:36 11.05.2020
3282 Clouds 24 1019 73 16093 2.6 70 18:18 11.05.2020
3283 Clouds 24 1018 69 16093 3.1 60 17:41 11.05.2020
3284 Clouds 24 1018 69 16093 3.1 60 17:41 11.05.2020
3285 Clouds 23 1018 69 16093 3.1 60 17:23 11.05.2020
3286 Clouds 24 1018 69 16093 3.1 80 16:59 11.05.2020
3287 Clouds 24 1018 69 16093 3.1 80 16:40 11.05.2020
3288 Clouds 24 1018 69 16093 3.1 70 16:21 11.05.2020
3289 Clouds 24 1018 69 16093 3.1 70 15:57 11.05.2020
3290 Clouds 23 1018 69 16093 3.1 70 15:39 11.05.2020
3291 Clouds 24 1019 69 16093 3.1 60 15:18 11.05.2020
3292 Clouds 24 1019 69 16093 3.1 60 14:42 11.05.2020
3293 Clouds 24 1019 69 16093 3.1 60 14:23 11.05.2020
3294 Clouds 24 1019 64 16093 2.6 70 13:59 11.05.2020
3295 Clouds 24 1019 64 16093 2.6 70 13:41 11.05.2020
3296 Clouds 24 1019 64 16093 2.6 70 13:19 11.05.2020
3297 Clouds 24 1019 69 16093 5.7 60 12:58 11.05.2020
3298 Clouds 24 1019 69 16093 5.7 60 12:39 11.05.2020
3299 Clouds 24 1019 69 16093 5.7 60 12:21 11.05.2020
3300 Clouds 24 1020 64 16093 2.6 70 11:56 11.05.2020
3301 Clouds 24 1020 64 16093 2.6 70 11:37 11.05.2020
3302 Clouds 24 1019 64 16093 4.6 70 11:18 11.05.2020
3303 Clouds 24 1019 64 16093 4.6 70 11:18 11.05.2020
3304 Clouds 24 1019 64 16093 4.6 70 10:54 11.05.2020
3305 Clouds 24 1019 64 16093 4.6 70 10:36 11.05.2020
3306 Clouds 24 1019 64 16093 4.1 90 10:18 11.05.2020
3307 Clouds 24 1019 64 16093 4.1 90 09:42 11.05.2020
3308 Clouds 24 1019 64 16093 4.1 90 09:22 11.05.2020
3309 Clouds 24 1018 61 16093 4.6 60 08:57 11.05.2020
3310 Clouds 24 1018 61 16093 4.6 60 08:38 11.05.2020
3311 Clouds 25 1018 61 16093 4.6 60 08:18 11.05.2020
3312 Clouds 25 1018 54 16093 5.1 60 07:47 11.05.2020
3313 Clouds 25 1018 54 16093 5.1 60 07:28 11.05.2020
3314 Clouds 26 1018 51 16093 7.2 70 06:51 11.05.2020
3315 Clouds 27 1017 48 16093 6.2 40 05:58 11.05.2020
3316 Clouds 27 1017 48 16093 6.2 40 05:25 11.05.2020
3317 Clouds 27 1017 51 16093 5.7 60 04:32 11.05.2020
3318 Clouds 28 1017 45 16093 7.2 80 03:29 11.05.2020
3319 Clouds 28 1018 42 16093 6.2 30 02:29 11.05.2020
3320 Clouds 29 1018 45 16093 6.7 50 01:40 11.05.2020
3321 Clouds 28 1019 48 16093 6.2 30 00:53 11.05.2020
3322 Rain 28 1019 48 16093 6.2 30 00:19 11.05.2020
3323 Rain 28 1019 48 16093 6.2 30 00:19 11.05.2020
3324 Rain 27 1019 48 16093 3.6 30 23:43 10.05.2020
3325 Rain 27 1019 48 16093 3.6 30 23:24 10.05.2020
3326 Clouds 27 1020 48 16093 5.1 50 22:55 10.05.2020
3327 Clouds 28 1020 48 16093 5.1 50 22:37 10.05.2020
3328 Clouds 28 1020 48 16093 5.1 50 22:19 10.05.2020
3329 Clouds 27 1019 54 16093 3.1 30 21:44 10.05.2020
3330 Clouds 26 1019 54 16093 3.1 30 21:19 10.05.2020
3331 Clouds 25 1019 61 16093 1.5 30 20:54 10.05.2020
3332 Clouds 25 1019 61 16093 1.5 30 20:36 10.05.2020
3333 Clouds 25 1019 61 16093 1.5 30 20:36 10.05.2020
3334 Clouds 25 1019 61 16093 1.5 30 20:18 10.05.2020
3335 Clouds 24 1019 69 16093 1.5 300 19:40 10.05.2020
3336 Clouds 23 1019 69 16093 1.5 300 19:22 10.05.2020
3337 Clouds 23 1018 73 16093 5.28 48 18:57 10.05.2020
3338 Clouds 23 1018 73 16093 5.28 48 18:57 10.05.2020
3339 Clouds 23 1018 73 16093 5.28 48 18:37 10.05.2020
3340 Clouds 22 1018 73 16093 2.6 30 18:19 10.05.2020
3341 Clouds 22 1018 73 16093 2.6 30 17:58 10.05.2020
3342 Clouds 22 1018 73 16093 2.6 30 17:40 10.05.2020
3343 Clouds 22 1018 73 16093 4.71 49 17:21 10.05.2020
3344 Clouds 22 1018 73 16093 4.71 49 16:56 10.05.2020
3345 Clouds 22 1018 73 16093 4.71 49 16:38 10.05.2020
3346 Clouds 23 1018 73 16093 4.87 52 16:19 10.05.2020
3347 Clouds 23 1018 69 16093 2.6 10 15:43 10.05.2020
3348 Clouds 23 1018 69 16093 2.6 10 15:24 10.05.2020
3349 Clouds 23 1018 64 16093 3.1 40 14:57 10.05.2020
3350 Clouds 23 1018 64 16093 3.1 40 14:38 10.05.2020
3351 Clouds 23 1018 64 16093 3.1 40 14:19 10.05.2020
3352 Clouds 23 1018 64 16093 3.1 40 14:19 10.05.2020
3353 Clouds 23 1019 64 16093 2.1 40 13:58 10.05.2020
3354 Clouds 23 1019 64 16093 2.1 40 13:37 10.05.2020
3355 Clouds 23 1019 64 16093 3.1 30 13:19 10.05.2020
3356 Clouds 23 1019 64 16093 3.1 30 13:19 10.05.2020
3357 Clouds 23 1019 64 16093 3.1 30 12:56 10.05.2020
3358 Clouds 23 1019 64 16093 3.1 30 12:37 10.05.2020
3359 Clouds 23 1019 64 16093 2.6 70 12:19 10.05.2020
3360 Clouds 24 1019 64 16093 2.6 70 11:54 10.05.2020
3361 Clouds 24 1019 64 16093 2.6 70 11:36 10.05.2020
3362 Clouds 24 1019 64 16093 5.1 50 11:18 10.05.2020
3363 Clouds 24 1019 64 16093 5.1 50 10:42 10.05.2020
3364 Clouds 24 1019 64 16093 5.1 50 10:24 10.05.2020
3365 Clouds 24 1019 64 16093 6.7 60 09:43 10.05.2020
3366 Rain 24 1019 64 16093 6.7 60 09:24 10.05.2020
3367 Rain 24 1018 64 16093 6.2 60 08:59 10.05.2020
3368 Rain 24 1018 64 16093 6.2 60 08:41 10.05.2020
3369 Rain 24 1018 64 16093 6.2 60 08:22 10.05.2020
3370 Rain 24 1018 61 16093 6.2 50 07:43 10.05.2020
3371 Rain 24 1018 61 16093 6.2 50 07:19 10.05.2020
3372 Clouds 25 1017 54 16093 6.2 40 06:51 10.05.2020
3373 Clouds 25 1017 54 16093 6.2 40 06:51 10.05.2020
3374 Clouds 25 1017 54 16093 6.2 40 06:27 10.05.2020
3375 Clouds 26 1017 54 16093 6.7 60 05:48 10.05.2020
3376 Clouds 27 1017 51 16093 7.2 40 04:48 10.05.2020
3377 Clouds 27 1017 51 16093 7.2 40 04:29 10.05.2020
3378 Clouds 28 1017 45 16093 7.7 40 03:51 10.05.2020
3379 Clouds 28 1017 45 16093 7.7 40 03:30 10.05.2020
3380 Clouds 28 1018 45 16093 8.7 40 02:25 10.05.2020
3381 Clouds 28 1018 48 16093 6.2 50 01:59 10.05.2020
3382 Clouds 28 1018 48 16093 6.2 50 01:40 10.05.2020
3383 Clouds 28 1018 48 16093 6.2 50 01:18 10.05.2020
3384 Clouds 28 1018 51 16093 8.2 60 00:52 10.05.2020
3385 Clouds 28 1018 51 16093 8.2 60 00:22 10.05.2020
3386 Clouds 28 1019 48 16093 7.7 40 23:40 09.05.2020
3387 Clouds 28 1019 48 16093 7.7 40 23:22 09.05.2020
3388 Clouds 28 1019 48 16093 7.7 40 22:59 09.05.2020
3389 Clouds 28 1019 48 16093 7.7 40 22:41 09.05.2020
3390 Clouds 27 1019 48 16093 7.7 40 22:22 09.05.2020
3391 Clouds 26 1018 54 16093 4.6 50 21:57 09.05.2020
3392 Clouds 26 1018 54 16093 4.6 50 21:39 09.05.2020
3393 Clouds 25 1018 57 16093 4.1 70 21:20 09.05.2020
3394 Clouds 25 1018 57 16093 4.1 70 20:56 09.05.2020
3395 Clouds 25 1018 57 16093 4.1 70 20:37 09.05.2020
3396 Clouds 24 1018 69 16093 2.1 10 20:19 09.05.2020
3397 Clouds 23 1018 69 16093 2.1 10 19:40 09.05.2020
3398 Clouds 23 1018 69 16093 2.1 10 19:21 09.05.2020
3399 Clouds 22 1018 73 16093 4.31 47 18:58 09.05.2020
3400 Clouds 22 1018 73 16093 4.31 47 18:40 09.05.2020
3401 Clouds 22 1018 73 16093 4 48 18:21 09.05.2020
3402 Clouds 22 1017 73 16093 4 48 17:44 09.05.2020
3403 Clouds 22 1017 73 16093 4 48 17:23 09.05.2020
3404 Clouds 22 1017 68 16093 4 48 16:55 09.05.2020
3405 Clouds 22 1017 68 16093 4 48 16:37 09.05.2020
3406 Clouds 22 1018 64 16093 1.5 350 16:18 09.05.2020
3407 Clouds 22 1018 64 16093 1.5 350 16:18 09.05.2020
3408 Clouds 22 1018 64 16093 1.5 350 15:40 09.05.2020
3409 Clouds 22 1018 64 16093 1.5 350 15:21 09.05.2020
3410 Clouds 22 1018 64 16093 2.1 360 14:43 09.05.2020
3411 Clouds 22 1018 64 16093 2.1 360 14:20 09.05.2020
3412 Clouds 23 1018 64 16093 1.5 20 13:59 09.05.2020
3413 Clouds 23 1018 64 16093 1.5 20 13:41 09.05.2020
3414 Clouds 23 1018 64 16093 1.5 20 13:21 09.05.2020
3415 Clouds 23 1019 64 16093 2.1 10 12:57 09.05.2020
3416 Clouds 23 1019 64 16093 2.1 10 12:57 09.05.2020
3417 Clouds 23 1019 64 16093 2.1 10 12:39 09.05.2020
3418 Clouds 23 1019 64 16093 2.6 350 12:21 09.05.2020
3419 Clouds 23 1019 64 16093 2.6 350 11:43 09.05.2020
3420 Clouds 23 1019 64 16093 2.6 350 11:20 09.05.2020
3421 Clouds 23 1019 64 16093 2.1 20 10:48 09.05.2020
3422 Clouds 23 1019 64 16093 2.1 20 10:27 09.05.2020
3423 Clouds 23 1018 64 16093 3.1 20 09:59 09.05.2020
3424 Clouds 23 1018 64 16093 3.1 20 09:40 09.05.2020
3425 Clouds 23 1018 60 16093 2.6 20 09:19 09.05.2020
3426 Clouds 23 1018 60 16093 2.6 20 08:52 09.05.2020
3427 Clouds 23 1018 60 16093 2.6 20 08:33 09.05.2020
3428 Clouds 23 1018 60 16093 2.6 20 08:33 09.05.2020
3429 Clouds 23 1017 60 16093 4.1 20 07:55 09.05.2020
3430 Clouds 23 1017 60 16093 4.1 20 07:36 09.05.2020
3431 Clouds 24 1016 54 16093 6.7 50 07:18 09.05.2020
3432 Clouds 25 1016 54 16093 6.7 50 06:26 09.05.2020
3433 Clouds 25 1016 47 16093 7.7 40 05:49 09.05.2020
3434 Clouds 26 1016 44 16093 7.7 30 04:53 09.05.2020
3435 Clouds 26 1017 44 16093 7.7 60 03:39 09.05.2020
3436 Clouds 27 1017 45 16093 8.2 40 02:50 09.05.2020
3437 Clouds 27 1018 45 16093 7.2 20 01:54 09.05.2020
3438 Clouds 27 1018 45 16093 7.2 20 01:26 09.05.2020
3439 Clouds 26 1018 47 16093 7.2 40 00:59 09.05.2020
3440 Clouds 26 1018 47 16093 7.2 40 00:38 09.05.2020
3441 Clouds 26 1019 51 16093 6.7 50 23:57 08.05.2020
3442 Clouds 26 1019 51 16093 6.7 50 23:39 08.05.2020
3443 Clouds 26 1019 51 16093 6.7 50 23:19 08.05.2020
3444 Clouds 26 1019 50 16093 8.7 50 22:54 08.05.2020
3445 Clouds 26 1019 50 16093 8.7 50 22:36 08.05.2020
3446 Clouds 26 1019 50 16093 8.7 50 22:18 08.05.2020
3447 Clouds 25 1019 54 16093 7.7 50 21:42 08.05.2020
3448 Clouds 25 1019 60 16093 4.6 20 21:19 08.05.2020
3449 Clouds 25 1019 60 16093 4.6 20 21:19 08.05.2020
3450 Clouds 24 1019 60 16093 4.6 20 20:59 08.05.2020
3451 Clouds 24 1019 60 16093 4.6 20 20:40 08.05.2020
3452 Clouds 24 1019 60 16093 4.6 20 20:22 08.05.2020
3453 Clouds 23 1018 68 16093 3.1 330 19:45 08.05.2020
3454 Clouds 22 1018 68 16093 3.1 330 19:24 08.05.2020
3455 Clouds 22 1018 73 16093 4.1 320 18:57 08.05.2020
3456 Clouds 22 1018 73 16093 4.1 320 18:39 08.05.2020
3457 Clouds 22 1018 73 16093 4.1 320 18:21 08.05.2020
3458 Clouds 21 1018 73 16093 3.6 320 17:42 08.05.2020
3459 Clouds 22 1018 73 16093 3.6 320 17:19 08.05.2020
3460 Clouds 22 1018 68 16093 3.6 330 16:46 08.05.2020
3461 Clouds 22 1018 68 16093 3.6 330 16:27 08.05.2020
3462 Clouds 22 1018 68 16093 4.1 330 15:58 08.05.2020
3463 Clouds 22 1018 68 16093 4.1 330 15:58 08.05.2020
3464 Clouds 22 1018 68 16093 4.1 330 15:40 08.05.2020
3465 Clouds 22 1018 64 16093 3.1 340 15:18 08.05.2020
3466 Clouds 22 1018 64 16093 3.1 340 14:54 08.05.2020
3467 Clouds 22 1018 64 16093 3.1 340 14:36 08.05.2020
3468 Clouds 22 1019 64 16093 3.6 10 14:18 08.05.2020
3469 Clouds 22 1019 64 16093 3.6 10 13:40 08.05.2020
3470 Clouds 22 1019 64 16093 3.6 10 13:20 08.05.2020
3471 Clouds 22 1019 64 16093 3.6 30 12:46 08.05.2020
3472 Clouds 22 1019 64 16093 3.6 30 12:25 08.05.2020
3473 Clouds 22 1020 64 11265 3.6 30 11:59 08.05.2020
3474 Clouds 22 1020 64 11265 3.6 30 11:41 08.05.2020
3475 Clouds 23 1019 69 16093 4.1 20 11:21 08.05.2020
3476 Clouds 23 1019 69 16093 4.1 20 10:57 08.05.2020
3477 Clouds 23 1019 69 16093 4.1 20 10:39 08.05.2020
3478 Clouds 23 1019 69 16093 4.1 30 10:18 08.05.2020
3479 Rain 23 1019 69 16093 4.1 30 09:41 08.05.2020
3480 Rain 23 1019 69 16093 4.1 30 09:19 08.05.2020
3481 Rain 22 1018 69 16093 4.1 20 08:56 08.05.2020
3482 Clouds 22 1018 69 16093 4.1 20 08:37 08.05.2020
3483 Rain 22 1017 64 16093 5.7 30 08:18 08.05.2020
3484 Rain 22 1017 64 16093 5.7 30 07:39 08.05.2020
3485 Rain 23 1017 64 16093 5.7 30 07:19 08.05.2020
3486 Rain 24 1017 57 16093 3.6 40 06:42 08.05.2020
3487 Rain 25 1017 57 16093 3.6 40 06:20 08.05.2020
3488 Rain 25 1016 51 16093 6.7 40 05:32 08.05.2020
3489 Clouds 27 1017 48 16093 8.7 30 03:23 08.05.2020
3490 Clouds 27 1017 48 16093 7.2 20 02:29 08.05.2020
3491 Rain 27 1018 51 16093 7.7 30 01:40 08.05.2020
3492 Rain 27 1018 51 16093 7.7 30 01:20 08.05.2020
3493 Rain 26 1018 48 16093 6.2 40 00:47 08.05.2020
3494 Clouds 26 1018 48 16093 6.2 40 00:27 08.05.2020
3495 Clouds 26 1019 54 16093 6.2 40 23:56 07.05.2020
3496 Clouds 26 1019 54 16093 6.2 40 23:37 07.05.2020
3497 Clouds 26 1019 54 16093 6.2 40 23:19 07.05.2020
3498 Clouds 26 1019 54 16093 3.6 40 22:41 07.05.2020
3499 Clouds 26 1019 54 16093 3.6 40 22:20 07.05.2020
3500 Clouds 24 1019 65 16093 5.7 60 21:57 07.05.2020
3501 Clouds 25 1019 65 16093 5.7 60 21:38 07.05.2020
3502 Clouds 25 1019 65 16093 5.7 60 21:19 07.05.2020
3503 Clouds 25 1019 65 16093 5.7 60 21:19 07.05.2020
3504 Rain 23 1019 69 16093 2.1 50 20:56 07.05.2020
3505 Rain 23 1019 69 16093 2.1 50 20:37 07.05.2020
3506 Rain 23 1018 83 16093 1.5 350 20:18 07.05.2020
3507 Rain 23 1018 83 16093 1.5 350 19:45 07.05.2020
3508 Rain 23 1018 83 16093 1.5 350 19:21 07.05.2020
3509 Clouds 22 1018 88 16093 2.1 10 18:47 07.05.2020
3510 Clouds 22 1018 88 16093 2.1 10 18:29 07.05.2020
3511 Clouds 22 1018 83 16093 1.5 300 17:59 07.05.2020
3512 Clouds 23 1018 83 16093 1.5 300 17:38 07.05.2020
3513 Clouds 23 1018 83 16093 1.5 300 17:19 07.05.2020
3514 Rain 23 1017 78 16093 4.6 20 16:42 07.05.2020
3515 Rain 23 1018 73 16093 2.1 10 16:19 07.05.2020
3516 Rain 23 1018 73 16093 2.1 10 15:57 07.05.2020
3517 Clouds 23 1018 73 16093 2.1 10 15:37 07.05.2020
3518 Rain 23 1018 73 11265 3.6 60 15:18 07.05.2020
3519 Rain 23 1018 73 11265 3.6 60 14:46 07.05.2020
3520 Rain 23 1018 73 11265 3.6 60 14:23 07.05.2020
3521 Rain 24 1019 64 16093 3.1 40 13:58 07.05.2020
3522 Clouds 24 1019 64 16093 3.1 40 13:40 07.05.2020
3523 Clouds 24 1019 64 16093 3.1 40 13:40 07.05.2020
3524 Clouds 24 1019 64 16093 3.1 40 13:20 07.05.2020
3525 Clouds 24 1019 69 16093 5.1 50 12:41 07.05.2020
3526 Clouds 24 1019 69 16093 5.1 50 12:20 07.05.2020
3527 Clouds 24 1019 69 16093 4.1 40 11:39 07.05.2020
3528 Clouds 24 1019 69 16093 4.1 40 11:21 07.05.2020
3529 Clouds 24 1019 69 16093 3.6 40 10:57 07.05.2020
3530 Rain 24 1019 69 16093 3.6 40 10:38 07.05.2020
3531 Rain 24 1018 61 16093 4.1 40 10:18 07.05.2020
3532 Clouds 24 1018 61 16093 4.1 40 09:39 07.05.2020
3533 Clouds 24 1018 61 16093 4.1 40 09:19 07.05.2020
3534 Rain 24 1018 61 16093 5.1 50 08:45 07.05.2020
3535 Rain 24 1018 61 16093 5.1 50 08:23 07.05.2020
3536 Clouds 25 1017 57 16093 5.1 50 07:58 07.05.2020
3537 Clouds 25 1017 57 16093 5.1 50 07:40 07.05.2020
3538 Clouds 25 1017 57 16093 5.1 50 07:20 07.05.2020
3539 Clouds 26 1017 54 16093 5.1 50 06:37 07.05.2020
3540 Clouds 26 1017 54 16093 5.1 50 06:18 07.05.2020
3541 Clouds 27 1016 48 16093 6.2 40 04:28 07.05.2020
3542 Clouds 28 1016 45 16093 5.7 40 03:38 07.05.2020
3543 Clouds 28 1017 45 16093 5.1 40 03:18 07.05.2020
3544 Clouds 28 1017 45 16093 5.1 40 02:26 07.05.2020
3545 Clouds 28 1017 45 16093 5.7 70 01:28 07.05.2020
3546 Clouds 28 1018 45 16093 6.7 50 00:55 07.05.2020
3547 Clouds 28 1018 45 16093 6.7 50 00:37 07.05.2020
3548 Clouds 28 1018 45 16093 6.7 50 00:18 07.05.2020
3549 Clouds 28 1019 45 16093 6.7 30 23:41 06.05.2020
3550 Clouds 28 1019 45 16093 6.7 30 23:22 06.05.2020
3551 Clouds 27 1019 48 16093 5.7 30 22:55 06.05.2020
3552 Clouds 27 1019 48 16093 5.7 30 22:37 06.05.2020
3553 Clouds 27 1019 54 16093 4.1 60 22:18 06.05.2020
3554 Clouds 26 1019 54 16093 4.1 60 21:42 06.05.2020
3555 Clouds 26 1019 54 16093 4.1 60 21:23 06.05.2020
3556 Clouds 25 1018 61 16093 4.6 50 20:57 06.05.2020
3557 Clouds 25 1018 61 16093 4.6 50 20:38 06.05.2020
3558 Clouds 25 1018 69 16093 1.5 20 20:20 06.05.2020
3559 Clouds 24 1018 69 16093 1.5 20 19:56 06.05.2020
3560 Clouds 24 1018 69 16093 1.5 20 19:37 06.05.2020
3561 Clouds 23 1017 69 16093 4.8 64 19:18 06.05.2020
3562 Clouds 23 1017 69 16093 4.8 64 18:55 06.05.2020
3563 Clouds 23 1017 69 16093 4.8 64 18:37 06.05.2020
3564 Clouds 23 1017 69 16093 4.8 64 18:37 06.05.2020
3565 Clouds 23 1017 69 16093 3.1 50 18:18 06.05.2020
3566 Clouds 23 1017 69 16093 3.1 50 17:54 06.05.2020
3567 Clouds 23 1017 69 16093 3.1 50 17:36 06.05.2020
3568 Clouds 23 1017 69 16093 2.6 60 17:18 06.05.2020
3569 Clouds 23 1017 69 16093 2.6 60 17:18 06.05.2020
3570 Clouds 23 1017 69 16093 2.6 60 16:56 06.05.2020
3571 Clouds 23 1017 69 16093 2.6 60 16:38 06.05.2020
3572 Clouds 23 1017 69 16093 2.6 60 16:19 06.05.2020
3573 Clouds 23 1017 69 16093 3.6 80 15:45 06.05.2020
3574 Clouds 23 1017 69 16093 3.6 80 15:22 06.05.2020
3575 Clouds 23 1017 69 16093 4.1 70 14:56 06.05.2020
3576 Clouds 23 1017 69 16093 4.1 70 14:38 06.05.2020
3577 Clear 23 1018 64 16093 3.6 60 14:18 06.05.2020
3578 Clear 23 1018 64 16093 3.6 60 13:57 06.05.2020
3579 Clear 23 1018 64 16093 3.6 60 13:37 06.05.2020
3580 Clear 24 1018 64 16093 3.6 60 13:18 06.05.2020
3581 Clouds 24 1018 64 16093 3.1 60 12:42 06.05.2020
3582 Clouds 24 1018 64 16093 3.1 60 12:24 06.05.2020
3583 Clouds 24 1019 64 16093 3.6 60 11:41 06.05.2020
3584 Clouds 24 1019 64 16093 3.6 60 11:22 06.05.2020
3585 Clouds 24 1018 64 16093 3.6 60 10:58 06.05.2020
3586 Clouds 24 1018 64 16093 3.6 60 10:39 06.05.2020
3587 Clouds 24 1018 64 16093 3.6 60 10:19 06.05.2020
3588 Clouds 24 1018 60 16093 3.1 50 09:45 06.05.2020
3589 Clouds 24 1018 60 16093 3.1 50 09:26 06.05.2020
3590 Clouds 24 1018 60 16093 2.6 0 08:55 06.05.2020
3591 Clouds 24 1018 60 16093 2.6 0 08:36 06.05.2020
3592 Clouds 24 1017 57 16093 6.2 60 08:18 06.05.2020
3593 Clouds 25 1017 57 16093 6.2 60 07:40 06.05.2020
3594 Clouds 25 1017 57 16093 6.2 60 07:21 06.05.2020
3595 Clouds 25 1016 51 16093 5.7 70 06:58 06.05.2020
3596 Clouds 25 1016 51 16093 5.7 70 06:40 06.05.2020
3597 Clouds 26 1016 42 16093 6.7 40 06:19 06.05.2020
3598 Clouds 26 1016 42 16093 6.7 40 05:37 06.05.2020
3599 Clouds 27 1016 42 16093 6.7 40 04:41 06.05.2020
3600 Clouds 27 1016 42 16093 5.7 60 03:47 06.05.2020
3601 Clouds 27 1016 42 16093 5.7 60 03:22 06.05.2020
3602 Clouds 28 1017 39 16093 6.7 70 02:30 06.05.2020
3603 Clouds 28 1018 39 16093 7.7 80 01:57 06.05.2020
3604 Clouds 28 1018 39 16093 7.7 80 01:34 06.05.2020
3605 Clouds 27 1018 39 16093 6.2 50 00:55 06.05.2020
3606 Clouds 28 1018 39 16093 6.2 50 00:31 06.05.2020
3607 Clouds 27 1019 48 16093 5.7 50 23:57 05.05.2020
3608 Clouds 27 1019 48 16093 5.7 50 23:39 05.05.2020
3609 Clouds 27 1019 51 16093 6.2 60 23:19 05.05.2020
3610 Clouds 27 1019 48 16093 5.7 50 23:19 05.05.2020
3611 Clouds 27 1019 51 16093 6.2 60 22:42 05.05.2020
3612 Clouds 26 1019 51 16093 6.2 60 22:20 05.05.2020
3613 Clouds 26 1019 54 16093 6.7 60 21:58 05.05.2020
3614 Clouds 26 1019 54 16093 6.7 60 21:58 05.05.2020
3615 Clouds 26 1019 54 16093 6.7 60 21:58 05.05.2020
3616 Clouds 26 1019 54 16093 6.7 60 21:39 05.05.2020
3617 Clouds 26 1019 57 16093 5.7 70 21:21 05.05.2020
3618 Clouds 25 1019 57 16093 5.7 70 20:58 05.05.2020
3619 Clouds 25 1019 57 16093 5.7 70 20:39 05.05.2020
3620 Clouds 25 1018 64 16093 5.7 70 20:18 05.05.2020
3621 Clouds 24 1018 64 16093 5.7 70 19:54 05.05.2020
3622 Clouds 24 1018 64 16093 5.7 70 19:36 05.05.2020
3623 Clouds 24 1018 64 16093 5.7 70 19:18 05.05.2020
3624 Clouds 24 1018 69 16093 4.6 60 19:18 05.05.2020
3625 Clouds 23 1018 69 16093 4.6 60 18:42 05.05.2020
3626 Clouds 23 1018 69 16093 4.1 60 18:20 05.05.2020
3627 Clouds 23 1018 69 16093 4.1 60 17:58 05.05.2020
3628 Clouds 23 1018 69 16093 4.1 60 17:40 05.05.2020
3629 Clouds 23 1018 69 16093 4.1 60 17:40 05.05.2020
3630 Clouds 23 1018 69 16093 4.1 60 17:21 05.05.2020
3631 Clouds 23 1018 64 16093 7.7 60 16:56 05.05.2020
3632 Clear 23 1017 61 16093 3.6 80 16:36 05.05.2020
3633 Clear 23 1018 61 16093 5.1 70 16:18 05.05.2020
3634 Clear 23 1018 61 16093 5.1 70 15:41 05.05.2020
3635 Clouds 23 1018 64 16093 5.1 50 15:22 05.05.2020
3636 Clouds 23 1018 64 16093 5.1 50 14:57 05.05.2020
3637 Clouds 23 1018 64 16093 5.1 50 14:38 05.05.2020
3638 Clouds 23 1019 64 16093 6.7 70 14:20 05.05.2020
3639 Clouds 24 1019 64 16093 6.7 70 13:57 05.05.2020
3640 Clouds 24 1019 64 16093 6.7 70 13:38 05.05.2020
3641 Clouds 24 1019 64 16093 6.7 70 13:20 05.05.2020
3642 Clouds 24 1020 64 16093 5.7 60 12:58 05.05.2020
3643 Clouds 24 1020 64 16093 5.7 60 12:38 05.05.2020
3644 Clouds 24 1020 64 16093 5.7 60 12:19 05.05.2020
3645 Clouds 24 1021 64 16093 4.1 40 11:41 05.05.2020
3646 Clouds 24 1020 60 16093 7.7 80 11:20 05.05.2020
3647 Clouds 24 1020 60 16093 7.7 80 10:56 05.05.2020
3648 Clouds 24 1020 60 16093 7.7 80 10:38 05.05.2020
3649 Clouds 24 1020 64 16093 6.2 60 10:19 05.05.2020
3650 Clouds 24 1020 64 16093 6.2 60 09:55 05.05.2020
3651 Clouds 24 1020 64 16093 6.2 60 09:37 05.05.2020
3652 Clouds 24 1020 61 16093 5.7 60 09:18 05.05.2020
3653 Clouds 24 1020 61 16093 5.7 60 08:41 05.05.2020
3654 Clouds 24 1020 61 16093 5.7 60 08:19 05.05.2020
3655 Clouds 25 1019 57 16093 8.2 70 07:45 05.05.2020
3656 Clouds 25 1019 57 16093 8.2 70 07:23 05.05.2020
3657 Clouds 25 1019 51 16093 6.2 50 06:59 05.05.2020
3658 Clouds 25 1019 51 16093 6.2 50 06:40 05.05.2020
3659 Clouds 25 1019 51 16093 6.2 60 06:20 05.05.2020
3660 Clouds 26 1019 51 16093 6.2 60 05:28 05.05.2020
3661 Clouds 28 1019 37 16093 6.2 60 02:57 05.05.2020
3662 Clouds 28 1020 39 16093 10.3 70 01:20 05.05.2020
3663 Clouds 27 1020 42 16093 6.7 70 00:49 05.05.2020
3664 Clouds 27 1021 47 16093 9.8 30 23:57 04.05.2020
3665 Clouds 27 1021 47 16093 9.8 30 23:38 04.05.2020
3666 Clouds 26 1021 47 16093 9.8 30 23:19 04.05.2020
3667 Clouds 27 1021 42 16093 7.2 50 22:55 04.05.2020
3668 Clouds 27 1021 42 16093 7.2 50 22:36 04.05.2020
3669 Clouds 27 1021 42 16093 7.2 50 22:18 04.05.2020
3670 Clouds 26 1021 44 16093 6.2 60 21:44 04.05.2020
3671 Clouds 26 1021 44 16093 6.2 60 21:44 04.05.2020
3672 Clouds 26 1021 44 16093 6.2 60 21:43 04.05.2020
3673 Clouds 26 1021 44 16093 6.2 60 21:22 04.05.2020
3674 Clouds 26 1021 44 16093 6.2 60 21:22 04.05.2020
3675 Clouds 26 1021 44 16093 6.2 60 21:22 04.05.2020
3676 Clouds 26 1021 50 16093 7.7 30 20:42 04.05.2020
3677 Clouds 26 1021 50 16093 7.7 30 20:42 04.05.2020
3678 Clouds 25 1021 50 16093 7.7 30 20:21 04.05.2020
3679 Clouds 25 1021 50 16093 7.7 30 20:21 04.05.2020
3680 Clouds 24 1020 53 16093 4.6 60 19:58 04.05.2020
3681 Clouds 25 1020 53 16093 4.6 60 19:40 04.05.2020
3682 Clouds 24 1020 56 16093 2.6 30 19:18 04.05.2020
3683 Clouds 23 1020 56 16093 2.6 30 18:39 04.05.2020
3684 Clouds 23 1020 56 16093 2.6 30 18:21 04.05.2020
3685 Clouds 24 1019 53 16093 4.6 50 17:57 04.05.2020
3686 Clouds 24 1019 53 16093 4.6 50 17:39 04.05.2020
3687 Clouds 24 1019 60 16093 5.1 40 17:21 04.05.2020
3688 Clouds 24 1019 60 16093 5.1 40 16:59 04.05.2020
3689 Clouds 24 1019 60 16093 5.1 40 16:40 04.05.2020
3690 Clouds 23 1020 60 16093 6.7 50 16:19 04.05.2020
3691 Clouds 24 1020 60 16093 6.7 50 15:42 04.05.2020
3692 Clouds 24 1020 60 16093 6.7 50 15:22 04.05.2020
3693 Clouds 24 1020 60 16093 6.2 40 14:54 04.05.2020
3694 Clouds 24 1020 60 16093 6.2 40 14:54 04.05.2020
3695 Clouds 24 1020 60 16093 6.2 40 14:54 04.05.2020
3696 Clouds 24 1020 60 16093 6.2 40 14:54 04.05.2020
3697 Clouds 24 1020 60 16093 6.2 40 14:54 04.05.2020
3698 Clouds 24 1020 60 16093 6.2 40 14:26 04.05.2020
3699 Clouds 24 1021 64 16093 5.1 60 13:31 04.05.2020
3700 Clouds 24 1021 64 16093 5.1 60 13:24 04.05.2020
3701 Clouds 24 1021 64 16093 5.1 60 13:24 04.05.2020
3702 Clouds 24 1021 64 16093 5.1 60 13:24 04.05.2020
3703 Clouds 24 1021 64 16093 5.1 60 13:24 04.05.2020
3704 Clouds 24 1021 64 16093 4.6 60 12:44 04.05.2020
3705 Clouds 24 1021 64 16093 4.6 60 12:44 04.05.2020
3706 Clouds 24 1021 64 16093 4.6 60 12:44 04.05.2020
3707 Clouds 24 1021 64 16093 4.6 60 12:44 04.05.2020
3708 Clouds 24 1021 64 16093 4.6 60 12:44 04.05.2020
3709 Clouds 24 1022 64 16093 5.7 60 11:28 04.05.2020
3710 Clouds 24 1022 64 16093 5.7 60 11:28 04.05.2020
3711 Clouds 24 1022 64 16093 5.7 60 11:28 04.05.2020
3712 Clouds 24 1022 64 16093 5.7 60 11:28 04.05.2020
3713 Clouds 24 1022 64 16093 5.7 60 11:28 04.05.2020
3714 Clouds 24 1021 64 16093 3.6 50 09:29 04.05.2020
3715 Clouds 25 1020 57 16093 6.2 60 07:54 04.05.2020
3716 Clouds 25 1020 57 16093 6.2 60 07:34 04.05.2020
3717 Clouds 26 1019 54 16093 6.2 30 05:52 04.05.2020
3718 Clouds 26 1019 51 16093 7.7 40 04:52 04.05.2020
3719 Clouds 26 1019 51 16093 7.7 40 04:52 04.05.2020
3720 Clouds 27 1020 51 16093 5.7 50 02:56 04.05.2020
3721 Clouds 27 1021 48 16093 8.2 60 01:45 04.05.2020
3722 Clouds 27 1021 48 16093 8.2 60 01:45 04.05.2020
3723 Clouds 27 1022 48 16093 6.7 70 00:18 04.05.2020
3724 Clouds 27 1022 48 16093 6.7 70 23:44 03.05.2020
3725 Clouds 27 1022 48 16093 6.7 70 23:23 03.05.2020
3726 Clouds 27 1022 48 16093 9.3 50 22:44 03.05.2020
3727 Clouds 27 1022 48 16093 9.3 50 22:44 03.05.2020
3728 Clouds 26 1022 48 16093 9.3 50 22:25 03.05.2020
3729 Clouds 26 1022 54 16093 8.2 60 21:56 03.05.2020
3730 Clouds 26 1022 54 16093 8.2 60 21:38 03.05.2020
3731 Rain 25 1022 57 16093 7.7 50 21:20 03.05.2020
3732 Clouds 26 1022 54 16093 8.2 60 21:20 03.05.2020
3733 Clouds 26 1022 54 16093 8.2 60 21:20 03.05.2020
3734 Rain 25 1022 57 16093 7.7 50 20:42 03.05.2020
3735 Rain 25 1022 57 16093 7.7 50 20:20 03.05.2020
3736 Clouds 24 1021 60 16093 5.7 60 19:49 03.05.2020
3737 Clouds 24 1021 60 16093 5.7 60 19:30 03.05.2020
3738 Clouds 24 1021 60 16093 3.6 70 18:58 03.05.2020
3739 Clouds 24 1021 60 16093 3.6 70 18:38 03.05.2020
3740 Clouds 24 1021 60 16093 3.6 70 18:38 03.05.2020
3741 Clouds 24 1021 60 16093 3.6 70 18:38 03.05.2020
3742 Clouds 24 1021 60 16093 3.6 70 18:38 03.05.2020
3743 Clouds 24 1021 60 16093 3.6 70 18:38 03.05.2020
3744 Clouds 24 1020 60 16093 6.2 40 18:19 03.05.2020
3745 Clouds 24 1021 60 16093 3.6 70 18:19 03.05.2020
3746 Clouds 24 1020 60 16093 6.2 40 18:19 03.05.2020
3747 Clouds 24 1021 60 16093 3.6 70 18:19 03.05.2020
3748 Clouds 24 1020 60 16093 6.2 40 17:41 03.05.2020
3749 Clouds 24 1020 60 16093 5.1 40 17:21 03.05.2020
3750 Clouds 24 1020 60 16093 5.1 40 16:45 03.05.2020
3751 Clouds 24 1020 60 16093 5.1 40 16:20 03.05.2020
3752 Clouds 24 1020 64 16093 4.1 50 15:59 03.05.2020
3753 Clouds 24 1020 64 16093 4.1 50 15:40 03.05.2020
3754 Clouds 24 1020 64 16093 4.1 50 15:20 03.05.2020
3755 Clouds 24 1020 64 16093 4.1 50 15:20 03.05.2020
3756 Clouds 24 1021 64 16093 4.6 40 14:58 03.05.2020
3757 Clouds 24 1021 64 16093 4.6 40 14:40 03.05.2020
3758 Clouds 24 1021 64 16093 4.6 40 14:21 03.05.2020
3759 Clouds 24 1021 64 16093 4.6 40 14:21 03.05.2020
3760 Clouds 24 1022 64 16093 5.1 70 13:51 03.05.2020
3761 Clouds 24 1022 64 16093 5.1 70 13:51 03.05.2020
3762 Clouds 24 1022 64 16093 5.1 70 13:51 03.05.2020
3763 Clouds 24 1022 64 16093 5.1 70 13:51 03.05.2020
3764 Clouds 24 1022 64 16093 5.1 70 13:51 03.05.2020
3765 Clouds 24 1023 64 16093 5.7 40 13:18 03.05.2020
3766 Clouds 24 1023 64 16093 5.7 40 13:18 03.05.2020
3767 Clouds 24 1023 64 16093 5.7 40 12:43 03.05.2020
3768 Clouds 24 1023 61 16093 8.2 50 12:18 03.05.2020
3769 Clouds 24 1023 61 16093 8.2 50 11:55 03.05.2020
3770 Clouds 24 1023 61 16093 8.2 50 11:55 03.05.2020
3771 Clouds 24 1023 61 16093 8.2 50 11:37 03.05.2020
3772 Clouds 24 1023 61 16093 6.7 50 11:18 03.05.2020
3773 Clouds 24 1023 61 16093 6.7 50 10:46 03.05.2020
3774 Clouds 24 1023 61 16093 6.7 50 10:46 03.05.2020
3775 Clouds 24 1023 61 16093 6.7 50 10:46 03.05.2020
3776 Clouds 24 1023 61 16093 6.7 50 10:46 03.05.2020
3777 Clouds 24 1023 61 16093 6.7 50 10:46 03.05.2020
3778 Clouds 24 1023 61 16093 6.2 60 09:57 03.05.2020
3779 Clouds 24 1023 61 16093 6.2 60 09:57 03.05.2020
3780 Clouds 24 1023 61 16093 6.2 60 09:57 03.05.2020
3781 Clouds 24 1023 61 16093 6.2 60 09:57 03.05.2020
3782 Clouds 24 1023 61 16093 6.2 60 09:57 03.05.2020
3783 Clouds 24 1023 61 16093 6.2 60 09:32 03.05.2020
3784 Clouds 24 1023 61 16093 6.2 60 09:32 03.05.2020
3785 Clouds 24 1023 61 16093 6.2 60 09:32 03.05.2020
3786 Clouds 24 1023 61 16093 6.2 60 09:32 03.05.2020
3787 Clouds 24 1023 61 16093 6.2 60 09:32 03.05.2020
3788 Clouds 24 1022 61 16093 6.7 40 08:55 03.05.2020
3789 Clouds 24 1022 61 16093 6.7 40 08:55 03.05.2020
3790 Clouds 24 1022 61 16093 6.7 40 08:54 03.05.2020
3791 Clouds 24 1022 61 16093 6.7 40 08:54 03.05.2020
3792 Clouds 24 1022 61 16093 6.7 40 08:54 03.05.2020
3793 Clouds 24 1022 61 16093 6.7 40 08:21 03.05.2020
3794 Clouds 24 1022 61 16093 6.7 40 08:21 03.05.2020
3795 Clouds 24 1022 61 16093 6.7 40 08:21 03.05.2020
3796 Clouds 25 1021 57 16093 5.7 40 07:38 03.05.2020
3797 Clouds 25 1021 57 16093 6.2 60 06:19 03.05.2020
3798 Clouds 25 1021 57 16093 6.2 60 06:19 03.05.2020
3799 Clouds 26 1020 54 16093 5.7 50 05:44 03.05.2020
3800 Clouds 26 1020 51 16093 7.2 50 04:31 03.05.2020
3801 Clouds 27 1020 51 16093 7.2 30 03:59 03.05.2020
3802 Clouds 27 1020 51 16093 7.2 70 02:53 03.05.2020
3803 Clouds 27 1020 51 16093 7.2 70 02:22 03.05.2020
3804 Clouds 27 1021 48 16093 10.3 70 01:42 03.05.2020
3805 Clouds 27 1021 48 16093 10.3 70 01:24 03.05.2020
3806 Clouds 27 1022 48 16093 6.7 70 00:41 03.05.2020
3807 Clouds 27 1022 48 16093 6.7 70 00:21 03.05.2020
3808 Clouds 27 1022 51 16093 7.7 60 23:55 02.05.2020
3809 Clouds 27 1022 51 16093 7.7 60 23:37 02.05.2020
3810 Clouds 27 1022 51 16093 7.7 60 23:18 02.05.2020
3811 Clouds 26 1022 51 16093 7.7 50 22:41 02.05.2020
3812 Clouds 26 1022 51 16093 7.7 50 22:22 02.05.2020
3813 Clouds 25 1022 57 16093 9.3 60 21:55 02.05.2020
3814 Clouds 25 1022 57 16093 9.3 60 21:37 02.05.2020
3815 Clouds 25 1022 57 16093 9.3 60 21:18 02.05.2020
3816 Clouds 24 1021 61 16093 7.7 60 20:54 02.05.2020
3817 Clouds 24 1021 61 16093 7.7 60 20:36 02.05.2020
3818 Clouds 24 1021 64 16093 7.2 80 20:18 02.05.2020
3819 Clouds 24 1021 64 16093 7.2 80 19:39 02.05.2020
3820 Clouds 23 1021 64 16093 7.2 80 19:20 02.05.2020
3821 Clouds 23 1020 64 16093 5.7 70 18:59 02.05.2020
3822 Clouds 23 1020 64 16093 5.7 70 18:39 02.05.2020
3823 Clouds 23 1020 64 16093 5.7 70 18:21 02.05.2020
3824 Clouds 23 1020 64 16093 5.1 60 17:57 02.05.2020
3825 Clouds 23 1020 64 16093 5.1 60 17:38 02.05.2020
3826 Clouds 23 1020 64 16093 5.1 60 17:19 02.05.2020
3827 Clouds 23 1019 64 16093 5.7 50 16:54 02.05.2020
3828 Clouds 23 1019 64 16093 5.7 50 16:36 02.05.2020
3829 Clouds 23 1020 64 16093 7.2 60 16:18 02.05.2020
3830 Clouds 23 1020 64 16093 7.2 60 15:41 02.05.2020
3831 Clouds 23 1020 64 16093 7.2 60 15:20 02.05.2020
3832 Clouds 23 1020 64 16093 7.2 60 14:42 02.05.2020
3833 Clouds 24 1020 64 16093 7.2 60 14:24 02.05.2020
3834 Clouds 23 1021 64 16093 6.7 60 13:58 02.05.2020
3835 Clouds 23 1021 64 16093 6.7 60 13:39 02.05.2020
3836 Clouds 24 1021 69 16093 7.7 70 13:19 02.05.2020
3837 Clouds 24 1021 69 16093 7.7 70 12:41 02.05.2020
3838 Clouds 24 1021 69 16093 7.7 70 12:21 02.05.2020
3839 Clouds 24 1021 61 16093 7.7 50 11:57 02.05.2020
3840 Clouds 24 1021 61 16093 7.7 50 11:39 02.05.2020
3841 Clouds 24 1021 61 16093 7.7 50 11:20 02.05.2020
3842 Clouds 24 1021 61 16093 8.2 60 10:40 02.05.2020
3843 Clouds 24 1021 61 16093 8.2 60 10:40 02.05.2020
3844 Clouds 24 1021 65 16093 10.3 60 10:22 02.05.2020
3845 Clouds 24 1021 65 16093 10.3 60 09:59 02.05.2020
3846 Clouds 24 1021 65 16093 10.3 60 09:40 02.05.2020
3847 Clouds 24 1021 65 16093 10.3 60 09:22 02.05.2020
3848 Clouds 24 1020 61 16093 6.2 60 08:55 02.05.2020
3849 Clouds 24 1020 61 16093 6.2 60 08:37 02.05.2020
3850 Clouds 24 1019 65 16093 4.6 40 08:18 02.05.2020
3851 Clouds 24 1019 65 16093 4.6 40 07:42 02.05.2020
3852 Clouds 24 1019 65 16093 4.6 40 07:22 02.05.2020
3853 Clouds 24 1019 57 16093 7.2 50 06:42 02.05.2020
3854 Clouds 25 1019 54 16093 9.8 50 05:28 02.05.2020
3855 Clouds 26 1018 51 16093 7.2 50 04:27 02.05.2020
3856 Clouds 26 1019 51 16093 7.7 50 03:40 02.05.2020
3857 Clouds 27 1019 48 16093 7.7 70 02:41 02.05.2020
3858 Clouds 27 1020 45 16093 10.8 70 01:56 02.05.2020
3859 Clouds 27 1020 45 16093 10.8 70 01:20 02.05.2020
3860 Clouds 27 1020 48 16093 9.3 60 00:42 02.05.2020
3861 Clouds 27 1020 48 16093 9.3 60 00:20 02.05.2020
3862 Clouds 27 1021 48 16093 7.2 50 23:40 01.05.2020
3863 Clouds 27 1021 48 16093 7.2 50 23:20 01.05.2020
3864 Clouds 26 1021 48 16093 7.2 40 22:58 01.05.2020
3865 Clouds 26 1021 48 16093 7.2 40 22:38 01.05.2020
3866 Clouds 26 1021 48 16093 7.2 40 22:19 01.05.2020
3867 Clouds 26 1020 51 16093 5.1 50 21:57 01.05.2020
3868 Clouds 26 1020 51 16093 5.1 50 21:39 01.05.2020
3869 Clouds 25 1020 54 16093 7.7 60 21:18 01.05.2020
3870 Clouds 25 1020 54 16093 7.7 60 20:56 01.05.2020
3871 Clouds 25 1020 54 16093 7.7 60 20:37 01.05.2020
3872 Clouds 24 1020 64 16093 4.6 50 20:19 01.05.2020
3873 Clouds 24 1020 64 16093 4.6 50 19:42 01.05.2020
3874 Clouds 24 1020 64 16093 4.6 50 19:22 01.05.2020
3875 Clouds 23 1019 60 16093 4.6 60 18:58 01.05.2020
3876 Clouds 23 1019 60 16093 4.6 60 18:40 01.05.2020
3877 Clouds 23 1019 60 16093 2.6 0 18:21 01.05.2020
3878 Clouds 23 1019 60 16093 2.6 0 17:57 01.05.2020
3879 Clouds 23 1019 60 16093 2.6 0 17:39 01.05.2020
3880 Clouds 23 1019 60 16093 2.6 0 17:20 01.05.2020
3881 Clouds 23 1018 60 16093 6.2 60 16:55 01.05.2020
3882 Clouds 23 1018 60 16093 6.2 60 16:55 01.05.2020
3883 Clouds 23 1018 60 16093 6.2 60 16:37 01.05.2020
3884 Clouds 23 1018 60 16093 5.1 60 16:19 01.05.2020
3885 Clouds 23 1018 60 16093 5.1 60 15:42 01.05.2020
3886 Clouds 23 1018 60 16093 5.1 60 15:24 01.05.2020
3887 Clouds 23 1019 60 16093 8.2 70 14:59 01.05.2020
3888 Clouds 23 1019 60 16093 8.2 70 14:40 01.05.2020
3889 Clouds 23 1019 60 16093 8.2 70 14:22 01.05.2020
3890 Clouds 23 1020 60 16093 8.2 50 13:41 01.05.2020
3891 Clouds 23 1020 60 16093 8.2 50 13:22 01.05.2020
3892 Clouds 23 1020 60 16093 6.2 60 12:58 01.05.2020
3893 Clouds 23 1020 60 16093 6.2 60 12:39 01.05.2020
3894 Clouds 23 1021 60 16093 8.7 60 12:19 01.05.2020
3895 Clouds 23 1021 60 16093 8.7 60 11:56 01.05.2020
3896 Clouds 23 1021 60 16093 8.7 60 11:38 01.05.2020
3897 Clouds 24 1021 57 16093 7.7 50 11:18 01.05.2020
3898 Clouds 24 1021 57 16093 7.7 50 10:40 01.05.2020
3899 Clouds 24 1020 57 16093 7.2 60 10:20 01.05.2020
3900 Clouds 24 1020 57 16093 7.2 60 09:45 01.05.2020
3901 Clouds 24 1019 57 16093 7.7 50 09:21 01.05.2020
3902 Clouds 24 1019 57 16093 7.7 50 08:59 01.05.2020
3903 Clouds 24 1019 57 16093 7.7 50 08:41 01.05.2020
3904 Clouds 24 1019 57 16093 7.7 50 08:22 01.05.2020
3905 Clouds 24 1019 57 16093 7.7 50 08:22 01.05.2020
3906 Clouds 25 1018 54 16093 7.7 60 07:46 01.05.2020
3907 Clouds 25 1018 54 16093 7.7 60 07:23 01.05.2020
3908 Clouds 25 1018 51 16093 7.2 50 06:54 01.05.2020
3909 Clouds 26 1017 45 16093 7.7 50 05:36 01.05.2020
3910 Clouds 26 1017 51 16093 9.8 70 04:47 01.05.2020
3911 Clouds 26 1017 48 16093 8.2 60 03:25 01.05.2020
3912 Clouds 27 1018 45 16093 9.3 70 02:45 01.05.2020
3913 Clouds 27 1018 45 16093 9.3 70 02:25 01.05.2020
3914 Clouds 27 1019 45 16093 7.2 60 01:29 01.05.2020
3915 -273 0 0 0 0 0 00:59 01.05.2020
3916 Clouds 27 1019 42 16093 8.2 40 00:37 01.05.2020
3917 Clouds 27 1020 42 16093 9.8 70 00:19 01.05.2020
3918 Clouds 27 1020 42 16093 9.8 70 23:55 30.04.2020
3919 Clouds 27 1020 42 16093 9.8 70 23:37 30.04.2020
3920 Clouds 27 1020 42 16093 8.2 40 23:18 30.04.2020
3921 Clouds 27 1020 42 16093 8.2 40 22:41 30.04.2020
3922 Clouds 26 1020 42 16093 8.2 40 22:20 30.04.2020
3923 Clouds 26 1020 42 16093 10.3 70 21:56 30.04.2020
3924 Clouds 26 1020 42 16093 10.3 70 21:37 30.04.2020
3925 Clouds 26 1020 42 16093 10.3 70 21:19 30.04.2020
3926 Clouds 25 1020 50 16093 5.1 50 20:43 30.04.2020
3927 Clouds 24 1019 60 16093 8.2 60 20:19 30.04.2020
3928 Clouds 24 1019 60 16093 8.2 60 19:58 30.04.2020
3929 Clouds 24 1019 60 16093 8.2 60 19:40 30.04.2020
3930 Clouds 23 1018 60 16093 8.2 50 19:22 30.04.2020
3931 Clouds 23 1018 60 16093 8.2 50 18:56 30.04.2020
3932 Clouds 23 1018 60 16093 8.2 50 18:37 30.04.2020
3933 Clouds 23 1018 60 16093 8.7 50 18:18 30.04.2020
3934 Clouds 23 1018 60 16093 8.7 50 17:42 30.04.2020
3935 Clouds 23 1018 60 16093 8.2 60 17:22 30.04.2020
3936 Clouds 23 1018 60 16093 8.2 60 16:59 30.04.2020
3937 Clouds 23 1018 60 16093 8.2 60 16:41 30.04.2020
3938 Clouds 23 1018 60 16093 9.3 50 16:20 30.04.2020
3939 Clouds 23 1018 60 16093 9.3 50 15:58 30.04.2020
3940 Clouds 23 1018 60 16093 9.3 50 15:40 30.04.2020
3941 Clouds 23 1018 60 16093 9.3 50 15:21 30.04.2020
3942 Clouds 23 1019 60 16093 7.7 40 14:42 30.04.2020
3943 Clouds 23 1019 60 16093 7.7 40 14:20 30.04.2020
3944 Clouds 23 1019 64 16093 7.2 60 13:58 30.04.2020
3945 Clouds 23 1019 64 16093 7.2 60 13:39 30.04.2020
3946 Clouds 23 1019 64 16093 7.2 60 13:39 30.04.2020
3947 Clouds 23 1019 64 16093 7.2 60 13:39 30.04.2020
3948 Clouds 23 1019 64 16093 7.2 60 13:21 30.04.2020
3949 Clouds 23 1020 64 16093 6.7 50 12:55 30.04.2020
3950 Clouds 23 1020 64 16093 6.7 50 12:37 30.04.2020
3951 Clouds 23 1020 60 16093 7.2 60 12:18 30.04.2020
3952 Clouds 23 1020 60 16093 7.2 60 11:38 30.04.2020
3953 Clouds 23 1020 60 16093 7.2 60 11:18 30.04.2020
3954 Rain 23 1020 64 16093 6.2 40 10:55 30.04.2020
3955 Rain 23 1020 64 16093 6.2 40 10:55 30.04.2020
3956 Rain 23 1020 64 16093 6.2 40 10:37 30.04.2020
3957 Rain 23 1020 64 16093 6.2 40 10:18 30.04.2020
3958 Clouds 23 1020 64 16093 8.2 40 09:43 30.04.2020
3959 Clouds 23 1020 64 16093 8.2 40 09:23 30.04.2020
3960 Clouds 24 1019 61 16093 7.2 60 08:49 30.04.2020
3961 Clouds 24 1019 61 16093 7.2 60 08:27 30.04.2020
3962 Clouds 24 1019 61 16093 8.2 30 07:59 30.04.2020
3963 Clouds 24 1019 61 16093 8.2 30 07:40 30.04.2020
3964 Clouds 24 1019 61 16093 8.2 30 07:22 30.04.2020
3965 Clouds 25 1018 54 16093 7.7 20 06:39 30.04.2020
3966 Clouds 25 1018 51 16093 7.7 40 05:49 30.04.2020
3967 Clouds 26 1018 51 16093 7.7 40 05:27 30.04.2020
3968 Clouds 26 1018 48 16093 8.2 40 04:29 30.04.2020
3969 Clouds 26 1019 48 16093 5.7 60 02:57 30.04.2020
3970 Clouds 26 1019 48 16093 5.7 60 02:57 30.04.2020
3971 Clouds 27 1019 48 16093 5.7 60 02:29 30.04.2020
3972 Clouds 27 1019 51 16093 9.3 60 01:48 30.04.2020
3973 Clouds 26 1020 54 16093 4.6 40 00:58 30.04.2020
3974 Clouds 26 1020 54 16093 4.6 40 00:36 30.04.2020
3975 Clouds 25 1020 57 16093 7.7 40 00:18 30.04.2020
3976 Clouds 25 1020 57 16093 7.7 40 23:42 29.04.2020
3977 Clouds 25 1020 57 16093 7.7 40 23:23 29.04.2020
3978 Clouds 25 1020 61 16093 7.2 50 22:58 29.04.2020
3979 Clouds 25 1020 61 16093 7.2 50 22:39 29.04.2020
3980 Clouds 25 1020 61 16093 7.2 50 22:20 29.04.2020
3981 Rain 24 1020 73 16093 5.1 60 21:39 29.04.2020
3982 Rain 23 1020 73 16093 4.1 30 21:21 29.04.2020
3983 Rain 23 1020 73 16093 4.1 30 20:59 29.04.2020
3984 Rain 22 1020 73 16093 4.1 30 20:40 29.04.2020
3985 Rain 22 1020 78 16093 1.5 350 20:19 29.04.2020
3986 Rain 22 1020 78 16093 1.5 350 19:57 29.04.2020
3987 Rain 22 1020 78 16093 1.5 350 19:39 29.04.2020
3988 Rain 22 1020 83 14484 2.6 40 19:18 29.04.2020
3989 Rain 22 1020 83 14484 2.6 40 18:42 29.04.2020
3990 Rain 21 1019 83 8047 2.1 60 18:20 29.04.2020
3991 Rain 21 1019 83 8047 2.1 60 17:55 29.04.2020
3992 Rain 22 1019 78 16093 1.5 20 17:37 29.04.2020
3993 Rain 22 1019 78 16093 7.65 55 17:18 29.04.2020
3994 Clouds 22 1019 78 16093 7.65 55 16:37 29.04.2020
3995 Rain 22 1019 78 16093 3.6 40 16:19 29.04.2020
3996 Rain 22 1019 78 16093 3.6 40 15:56 29.04.2020
3997 Rain 22 1019 78 16093 3.6 40 15:38 29.04.2020
3998 Rain 22 1019 78 16093 3.6 40 15:38 29.04.2020
3999 Rain 22 1019 78 16093 3.6 40 15:19 29.04.2020
4000 Clouds 23 1019 64 16093 3.1 60 14:45 29.04.2020
4001 Clouds 23 1019 64 16093 3.1 60 14:26 29.04.2020
4002 Clouds 23 1020 73 16093 5.7 50 13:58 29.04.2020
4003 Clouds 23 1020 73 16093 5.7 50 13:39 29.04.2020
4004 Clouds 23 1021 64 16093 5.1 30 13:19 29.04.2020
4005 Clouds 23 1021 64 16093 5.1 30 12:55 29.04.2020
4006 Clouds 23 1021 64 16093 5.1 30 12:55 29.04.2020
4007 Clouds 23 1021 64 16093 5.1 30 12:37 29.04.2020
4008 Clouds 23 1021 69 16093 6.2 50 12:18 29.04.2020
4009 Clouds 23 1021 69 16093 6.2 50 11:39 29.04.2020
4010 Clouds 23 1021 69 16093 6.2 50 11:20 29.04.2020
4011 Clouds 23 1021 69 16093 6.2 50 11:20 29.04.2020
4012 Clouds 23 1021 69 16093 6.2 50 11:20 29.04.2020
4013 Rain 23 1021 69 16093 3.6 40 10:54 29.04.2020
4014 Rain 24 1021 69 16093 3.6 40 10:36 29.04.2020
4015 Clouds 24 1020 61 16093 5.1 60 10:18 29.04.2020
4016 Clouds 24 1020 61 16093 5.1 60 09:41 29.04.2020
4017 Clouds 24 1020 61 16093 5.1 60 09:41 29.04.2020
4018 Clouds 24 1020 61 16093 5.1 60 09:21 29.04.2020
4019 Clouds 24 1020 61 16093 5.1 60 09:21 29.04.2020
4020 Clouds 24 1020 61 16093 4.1 50 08:44 29.04.2020
4021 Clouds 24 1020 61 16093 4.1 50 08:26 29.04.2020
4022 Clouds 24 1019 57 16093 5.1 40 07:55 29.04.2020
4023 Clouds 24 1019 57 16093 5.1 40 07:29 29.04.2020
4024 Clouds 25 1019 51 16093 6.7 30 06:53 29.04.2020
4025 Clouds 25 1019 51 16093 6.7 30 06:32 29.04.2020
4026 Clouds 25 1019 51 16093 5.1 30 05:53 29.04.2020
4027 Clouds 26 1019 51 16093 5.1 30 05:20 29.04.2020
4028 Clouds 26 1018 48 16093 6.7 30 04:20 29.04.2020
4029 Clouds 27 1018 48 16093 6.7 30 03:53 29.04.2020
4030 Clouds 28 1019 48 16093 7.2 40 01:59 29.04.2020
4031 Clouds 27 1019 48 16093 7.2 40 01:29 29.04.2020
4032 Clouds 27 1020 48 16093 5.7 40 00:59 29.04.2020
4033 Clouds 27 1020 48 16093 5.7 40 00:37 29.04.2020
4034 Clouds 26 1021 54 16093 6.2 40 00:18 29.04.2020
4035 Clouds 26 1021 54 16093 6.2 40 23:43 28.04.2020
4036 Clouds 25 1021 54 16093 6.2 40 23:21 28.04.2020
4037 Clouds 26 1020 57 16093 5.1 60 22:40 28.04.2020
4038 Rain 25 1020 57 16093 5.1 60 22:22 28.04.2020
4039 Clouds 25 1020 54 16093 6.2 50 21:59 28.04.2020
4040 Clouds 25 1020 54 16093 6.2 50 21:40 28.04.2020
4041 Clouds 24 1020 65 16093 5.7 50 21:22 28.04.2020
4042 Clouds 24 1020 65 16093 5.7 50 20:59 28.04.2020
4043 Clouds 25 1020 65 16093 5.7 50 20:40 28.04.2020
4044 Clouds 25 1020 65 16093 5.7 50 20:40 28.04.2020
4045 Clouds 24 1020 65 16093 5.7 50 20:20 28.04.2020
4046 Clouds 23 1020 69 16093 2.6 0 19:56 28.04.2020
4047 Clouds 23 1020 69 16093 2.6 0 19:38 28.04.2020
4048 Clouds 23 1020 69 16093 2.6 0 19:38 28.04.2020
4049 Clouds 23 1020 69 16093 2.6 0 19:19 28.04.2020
4050 Clouds 23 1019 73 16093 3.1 50 18:42 28.04.2020
4051 Clouds 23 1019 73 16093 3.1 50 18:20 28.04.2020
4052 -273 0 0 0 0 0 17:59 28.04.2020
4053 Rain 23 1019 69 16093 4.6 80 17:37 28.04.2020
4054 Rain 23 1019 69 16093 4.6 80 17:19 28.04.2020
4055 Clouds 22 1019 73 16093 3.1 60 16:56 28.04.2020
4056 Clouds 22 1019 73 16093 3.1 60 16:37 28.04.2020
4057 Clouds 23 1018 73 16093 2.6 30 16:19 28.04.2020
4058 Clouds 23 1018 73 16093 2.6 30 15:54 28.04.2020
4059 Clouds 23 1018 73 16093 2.6 30 15:36 28.04.2020
4060 Rain 23 1018 73 16093 5.7 70 15:18 28.04.2020
4061 Rain 23 1018 73 16093 5.7 70 14:43 28.04.2020
4062 Rain 23 1018 73 16093 5.7 70 14:22 28.04.2020
4063 Rain 23 1018 73 16093 5.7 70 14:22 28.04.2020
4064 Rain 23 1019 69 16093 4.6 80 13:59 28.04.2020
4065 Rain 23 1019 69 16093 4.6 80 13:40 28.04.2020
4066 Clouds 23 1020 69 16093 3.1 50 13:21 28.04.2020
4067 Clouds 23 1020 69 16093 3.1 50 12:57 28.04.2020
4068 Clouds 23 1020 69 16093 3.1 50 12:37 28.04.2020
4069 Clouds 23 1020 69 16093 3.1 50 12:19 28.04.2020
4070 Clouds 23 1021 69 16093 2.6 50 11:41 28.04.2020
4071 Clouds 23 1021 69 16093 2.6 50 11:21 28.04.2020
4072 Rain 23 1021 69 16093 4.6 20 10:55 28.04.2020
4073 Rain 23 1021 69 16093 4.6 20 10:37 28.04.2020
4074 Rain 23 1020 69 16093 4.1 50 10:18 28.04.2020
4075 Clouds 23 1020 69 16093 4.1 50 09:42 28.04.2020
4076 Clouds 23 1020 69 16093 4.1 50 09:24 28.04.2020
4077 Clouds 24 1019 65 16093 4.6 80 08:49 28.04.2020
4078 Clouds 24 1019 65 16093 4.6 80 08:30 28.04.2020
4079 Clouds 24 1019 61 16093 7.7 60 07:58 28.04.2020
4080 Clouds 24 1019 61 16093 7.7 60 07:39 28.04.2020
4081 Clouds 25 1018 61 16093 6.2 40 07:18 28.04.2020
4082 Clouds 25 1018 61 16093 6.2 40 06:28 28.04.2020
4083 Clouds 26 1018 57 16093 7.2 40 05:45 28.04.2020
4084 Clouds 26 1018 57 16093 7.2 40 05:26 28.04.2020
4085 Clouds 26 1017 51 16093 7.7 70 04:33 28.04.2020
4086 Clouds 27 1018 54 16093 6.7 70 02:36 28.04.2020
4087 Clouds 27 1019 48 16093 4.1 70 01:25 28.04.2020
4088 Clouds 27 1019 48 16093 6.2 70 00:59 28.04.2020
4089 Clouds 27 1019 48 16093 6.2 70 00:26 28.04.2020
4090 Clouds 27 1019 54 16093 8.2 60 23:47 27.04.2020
4091 Clouds 27 1019 54 16093 8.2 60 23:24 27.04.2020
4092 Clouds 26 1019 61 16093 6.7 50 22:56 27.04.2020
4093 Clouds 25 1019 61 16093 6.7 50 22:38 27.04.2020
4094 Clouds 26 1019 61 16093 6.7 50 22:19 27.04.2020
4095 Rain 25 1019 69 16093 4.6 40 21:56 27.04.2020
4096 Rain 25 1019 69 16093 4.6 40 21:56 27.04.2020
4097 Rain 25 1019 69 16093 4.6 40 21:38 27.04.2020
4098 Rain 24 1019 69 16093 4.1 50 21:18 27.04.2020
4099 Rain 24 1019 69 16093 4.1 50 20:44 27.04.2020
4100 Rain 23 1019 69 16093 4.1 50 20:22 27.04.2020
4101 Rain 23 1018 73 16093 2.6 10 19:59 27.04.2020
4102 Rain 23 1018 73 16093 2.6 10 19:39 27.04.2020
4103 Rain 22 1018 73 16093 2.6 10 19:20 27.04.2020
4104 Rain 22 1018 78 16093 2.6 30 18:58 27.04.2020
4105 Rain 22 1018 78 16093 2.6 30 18:40 27.04.2020
4106 Rain 22 1018 78 16093 2.6 30 18:19 27.04.2020
4107 Clouds 22 1018 78 16093 3.1 40 18:19 27.04.2020
4108 Clouds 22 1018 78 16093 3.1 40 17:43 27.04.2020
4109 Clouds 22 1018 78 16093 3.1 40 17:24 27.04.2020
4110 Rain 22 1017 73 16093 1.5 360 16:58 27.04.2020
4111 Rain 22 1017 73 16093 1.5 360 16:39 27.04.2020
4112 Rain 22 1017 73 16093 1.5 360 16:39 27.04.2020
4113 Rain 22 1018 73 16093 2.6 70 16:21 27.04.2020
4114 Rain 23 1018 73 16093 2.6 70 15:56 27.04.2020
4115 Rain 23 1018 73 16093 2.6 70 15:38 27.04.2020
4116 Rain 22 1018 73 16093 5.41 69 15:18 27.04.2020
4117 Rain 23 1018 73 16093 5.41 69 14:42 27.04.2020
4118 Rain 23 1018 73 16093 5.41 69 14:42 27.04.2020
4119 Rain 23 1018 73 16093 4.95 69 14:23 27.04.2020
4120 Rain 23 1018 78 16093 3.1 360 13:59 27.04.2020
4121 Rain 23 1018 78 16093 3.1 360 13:41 27.04.2020
4122 Rain 23 1018 78 16093 3.6 40 13:19 27.04.2020
4123 Rain 23 1018 78 16093 3.6 40 12:44 27.04.2020
4124 Rain 23 1018 78 16093 3.6 40 12:24 27.04.2020
4125 Clouds 23 1019 69 16093 3.1 60 11:59 27.04.2020
4126 Clouds 23 1019 69 16093 3.1 60 11:40 27.04.2020
4127 Clouds 23 1019 69 16093 3.1 30 11:19 27.04.2020
4128 Clouds 23 1019 69 16093 3.1 30 10:56 27.04.2020
4129 Clouds 23 1019 69 16093 3.1 30 10:37 27.04.2020
4130 Clouds 23 1018 61 16093 4.1 70 10:19 27.04.2020
4131 Clouds 24 1018 61 16093 4.1 70 09:43 27.04.2020
4132 Clouds 24 1017 65 16093 4.6 30 09:18 27.04.2020
4133 Clouds 24 1017 65 16093 4.6 30 08:53 27.04.2020
4134 Clouds 24 1017 65 16093 4.6 30 08:33 27.04.2020
4135 Clouds 24 1017 57 16093 5.7 40 07:55 27.04.2020
4136 Clouds 24 1017 57 16093 5.7 40 07:36 27.04.2020
4137 Clouds 24 1017 57 16093 5.7 40 07:18 27.04.2020
4138 Clouds 25 1016 54 16093 7.7 30 06:39 27.04.2020
4139 Clouds 26 1016 51 16093 6.7 50 06:19 27.04.2020
4140 Clouds 26 1016 51 16093 6.7 50 05:48 27.04.2020
4141 Clouds 26 1016 48 16093 7.7 60 04:40 27.04.2020
4142 Clouds 27 1016 45 16093 7.7 70 03:48 27.04.2020
4143 Clouds 27 1017 45 16093 5.7 70 02:36 27.04.2020
4144 Clouds 27 1017 45 16093 7.2 60 01:20 27.04.2020
4145 Rain 27 1018 48 16093 8.7 40 00:45 27.04.2020
4146 Rain 27 1018 48 16093 8.7 40 00:19 27.04.2020
4147 Clouds 27 1019 42 16093 6.7 60 23:55 26.04.2020
4148 Clouds 27 1019 42 16093 6.7 60 23:37 26.04.2020
4149 Clouds 26 1018 51 16093 7.2 60 23:18 26.04.2020
4150 Clouds 26 1018 51 16093 7.2 60 22:54 26.04.2020
4151 Clouds 26 1018 51 16093 7.2 60 22:36 26.04.2020
4152 Clouds 25 1018 51 16093 6.7 70 22:18 26.04.2020
4153 Clouds 25 1018 51 16093 6.7 70 21:54 26.04.2020
4154 Clouds 25 1018 51 16093 6.7 70 21:36 26.04.2020
4155 Clouds 25 1018 57 16093 6.2 70 21:18 26.04.2020
4156 Clouds 25 1018 57 16093 6.2 70 21:18 26.04.2020
4157 Clouds 24 1018 57 16093 6.2 70 20:39 26.04.2020
4158 Clouds 24 1017 64 16093 5.1 60 20:20 26.04.2020
4159 Clouds 24 1017 64 16093 5.1 60 19:58 26.04.2020
4160 Clouds 24 1017 64 16093 5.1 60 19:58 26.04.2020
4161 Clouds 23 1017 64 16093 5.1 60 19:38 26.04.2020
4162 Rain 23 1017 64 16093 5.1 70 19:19 26.04.2020
4163 Rain 22 1017 64 16093 5.1 70 18:44 26.04.2020
4164 Rain 23 1017 64 16093 5.1 70 18:25 26.04.2020
4165 Clouds 23 1016 64 16093 4.1 50 17:56 26.04.2020
4166 Clouds 23 1016 64 16093 4.1 50 17:56 26.04.2020
4167 Clouds 23 1016 64 16093 4.1 50 17:38 26.04.2020
4168 Clouds 23 1016 60 16093 2.6 40 17:18 26.04.2020
4169 Clouds 22 1016 60 16093 2.6 40 16:40 26.04.2020
4170 Clouds 22 1016 60 16093 2.6 40 16:21 26.04.2020
4171 Clouds 23 1017 60 16093 6.2 70 15:58 26.04.2020
4172 Clouds 23 1017 60 16093 6.2 70 15:38 26.04.2020
4173 Clouds 23 1017 60 16093 6.2 70 15:20 26.04.2020
4174 Clouds 23 1017 60 16093 6.2 40 14:55 26.04.2020
4175 Clouds 23 1017 60 16093 6.2 40 14:36 26.04.2020
4176 Rain 23 1018 64 16093 6.2 60 14:18 26.04.2020
4177 Rain 23 1018 64 16093 6.2 60 13:43 26.04.2020
4178 Rain 23 1018 64 16093 6.2 60 13:23 26.04.2020
4179 Clouds 23 1019 64 16093 5.7 40 12:58 26.04.2020
4180 Clouds 23 1019 64 16093 5.7 40 12:40 26.04.2020
4181 Clouds 23 1019 64 16093 3.6 40 12:20 26.04.2020
4182 Clouds 23 1019 64 16093 3.6 40 11:57 26.04.2020
4183 Clouds 23 1019 64 16093 3.6 40 11:38 26.04.2020
4184 Clouds 23 1019 64 16093 3.6 40 11:38 26.04.2020
4185 Clouds 23 1019 64 16093 3.6 40 11:20 26.04.2020
4186 Rain 23 1019 64 16093 4.1 50 10:55 26.04.2020
4187 Rain 23 1019 64 16093 4.1 50 10:36 26.04.2020
4188 Clouds 23 1018 64 16093 4.1 70 10:18 26.04.2020
4189 Clouds 23 1018 64 16093 4.1 70 09:39 26.04.2020
4190 Clouds 23 1018 60 16093 4.1 50 09:20 26.04.2020
4191 Clouds 23 1018 60 16093 4.1 50 08:42 26.04.2020
4192 Clouds 23 1018 60 16093 4.1 50 08:23 26.04.2020
4193 Clouds 24 1018 57 16093 5.1 50 07:50 26.04.2020
4194 Clouds 24 1018 57 16093 5.1 50 07:25 26.04.2020
4195 Clouds 25 1017 51 16093 4.1 50 06:56 26.04.2020
4196 Clouds 25 1017 51 16093 4.1 50 06:33 26.04.2020
4197 Clouds 25 1017 51 16093 5.1 60 05:54 26.04.2020
4198 Clouds 25 1017 51 16093 5.1 60 05:35 26.04.2020
4199 Clouds 27 1017 48 16093 6.2 10 04:42 26.04.2020
4200 Clouds 26 1017 39 16093 7.2 40 03:49 26.04.2020
4201 Clouds 26 1018 48 16093 6.7 40 02:40 26.04.2020
4202 Clouds 27 1018 48 16093 6.7 40 02:20 26.04.2020
4203 Clouds 26 1019 45 16093 7.2 60 01:38 26.04.2020
4204 Clouds 26 1019 45 16093 5.7 80 01:19 26.04.2020
4205 Clouds 26 1019 45 16093 5.7 80 00:38 26.04.2020
4206 Clouds 26 1020 54 16093 7.2 50 00:18 26.04.2020
4207 Clouds 26 1020 54 16093 7.2 50 23:38 25.04.2020
4208 Clouds 26 1020 54 16093 7.2 50 23:20 25.04.2020
4209 Clouds 26 1020 54 16093 5.7 60 22:43 25.04.2020
4210 Clouds 26 1020 54 16093 5.7 60 22:21 25.04.2020
4211 Clouds 25 1020 51 16093 6.7 60 21:59 25.04.2020
4212 Clouds 25 1020 51 16093 6.7 60 21:39 25.04.2020
4213 Clouds 25 1020 51 16093 6.7 60 21:20 25.04.2020
4214 Clouds 24 1019 61 16093 4.6 40 20:55 25.04.2020
4215 Clouds 23 1019 61 16093 4.6 40 20:37 25.04.2020
4216 Clouds 22 1019 64 16093 3.1 40 20:19 25.04.2020
4217 Clouds 22 1019 64 16093 3.1 40 19:41 25.04.2020
4218 Clouds 22 1019 64 16093 3.1 40 19:22 25.04.2020
4219 Rain 22 1018 69 16093 5.1 80 18:57 25.04.2020
4220 Rain 22 1018 69 16093 5.1 80 18:38 25.04.2020
4221 Clouds 22 1018 60 16093 4.6 60 18:19 25.04.2020
4222 Clouds 22 1018 60 16093 4.6 60 17:55 25.04.2020
4223 Clouds 22 1018 60 16093 4.6 60 17:37 25.04.2020
4224 Clouds 22 1017 64 16093 3.1 40 17:18 25.04.2020
4225 Clouds 22 1017 64 16093 3.1 40 16:48 25.04.2020
4226 Clouds 22 1017 64 16093 3.1 40 16:28 25.04.2020
4227 Clouds 22 1018 64 16093 4.1 50 15:58 25.04.2020
4228 Clouds 22 1018 64 16093 4.1 50 15:39 25.04.2020
4229 Clouds 23 1018 60 16093 4.6 50 15:19 25.04.2020
4230 Clouds 23 1018 60 16093 4.6 50 14:57 25.04.2020
4231 Clouds 23 1018 60 16093 4.6 50 14:38 25.04.2020
4232 Clouds 23 1018 60 16093 5.7 50 14:18 25.04.2020
4233 Clouds 23 1018 60 16093 5.7 50 13:42 25.04.2020
4234 Clouds 23 1019 64 16093 5.1 60 13:19 25.04.2020
4235 Clouds 23 1019 64 16093 5.1 60 12:57 25.04.2020
4236 Clouds 23 1019 64 16093 5.1 60 12:38 25.04.2020
4237 Clouds 23 1019 64 16093 5.1 60 12:20 25.04.2020
4238 Clouds 23 1019 60 16093 3.6 50 11:54 25.04.2020
4239 Clouds 23 1019 60 16093 3.6 50 11:54 25.04.2020
4240 Clouds 23 1019 60 16093 3.6 50 11:36 25.04.2020
4241 Clouds 23 1019 64 16093 6.2 50 11:18 25.04.2020
4242 Clouds 23 1019 64 16093 6.2 50 10:41 25.04.2020
4243 Clouds 23 1019 64 16093 6.2 50 10:22 25.04.2020
4244 Clouds 23 1019 64 16093 5.1 40 09:46 25.04.2020
4245 Clouds 23 1019 64 16093 5.1 40 09:27 25.04.2020
4246 Clouds 23 1019 69 16093 5.1 80 08:57 25.04.2020
4247 Clouds 23 1019 69 16093 5.1 80 08:38 25.04.2020
4248 Clouds 23 1018 61 16093 7.7 60 08:20 25.04.2020
4249 Clouds 24 1018 61 16093 7.7 60 07:45 25.04.2020
4250 Clouds 24 1018 61 16093 7.7 60 07:23 25.04.2020
4251 Clouds 26 1018 57 16093 4.6 40 06:44 25.04.2020
4252 Clouds 26 1018 54 16093 6.7 40 05:47 25.04.2020
4253 Clouds 26 1018 54 16093 6.7 40 05:28 25.04.2020
4254 Clouds 26 1018 51 16093 6.2 50 04:29 25.04.2020
4255 Clouds 26 1019 54 16093 6.7 70 02:44 25.04.2020
4256 Clouds 26 1019 54 16093 6.7 70 02:19 25.04.2020
4257 Clouds 25 1020 54 16093 8.2 50 01:50 25.04.2020
4258 Clouds 26 1020 54 16093 8.2 50 01:26 25.04.2020
4259 Rain 25 1020 61 16093 6.7 60 00:49 25.04.2020
4260 Rain 25 1020 61 16093 6.7 60 00:28 25.04.2020
4261 Rain 24 1020 61 16093 9.3 70 23:42 24.04.2020
4262 Rain 24 1020 61 16093 9.3 70 23:21 24.04.2020
4263 Rain 24 1020 61 16093 6.7 60 22:41 24.04.2020
4264 Rain 24 1020 61 16093 6.7 60 22:21 24.04.2020
4265 Rain 24 1021 73 16093 7.2 80 21:59 24.04.2020
4266 Rain 24 1021 73 16093 7.2 80 21:41 24.04.2020
4267 Rain 24 1021 73 16093 7.2 80 21:23 24.04.2020
4268 Clouds 24 1020 69 16093 4.1 60 21:00 24.04.2020
4269 Rain 23 1020 69 16093 4.1 60 20:41 24.04.2020
4270 Rain 23 1020 78 16093 4.1 40 20:19 24.04.2020
4271 Rain 23 1020 69 16093 4.1 60 20:19 24.04.2020
4272 Rain 23 1020 78 16093 4.1 40 19:57 24.04.2020
4273 Rain 22 1020 78 16093 4.1 40 19:38 24.04.2020
4274 Rain 22 1020 69 16093 3.6 30 19:20 24.04.2020
4275 Rain 22 1020 69 16093 3.6 30 18:40 24.04.2020
4276 Rain 22 1020 69 16093 3.6 30 18:22 24.04.2020
4277 Clouds 22 1019 73 16093 3.6 30 17:44 24.04.2020
4278 Clouds 22 1019 73 16093 3.6 30 17:25 24.04.2020
4279 Clouds 22 1019 78 16093 5.1 60 16:59 24.04.2020
4280 Clouds 22 1019 78 16093 5.1 60 16:41 24.04.2020
4281 Clouds 22 1019 78 16093 5.1 60 16:22 24.04.2020
4282 Rain 22 1019 69 16093 4.6 60 15:59 24.04.2020
4283 Rain 22 1019 69 16093 4.6 60 15:38 24.04.2020
4284 Rain 22 1019 69 16093 4.6 60 15:19 24.04.2020
4285 Clouds 23 1019 64 16093 4.1 60 14:40 24.04.2020
4286 Clouds 23 1019 64 16093 4.1 60 14:21 24.04.2020
4287 Rain 23 1019 69 16093 4.6 50 13:57 24.04.2020
4288 Rain 23 1019 69 16093 4.6 50 13:38 24.04.2020
4289 Clouds 23 1020 69 16093 3.1 60 13:20 24.04.2020
4290 Clouds 23 1020 69 16093 3.1 60 12:42 24.04.2020
4291 Clouds 23 1020 69 16093 3.1 60 12:24 24.04.2020
4292 Clouds 23 1020 69 16093 3.1 50 11:58 24.04.2020
4293 Clouds 23 1020 69 16093 3.1 50 11:38 24.04.2020
4294 Clouds 23 1020 69 16093 3.1 50 11:20 24.04.2020
4295 Clouds 23 1020 69 16093 3.1 50 11:20 24.04.2020
4296 Clouds 23 1020 64 16093 5.1 60 10:55 24.04.2020
4297 Clouds 23 1020 64 16093 5.1 60 10:36 24.04.2020
4298 Clouds 23 1019 64 16093 7.2 40 10:18 24.04.2020
4299 Clouds 23 1019 64 16093 7.2 40 09:45 24.04.2020
4300 Clouds 24 1019 64 16093 7.2 40 09:24 24.04.2020
4301 Clouds 24 1019 61 16093 8.2 70 08:58 24.04.2020
4302 Clouds 24 1019 61 16093 8.2 70 08:37 24.04.2020
4303 Clouds 24 1018 61 16093 6.7 60 08:18 24.04.2020
4304 Clouds 24 1018 61 16093 6.7 60 08:18 24.04.2020
4305 Clouds 24 1018 61 16093 6.7 60 07:44 24.04.2020
4306 Clouds 24 1018 61 16093 6.7 60 07:26 24.04.2020
4307 Clouds 24 1018 61 16093 5.7 70 06:51 24.04.2020
4308 Clouds 24 1018 61 16093 5.7 70 06:32 24.04.2020
4309 Clouds 25 1018 54 16093 8.2 80 05:48 24.04.2020
4310 Clouds 27 1018 48 16093 8.7 70 04:26 24.04.2020
4311 Clouds 26 1019 51 16093 8.7 60 03:19 24.04.2020
4312 Clouds 27 1019 51 16093 8.7 60 02:41 24.04.2020
4313 Clouds 26 1019 51 16093 8.7 60 02:20 24.04.2020
4314 Clouds 26 1020 51 16093 7.7 60 01:23 24.04.2020
4315 Clouds 26 1020 51 16093 6.2 70 00:38 24.04.2020
4316 Clouds 26 1020 54 16093 7.2 60 00:18 24.04.2020
4317 Clouds 27 1020 54 16093 7.2 60 23:42 23.04.2020
4318 Clouds 27 1020 54 16093 7.2 60 23:23 23.04.2020
4319 Clouds 26 1021 51 16093 7.2 60 22:55 23.04.2020
4320 Clouds 26 1021 51 16093 7.2 60 22:36 23.04.2020
4321 Clouds 26 1021 51 16093 5.7 70 22:18 23.04.2020
4322 Clouds 26 1021 51 16093 5.7 70 21:55 23.04.2020
4323 Clouds 26 1021 51 16093 5.7 70 21:37 23.04.2020
4324 Clouds 25 1020 57 16093 4.6 70 21:19 23.04.2020
4325 Clouds 24 1020 57 16093 4.6 70 20:41 23.04.2020
4326 Clouds 24 1020 57 16093 4.6 70 20:22 23.04.2020
4327 Clouds 24 1020 57 16093 4.6 70 20:22 23.04.2020
4328 Clouds 24 1020 65 16093 3.6 60 19:57 23.04.2020
4329 Clouds 24 1020 65 16093 3.6 60 19:39 23.04.2020
4330 Clouds 23 1020 65 16093 3.6 60 19:21 23.04.2020
4331 Clouds 23 1019 64 16093 4.6 50 18:56 23.04.2020
4332 Clouds 23 1019 64 16093 4.6 50 18:36 23.04.2020
4333 Clouds 23 1019 69 16093 4.6 60 18:18 23.04.2020
4334 Clouds 23 1019 69 16093 4.6 60 17:55 23.04.2020
4335 Rain 23 1019 69 16093 4.6 60 17:36 23.04.2020
4336 Rain 23 1019 69 16093 4.6 60 17:36 23.04.2020
4337 Rain 23 1019 69 16093 5.1 60 17:18 23.04.2020
4338 Clouds 23 1019 69 16093 5.1 60 16:42 23.04.2020
4339 Clouds 23 1019 69 16093 5.1 60 16:19 23.04.2020
4340 Clouds 23 1019 69 16093 5.1 60 15:42 23.04.2020
4341 Clouds 23 1019 69 16093 5.1 60 15:23 23.04.2020
4342 Clouds 23 1020 69 16093 6.2 60 14:57 23.04.2020
4343 Clouds 23 1020 69 16093 6.2 60 14:38 23.04.2020
4344 Clouds 23 1020 69 16093 5.1 70 14:19 23.04.2020
4345 Clouds 23 1020 69 16093 5.1 70 13:55 23.04.2020
4346 Clouds 23 1020 69 16093 5.1 70 13:36 23.04.2020
4347 Clouds 23 1020 69 16093 5.1 80 13:18 23.04.2020
4348 Clouds 23 1020 69 16093 5.1 80 12:42 23.04.2020
4349 Clouds 23 1020 69 16093 5.1 80 12:24 23.04.2020
4350 Clouds 24 1021 69 16093 4.1 80 11:56 23.04.2020
4351 Clouds 24 1021 69 16093 4.1 80 11:38 23.04.2020
4352 Clouds 24 1020 65 16093 3.6 60 11:18 23.04.2020
4353 Clouds 24 1020 65 16093 3.6 60 10:41 23.04.2020
4354 Clouds 24 1020 65 16093 3.6 60 10:21 23.04.2020
4355 Rain 24 1020 69 16093 4.1 80 09:41 23.04.2020
4356 Rain 24 1020 69 16093 4.1 80 09:20 23.04.2020
4357 Clouds 24 1020 69 16093 4.1 80 08:57 23.04.2020
4358 Clouds 24 1019 65 16093 3.1 90 08:39 23.04.2020
4359 Clouds 24 1019 65 16093 3.1 90 08:21 23.04.2020
4360 Clouds 25 1019 61 16093 2.1 30 07:42 23.04.2020
4361 Clouds 25 1019 61 16093 2.1 30 07:23 23.04.2020
4362 Clouds 25 1018 61 16093 2.1 20 06:47 23.04.2020
4363 Clouds 26 1018 65 16093 2.6 0 05:58 23.04.2020
4364 Rain 26 1018 61 16093 4.6 180 05:22 23.04.2020
4365 Rain 26 1018 61 16093 4.6 180 04:50 23.04.2020
4366 Clouds 28 1019 58 16093 4.1 180 02:24 23.04.2020
4367 Clouds 28 1019 58 16093 4.1 180 01:41 23.04.2020
4368 Clouds 27 1019 58 16093 5.1 160 00:57 23.04.2020
4369 Clouds 27 1019 58 16093 5.1 160 00:29 23.04.2020
4370 Clouds 27 1020 61 16093 5.1 150 23:59 22.04.2020
4371 Clouds 27 1020 61 16093 5.1 150 23:59 22.04.2020
4372 Clouds 27 1020 61 16093 5.1 150 23:41 22.04.2020
4373 Clouds 27 1020 61 16093 5.1 150 23:22 22.04.2020
4374 Clouds 26 1020 65 16093 3.1 170 22:41 22.04.2020
4375 Clouds 26 1020 65 16093 3.1 170 22:20 22.04.2020
4376 -273 0 0 0 0 0 21:59 22.04.2020
4377 Clear 26 1020 65 16093 3.1 180 21:59 22.04.2020
4378 Clear 26 1020 65 16093 3.1 180 21:41 22.04.2020
4379 Clear 25 1020 65 16093 3.1 180 21:22 22.04.2020
4380 Clouds 25 1020 73 16093 3.02 89 20:59 22.04.2020
4381 Clouds 24 1020 73 16093 3.02 89 20:41 22.04.2020
4382 Clouds 23 1020 73 16093 3.02 89 20:18 22.04.2020
4383 Clouds 22 1019 83 16093 1.5 290 19:57 22.04.2020
4384 Clouds 22 1019 83 16093 1.5 290 19:37 22.04.2020
4385 Clouds 21 1018 83 16093 1.5 300 19:18 22.04.2020
4386 Clouds 21 1018 83 16093 1.5 300 18:56 22.04.2020
4387 Clouds 21 1018 83 16093 1.5 300 18:37 22.04.2020
4388 Clouds 20 1018 83 16093 1.5 340 18:19 22.04.2020
4389 Clouds 20 1018 83 16093 1.5 340 17:43 22.04.2020
4390 Clouds 20 1018 83 16093 1.5 340 17:43 22.04.2020
4391 Clouds 21 1018 83 16093 2.1 330 17:25 22.04.2020
4392 Clouds 21 1018 83 16093 2.1 330 16:56 22.04.2020
4393 Clouds 20 1018 83 16093 2.1 330 16:36 22.04.2020
4394 Clouds 20 1018 83 16093 1.5 310 16:18 22.04.2020
4395 Clouds 20 1018 83 16093 1.5 310 16:18 22.04.2020
4396 Clouds 20 1018 83 16093 1.5 310 15:40 22.04.2020
4397 Clouds 21 1018 78 16093 1.5 340 15:21 22.04.2020
4398 Clouds 21 1018 78 16093 1.5 340 14:57 22.04.2020
4399 Clouds 21 1018 78 16093 1.5 340 14:37 22.04.2020
4400 Clouds 21 1018 78 16093 1.5 340 14:37 22.04.2020
4401 Clouds 21 1019 78 16093 2.6 300 14:19 22.04.2020
4402 Clouds 21 1018 78 16093 1.5 340 14:19 22.04.2020
4403 Clouds 21 1019 78 16093 2.6 300 13:44 22.04.2020
4404 Clouds 21 1019 78 16093 2.6 310 13:20 22.04.2020
4405 Clouds 21 1019 78 16093 2.6 310 12:44 22.04.2020
4406 Clouds 21 1019 78 16093 2.6 310 12:44 22.04.2020
4407 Clouds 21 1019 78 16093 2.6 310 12:26 22.04.2020
4408 Clouds 22 1020 78 16093 1.5 340 11:59 22.04.2020
4409 Clouds 22 1020 78 16093 1.5 340 11:39 22.04.2020
4410 Clouds 22 1020 78 16093 1.5 340 11:20 22.04.2020
4411 Clouds 22 1020 78 16093 1.5 340 11:20 22.04.2020
4412 Clouds 22 1019 73 16093 1.5 360 10:45 22.04.2020
4413 Clouds 22 1019 73 16093 1.5 360 10:25 22.04.2020
4414 Clouds 23 1019 69 16093 2.1 30 09:56 22.04.2020
4415 Clouds 23 1019 69 16093 2.1 30 09:37 22.04.2020
4416 Clouds 24 1018 61 16093 2.1 10 09:19 22.04.2020
4417 Clouds 24 1018 61 16093 2.1 10 08:42 22.04.2020
4418 Clouds 24 1018 61 16093 2.1 10 08:23 22.04.2020
4419 Clouds 24 1018 61 16093 2.1 10 08:23 22.04.2020
4420 Clouds 24 1017 57 16093 1.5 220 07:58 22.04.2020
4421 Clouds 25 1017 57 16093 1.5 220 07:39 22.04.2020
4422 Clouds 25 1016 57 16093 2.26 97 07:19 22.04.2020
4423 Clouds 25 1016 57 16093 2.26 97 06:42 22.04.2020
4424 Clouds 26 1016 61 16093 1.5 0 05:45 22.04.2020
4425 Rain 26 1016 57 16093 3.6 30 04:46 22.04.2020
4426 Rain 26 1016 61 16093 3.6 100 03:40 22.04.2020
4427 Clouds 25 1017 65 16093 4.6 130 02:28 22.04.2020
4428 Clouds 25 1017 65 16093 4.6 130 02:28 22.04.2020
4429 Clouds 25 1017 65 16093 4.6 130 01:41 22.04.2020
4430 Clouds 25 1017 65 16093 4.6 130 01:21 22.04.2020
4431 Clouds 26 1018 61 16093 4.1 170 00:41 22.04.2020
4432 Clouds 26 1018 61 16093 4.1 170 00:20 22.04.2020
4433 Clouds 26 1018 65 16093 4.1 170 23:44 21.04.2020
4434 Clouds 26 1018 65 16093 4.1 170 23:22 21.04.2020
4435 Clouds 26 1018 65 16093 3.6 160 22:56 21.04.2020
4436 Clouds 26 1018 65 16093 3.6 160 22:37 21.04.2020
4437 Clouds 25 1018 69 16093 1.5 150 22:19 21.04.2020
4438 Clouds 24 1018 69 16093 1.5 150 21:43 21.04.2020
4439 Clouds 24 1018 69 16093 1.5 150 21:24 21.04.2020
4440 Clouds 24 1018 73 16093 1.5 360 20:59 21.04.2020
4441 Clouds 24 1018 73 16093 1.5 360 20:40 21.04.2020
4442 Clouds 24 1018 73 16093 1.5 360 20:22 21.04.2020
4443 Clouds 21 1017 78 16093 2.1 330 19:56 21.04.2020
4444 Clouds 21 1017 78 16093 2.1 330 19:36 21.04.2020
4445 Clouds 21 1016 83 16093 1.5 360 19:18 21.04.2020
4446 Clouds 20 1016 83 16093 1.5 360 18:54 21.04.2020
4447 Clouds 20 1016 83 16093 1.5 360 18:36 21.04.2020
4448 Clouds 21 1016 78 16093 2.1 350 18:18 21.04.2020
4449 Clouds 21 1016 78 16093 2.1 350 17:39 21.04.2020
4450 Clouds 21 1015 78 16093 2.1 340 17:19 21.04.2020
4451 Clouds 21 1015 78 16093 2.1 340 16:54 21.04.2020
4452 Clouds 21 1015 78 16093 2.1 340 16:36 21.04.2020
4453 Clouds 21 1016 78 16093 2.08 142 16:18 21.04.2020
4454 Clouds 21 1016 78 16093 2.08 142 15:42 21.04.2020
4455 Clouds 21 1016 78 16093 0.63 143 15:23 21.04.2020
4456 Clouds 21 1016 78 16093 1.5 20 14:59 21.04.2020
4457 Clouds 21 1016 78 16093 1.5 20 14:40 21.04.2020
4458 Clouds 21 1016 78 16093 1.5 20 14:22 21.04.2020
4459 Clouds 22 1017 73 16093 0.63 143 13:42 21.04.2020
4460 Clouds 22 1017 73 16093 0.63 143 13:24 21.04.2020
4461 Clouds 22 1017 73 16093 0.63 143 12:58 21.04.2020
4462 Clouds 22 1017 73 16093 0.63 143 12:38 21.04.2020
4463 Clouds 22 1018 69 16093 0.98 143 12:19 21.04.2020
4464 Clouds 22 1018 69 16093 0.98 143 11:56 21.04.2020
4465 Clouds 22 1018 69 16093 0.98 143 11:37 21.04.2020
4466 Clouds 23 1018 65 16093 0.98 143 11:18 21.04.2020
4467 Clouds 23 1018 65 16093 0.98 143 10:56 21.04.2020
4468 Clouds 23 1018 65 16093 0.98 143 10:56 21.04.2020
4469 Clouds 23 1018 65 16093 0.98 143 10:38 21.04.2020
4470 Clouds 23 1018 65 16093 0.98 143 10:20 21.04.2020
4471 Clouds 23 1017 65 16093 2.1 170 09:37 21.04.2020
4472 Clouds 23 1017 65 16093 2.1 170 09:19 21.04.2020
4473 Clouds 24 1016 65 16093 2.1 170 08:57 21.04.2020
4474 Clouds 24 1016 65 16093 2.1 170 08:39 21.04.2020
4475 Clouds 24 1016 65 16093 2.1 170 08:19 21.04.2020
4476 Rain 24 1016 65 16093 3.1 180 07:44 21.04.2020
4477 Rain 24 1016 65 16093 3.1 180 07:22 21.04.2020
4478 Clouds 25 1015 61 16093 3.6 190 06:49 21.04.2020
4479 Clouds 25 1015 65 16093 4.1 200 06:20 21.04.2020
4480 Clouds 26 1015 65 16093 4.1 200 05:48 21.04.2020
4481 Clouds 26 1016 54 16093 3.1 190 04:20 21.04.2020
4482 Clouds 27 1016 54 16093 3.1 190 03:42 21.04.2020
4483 Clouds 27 1017 57 16093 5.1 180 01:46 21.04.2020
4484 Clouds 27 1018 61 16093 4.6 180 00:58 21.04.2020
4485 Clouds 27 1018 61 16093 4.6 180 00:33 21.04.2020
4486 Clouds 26 1018 61 16093 4.1 160 23:44 20.04.2020
4487 Clouds 26 1018 61 16093 4.1 160 23:25 20.04.2020
4488 Clouds 26 1017 58 16093 3.6 90 22:57 20.04.2020
4489 Clouds 26 1017 58 16093 3.6 90 22:38 20.04.2020
4490 Clouds 25 1018 61 16093 2.88 141 22:19 20.04.2020
4491 Clouds 25 1018 61 16093 2.88 141 21:57 20.04.2020
4492 Clouds 25 1018 61 16093 2.88 141 21:38 20.04.2020
4493 Clouds 24 1018 69 16093 3.46 111 21:19 20.04.2020
4494 Clouds 24 1018 69 16093 3.46 111 20:56 20.04.2020
4495 Clouds 24 1018 69 16093 3.46 111 20:37 20.04.2020
4496 Clear 23 1017 77 16093 1.5 340 20:18 20.04.2020
4497 Clear 22 1017 77 16093 1.5 340 19:55 20.04.2020
4498 Clear 21 1017 77 16093 1.5 340 19:37 20.04.2020
4499 Clear 20 1016 77 16093 1.5 350 19:18 20.04.2020
4500 Clear 20 1016 77 16093 1.5 350 18:42 20.04.2020
4501 Clear 20 1016 77 16093 1.5 350 18:21 20.04.2020
4502 Clouds 20 1016 77 16093 1.5 10 17:55 20.04.2020
4503 Clouds 20 1016 77 16093 1.5 10 17:37 20.04.2020
4504 Clouds 20 1016 77 16093 1.5 350 17:19 20.04.2020
4505 Clouds 20 1016 77 16093 1.5 350 16:43 20.04.2020
4506 Clouds 20 1016 73 16093 2.1 10 16:21 20.04.2020
4507 Clouds 21 1016 73 16093 2.1 10 15:57 20.04.2020
4508 Clouds 21 1016 73 16093 2.1 10 15:39 20.04.2020
4509 Clouds 21 1017 78 16093 1.5 340 15:21 20.04.2020
4510 Clouds 21 1017 78 16093 1.5 340 14:54 20.04.2020
4511 Clouds 22 1017 78 16093 1.5 340 14:36 20.04.2020
4512 Clouds 22 1017 73 16093 2.14 88 14:18 20.04.2020
4513 Clouds 22 1017 73 16093 2.14 88 13:40 20.04.2020
4514 Clouds 22 1017 73 16093 2.14 88 13:40 20.04.2020
4515 Clouds 22 1017 73 16093 2.14 88 13:22 20.04.2020
4516 Clouds 23 1018 69 16093 2.1 10 12:44 20.04.2020
4517 Clouds 23 1018 69 16093 2.1 10 12:25 20.04.2020
4518 Clouds 23 1018 69 16093 1.55 97 11:58 20.04.2020
4519 Clouds 23 1018 69 16093 1.55 97 11:39 20.04.2020
4520 Clouds 23 1018 69 16093 1.55 97 11:20 20.04.2020
4521 Clouds 23 1018 69 16093 2.1 40 10:55 20.04.2020
4522 Clouds 23 1018 69 16093 2.1 40 10:37 20.04.2020
4523 Clouds 23 1018 64 16093 1.55 97 10:18 20.04.2020
4524 Clouds 23 1018 64 16093 1.55 97 09:44 20.04.2020
4525 Clouds 24 1017 65 16093 1.5 140 09:26 20.04.2020
4526 Clouds 24 1017 65 16093 1.5 140 08:59 20.04.2020
4527 Clouds 24 1017 65 16093 1.5 140 08:40 20.04.2020
4528 Clouds 24 1017 65 16093 1.5 190 08:19 20.04.2020
4529 Clouds 24 1017 65 16093 1.5 190 08:19 20.04.2020
4530 Clouds 24 1017 65 16093 1.5 190 07:52 20.04.2020
4531 Clouds 24 1017 65 16093 1.5 190 07:28 20.04.2020
4532 Rain 25 1017 61 16093 2.6 190 06:54 20.04.2020
4533 Rain 25 1017 61 16093 2.6 190 06:35 20.04.2020
4534 Clouds 25 1016 57 16093 3.6 160 05:25 20.04.2020
4535 Clouds 27 1017 54 16093 3.1 160 03:36 20.04.2020
4536 Clouds 27 1017 54 16093 3.6 180 02:42 20.04.2020
4537 Clouds 27 1018 57 16093 4.1 160 01:32 20.04.2020
4538 Clouds 26 1019 61 16093 4.6 170 00:58 20.04.2020
4539 Clouds 26 1019 61 16093 4.6 170 00:33 20.04.2020
4540 Clouds 27 1019 57 16093 4.1 150 23:54 19.04.2020
4541 Clouds 27 1019 57 16093 4.1 150 23:36 19.04.2020
4542 Clouds 26 1019 61 16093 4.1 140 23:18 19.04.2020
4543 Clouds 26 1019 61 16093 4.1 140 22:39 19.04.2020
4544 Clouds 26 1019 65 16093 4.6 130 22:21 19.04.2020
4545 Clouds 25 1019 65 16093 4.6 130 21:55 19.04.2020
4546 Clouds 25 1019 65 16093 4.6 130 21:37 19.04.2020
4547 Clouds 25 1019 69 16093 2.1 330 21:18 19.04.2020
4548 Clouds 24 1019 69 16093 2.1 330 20:41 19.04.2020
4549 Clouds 24 1019 69 16093 2.1 330 20:21 19.04.2020
4550 Clear 22 1018 77 16093 2.1 330 19:58 19.04.2020
4551 Clear 22 1018 77 16093 2.1 330 19:40 19.04.2020
4552 Clouds 22 1017 77 16093 2.1 340 19:22 19.04.2020
4553 Clouds 22 1017 77 16093 2.1 340 18:58 19.04.2020
4554 Clouds 22 1017 77 16093 2.1 340 18:39 19.04.2020
4555 Clouds 22 1017 77 16093 2.1 340 18:19 19.04.2020
4556 Clouds 22 1017 77 16093 2.1 340 18:19 19.04.2020
4557 Clouds 21 1017 77 16093 1.5 10 17:56 19.04.2020
4558 Clouds 21 1017 77 16093 1.5 10 17:38 19.04.2020
4559 Clouds 21 1017 77 16093 1.5 10 17:20 19.04.2020
4560 Clouds 22 1017 73 16093 2.78 99 16:56 19.04.2020
4561 Clouds 22 1017 73 16093 2.78 99 16:37 19.04.2020
4562 Clouds 22 1018 73 16093 2.78 99 16:18 19.04.2020
4563 Clouds 22 1018 73 16093 2.78 99 15:42 19.04.2020
4564 Clouds 22 1018 73 16093 3.62 87 15:21 19.04.2020
4565 Clouds 22 1018 73 16093 2.1 100 14:54 19.04.2020
4566 Clouds 22 1018 73 16093 2.1 100 14:36 19.04.2020
4567 Clouds 22 1019 73 16093 1.5 40 14:18 19.04.2020
4568 Clouds 22 1019 73 16093 1.5 40 13:38 19.04.2020
4569 Clouds 23 1020 64 16093 3.1 60 13:19 19.04.2020
4570 Clouds 23 1020 64 16093 3.1 60 12:49 19.04.2020
4571 Clouds 23 1020 64 16093 3.6 70 12:25 19.04.2020
4572 Clouds 23 1020 64 16093 3.6 70 11:55 19.04.2020
4573 Clouds 23 1020 64 16093 3.6 70 11:37 19.04.2020
4574 Clouds 23 1020 69 16093 3.6 70 11:18 19.04.2020
4575 Clouds 23 1020 69 16093 3.6 70 10:41 19.04.2020
4576 Clouds 23 1020 69 16093 3.6 70 10:22 19.04.2020
4577 Clouds 23 1019 64 16093 5.7 60 09:59 19.04.2020
4578 Clouds 23 1019 64 16093 5.7 60 09:59 19.04.2020
4579 Clouds 23 1019 64 16093 5.7 60 09:59 19.04.2020
4580 Clouds 23 1019 64 16093 5.7 60 09:41 19.04.2020
4581 Clouds 23 1019 64 16093 5.7 60 09:20 19.04.2020
4582 Clouds 23 1019 60 16093 5.1 60 08:40 19.04.2020
4583 Clouds 23 1019 60 16093 5.1 60 08:21 19.04.2020
4584 Clouds 24 1019 64 16093 4.6 40 07:55 19.04.2020
4585 Clouds 24 1019 64 16093 4.6 40 07:37 19.04.2020
4586 Clouds 24 1019 64 16093 4.6 40 07:18 19.04.2020
4587 Clouds 25 1018 54 16093 6.7 40 06:24 19.04.2020
4588 Clouds 26 1018 54 16093 6.7 40 05:35 19.04.2020
4589 Clouds 26 1018 54 16093 5.7 140 03:54 19.04.2020
4590 Clouds 26 1019 54 16093 6.2 150 02:49 19.04.2020
4591 Clouds 27 1019 51 16093 6.7 140 02:18 19.04.2020
4592 Clouds 26 1019 51 16093 6.7 140 01:22 19.04.2020
4593 Clouds 27 1020 51 16093 2.1 0 00:41 19.04.2020
4594 Clouds 27 1020 51 16093 2.1 0 00:41 19.04.2020
4595 Clouds 27 1020 51 16093 2.1 0 00:41 19.04.2020
4596 Clouds 27 1020 51 16093 3.6 60 00:20 19.04.2020
4597 Clouds 26 1020 51 16093 3.6 60 23:43 18.04.2020
4598 Clouds 27 1020 51 16093 3.6 60 23:19 18.04.2020
4599 Clouds 26 1021 51 16093 4.6 40 22:44 18.04.2020
4600 Clouds 26 1021 51 16093 4.6 40 22:24 18.04.2020
4601 Clouds 26 1021 57 16093 3.6 90 21:59 18.04.2020
4602 Clouds 26 1021 57 16093 3.6 90 21:59 18.04.2020
4603 Clouds 26 1021 57 16093 3.6 90 21:41 18.04.2020
4604 Clouds 25 1021 57 16093 3.6 90 21:22 18.04.2020
4605 Clouds 24 1021 57 16093 4.1 70 20:58 18.04.2020
4606 Clouds 24 1021 57 16093 4.1 70 20:40 18.04.2020
4607 Clouds 24 1021 57 16093 4.1 70 20:20 18.04.2020
4608 Clouds 23 1020 68 16093 2.1 30 19:42 18.04.2020
4609 Clouds 22 1020 68 16093 2.1 30 19:24 18.04.2020
4610 Clouds 22 1019 68 16093 3.1 70 18:40 18.04.2020
4611 Clouds 22 1019 68 16093 3.1 70 18:20 18.04.2020
4612 Clouds 22 1019 64 16093 4.04 78 17:58 18.04.2020
4613 Clouds 22 1019 64 16093 4.04 78 17:39 18.04.2020
4614 Clouds 22 1019 68 16093 3.6 60 17:19 18.04.2020
4615 Clouds 22 1019 68 16093 3.6 60 16:43 18.04.2020
4616 Clouds 22 1019 68 16093 3.6 60 16:22 18.04.2020
4617 Clouds 23 1019 64 16093 3.6 60 15:56 18.04.2020
4618 Clouds 23 1019 64 16093 3.6 60 15:37 18.04.2020
4619 Clouds 23 1019 64 16093 3.6 60 15:19 18.04.2020
4620 Clouds 23 1020 64 16093 5.1 70 14:44 18.04.2020
4621 Clouds 23 1020 64 16093 5.1 70 14:23 18.04.2020
4622 Clouds 23 1020 64 16093 4.1 60 13:43 18.04.2020
4623 Clouds 23 1020 64 16093 4.1 60 13:21 18.04.2020
4624 Clouds 23 1021 64 16093 4.1 70 12:44 18.04.2020
4625 Clouds 23 1021 64 16093 4.1 70 12:26 18.04.2020
4626 Clouds 23 1021 64 16093 4.6 60 11:59 18.04.2020
4627 Clouds 23 1021 64 16093 4.6 60 11:40 18.04.2020
4628 Clouds 23 1021 64 16093 3.1 40 11:22 18.04.2020
4629 Clouds 23 1021 64 16093 3.1 40 10:56 18.04.2020
4630 Clouds 23 1021 64 16093 3.1 40 10:36 18.04.2020
4631 Clouds 23 1020 64 16093 4.1 80 10:18 18.04.2020
4632 Clouds 23 1020 64 16093 4.1 80 09:41 18.04.2020
4633 Clouds 23 1020 64 16093 4.1 80 09:20 18.04.2020
4634 Clouds 23 1020 60 16093 2.6 50 08:43 18.04.2020
4635 Clouds 23 1020 60 16093 2.6 50 08:23 18.04.2020
4636 Clouds 23 1019 60 16093 4.1 60 07:49 18.04.2020
4637 Clouds 23 1019 60 16093 4.1 60 07:29 18.04.2020
4638 Clouds 25 1019 54 16093 4.6 40 06:49 18.04.2020
4639 Clouds 25 1018 48 16093 7.2 40 05:49 18.04.2020
4640 Clouds 26 1018 48 16093 5.7 30 04:56 18.04.2020
4641 Clouds 27 1018 48 16093 5.7 30 04:31 18.04.2020
4642 Clouds 27 1019 42 16093 6.2 40 03:34 18.04.2020
4643 Clouds 27 1019 45 16093 4.6 20 02:40 18.04.2020
4644 Clouds 27 1019 45 16093 4.6 20 02:21 18.04.2020
4645 Clouds 27 1019 45 16093 4.6 20 02:21 18.04.2020
4646 Clouds 27 1020 45 16093 6.2 40 01:43 18.04.2020
4647 Clouds 27 1020 45 16093 6.2 40 01:22 18.04.2020
4648 Clouds 27 1020 45 16093 6.7 60 00:24 18.04.2020
4649 Clouds 27 1021 45 16093 5.1 30 23:58 17.04.2020
4650 Clouds 27 1021 45 16093 5.1 30 23:40 17.04.2020
4651 Clouds 27 1021 45 16093 5.1 30 23:19 17.04.2020
4652 Clouds 27 1021 45 16093 5.7 70 22:58 17.04.2020
4653 Clouds 27 1021 45 16093 5.7 70 22:40 17.04.2020
4654 Clouds 27 1021 45 16093 5.7 70 22:20 17.04.2020
4655 Clouds 26 1021 54 16093 6.2 60 21:57 17.04.2020
4656 Clouds 26 1021 54 16093 6.2 60 21:38 17.04.2020
4657 Clouds 25 1021 64 16093 4.1 70 21:18 17.04.2020
4658 Clouds 25 1021 64 16093 4.1 70 20:55 17.04.2020
4659 Clouds 25 1021 64 16093 4.1 70 20:36 17.04.2020
4660 Clouds 24 1020 69 16093 3.6 60 20:18 17.04.2020
4661 Clouds 23 1020 69 16093 3.6 60 19:42 17.04.2020
4662 Clouds 23 1020 69 16093 3.6 60 19:23 17.04.2020
4663 Clouds 22 1020 73 16093 3.6 80 18:47 17.04.2020
4664 Clouds 22 1020 73 16093 3.6 80 18:24 17.04.2020
4665 Clouds 23 1019 69 16093 3.6 60 17:58 17.04.2020
4666 Clouds 23 1019 69 16093 3.6 60 17:37 17.04.2020
4667 Clouds 23 1019 69 16093 3.6 60 17:18 17.04.2020
4668 Clouds 23 1019 69 16093 4.6 60 16:43 17.04.2020
4669 Clouds 23 1019 69 16093 4.6 60 16:23 17.04.2020
4670 Clouds 23 1019 69 16093 2.6 20 15:44 17.04.2020
4671 Clouds 23 1019 69 16093 2.6 20 15:24 17.04.2020
4672 Clouds 23 1020 69 16093 4.6 60 14:58 17.04.2020
4673 Clouds 23 1020 69 16093 4.6 60 14:39 17.04.2020
4674 Clouds 23 1020 69 16093 4.6 60 14:21 17.04.2020
4675 Clouds 23 1020 69 16093 4.1 60 13:56 17.04.2020
4676 Clouds 22 1020 69 16093 4.1 60 13:36 17.04.2020
4677 Clouds 22 1021 64 16093 4.6 70 13:18 17.04.2020
4678 Clouds 23 1021 64 16093 4.6 70 12:44 17.04.2020
4679 Clouds 23 1021 64 16093 4.6 70 12:23 17.04.2020
4680 Clouds 23 1021 64 16093 5.1 50 11:42 17.04.2020
4681 Clouds 23 1021 64 16093 6.2 70 11:19 17.04.2020
4682 Clouds 23 1021 64 16093 6.2 70 10:56 17.04.2020
4683 Clouds 23 1021 64 16093 6.2 70 10:56 17.04.2020
4684 Clouds 23 1021 64 16093 6.2 70 10:38 17.04.2020
4685 Clouds 23 1020 64 16093 5.1 60 10:18 17.04.2020
4686 Clouds 23 1020 64 16093 5.1 60 09:41 17.04.2020
4687 Clouds 23 1018 76 0 6.42 69 09:20 17.04.2020
4688 Clouds 23 1017 76 0 6.42 69 08:57 17.04.2020
4689 Clouds 23 1017 76 0 6.42 69 08:39 17.04.2020
4690 Clouds 24 1019 61 16093 6.2 60 08:19 17.04.2020
4691 Clouds 24 1019 61 16093 6.2 60 07:43 17.04.2020
4692 Clouds 24 1019 57 16093 5.7 60 07:21 17.04.2020
4693 Clouds 24 1019 57 16093 5.7 60 06:45 17.04.2020
4694 Clouds 24 1019 57 16093 5.7 60 06:22 17.04.2020
4695 Clouds 26 1018 51 16093 6.7 70 04:27 17.04.2020
4696 Clouds 27 1019 48 16093 8.2 50 03:19 17.04.2020
4697 Clouds 27 1020 51 16093 8.2 40 01:58 17.04.2020
4698 Clouds 27 1020 51 16093 8.2 40 01:24 17.04.2020
4699 Clouds 27 1020 51 16093 8.2 50 00:30 17.04.2020
4700 Clouds 27 1021 51 16093 8.7 50 23:56 16.04.2020
4701 Clouds 27 1021 51 16093 8.7 50 23:38 16.04.2020
4702 Clouds 26 1021 51 16093 6.2 70 23:19 16.04.2020
4703 Clouds 26 1021 51 16093 6.2 70 22:55 16.04.2020
4704 Clouds 26 1021 51 16093 6.2 70 22:36 16.04.2020
4705 Clouds 26 1021 51 16093 6.2 70 22:18 16.04.2020
4706 Clouds 25 1021 57 16093 7.2 70 21:41 16.04.2020
4707 Clouds 25 1021 57 16093 7.2 70 21:20 16.04.2020
4708 Clouds 24 1021 61 16093 5.1 70 20:43 16.04.2020
4709 Clouds 24 1021 61 16093 5.1 70 20:23 16.04.2020
4710 -273 0 0 0 0 0 20:00 16.04.2020
4711 Clouds 23 1020 64 16093 5.7 70 19:40 16.04.2020
4712 Clouds 23 1020 69 16093 5.1 60 19:20 16.04.2020
4713 Clouds 22 1020 69 16093 5.1 60 18:57 16.04.2020
4714 Clouds 22 1020 69 16093 5.1 60 18:38 16.04.2020
4715 Clouds 22 1019 69 16093 4.6 60 18:20 16.04.2020
4716 Clouds 22 1019 69 16093 4.6 60 17:45 16.04.2020
4717 Clouds 22 1019 69 16093 4.6 60 17:26 16.04.2020
4718 Clouds 23 1019 64 16093 5.7 70 17:00 16.04.2020
4719 Clouds 23 1019 64 16093 5.7 70 16:41 16.04.2020
4720 Clouds 23 1019 64 16093 5.7 70 16:19 16.04.2020
4721 Clouds 23 1019 64 16093 6.69 74 15:44 16.04.2020
4722 Clouds 23 1019 64 16093 6.27 69 15:19 16.04.2020
4723 Clear 22 1020 69 16093 5.7 70 14:58 16.04.2020
4724 Clear 22 1020 69 16093 5.7 70 14:39 16.04.2020
4725 Clear 23 1020 69 16093 5.7 70 14:19 16.04.2020
4726 Clouds 23 1021 69 16093 3.1 40 13:56 16.04.2020
4727 Clouds 23 1021 69 16093 3.1 40 13:36 16.04.2020
4728 Clouds 23 1021 69 16093 2.6 20 13:18 16.04.2020
4729 Clouds 23 1021 69 16093 2.6 20 12:56 16.04.2020
4730 Clouds 23 1021 69 16093 2.6 20 12:37 16.04.2020
4731 Clouds 23 1021 69 16093 2.6 20 12:18 16.04.2020
4732 Clouds 23 1021 69 16093 5.7 60 11:42 16.04.2020
4733 Clouds 23 1021 69 16093 5.7 60 11:22 16.04.2020
4734 Clouds 23 1021 69 16093 4.1 50 10:57 16.04.2020
4735 Clouds 24 1021 69 16093 4.1 50 10:38 16.04.2020
4736 Clouds 24 1021 69 16093 4.1 50 10:19 16.04.2020
4737 Clouds 24 1021 69 16093 4.6 50 09:55 16.04.2020
4738 Clouds 24 1021 69 16093 4.6 50 09:37 16.04.2020
4739 Clouds 24 1021 69 16093 4.6 50 09:18 16.04.2020
4740 Clouds 24 1020 65 16093 4.1 60 08:41 16.04.2020
4741 Clouds 24 1020 65 16093 4.1 60 08:22 16.04.2020
4742 Clouds 24 1019 61 16093 4.6 80 07:46 16.04.2020
4743 Clouds 25 1019 61 16093 4.6 80 07:26 16.04.2020
4744 Clouds 26 1019 57 16093 6.2 50 06:43 16.04.2020
4745 Clouds 26 1019 57 16093 6.2 50 06:25 16.04.2020
4746 Clouds 26 1018 54 16093 6.7 70 05:34 16.04.2020
4747 Clouds 27 1018 48 16093 6.2 40 03:49 16.04.2020
4748 Clouds 27 1018 48 16093 6.2 40 03:23 16.04.2020
4749 Clouds 27 1019 58 16093 4.1 110 02:47 16.04.2020
4750 Clouds 27 1019 58 16093 4.1 110 02:26 16.04.2020
4751 Clouds 27 1020 54 16093 5.7 70 01:18 16.04.2020
4752 Clouds 27 1021 51 16093 7.7 60 00:28 16.04.2020
4753 Clouds 26 1022 54 16093 4.6 80 23:57 15.04.2020
4754 Clouds 26 1022 54 16093 4.6 80 23:39 15.04.2020
4755 Clouds 27 1022 54 16093 4.6 80 23:20 15.04.2020
4756 Clouds 27 1022 57 16093 3.6 50 22:40 15.04.2020
4757 Clouds 26 1022 57 16093 3.6 50 22:21 15.04.2020
4758 Clouds 26 1022 61 16093 5.1 60 21:58 15.04.2020
4759 Clouds 25 1022 61 16093 5.1 60 21:40 15.04.2020
4760 Clouds 25 1022 61 16093 5.1 60 21:22 15.04.2020
4761 Clouds 24 1021 69 16093 5.7 50 20:57 15.04.2020
4762 Clouds 24 1021 69 16093 5.7 50 20:39 15.04.2020
4763 Clouds 24 1021 69 16093 5.7 50 20:21 15.04.2020
4764 Clouds 23 1021 69 16093 3.1 60 19:42 15.04.2020
4765 Clouds 23 1020 73 16093 3.6 60 19:21 15.04.2020
4766 Clouds 23 1020 73 16093 3.6 60 18:54 15.04.2020
4767 Clouds 23 1020 73 16093 3.6 60 18:36 15.04.2020
4768 Clouds 23 1019 78 16093 3.1 70 18:18 15.04.2020
4769 Clouds 22 1019 78 16093 3.1 70 17:40 15.04.2020
4770 Clouds 23 1019 78 16093 2.1 60 17:21 15.04.2020
4771 Clouds 23 1019 78 16093 2.1 60 16:57 15.04.2020
4772 Clouds 23 1019 78 16093 2.1 60 16:38 15.04.2020
4773 Clouds 22 1019 78 16093 2.1 60 16:19 15.04.2020
4774 Clouds 23 1019 73 16093 1.5 350 15:57 15.04.2020
4775 Clouds 23 1019 73 16093 1.5 350 15:39 15.04.2020
4776 Clouds 23 1019 73 16093 1.5 350 15:19 15.04.2020
4777 Clear 23 1020 78 16093 3.6 90 14:57 15.04.2020
4778 Clear 23 1020 78 16093 3.6 90 14:39 15.04.2020
4779 Clouds 23 1020 83 16093 1.87 80 14:21 15.04.2020
4780 Clouds 23 1020 83 16093 1.87 80 13:57 15.04.2020
4781 Clouds 23 1020 83 16093 1.87 80 13:38 15.04.2020
4782 Clouds 23 1020 83 16093 1.87 80 13:38 15.04.2020
4783 Clouds 23 1020 83 16093 1.87 80 13:19 15.04.2020
4784 Clouds 23 1021 78 16093 1.5 340 12:43 15.04.2020
4785 Clouds 23 1021 78 16093 1.5 340 12:24 15.04.2020
4786 Clouds 23 1021 73 16093 1.5 10 12:00 15.04.2020
4787 Clouds 23 1021 73 16093 1.5 10 11:59 15.04.2020
4788 Clouds 23 1021 73 16093 1.5 10 11:41 15.04.2020
4789 Clouds 23 1021 73 16093 1.5 10 11:23 15.04.2020
4790 Clouds 23 1021 73 16093 2.6 340 10:56 15.04.2020
4791 Clouds 23 1021 73 16093 2.6 340 10:36 15.04.2020
4792 Clouds 23 1021 73 16093 2.6 340 10:36 15.04.2020
4793 Clouds 23 1021 73 16093 2.6 340 10:18 15.04.2020
4794 Clouds 23 1020 73 16093 0.97 100 09:54 15.04.2020
4795 Clouds 23 1020 73 16093 0.97 100 09:36 15.04.2020
4796 Clouds 23 1020 73 16093 1.34 128 09:18 15.04.2020
4797 Clouds 24 1020 73 16093 1.5 40 08:40 15.04.2020
4798 Clouds 24 1020 73 16093 1.5 40 08:19 15.04.2020
4799 Clear 24 1019 78 16093 2.1 160 07:53 15.04.2020
4800 Clear 24 1019 78 16093 2.1 160 07:31 15.04.2020
4801 Clouds 25 1019 74 16093 2.6 140 06:33 15.04.2020
4802 Clouds 25 1018 61 16093 2.6 170 05:50 15.04.2020
4803 Clouds 25 1018 61 16093 2.6 170 05:18 15.04.2020
4804 Clouds 25 1018 74 16093 4.1 150 04:43 15.04.2020
4805 Clouds 26 1019 65 16093 4.1 160 03:26 15.04.2020
4806 Clouds 26 1019 61 16093 4.6 150 02:53 15.04.2020
4807 Clouds 26 1019 61 16093 2.6 180 01:56 15.04.2020
4808 Clouds 27 1019 61 16093 2.6 180 01:27 15.04.2020
4809 Clouds 26 1020 61 16093 3.1 140 00:54 15.04.2020
4810 Clouds 26 1020 61 16093 3.1 140 00:31 15.04.2020
4811 Clouds 25 1020 61 16093 3.1 120 23:57 14.04.2020
4812 Clouds 25 1020 61 16093 3.1 120 23:39 14.04.2020
4813 Clouds 25 1020 61 16093 3.1 120 23:21 14.04.2020
4814 Clouds 24 1021 69 16093 3.6 120 22:58 14.04.2020
4815 Clouds 23 1021 69 16093 3.6 120 22:40 14.04.2020
4816 Clouds 23 1021 69 16093 3.6 120 22:21 14.04.2020
4817 Clouds 23 1020 78 16093 1.5 120 21:59 14.04.2020
4818 Rain 23 1020 78 16093 1.5 120 21:40 14.04.2020
4819 Rain 23 1020 78 16093 1.5 120 21:20 14.04.2020
4820 Clouds 21 1019 94 16093 2.1 80 21:00 14.04.2020
4821 Clouds 21 1019 94 16093 2.1 80 20:40 14.04.2020
4822 Clouds 21 1019 94 16093 2.1 80 20:21 14.04.2020
4823 Clouds 20 1019 100 16093 1.5 40 19:57 14.04.2020
4824 Clouds 20 1019 100 16093 1.5 40 19:38 14.04.2020
4825 Clouds 20 1019 100 16093 1.5 40 19:19 14.04.2020
4826 Rain 20 1019 100 16093 2.6 40 18:41 14.04.2020
4827 Rain 20 1019 100 16093 2.6 40 18:22 14.04.2020
4828 Rain 21 1019 100 14484 3.1 70 17:58 14.04.2020
4829 Rain 21 1019 100 14484 3.1 70 17:58 14.04.2020
4830 Thunderstorm 21 1019 100 16093 3.1 70 17:39 14.04.2020
4831 Thunderstorm 21 1019 100 16093 3.1 70 17:20 14.04.2020
4832 Thunderstorm 21 1019 100 4828 1.5 50 16:57 14.04.2020
4833 Thunderstorm 21 1019 100 3219 2.1 190 16:38 14.04.2020
4834 Thunderstorm 21 1019 100 3219 2.1 190 16:20 14.04.2020
4835 Thunderstorm 21 1019 94 2816 2.1 220 15:56 14.04.2020
4836 Rain 22 1019 88 4023 9.8 200 15:38 14.04.2020
4837 Rain 22 1019 88 4023 9.8 200 15:18 14.04.2020
4838 Clouds 23 1019 73 16093 1.5 340 14:56 14.04.2020
4839 Clouds 23 1019 73 16093 1.5 340 14:37 14.04.2020
4840 Clouds 23 1019 73 16093 1.5 340 14:19 14.04.2020
4841 Clouds 22 1019 78 16093 2.6 290 13:43 14.04.2020
4842 Clouds 22 1019 78 16093 2.6 290 13:43 14.04.2020
4843 Clouds 22 1019 78 16093 2.6 290 13:24 14.04.2020
4844 Clouds 23 1019 73 16093 2.1 360 12:56 14.04.2020
4845 Clouds 23 1019 73 16093 2.1 360 12:37 14.04.2020
4846 Clouds 23 1020 73 16093 2.1 340 12:18 14.04.2020
4847 Clouds 23 1020 73 16093 2.1 340 11:40 14.04.2020
4848 Clouds 23 1020 73 16093 2.1 340 11:22 14.04.2020
4849 Clouds 23 1020 69 16093 1.5 10 10:47 14.04.2020
4850 Clouds 23 1020 69 16093 1.5 10 10:29 14.04.2020
4851 Clouds 23 1020 65 16093 2.1 140 09:59 14.04.2020
4852 Clouds 23 1020 65 16093 2.1 140 09:41 14.04.2020
4853 Rain 22 1017 77 0 2.97 111 09:22 14.04.2020
4854 Clouds 24 1019 65 16093 2.1 130 08:44 14.04.2020
4855 Rain 24 1019 74 0 2.97 111 08:26 14.04.2020
4856 Clouds 24 1019 65 16093 2.1 170 07:59 14.04.2020
4857 Clouds 24 1019 65 16093 2.1 170 07:41 14.04.2020
4858 Clouds 25 1018 57 16093 3.1 130 07:22 14.04.2020
4859 Rain 24 1019 74 0 2.97 111 06:45 14.04.2020
4860 Clouds 26 1018 57 16093 4.1 150 05:22 14.04.2020
4861 Rain 27 1018 54 16093 6.2 130 03:25 14.04.2020
4862 Rain 26 1018 58 16093 5.1 140 02:19 14.04.2020
4863 Rain 26 1019 54 16093 6.7 130 01:26 14.04.2020
4864 Clouds 26 1019 58 16093 6.7 140 00:49 14.04.2020
4865 Clouds 26 1019 58 16093 6.7 140 00:23 14.04.2020
4866 Rain 26 1020 58 16093 5.7 110 23:55 13.04.2020
4867 Rain 26 1020 58 16093 5.7 110 23:36 13.04.2020
4868 Clouds 26 1020 57 16093 3.1 0 23:18 13.04.2020
4869 Clouds 26 1020 57 16093 3.1 0 22:41 13.04.2020
4870 Clouds 26 1020 57 16093 3.1 0 22:22 13.04.2020
4871 Clouds 25 1020 61 16093 2.6 60 21:57 13.04.2020
4872 Clouds 26 1020 61 16093 2.6 60 21:38 13.04.2020
4873 Clouds 25 1020 61 16093 2.6 60 21:20 13.04.2020
4874 Clouds 25 1019 65 16093 2.6 50 20:56 13.04.2020
4875 Rain 24 1019 65 16093 2.6 50 20:38 13.04.2020
4876 Rain 24 1019 65 16093 2.6 50 20:38 13.04.2020
4877 Rain 24 1019 65 16093 2.6 50 20:18 13.04.2020
4878 Clouds 22 1018 73 16093 2.6 60 19:39 13.04.2020
4879 Clouds 22 1018 73 16093 2.6 60 19:20 13.04.2020
4880 Clouds 22 1018 73 16093 4.1 70 19:00 13.04.2020
4881 Rain 22 1018 73 16093 4.1 70 18:39 13.04.2020
4882 Clouds 22 1018 69 16093 3.6 80 18:20 13.04.2020
4883 Clouds 22 1018 69 16093 3.6 80 17:59 13.04.2020
4884 Clouds 22 1018 69 16093 3.6 80 17:39 13.04.2020
4885 Clouds 22 1018 69 16093 3.6 80 17:20 13.04.2020
4886 Clouds 22 1018 69 16093 3.6 80 17:20 13.04.2020
4887 Clouds 22 1018 69 16093 3.6 80 17:20 13.04.2020
4888 Clouds 22 1017 69 16093 5.1 70 16:59 13.04.2020
4889 Clouds 22 1017 69 16093 5.1 70 16:41 13.04.2020
4890 Clouds 22 1017 69 16093 5.1 70 16:21 13.04.2020
4891 Clouds 22 1018 69 16093 4.6 70 15:59 13.04.2020
4892 Clouds 22 1018 69 16093 4.6 70 15:41 13.04.2020
4893 Clouds 22 1018 69 16093 4.6 70 15:23 13.04.2020
4894 Clouds 22 1018 69 16093 4.6 80 14:56 13.04.2020
4895 Clouds 22 1018 69 16093 4.6 80 14:38 13.04.2020
4896 Clouds 22 1018 69 16093 4.6 80 14:38 13.04.2020
4897 Clouds 22 1018 69 16093 4.6 80 14:20 13.04.2020
4898 Clouds 22 1019 69 16093 3.1 90 13:55 13.04.2020
4899 Clouds 22 1019 69 16093 3.1 90 13:37 13.04.2020
4900 Clouds 22 1019 69 16093 3.1 90 13:37 13.04.2020
4901 Clouds 23 1019 69 16093 3.1 90 13:18 13.04.2020
4902 Clouds 22 1019 69 16093 2.6 40 12:56 13.04.2020
4903 Clouds 22 1019 69 16093 2.6 40 12:38 13.04.2020
4904 Clouds 22 1019 69 16093 2.6 40 12:19 13.04.2020
4905 Clouds 22 1020 64 16093 3.1 20 11:42 13.04.2020
4906 Clouds 22 1020 64 16093 3.1 20 11:19 13.04.2020
4907 Clouds 22 1020 64 16093 6.2 40 10:56 13.04.2020
4908 Clouds 22 1020 64 16093 6.2 40 10:38 13.04.2020
4909 Clouds 22 1020 64 16093 6.2 40 10:19 13.04.2020
4910 Clouds 22 1020 64 16093 5.1 40 09:46 13.04.2020
4911 Clouds 22 1020 64 16093 5.1 40 09:26 13.04.2020
4912 Clouds 22 1019 69 16093 3.1 0 08:52 13.04.2020
4913 Clouds 22 1019 69 16093 3.1 0 08:52 13.04.2020
4914 Clouds 22 1019 69 16093 3.1 0 08:32 13.04.2020
4915 Clouds 22 1019 69 16093 3.1 0 08:32 13.04.2020
4916 Clouds 23 1018 60 16093 6.2 40 07:59 13.04.2020
4917 Clouds 23 1018 60 16093 6.2 40 07:41 13.04.2020
4918 Clouds 23 1018 60 16093 6.2 40 07:20 13.04.2020
4919 Clouds 23 1018 60 16093 4.1 40 06:47 13.04.2020
4920 Clouds 23 1018 60 16093 4.1 40 06:25 13.04.2020
4921 Clouds 24 1017 54 16093 5.7 30 05:32 13.04.2020
4922 Clouds 25 1017 48 16093 5.7 20 04:53 13.04.2020
4923 Clouds 25 1017 48 16093 5.7 20 04:24 13.04.2020
4924 Clouds 26 1017 51 16093 3.6 180 03:47 13.04.2020
4925 Clouds 27 1017 51 16093 4.6 150 02:59 13.04.2020
4926 Clouds 26 1017 51 16093 4.6 150 02:25 13.04.2020
4927 Clouds 26 1018 48 16093 4.6 70 01:42 13.04.2020
4928 Clouds 26 1018 48 16093 4.6 70 01:23 13.04.2020
4929 Clouds 27 1019 45 16093 3.1 50 00:42 13.04.2020
4930 Clouds 26 1019 47 16093 2.6 70 00:20 13.04.2020
4931 Clouds 26 1019 47 16093 2.6 70 23:48 12.04.2020
4932 Clouds 26 1019 47 16093 2.6 70 23:23 12.04.2020
4933 Clouds 25 1020 50 16093 4.1 40 22:58 12.04.2020
4934 Clouds 25 1020 50 16093 4.1 40 22:37 12.04.2020
4935 Clouds 25 1020 50 16093 4.1 40 22:19 12.04.2020
4936 Clouds 24 1019 57 16093 3.6 60 21:40 12.04.2020
4937 Clouds 24 1019 57 16093 3.6 60 21:21 12.04.2020
4938 Clouds 23 1019 64 16093 2.6 330 20:56 12.04.2020
4939 Clouds 23 1019 64 16093 2.6 330 20:38 12.04.2020
4940 Clouds 23 1019 64 16093 2.6 330 20:20 12.04.2020
4941 Clouds 21 1019 73 16093 2.6 320 19:55 12.04.2020
4942 Clouds 21 1019 73 16093 2.6 320 19:36 12.04.2020
4943 Clouds 21 1018 73 16093 4.1 330 19:18 12.04.2020
4944 Clouds 21 1018 73 16093 4.1 330 18:40 12.04.2020
4945 Clear 21 1017 77 16093 3.1 330 18:20 12.04.2020
4946 Clear 20 1017 77 16093 3.1 330 17:56 12.04.2020
4947 Clear 21 1017 77 16093 3.1 330 17:38 12.04.2020
4948 Clear 21 1017 77 16093 3.1 330 17:18 12.04.2020
4949 Clear 21 1017 77 16093 3.6 310 16:54 12.04.2020
4950 Clear 21 1017 77 16093 3.6 310 16:54 12.04.2020
4951 Clear 21 1017 77 16093 3.6 310 16:36 12.04.2020
4952 Clear 21 1017 77 16093 3.6 310 16:18 12.04.2020
4953 Clear 21 1017 77 16093 1.5 350 15:41 12.04.2020
4954 Clear 21 1017 77 16093 1.5 350 15:21 12.04.2020
4955 Clear 21 1018 73 16093 3.1 330 14:39 12.04.2020
4956 Clear 21 1018 73 16093 3.1 330 14:21 12.04.2020
4957 Clouds 21 1018 73 16093 4.6 320 13:58 12.04.2020
4958 Clouds 21 1018 73 16093 4.6 320 13:37 12.04.2020
4959 Clouds 21 1018 73 16093 4.6 320 13:37 12.04.2020
4960 Clouds 21 1019 78 16093 2.6 320 13:18 12.04.2020
4961 Clouds 21 1019 78 16093 2.6 320 12:45 12.04.2020
4962 Clouds 21 1019 78 16093 2.6 320 12:21 12.04.2020
4963 Clouds 22 1019 73 16093 2.1 360 11:58 12.04.2020
4964 Clouds 22 1019 73 16093 2.1 360 11:38 12.04.2020
4965 Clouds 22 1019 73 16093 2.1 360 11:18 12.04.2020
4966 Clouds 22 1019 73 16093 2.1 360 10:55 12.04.2020
4967 Clouds 22 1019 73 16093 2.1 360 10:37 12.04.2020
4968 Clouds 22 1019 73 16093 2.1 360 10:19 12.04.2020
4969 Clouds 23 1018 69 16093 2.6 10 09:55 12.04.2020
4970 Clouds 23 1018 69 16093 2.6 10 09:37 12.04.2020
4971 Clouds 23 1018 69 16093 2.6 10 09:19 12.04.2020
4972 Clouds 23 1017 69 16093 4.6 330 08:47 12.04.2020
4973 Clouds 23 1017 69 16093 4.6 330 08:28 12.04.2020
4974 Clouds 24 1017 61 16093 4.6 330 07:46 12.04.2020
4975 Clouds 24 1016 57 16093 5.7 300 07:19 12.04.2020
4976 Clouds 25 1016 57 16093 5.7 300 06:37 12.04.2020
4977 Rain 26 1015 54 16093 4.09 295 06:00 12.04.2020
4978 Rain 26 1015 54 16093 4.09 295 05:41 12.04.2020
4979 Clouds 27 1015 58 16093 6.2 230 03:48 12.04.2020
4980 Clouds 27 1015 58 16093 6.2 230 03:25 12.04.2020
4981 Clouds 27 1016 58 16093 7.7 230 02:35 12.04.2020
4982 Clouds 27 1016 58 16093 7.7 230 01:53 12.04.2020
4983 Clouds 27 1016 58 16093 7.7 230 01:19 12.04.2020
4984 Clouds 27 1017 54 16093 7.7 230 00:42 12.04.2020
4985 Clouds 27 1017 54 16093 7.7 230 00:20 12.04.2020
4986 Clouds 27 1017 54 16093 7.7 230 00:20 12.04.2020
4987 Clouds 27 1017 61 16093 5.7 220 23:46 11.04.2020
4988 Clouds 27 1017 61 16093 5.7 220 23:26 11.04.2020
4989 Clouds 26 1017 65 16093 3.1 200 22:42 11.04.2020
4990 Clouds 26 1017 65 16093 3.1 200 22:23 11.04.2020
4991 Clouds 25 1017 78 16093 2.1 220 21:58 11.04.2020
4992 Clouds 25 1017 78 16093 2.1 220 21:58 11.04.2020
4993 Clouds 25 1017 78 16093 2.1 220 21:38 11.04.2020
4994 Clouds 25 1017 78 16093 2.1 220 21:19 11.04.2020
4995 Clouds 24 1017 73 16093 3.15 284 20:58 11.04.2020
4996 Clouds 24 1017 73 16093 3.15 284 20:40 11.04.2020
4997 Clouds 23 1017 73 16093 3.15 284 20:21 11.04.2020
4998 Clouds 22 1016 88 16093 1.5 290 19:59 11.04.2020
4999 Clouds 22 1016 88 16093 1.5 290 19:41 11.04.2020
5000 Clouds 22 1016 88 16093 1.5 290 19:20 11.04.2020
5001 Clouds 21 1015 83 16093 2.1 290 18:58 11.04.2020
5002 Rain 21 1015 83 16093 2.1 290 18:39 11.04.2020
5003 Rain 22 1015 78 16093 4.1 260 18:21 11.04.2020
5004 Clouds 22 1015 78 16093 4.1 260 17:59 11.04.2020
5005 Clouds 22 1015 78 16093 4.1 260 17:41 11.04.2020
5006 Clouds 22 1015 78 16093 4.1 260 17:22 11.04.2020
5007 Clouds 23 1015 78 16093 3.1 220 16:59 11.04.2020
5008 Clouds 23 1015 73 16093 4.1 220 16:41 11.04.2020
5009 Clouds 23 1015 73 16093 4.1 220 16:21 11.04.2020
5010 Clouds 23 1015 73 16093 4.1 220 16:21 11.04.2020
5011 Clouds 23 1015 69 16093 3.6 250 15:40 11.04.2020
5012 Clouds 23 1015 69 16093 3.6 250 15:19 11.04.2020
5013 Clouds 23 1016 69 16093 3.6 230 14:44 11.04.2020
5014 Clouds 23 1016 69 16093 3.6 230 14:25 11.04.2020
5015 -273 0 0 0 0 0 14:00 11.04.2020
5016 Clouds 23 1016 69 16093 3.1 230 13:41 11.04.2020
5017 Clouds 23 1016 69 16093 3.1 230 13:22 11.04.2020
5018 Clouds 23 1016 69 16093 3.1 230 13:22 11.04.2020
5019 Clouds 23 1017 69 16093 3.1 230 12:43 11.04.2020
5020 Clouds 23 1017 69 16093 3.1 230 12:22 11.04.2020
5021 Clouds 23 1017 69 16093 2.1 280 11:58 11.04.2020
5022 Clouds 23 1017 69 16093 2.1 280 11:40 11.04.2020
5023 Clouds 23 1017 69 16093 2.1 280 11:19 11.04.2020
5024 Clouds 23 1017 69 16093 2.6 270 10:55 11.04.2020
5025 Clouds 23 1017 69 16093 2.6 270 10:36 11.04.2020
5026 Clouds 23 1017 69 16093 2.6 270 10:36 11.04.2020
5027 Clouds 23 1017 69 16093 2.6 270 10:18 11.04.2020
5028 Clouds 23 1016 69 16093 2.1 270 09:40 11.04.2020
5029 Clouds 23 1016 69 16093 2.1 270 09:40 11.04.2020
5030 Clouds 23 1016 69 16093 2.1 270 09:22 11.04.2020
5031 Clouds 23 1016 69 16093 3.1 230 08:51 11.04.2020
5032 Clouds 23 1016 69 16093 3.1 230 08:29 11.04.2020
5033 Clouds 24 1015 61 16093 3.6 220 07:55 11.04.2020
5034 Clouds 24 1015 61 16093 3.6 220 07:37 11.04.2020
5035 Clouds 24 1015 61 16093 3.6 220 07:18 11.04.2020
5036 Clouds 25 1015 57 16093 4.6 230 06:35 11.04.2020
5037 Clouds 25 1014 57 16093 3.6 220 05:56 11.04.2020
5038 Clouds 27 1014 54 16093 5.7 220 03:42 11.04.2020
5039 Clouds 26 1015 57 16093 6.2 220 02:49 11.04.2020
5040 Clouds 26 1016 54 16093 5.7 240 01:25 11.04.2020
5041 Clouds 26 1016 61 16093 4.1 220 00:44 11.04.2020
5042 Clouds 26 1016 61 16093 4.1 220 00:20 11.04.2020
5043 Clouds 26 1016 65 16093 4.1 220 23:59 10.04.2020
5044 Clouds 26 1016 65 16093 4.1 220 23:40 10.04.2020
5045 Clouds 26 1016 65 16093 4.1 220 23:19 10.04.2020
5046 Clouds 25 1016 73 16093 2.6 220 22:55 10.04.2020
5047 Clouds 25 1016 73 16093 2.6 220 22:36 10.04.2020
5048 Clouds 25 1016 73 16093 2.6 220 22:18 10.04.2020
5049 Clouds 24 1016 73 16093 3.02 238 21:41 10.04.2020
5050 Clouds 24 1016 73 16093 1.9 224 21:20 10.04.2020
5051 Clouds 24 1016 73 16093 1.9 224 21:20 10.04.2020
5052 Clouds 23 1016 78 16093 1.9 224 20:56 10.04.2020
5053 Clouds 23 1016 78 16093 1.9 224 20:37 10.04.2020
5054 Clouds 23 1016 78 16093 1.9 224 20:37 10.04.2020
5055 Clouds 23 1016 78 16093 1.9 224 20:19 10.04.2020
5056 Clouds 21 1015 78 16093 2.1 10 19:54 10.04.2020
5057 Clouds 21 1015 78 16093 2.1 10 19:36 10.04.2020
5058 Clouds 21 1015 83 16093 1.9 224 19:18 10.04.2020
5059 Clouds 21 1015 83 16093 1.9 224 18:55 10.04.2020
5060 Clouds 21 1015 83 16093 1.9 224 18:36 10.04.2020
5061 Clouds 20 1015 83 16093 1 204 18:18 10.04.2020
5062 Clouds 20 1014 83 16093 1.5 10 17:55 10.04.2020
5063 Clouds 20 1014 83 16093 1.5 10 17:37 10.04.2020
5064 Clouds 20 1014 83 16093 1.5 10 17:18 10.04.2020
5065 Clouds 20 1014 83 16093 1.5 10 17:18 10.04.2020
5066 Clouds 21 1014 78 16093 1.5 320 16:41 10.04.2020
5067 Clouds 21 1014 78 16093 1.5 320 16:22 10.04.2020
5068 Clouds 21 1015 73 16093 1.5 20 15:58 10.04.2020
5069 Clouds 21 1015 73 16093 1.5 20 15:38 10.04.2020
5070 Clouds 21 1015 73 16093 1.5 20 15:20 10.04.2020
5071 Clouds 21 1015 73 16093 2.1 330 14:58 10.04.2020
5072 Clouds 21 1015 73 16093 2.1 330 14:39 10.04.2020
5073 Clouds 22 1015 73 16093 2.1 330 14:20 10.04.2020
5074 Clouds 22 1016 73 16093 0.96 318 13:44 10.04.2020
5075 Clouds 22 1016 73 16093 0.96 318 13:22 10.04.2020
5076 Clouds 22 1016 73 16093 1.5 340 12:45 10.04.2020
5077 Clouds 22 1016 73 16093 1.5 340 12:24 10.04.2020
5078 Clouds 22 1017 73 16093 1.78 316 11:59 10.04.2020
5079 Clouds 22 1017 73 16093 1.78 316 11:40 10.04.2020
5080 Clouds 22 1017 73 16093 1.78 316 11:22 10.04.2020
5081 Clouds 22 1016 69 16093 1.5 40 10:47 10.04.2020
5082 Clouds 22 1016 69 16093 1.5 40 10:47 10.04.2020
5083 Clouds 22 1016 69 16093 1.5 40 10:47 10.04.2020
5084 Clouds 22 1016 69 16093 1.5 40 10:24 10.04.2020
5085 Clouds 22 1016 64 16093 1.5 10 09:59 10.04.2020
5086 Clouds 22 1016 64 16093 1.5 10 09:40 10.04.2020
5087 Clouds 22 1016 64 16093 1.5 10 09:20 10.04.2020
5088 Clouds 22 1016 64 16093 3.6 310 08:44 10.04.2020
5089 Clouds 22 1016 64 16093 3.6 310 08:24 10.04.2020
5090 Clouds 23 1015 64 16093 5.1 260 07:47 10.04.2020
5091 Clouds 23 1015 64 16093 5.1 260 07:27 10.04.2020
5092 Clouds 24 1014 57 16093 7.2 240 06:59 10.04.2020
5093 Clouds 24 1014 57 16093 7.2 240 06:30 10.04.2020
5094 Clouds 25 1014 61 16093 6.7 230 05:43 10.04.2020
5095 Clouds 25 1014 61 16093 6.7 230 05:18 10.04.2020
5096 Clouds 26 1014 57 16093 6.2 210 03:53 10.04.2020
5097 Clouds 26 1014 57 16093 6.2 210 03:32 10.04.2020
5098 Clouds 27 1014 57 16093 7.2 220 02:49 10.04.2020
5099 Clouds 27 1014 57 16093 7.2 220 02:31 10.04.2020
5100 Rain 25 1015 61 16093 7.2 230 01:30 10.04.2020
5101 Clouds 26 1016 65 16093 5.1 200 00:53 10.04.2020
5102 Clouds 25 1016 65 16093 5.1 200 00:26 10.04.2020
5103 Clouds 26 1016 57 16093 3.6 200 23:57 09.04.2020
5104 Clouds 26 1016 57 16093 3.6 200 23:38 09.04.2020
5105 Clouds 26 1016 57 16093 3.6 200 23:38 09.04.2020
5106 Clouds 26 1016 57 16093 3.6 200 23:20 09.04.2020
5107 Clouds 25 1016 61 16093 2.1 190 22:42 09.04.2020
5108 Clouds 25 1016 61 16093 2.1 190 22:23 09.04.2020
5109 Clouds 24 1016 69 16093 2.35 306 21:56 09.04.2020
5110 Clouds 24 1016 69 16093 2.35 306 21:37 09.04.2020
5111 Clouds 24 1016 69 16093 2.24 331 21:19 09.04.2020
5112 Clouds 22 1016 78 16093 2.24 331 20:44 09.04.2020
5113 Clouds 21 1016 78 16093 2.24 331 20:21 09.04.2020
5114 Clouds 20 1015 88 16093 2.24 331 19:58 09.04.2020
5115 Clouds 20 1015 88 16093 2.24 331 19:37 09.04.2020
5116 Clouds 19 1015 88 16093 2.24 331 19:18 09.04.2020
5117 Clouds 18 1015 93 16093 2.24 331 18:41 09.04.2020
5118 Clouds 18 1015 93 16093 2.51 314 18:19 09.04.2020
5119 Clouds 19 1014 94 16093 1.5 350 17:41 09.04.2020
5120 Clouds 19 1014 94 16093 1.5 350 17:23 09.04.2020
5121 Clouds 19 1014 100 16093 2.51 314 16:56 09.04.2020
5122 Clouds 19 1014 100 16093 2.51 314 16:38 09.04.2020
5123 Clouds 19 1014 100 16093 2.51 314 16:18 09.04.2020
5124 Clouds 19 1015 94 16093 2.51 314 15:54 09.04.2020
5125 Clouds 20 1015 94 16093 2.51 314 15:36 09.04.2020
5126 Clouds 20 1015 94 16093 2.51 314 15:36 09.04.2020
5127 Clouds 20 1015 94 16093 2.25 312 15:18 09.04.2020
5128 Clouds 20 1015 94 16093 2.25 312 15:18 09.04.2020
5129 Clouds 20 1015 100 16093 2.25 312 14:39 09.04.2020
5130 Clouds 20 1015 100 16093 2.23 327 14:21 09.04.2020
5131 Clouds 20 1015 100 16093 2.23 327 13:43 09.04.2020
5132 Clouds 20 1015 100 16093 2.23 327 13:25 09.04.2020
5133 Rain 20 1016 94 16093 1.5 100 12:59 09.04.2020
5134 Rain 20 1016 94 16093 1.5 100 12:59 09.04.2020
5135 Rain 21 1016 94 16093 1.5 100 12:40 09.04.2020
5136 Rain 21 1016 94 16093 1.5 100 12:21 09.04.2020
5137 Rain 21 1016 100 16093 2.6 70 11:56 09.04.2020
5138 Rain 21 1016 100 16093 2.6 70 11:37 09.04.2020
5139 Rain 21 1016 100 16093 2.6 70 11:19 09.04.2020
5140 Rain 22 1016 94 16093 3.6 90 10:54 09.04.2020
5141 Rain 22 1016 83 16093 2.1 20 10:36 09.04.2020
5142 Rain 22 1016 83 16093 2.1 20 10:18 09.04.2020
5143 Rain 22 1015 73 16093 4.1 130 09:40 09.04.2020
5144 Rain 22 1015 73 16093 4.1 130 09:21 09.04.2020
5145 Clouds 22 1014 73 16093 3.1 210 08:57 09.04.2020
5146 Clouds 22 1014 73 16093 3.1 210 08:39 09.04.2020
5147 Clouds 22 1014 73 16093 3.1 210 08:21 09.04.2020
5148 Clouds 23 1014 73 16093 3.1 210 07:40 09.04.2020
5149 Clouds 23 1014 69 16093 3.6 230 07:21 09.04.2020
5150 Clouds 24 1014 69 16093 3.6 230 06:42 09.04.2020
5151 Rain 23 1013 69 16093 1.5 210 05:49 09.04.2020
5152 Rain 24 1013 69 16093 1.5 210 05:25 09.04.2020
5153 Clouds 26 1014 57 16093 5.7 210 02:36 09.04.2020
5154 Clouds 26 1015 61 16093 5.7 210 01:46 09.04.2020
5155 Clouds 26 1015 61 16093 5.7 210 01:27 09.04.2020
5156 Clouds 26 1015 57 16093 6.7 200 00:54 09.04.2020
5157 Clouds 27 1015 57 16093 6.7 200 00:36 09.04.2020
5158 Clouds 26 1016 57 16093 4.1 210 00:18 09.04.2020
5159 Clouds 26 1016 57 16093 4.1 210 00:18 09.04.2020
5160 Clouds 26 1016 57 16093 4.1 210 23:41 08.04.2020
5161 Clouds 26 1016 57 16093 4.1 210 23:22 08.04.2020
5162 Clouds 26 1016 57 16093 2.6 190 22:44 08.04.2020
5163 Clouds 26 1016 57 16093 2.6 190 22:25 08.04.2020
5164 Clouds 25 1016 57 16093 2.6 190 21:57 08.04.2020
5165 Clouds 25 1016 65 16093 3.1 350 21:39 08.04.2020
5166 Clouds 25 1016 65 16093 3.1 350 21:21 08.04.2020
5167 Clouds 23 1016 73 16093 2.1 350 20:59 08.04.2020
5168 Clouds 23 1016 73 16093 2.1 350 20:40 08.04.2020
5169 Clouds 22 1016 73 16093 2.1 350 20:21 08.04.2020
5170 Clouds 21 1015 77 16093 1.5 10 19:59 08.04.2020
5171 Clouds 20 1015 77 16093 1.5 10 19:38 08.04.2020
5172 Clouds 20 1015 77 16093 0.64 265 19:20 08.04.2020
5173 Clouds 20 1015 77 16093 0.64 265 18:44 08.04.2020
5174 Clouds 20 1015 77 16093 0.99 283 18:25 08.04.2020
5175 Clouds 20 1014 77 16093 0.99 283 17:56 08.04.2020
5176 Clouds 20 1014 77 16093 0.99 283 17:38 08.04.2020
5177 Clouds 20 1014 77 16093 0.99 283 17:19 08.04.2020
5178 Clouds 20 1014 77 16093 1.5 20 16:42 08.04.2020
5179 Clouds 20 1014 78 16093 0.99 283 16:23 08.04.2020
5180 Clouds 20 1014 78 16093 0.99 283 15:56 08.04.2020
5181 Rain 21 1011 76 0 0.99 283 15:37 08.04.2020
5182 Clouds 21 1015 83 16093 1.25 294 15:19 08.04.2020
5183 Clouds 21 1015 83 16093 1.25 294 14:43 08.04.2020
5184 Clouds 21 1015 83 16093 0.93 293 14:25 08.04.2020
5185 Clouds 21 1015 83 16093 1.25 294 14:25 08.04.2020
5186 Clouds 21 1015 78 16093 0.93 293 13:55 08.04.2020
5187 Clouds 21 1015 78 16093 0.93 293 13:37 08.04.2020
5188 Clouds 21 1015 78 16093 0.93 293 13:18 08.04.2020
5189 Clouds 21 1016 78 16093 1.5 80 12:41 08.04.2020
5190 Clouds 21 1016 78 16093 1.5 80 12:18 08.04.2020
5191 Clouds 22 1016 73 16093 0.97 287 11:57 08.04.2020
5192 Clouds 22 1016 73 16093 0.97 287 11:39 08.04.2020
5193 Clouds 22 1016 73 16093 0.97 287 11:21 08.04.2020
5194 Clouds 23 1016 69 16093 2.1 250 10:55 08.04.2020
5195 Clouds 23 1016 69 16093 2.1 250 10:37 08.04.2020
5196 Clouds 23 1016 69 16093 2.1 250 10:18 08.04.2020
5197 Clouds 23 1016 69 16093 2.1 250 10:18 08.04.2020
5198 Clouds 23 1016 69 16093 1.5 280 09:42 08.04.2020
5199 Clouds 23 1016 69 16093 1.5 280 09:20 08.04.2020
5200 Clouds 23 1015 65 16093 2.6 240 08:59 08.04.2020
5201 Clouds 23 1015 65 16093 2.6 240 08:59 08.04.2020
5202 Clouds 23 1015 65 16093 2.6 240 08:40 08.04.2020
5203 Clouds 23 1015 65 16093 2.6 240 08:21 08.04.2020
5204 Clouds 24 1014 69 16093 2.6 200 07:43 08.04.2020
5205 Clouds 24 1014 69 16093 2.6 200 07:22 08.04.2020
5206 Clouds 25 1013 65 16093 4.6 230 06:41 08.04.2020
5207 Clouds 26 1013 61 16093 5.7 230 05:30 08.04.2020
5208 Clouds 27 1012 57 16093 6.7 220 03:21 08.04.2020
5209 Clouds 27 1013 54 16093 6.7 220 02:38 08.04.2020
5210 Clouds 27 1013 54 16093 6.7 220 02:18 08.04.2020
5211 Clouds 27 1014 54 16093 6.2 210 01:28 08.04.2020
5212 Clouds 27 1015 61 16093 5.7 220 00:50 08.04.2020
5213 Clouds 27 1015 61 16093 5.7 220 00:32 08.04.2020
5214 Clouds 27 1015 65 16093 5.7 220 23:57 07.04.2020
5215 Clouds 26 1015 65 16093 5.7 220 23:38 07.04.2020
5216 Clouds 26 1015 65 16093 5.7 220 23:19 07.04.2020
5217 Clouds 26 1015 65 16093 5.7 220 23:19 07.04.2020
5218 Clouds 26 1015 73 16093 3.6 200 22:56 07.04.2020
5219 Clouds 26 1015 73 16093 3.6 200 22:38 07.04.2020
5220 Clouds 25 1015 73 16093 3.6 200 22:18 07.04.2020
5221 Clouds 24 1015 78 16093 2.1 220 21:43 07.04.2020
5222 Clouds 24 1015 78 16093 2.1 220 21:23 07.04.2020
5223 Clouds 24 1015 83 16093 2.83 257 20:59 07.04.2020
5224 Clouds 23 1015 83 16093 2.83 257 20:41 07.04.2020
5225 Clouds 23 1015 83 16093 2.83 257 20:21 07.04.2020
5226 Clouds 21 1014 88 16093 2.83 257 19:58 07.04.2020
5227 Clouds 21 1014 88 16093 2.83 257 19:38 07.04.2020
5228 Clouds 21 1014 88 16093 2.83 257 19:20 07.04.2020
5229 Clouds 21 1014 88 16093 2.83 257 18:59 07.04.2020
5230 Clouds 21 1014 88 16093 2.83 257 18:40 07.04.2020
5231 Clouds 21 1014 88 16093 2.83 257 18:40 07.04.2020
5232 Clouds 21 1014 88 16093 3.03 248 18:21 07.04.2020
5233 Clouds 20 1013 88 16093 1.5 30 17:47 07.04.2020
5234 Clouds 20 1013 88 16093 1.5 30 17:24 07.04.2020
5235 Clouds 20 1013 88 16093 3.03 248 16:58 07.04.2020
5236 Rain 21 1013 88 16093 3.03 248 16:40 07.04.2020
5237 Rain 21 1013 88 16093 3.03 248 16:22 07.04.2020
5238 Clouds 21 1013 88 16093 1.5 340 15:43 07.04.2020
5239 Clouds 21 1014 94 16093 2.07 235 15:24 07.04.2020
5240 Clouds 21 1014 94 16093 2.07 235 14:43 07.04.2020
5241 Clouds 21 1014 94 16093 2.6 227 14:23 07.04.2020
5242 Clouds 22 1015 88 16093 2.6 227 13:58 07.04.2020
5243 Clouds 22 1015 88 16093 2.6 227 13:39 07.04.2020
5244 Clouds 22 1015 88 16093 2.6 227 13:19 07.04.2020
5245 Rain 22 1015 83 11265 2.6 227 12:56 07.04.2020
5246 Rain 22 1015 83 11265 2.6 227 12:37 07.04.2020
5247 Rain 22 1015 83 11265 2.95 217 12:18 07.04.2020
5248 Clouds 22 1015 88 16093 2.6 320 11:44 07.04.2020
5249 Clouds 22 1015 88 16093 2.6 320 11:26 07.04.2020
5250 Clouds 22 1015 88 16093 2.1 280 10:59 07.04.2020
5251 Clouds 22 1015 88 16093 2.1 280 10:38 07.04.2020
5252 Clouds 22 1015 88 16093 2.1 280 10:19 07.04.2020
5253 Clouds 22 1014 88 16093 2.1 290 09:46 07.04.2020
5254 Clouds 22 1014 88 16093 2.1 290 09:20 07.04.2020
5255 Rain 23 1014 83 16093 1.5 260 08:57 07.04.2020
5256 Rain 23 1014 83 16093 1.5 260 08:38 07.04.2020
5257 Rain 23 1014 83 16093 1.5 260 08:19 07.04.2020
5258 Rain 23 1013 88 16093 4.1 260 07:43 07.04.2020
5259 Rain 23 1013 88 16093 4.1 260 07:25 07.04.2020
5260 Rain 24 1012 83 16093 4.1 210 06:51 07.04.2020
5261 Rain 24 1012 83 16093 4.1 210 06:25 07.04.2020
5262 Clouds 25 1012 74 16093 5.7 220 05:46 07.04.2020
5263 Clouds 25 1012 74 16093 5.7 220 05:22 07.04.2020
5264 Rain 25 1012 94 16093 4.1 170 03:32 07.04.2020
5265 Rain 25 1012 83 9656 6.2 200 02:59 07.04.2020
5266 Clouds 26 1013 69 16093 4.1 170 01:58 07.04.2020
5267 Clouds 26 1013 69 16093 4.1 170 01:32 07.04.2020
5268 Rain 26 1014 74 16093 3.1 160 00:29 07.04.2020
5269 Rain 26 1014 83 16093 4.1 150 23:57 06.04.2020
5270 Rain 26 1014 83 16093 4.1 150 23:38 06.04.2020
5271 Rain 26 1014 83 16093 4.1 150 23:20 06.04.2020
5272 Clouds 25 1014 78 16093 4.1 150 22:41 06.04.2020
5273 Clouds 25 1014 78 16093 4.1 150 22:22 06.04.2020
5274 Clouds 24 1014 88 16093 3.6 130 21:58 06.04.2020
5275 Clouds 24 1014 88 16093 3.6 130 21:40 06.04.2020
5276 Clouds 24 1014 88 16093 3.6 130 21:19 06.04.2020
5277 Clouds 24 1014 88 16093 3.6 130 21:19 06.04.2020
5278 Rain 23 1014 94 16093 1.5 230 20:56 06.04.2020
5279 Rain 22 1014 94 16093 1.5 230 20:38 06.04.2020
5280 Rain 22 1013 88 4828 6.2 190 20:19 06.04.2020
5281 Rain 22 1013 88 4828 6.2 190 19:42 06.04.2020
5282 Rain 22 1013 88 4828 6.2 190 19:23 06.04.2020
5283 Clouds 22 1013 83 16093 1.5 360 18:59 06.04.2020
5284 Clouds 22 1013 83 16093 1.5 360 18:40 06.04.2020
5285 Clouds 22 1012 78 16093 3.5 183 18:22 06.04.2020
5286 Clouds 22 1012 78 16093 3.5 183 17:55 06.04.2020
5287 Clouds 22 1012 78 16093 3.5 183 17:36 06.04.2020
5288 Clouds 21 1012 83 16093 3.5 183 17:18 06.04.2020
5289 Clouds 21 1012 83 16093 3.5 183 16:44 06.04.2020
5290 Clouds 21 1012 83 16093 3.5 183 16:26 06.04.2020
5291 Clouds 22 1013 78 16093 1.5 180 14:44 06.04.2020
5292 Clouds 22 1013 78 16093 1.5 180 14:44 06.04.2020
5293 Clouds 22 1013 78 16093 1.5 180 14:44 06.04.2020
5294 Clouds 22 1013 78 16093 1.5 180 14:44 06.04.2020
5295 Clouds 22 1014 78 16093 1.5 180 13:43 06.04.2020
5296 Clouds 22 1014 78 16093 1.5 180 13:43 06.04.2020
5297 Clouds 22 1014 78 16093 1.5 180 13:20 06.04.2020
5298 Clouds 22 1014 78 16093 1.5 180 13:20 06.04.2020
5299 Clouds 22 1014 78 16093 1.5 180 13:20 06.04.2020
5300 Clouds 22 1014 78 16093 1.5 180 13:20 06.04.2020
5301 Clouds 23 1014 83 16093 1.5 180 12:25 06.04.2020
5302 Clouds 23 1014 83 16093 1.5 180 12:25 06.04.2020
5303 Clouds 23 1014 83 16093 1.5 180 12:25 06.04.2020
5304 Clouds 23 1014 83 16093 1.5 180 12:25 06.04.2020
5305 Clouds 23 1015 78 16093 2.1 180 11:55 06.04.2020
5306 Clouds 23 1015 78 16093 2.1 180 11:33 06.04.2020
5307 Clouds 23 1015 78 16093 2.1 180 11:33 06.04.2020
5308 Clouds 23 1015 78 16093 2.1 180 11:33 06.04.2020
5309 Clouds 23 1015 78 16093 2.1 180 11:33 06.04.2020
5310 Clouds 22 1014 83 16093 2.99 172 10:52 06.04.2020
5311 Clouds 22 1014 83 16093 2.99 172 10:52 06.04.2020
5312 Clouds 22 1014 83 16093 2.99 172 10:52 06.04.2020
5313 Clouds 23 1014 83 16093 2.99 172 10:22 06.04.2020
5314 Clouds 23 1014 83 16093 2.6 170 09:47 06.04.2020
5315 Clouds 23 1014 83 16093 2.6 170 09:22 06.04.2020
5316 Clouds 24 1014 78 16093 2.1 170 08:55 06.04.2020
5317 Clouds 24 1014 78 16093 2.1 170 08:31 06.04.2020
5318 Clouds 24 1013 69 16093 3.1 180 07:51 06.04.2020
5319 Clouds 24 1013 69 16093 3.1 180 07:51 06.04.2020
5320 Clouds 24 1013 69 16093 3.1 180 07:51 06.04.2020
5321 Clouds 24 1013 69 16093 3.1 180 07:51 06.04.2020
5322 Clouds 25 1012 74 16093 3.6 160 06:52 06.04.2020
5323 Clouds 25 1012 74 16093 3.6 160 06:52 06.04.2020
5324 Clouds 25 1012 74 16093 3.6 160 06:25 06.04.2020
5325 Clouds 26 1012 65 16093 3.6 160 04:20 06.04.2020
5326 Clouds 26 1012 65 16093 5.1 160 03:18 06.04.2020
5327 Clouds 27 1013 65 16093 4.6 180 02:36 06.04.2020
5328 Clouds 27 1014 61 16093 4.6 150 01:28 06.04.2020
5329 Clouds 26 1015 61 16093 3.6 210 00:46 06.04.2020
5330 Clouds 26 1015 61 16093 3.6 210 00:46 06.04.2020
5331 Clouds 26 1015 61 16093 3.6 210 00:23 06.04.2020
5332 Clouds 26 1015 61 16093 3.6 220 23:44 05.04.2020
5333 Clouds 26 1015 61 16093 3.6 220 23:26 05.04.2020
5334 Clouds 26 1015 61 16093 1.5 0 22:55 05.04.2020
5335 Clouds 27 1015 61 16093 1.5 0 22:37 05.04.2020
5336 Clouds 26 1015 61 16093 1.5 0 22:18 05.04.2020
5337 Clouds 25 1015 69 16093 2.4 172 21:46 05.04.2020
5338 Clouds 25 1015 69 16093 2.4 172 21:24 05.04.2020
5339 Clouds 25 1015 69 16093 2.4 172 21:24 05.04.2020
5340 Clouds 25 1015 69 16093 2.4 172 21:24 05.04.2020
5341 Clouds 23 1015 78 16093 1.5 330 20:27 05.04.2020
5342 -273 0 0 0 0 0 20:00 05.04.2020
5343 Clouds 21 1015 78 16093 1.97 175 19:37 05.04.2020
5344 Clouds 21 1015 78 16093 1.97 175 19:19 05.04.2020
5345 Clouds 21 1014 77 16093 2.1 20 18:44 05.04.2020
5346 Clouds 21 1014 77 16093 2.1 20 18:44 05.04.2020
5347 Clouds 21 1014 77 16093 2.1 20 18:44 05.04.2020
5348 Clouds 21 1014 77 16093 2.1 20 18:44 05.04.2020
5349 Clouds 21 1014 77 16093 2.1 20 18:44 05.04.2020
5350 Clouds 21 1014 78 16093 1.65 172 17:52 05.04.2020
5351 Clouds 21 1014 78 16093 1.65 172 17:52 05.04.2020
5352 Clouds 21 1014 78 16093 1.65 172 17:52 05.04.2020
5353 Clouds 21 1014 78 16093 1.65 172 17:52 05.04.2020
5354 Clouds 21 1014 78 16093 1.65 172 17:52 05.04.2020
5355 Clouds 21 1014 78 16093 1.65 172 17:24 05.04.2020
5356 Clouds 21 1014 78 16093 1.65 172 16:47 05.04.2020
5357 Clouds 21 1014 78 16093 1.65 172 16:20 05.04.2020
5358 Clouds 21 1014 78 16093 1.5 350 15:49 05.04.2020
5359 Clouds 21 1014 78 16093 1.5 350 15:30 05.04.2020
5360 Clouds 22 1014 73 16093 1.5 340 14:48 05.04.2020
5361 Clouds 22 1014 73 16093 1.5 340 14:24 05.04.2020
5362 Clouds 22 1015 73 16093 2.04 90 13:41 05.04.2020
5363 Clouds 22 1016 73 16093 2.1 360 12:48 05.04.2020
5364 Clouds 22 1016 73 16093 1.5 10 11:41 05.04.2020
5365 Clouds 22 1016 73 16093 1.5 10 11:20 05.04.2020
5366 Clouds 22 1016 73 16093 1.5 10 11:20 05.04.2020
5367 Clouds 24 1016 69 16093 2.76 95 10:48 05.04.2020
5368 Clouds 24 1016 69 16093 2.76 95 10:24 05.04.2020
5369 Clouds 24 1016 69 16093 2.76 95 10:24 05.04.2020
5370 Clouds 24 1015 61 16093 2.76 95 09:56 05.04.2020
5371 Clouds 24 1015 61 16093 2.76 95 09:56 05.04.2020
5372 Clouds 24 1015 61 16093 2.21 97 09:31 05.04.2020
5373 Clouds 24 1015 61 16093 2.21 97 09:31 05.04.2020
5374 Clouds 24 1015 61 16093 2.1 140 08:56 05.04.2020
5375 Clouds 24 1015 61 16093 2.1 140 08:56 05.04.2020
5376 Clouds 24 1015 61 16093 2.1 140 08:56 05.04.2020
5377 Clouds 24 1015 61 16093 2.1 140 08:56 05.04.2020
5378 Clouds 24 1015 61 16093 2.1 140 08:56 05.04.2020
5379 Clouds 24 1014 61 16093 1.5 170 07:24 05.04.2020
5380 Clouds 24 1014 61 16093 1.5 170 07:24 05.04.2020
5381 Clouds 24 1014 61 16093 1.5 170 07:24 05.04.2020
5382 Clouds 26 1013 61 16093 3.1 180 04:33 05.04.2020
5383 Clouds 27 1014 61 16093 3.6 160 03:29 05.04.2020
5384 Clouds 27 1014 61 16093 3.6 160 03:29 05.04.2020
5385 Clouds 27 1015 61 16093 4.6 140 02:49 05.04.2020
5386 Clouds 28 1015 58 16093 4.1 160 01:46 05.04.2020
5387 Clouds 28 1015 58 16093 4.1 160 01:23 05.04.2020
5388 Clouds 27 1016 57 16093 4.1 150 00:42 05.04.2020
5389 Clouds 27 1016 57 16093 4.1 150 00:21 05.04.2020
5390 Clouds 27 1016 57 16093 4.1 150 23:42 04.04.2020
5391 Clouds 27 1016 57 16093 4.1 150 23:42 04.04.2020
5392 Clouds 27 1016 57 16093 4.1 150 23:22 04.04.2020
5393 Clouds 26 1017 61 16093 2.6 140 22:57 04.04.2020
5394 Clouds 26 1017 61 16093 2.6 140 22:39 04.04.2020
5395 Clouds 26 1017 61 16093 2.6 140 22:20 04.04.2020
5396 Clouds 26 1016 65 16093 1.5 100 21:58 04.04.2020
5397 Clouds 26 1016 65 16093 1.5 100 21:39 04.04.2020
5398 Clouds 26 1016 65 16093 1.5 100 21:19 04.04.2020
5399 Clouds 25 1016 73 16093 2.6 90 20:55 04.04.2020
5400 Clouds 24 1016 73 16093 2.6 90 20:37 04.04.2020
5401 Clouds 24 1016 73 16093 2.6 90 20:19 04.04.2020
5402 Clouds 22 1015 83 16093 1.94 133 19:42 04.04.2020
5403 Clouds 22 1015 83 16093 1.94 133 19:21 04.04.2020
5404 Clouds 21 1015 83 16093 1.5 340 18:59 04.04.2020
5405 Clouds 21 1015 83 16093 1.5 340 18:40 04.04.2020
5406 Clouds 21 1015 83 16093 1.5 340 18:21 04.04.2020
5407 Clouds 21 1014 83 16093 1.5 360 17:59 04.04.2020
5408 Clouds 21 1014 83 16093 1.5 360 17:39 04.04.2020
5409 Clouds 21 1014 83 16093 1.5 360 17:39 04.04.2020
5410 Clouds 21 1014 83 16093 1.5 360 17:19 04.04.2020
5411 Clouds 21 1014 83 16093 1.5 40 16:45 04.04.2020
5412 Clouds 21 1014 83 16093 1.5 40 16:27 04.04.2020
5413 Clouds 21 1015 83 16093 1.5 350 15:59 04.04.2020
5414 Clouds 21 1015 83 16093 1.5 350 15:39 04.04.2020
5415 Clouds 21 1015 83 16093 1.5 350 15:20 04.04.2020
5416 Clouds 22 1015 83 16093 1.5 360 14:56 04.04.2020
5417 Clouds 22 1015 83 16093 1.5 360 14:37 04.04.2020
5418 Clouds 22 1015 83 16093 1.5 360 14:18 04.04.2020
5419 Clouds 22 1016 83 16093 1.5 40 13:42 04.04.2020
5420 Clouds 22 1016 83 16093 1.5 40 13:22 04.04.2020
5421 Clouds 22 1016 78 16093 2.42 126 12:58 04.04.2020
5422 Clouds 22 1016 78 16093 2.42 126 12:40 04.04.2020
5423 Clouds 22 1016 78 16093 2.18 135 12:20 04.04.2020
5424 Clouds 22 1016 78 16093 2.18 135 11:42 04.04.2020
5425 Clouds 22 1016 78 16093 2.18 135 11:42 04.04.2020
5426 Clouds 22 1016 78 16093 2.18 135 11:23 04.04.2020
5427 Clouds 22 1016 78 16093 2.1 30 10:59 04.04.2020
5428 Clouds 22 1016 78 16093 2.1 30 10:40 04.04.2020
5429 Clouds 22 1016 78 16093 2.1 30 10:22 04.04.2020
5430 Clouds 22 1015 73 16093 1.5 130 09:56 04.04.2020
5431 Clouds 23 1015 73 16093 1.5 130 09:38 04.04.2020
5432 Clouds 23 1015 73 16093 1.5 130 09:20 04.04.2020
5433 Clouds 23 1015 73 16093 1.5 130 08:43 04.04.2020
5434 Clouds 23 1015 73 16093 1.5 130 08:23 04.04.2020
5435 Clouds 23 1014 73 16093 2.1 170 07:57 04.04.2020
5436 Clouds 24 1014 73 16093 2.1 170 07:38 04.04.2020
5437 Clouds 24 1014 73 16093 2.1 170 07:20 04.04.2020
5438 Clouds 25 1014 73 16093 1.5 150 06:29 04.04.2020
5439 Clouds 25 1013 65 16093 2.6 150 05:52 04.04.2020
5440 Clouds 25 1013 65 16093 2.6 150 05:32 04.04.2020
5441 Clouds 26 1013 69 16093 3.6 160 04:34 04.04.2020
5442 Clouds 26 1013 57 16093 4.6 170 03:56 04.04.2020
5443 Clouds 26 1013 57 16093 4.6 170 03:29 04.04.2020
5444 Clouds 26 1014 65 16093 4.6 170 02:45 04.04.2020
5445 Clouds 26 1014 65 16093 4.6 170 02:25 04.04.2020
5446 Clouds 27 1015 57 16093 4.6 150 01:27 04.04.2020
5447 Clouds 26 1015 65 16093 3.6 170 00:57 04.04.2020
5448 Clouds 26 1015 65 16093 3.6 170 00:31 04.04.2020
5449 Clouds 26 1015 61 16093 3.1 150 23:56 03.04.2020
5450 Clouds 26 1015 61 16093 3.1 150 23:37 03.04.2020
5451 Clouds 26 1015 61 16093 3.1 150 23:18 03.04.2020
5452 Clouds 25 1015 69 16093 4.1 130 22:40 03.04.2020
5453 Clouds 24 1015 69 16093 4.1 130 22:19 03.04.2020
5454 Clouds 24 1015 73 16093 3.1 130 21:56 03.04.2020
5455 Clouds 25 1015 73 16093 3.1 130 21:56 03.04.2020
5456 Clouds 24 1015 73 16093 3.1 130 21:38 03.04.2020
5457 Clouds 24 1015 73 16093 3.1 130 21:19 03.04.2020
5458 Clouds 22 1015 78 16093 1.48 129 20:55 03.04.2020
5459 Clouds 22 1015 78 16093 1.48 129 20:36 03.04.2020
5460 Clouds 21 1015 78 16093 1.48 129 20:18 03.04.2020
5461 Clouds 21 1014 77 16093 1.5 360 19:54 03.04.2020
5462 Clouds 21 1014 77 16093 1.5 360 19:36 03.04.2020
5463 Clouds 20 1014 77 16093 1.5 360 19:18 03.04.2020
5464 Clouds 20 1014 77 16093 1.5 360 19:18 03.04.2020
5465 Clouds 20 1014 77 16093 2.1 330 18:56 03.04.2020
5466 Clouds 20 1014 77 16093 2.1 330 18:38 03.04.2020
5467 Clouds 20 1014 77 16093 2.1 330 18:19 03.04.2020
5468 Clouds 20 1013 77 16093 1.5 350 17:40 03.04.2020
5469 Clouds 20 1013 77 16093 1.5 350 17:19 03.04.2020
5470 Clouds 20 1013 77 16093 1.5 350 17:19 03.04.2020
5471 Clouds 20 1013 77 16093 2.1 340 16:54 03.04.2020
5472 Clouds 20 1013 77 16093 2.1 340 16:54 03.04.2020
5473 Clouds 20 1013 77 16093 2.1 340 16:36 03.04.2020
5474 Clouds 20 1013 77 16093 2.1 340 16:18 03.04.2020
5475 Clouds 21 1013 78 16093 2.6 330 15:41 03.04.2020
5476 Clouds 21 1013 78 16093 2.6 330 15:22 03.04.2020
5477 Clouds 21 1013 78 16093 2.6 330 14:57 03.04.2020
5478 Rain 21 1010 79 0 2.34 113 14:39 03.04.2020
5479 Clouds 21 1014 78 16093 2.3 119 14:21 03.04.2020
5480 Clouds 21 1014 78 16093 2.3 119 13:46 03.04.2020
5481 Clouds 21 1014 78 16093 2.3 119 13:26 03.04.2020
5482 Clouds 22 1015 73 16093 1.5 10 12:56 03.04.2020
5483 Clouds 22 1015 73 16093 1.5 10 12:38 03.04.2020
5484 Clouds 22 1015 73 16093 1.5 10 12:18 03.04.2020
5485 Clouds 22 1015 73 16093 2.1 30 11:55 03.04.2020
5486 Clouds 22 1015 73 16093 2.1 30 11:37 03.04.2020
5487 Clouds 22 1015 73 16093 2.1 30 11:18 03.04.2020
5488 Clouds 22 1015 73 16093 2.1 30 11:18 03.04.2020
5489 Clouds 22 1015 73 16093 3.1 90 10:55 03.04.2020
5490 Clouds 22 1015 73 16093 3.1 90 10:36 03.04.2020
5491 Clouds 22 1015 73 16093 3.1 90 10:18 03.04.2020
5492 Clouds 23 1014 69 16093 3.1 70 09:40 03.04.2020
5493 Clouds 23 1014 69 16093 3.1 70 09:22 03.04.2020
5494 Clouds 23 1014 69 16093 3.1 80 08:59 03.04.2020
5495 Clouds 23 1014 69 16093 3.1 80 08:40 03.04.2020
5496 Clouds 23 1014 69 16093 3.1 80 08:40 03.04.2020
5497 Clouds 23 1014 69 16093 3.1 80 08:22 03.04.2020
5498 Clouds 23 1013 65 16093 3.6 70 07:50 03.04.2020
5499 Clouds 23 1013 65 16093 3.6 70 07:32 03.04.2020
5500 Clouds 24 1013 69 16093 4.6 130 06:50 03.04.2020
5501 Clouds 24 1013 69 16093 4.6 130 06:25 03.04.2020
5502 Clouds 25 1012 61 16093 5.7 150 05:40 03.04.2020
5503 Clouds 26 1012 57 16093 5.1 140 03:45 03.04.2020
5504 Clouds 26 1012 57 16093 5.1 140 03:23 03.04.2020
5505 Clouds 27 1012 54 16093 5.1 140 02:28 03.04.2020
5506 Clouds 26 1013 57 16093 5.7 150 01:23 03.04.2020
5507 Clouds 26 1014 54 16093 5.7 160 00:40 03.04.2020
5508 Clouds 26 1014 54 16093 5.7 160 00:20 03.04.2020
5509 Clouds 26 1014 57 16093 6.2 150 23:42 02.04.2020
5510 Clouds 26 1014 57 16093 6.2 150 23:23 02.04.2020
5511 Clouds 26 1014 65 16093 4.6 150 22:58 02.04.2020
5512 Clouds 25 1014 65 16093 4.6 150 22:39 02.04.2020
5513 Clouds 25 1014 65 16093 4.6 150 22:20 02.04.2020
5514 Clouds 25 1014 69 16093 2.6 90 21:54 02.04.2020
5515 Clouds 25 1014 69 16093 2.6 90 21:36 02.04.2020
5516 Clouds 24 1014 69 16093 2.6 90 21:18 02.04.2020
5517 Clouds 23 1014 78 16093 2.1 350 20:42 02.04.2020
5518 Clouds 23 1014 78 16093 2.1 350 20:21 02.04.2020
5519 Clouds 20 1014 88 16093 2.1 360 19:44 02.04.2020
5520 Clouds 20 1014 88 16093 2.1 360 19:21 02.04.2020
5521 Clouds 20 1014 88 16093 2.1 360 19:21 02.04.2020
5522 Clouds 20 1013 88 16093 1.5 340 18:59 02.04.2020
5523 Clouds 20 1013 88 16093 1.5 340 18:41 02.04.2020
5524 Clouds 20 1013 88 16093 1.5 340 18:20 02.04.2020
5525 Clouds 20 1013 88 16093 3.76 90 17:56 02.04.2020
5526 Clouds 20 1013 88 16093 3.76 90 17:38 02.04.2020
5527 Clouds 20 1013 88 16093 3.76 90 17:20 02.04.2020
5528 Clouds 20 1013 82 16093 2.1 320 16:55 02.04.2020
5529 Clouds 21 1013 82 16093 2.1 320 16:37 02.04.2020
5530 Clouds 21 1013 82 16093 2.1 320 16:19 02.04.2020
5531 Clouds 21 1013 88 16093 1.5 320 15:44 02.04.2020
5532 Clouds 21 1013 88 16093 1.5 320 15:21 02.04.2020
5533 Clouds 21 1014 83 16093 2.1 10 14:59 02.04.2020
5534 Clouds 21 1014 83 16093 2.1 10 14:40 02.04.2020
5535 Clouds 21 1014 83 16093 2.1 10 14:20 02.04.2020
5536 Clouds 20 1014 83 16093 3.2 86 13:57 02.04.2020
5537 Clouds 20 1014 83 16093 3.2 86 13:38 02.04.2020
5538 Clouds 20 1014 83 16093 3.2 86 13:20 02.04.2020
5539 Clouds 20 1015 77 16093 1.5 100 12:55 02.04.2020
5540 Clouds 20 1015 77 16093 1.5 100 12:55 02.04.2020
5541 Clouds 20 1015 77 16093 1.5 100 12:36 02.04.2020
5542 Clouds 20 1015 77 16093 1.5 100 12:18 02.04.2020
5543 Clouds 22 1015 78 16093 3.1 80 11:55 02.04.2020
5544 Clouds 22 1015 78 16093 3.1 80 11:55 02.04.2020
5545 Clouds 22 1015 78 16093 3.1 80 11:36 02.04.2020
5546 Clouds 22 1015 78 16093 3.1 80 11:18 02.04.2020
5547 Clouds 22 1015 78 16093 2.1 80 10:54 02.04.2020
5548 Clouds 22 1015 78 16093 2.1 80 10:36 02.04.2020
5549 Clouds 22 1015 78 16093 2.1 80 10:36 02.04.2020
5550 Clouds 22 1015 78 16093 2.1 80 10:18 02.04.2020
5551 Clouds 22 1015 73 16093 3.1 80 09:42 02.04.2020
5552 Clouds 22 1015 73 16093 3.1 80 09:24 02.04.2020
5553 Clouds 22 1014 73 16093 4.1 80 08:58 02.04.2020
5554 Clouds 22 1014 73 16093 4.1 80 08:39 02.04.2020
5555 Clouds 23 1014 73 16093 4.1 80 08:19 02.04.2020
5556 Rain 23 1014 73 16093 3.1 80 07:42 02.04.2020
5557 Rain 23 1014 73 16093 3.1 80 07:19 02.04.2020
5558 Clouds 24 1014 73 16093 5.7 70 06:46 02.04.2020
5559 Clouds 24 1014 73 16093 5.7 70 06:20 02.04.2020
5560 Rain 24 1013 61 16093 4.1 150 05:41 02.04.2020
5561 Rain 25 1014 57 16093 5.7 190 02:59 02.04.2020
5562 Clouds 26 1014 61 16093 5.7 190 01:30 02.04.2020
5563 Clouds 26 1015 61 16093 6.2 220 00:42 02.04.2020
5564 Clouds 26 1015 61 16093 6.2 220 00:24 02.04.2020
5565 Clouds 26 1015 51 16093 1.5 0 23:41 01.04.2020
5566 Clouds 26 1015 51 16093 1.5 0 23:20 01.04.2020
5567 Clouds 25 1016 57 16093 1.5 0 22:58 01.04.2020
5568 Clouds 25 1016 57 16093 1.5 0 22:39 01.04.2020
5569 Clouds 25 1016 57 16093 1.5 0 22:20 01.04.2020
5570 Clouds 24 1016 69 16093 2.1 0 21:42 01.04.2020
5571 Clouds 24 1016 69 16093 2.1 0 21:19 01.04.2020
5572 Clouds 23 1016 73 16093 4.1 330 20:57 01.04.2020
5573 Clouds 23 1016 73 16093 4.1 330 20:38 01.04.2020
5574 Clouds 22 1016 73 16093 4.1 330 20:20 01.04.2020
5575 Clouds 21 1015 82 16093 2.6 330 19:58 01.04.2020
5576 Clouds 20 1015 82 16093 2.6 330 19:39 01.04.2020
5577 Clouds 20 1015 82 16093 2.6 330 19:19 01.04.2020
5578 Clouds 20 1015 82 16093 3.1 330 18:42 01.04.2020
5579 Clouds 20 1015 82 16093 3.1 330 18:24 01.04.2020
5580 Clouds 19 1015 82 16093 3.1 320 17:57 01.04.2020
5581 Clouds 19 1015 82 16093 3.1 320 17:38 01.04.2020
5582 Clouds 20 1015 82 16093 3.1 320 17:19 01.04.2020
5583 Clouds 20 1015 82 16093 3.1 320 17:19 01.04.2020
5584 Clouds 20 1015 77 16093 4.1 330 16:58 01.04.2020
5585 Clouds 20 1015 77 16093 4.1 330 16:39 01.04.2020
5586 Clouds 20 1015 77 16093 4.1 330 16:39 01.04.2020
5587 Clouds 20 1015 77 16093 4.1 330 16:20 01.04.2020
5588 Clouds 21 1015 77 16093 2.6 320 15:56 01.04.2020
5589 Clouds 21 1015 77 16093 2.6 320 15:37 01.04.2020
5590 Clouds 21 1015 77 16093 2.6 320 15:18 01.04.2020
5591 Clouds 20 1016 77 16093 2.6 330 14:40 01.04.2020
5592 Clouds 20 1016 77 16093 2.6 330 14:22 01.04.2020
5593 Clouds 21 1016 77 16093 2.6 300 13:59 01.04.2020
5594 Clouds 21 1016 77 16093 2.6 300 13:40 01.04.2020
5595 Clouds 21 1016 77 16093 2.6 300 13:20 01.04.2020
5596 Clouds 20 1017 77 16093 2.1 330 12:59 01.04.2020
5597 Clouds 20 1017 77 16093 2.1 330 12:40 01.04.2020
5598 Clouds 21 1017 77 16093 2.1 330 12:22 01.04.2020
5599 Clouds 21 1017 73 16093 3.76 60 11:57 01.04.2020
5600 Clouds 21 1017 73 16093 3.76 60 11:37 01.04.2020
5601 Clouds 21 1017 73 16093 3.76 60 11:37 01.04.2020
5602 Clouds 22 1017 73 16093 3.76 60 11:19 01.04.2020
5603 Clouds 22 1017 69 16093 1.5 10 10:39 01.04.2020
5604 Clouds 22 1017 69 16093 1.5 10 10:21 01.04.2020
5605 Clouds 22 1017 69 16093 2.1 20 09:59 01.04.2020
5606 Clouds 22 1017 69 16093 2.1 20 09:59 01.04.2020
5607 Clouds 22 1017 69 16093 2.1 20 09:40 01.04.2020
5608 Clouds 22 1017 69 16093 2.1 20 09:20 01.04.2020
5609 Clouds 22 1016 69 16093 4.27 66 08:44 01.04.2020
5610 Clouds 22 1016 69 16093 4.27 66 08:44 01.04.2020
5611 Clouds 22 1016 69 16093 4.27 66 08:20 01.04.2020
5612 Clouds 23 1016 64 16093 3.6 40 07:58 01.04.2020
5613 Clouds 23 1016 64 16093 3.6 40 07:40 01.04.2020
5614 Clouds 23 1016 64 16093 3.6 40 07:19 01.04.2020
5615 Clouds 24 1016 57 16093 4.6 50 06:41 01.04.2020
5616 Clouds 24 1016 57 16093 4.6 50 06:20 01.04.2020
5617 Clouds 24 1015 57 16093 5.7 30 05:24 01.04.2020
5618 Clouds 24 1015 57 16093 5.1 50 03:39 01.04.2020
5619 Clouds 24 1016 54 16093 4.6 40 02:59 01.04.2020
5620 Clouds 25 1016 54 16093 4.6 40 02:31 01.04.2020
5621 Clouds 26 1016 51 16093 5.7 50 01:46 01.04.2020
5622 Clouds 25 1016 51 16093 5.7 50 01:24 01.04.2020
5623 Clouds 25 1016 57 16093 6.7 50 00:47 01.04.2020
5624 Clouds 25 1016 57 16093 6.7 50 00:21 01.04.2020
5625 Clouds 25 1017 57 16093 5.7 40 23:49 31.03.2020
5626 Clouds 25 1017 57 16093 5.7 40 23:49 31.03.2020
5627 Clouds 25 1017 57 16093 5.7 40 23:29 31.03.2020
5628 Clouds 24 1017 57 16093 5.7 40 22:59 31.03.2020
5629 Clouds 24 1017 69 16093 3.6 70 22:38 31.03.2020
5630 Clouds 23 1017 69 16093 3.6 70 22:20 31.03.2020
5631 Clouds 23 1017 69 16093 3.6 70 21:57 31.03.2020
5632 Clouds 23 1018 69 16093 2.1 70 21:39 31.03.2020
5633 Clouds 23 1018 69 16093 2.1 70 21:20 31.03.2020
5634 Clouds 23 1017 69 16093 4.6 70 20:56 31.03.2020
5635 Clouds 22 1017 69 16093 4.6 70 20:37 31.03.2020
5636 Rain 22 1017 69 16093 4.6 70 20:18 31.03.2020
5637 Rain 21 1017 73 16093 4.95 80 19:42 31.03.2020
5638 Clouds 22 1017 73 16093 4.95 80 19:24 31.03.2020
5639 Rain 22 1016 73 16093 4.6 80 18:59 31.03.2020
5640 Rain 22 1016 73 16093 4.6 80 18:41 31.03.2020
5641 Rain 22 1016 73 16093 4.6 80 18:19 31.03.2020
5642 Clouds 22 1015 73 16093 6.7 80 17:55 31.03.2020
5643 Clouds 22 1015 73 16093 6.7 80 17:37 31.03.2020
5644 Clouds 22 1015 73 16093 6.7 80 17:37 31.03.2020
5645 Clouds 22 1015 73 16093 6.7 80 17:37 31.03.2020
5646 Clouds 21 1015 73 16093 6.7 80 17:19 31.03.2020
5647 Clouds 22 1015 73 16093 2.1 20 16:41 31.03.2020
5648 Clouds 21 1015 73 16093 2.1 20 16:20 31.03.2020
5649 Clouds 22 1016 73 16093 4.1 70 15:58 31.03.2020
5650 Clouds 22 1016 73 16093 4.1 70 15:40 31.03.2020
5651 Clouds 22 1016 73 16093 4.1 70 15:22 31.03.2020
5652 Rain 22 1017 73 16093 5.7 80 14:58 31.03.2020
5653 Rain 22 1017 73 16093 5.7 80 14:58 31.03.2020
5654 Rain 22 1017 73 16093 5.7 80 14:39 31.03.2020
5655 Rain 22 1017 73 16093 5.7 80 14:21 31.03.2020
5656 Rain 22 1018 69 16093 3.6 60 13:43 31.03.2020
5657 Rain 22 1018 69 16093 3.6 60 13:20 31.03.2020
5658 Rain 22 1018 69 16093 3.6 60 12:59 31.03.2020
5659 Rain 22 1018 69 16093 3.6 60 12:40 31.03.2020
5660 Rain 22 1018 69 16093 3.6 60 12:19 31.03.2020
5661 Clouds 22 1018 69 16093 4.6 70 11:41 31.03.2020
5662 Clouds 22 1018 69 16093 4.6 70 11:20 31.03.2020
5663 Clouds 22 1018 69 16093 4.6 70 11:20 31.03.2020
5664 Clouds 22 1018 69 16093 4.6 60 10:59 31.03.2020
5665 Clouds 22 1018 69 16093 4.6 60 10:40 31.03.2020
5666 Clouds 22 1018 69 16093 4.6 60 10:22 31.03.2020
5667 Clouds 22 1018 73 16093 4.1 70 09:59 31.03.2020
5668 Clouds 22 1018 73 16093 4.1 70 09:40 31.03.2020
5669 Clouds 23 1018 73 16093 4.1 70 09:22 31.03.2020
5670 Rain 23 1017 73 16093 6.2 70 08:57 31.03.2020
5671 Rain 23 1017 73 16093 6.2 70 08:38 31.03.2020
5672 Rain 23 1017 73 16093 6.2 70 08:19 31.03.2020
5673 Rain 23 1017 69 16093 5.1 70 07:55 31.03.2020
5674 Rain 23 1017 69 16093 5.1 70 07:55 31.03.2020
5675 Rain 23 1017 69 16093 5.1 70 07:37 31.03.2020
5676 Rain 23 1017 69 16093 5.1 70 07:18 31.03.2020
5677 Clouds 23 1016 69 16093 6.7 80 06:42 31.03.2020
5678 Clouds 23 1016 61 16093 6.7 60 05:57 31.03.2020
5679 Rain 23 1016 61 16093 6.7 60 05:38 31.03.2020
5680 Clouds 25 1016 54 16093 7.7 70 03:28 31.03.2020
5681 Clouds 25 1017 54 16093 6.7 70 01:52 31.03.2020
5682 Clouds 25 1017 54 16093 6.7 70 01:33 31.03.2020
5683 Clouds 25 1017 54 16093 6.7 70 01:33 31.03.2020
5684 Clouds 26 1018 54 16093 6.7 70 00:46 31.03.2020
5685 Clouds 26 1018 54 16093 6.7 70 00:24 31.03.2020
5686 Clouds 25 1018 57 16093 6.2 60 23:41 30.03.2020
5687 Clouds 25 1018 57 16093 6.2 60 23:20 30.03.2020
5688 Clouds 25 1018 57 16093 6.2 60 23:20 30.03.2020
5689 Clouds 25 1018 57 16093 6.7 80 22:58 30.03.2020
5690 Clouds 25 1018 57 16093 6.7 80 22:58 30.03.2020
5691 Clouds 25 1018 57 16093 6.7 80 22:58 30.03.2020
5692 Clouds 25 1018 57 16093 6.7 80 22:39 30.03.2020
5693 Clouds 25 1018 57 16093 6.7 80 22:19 30.03.2020
5694 Clouds 24 1018 69 16093 6.2 80 21:57 30.03.2020
5695 Clouds 24 1018 69 16093 6.2 80 21:38 30.03.2020
5696 Clouds 24 1018 69 16093 6.2 80 21:20 30.03.2020
5697 Clouds 24 1018 69 16093 6.2 80 21:20 30.03.2020
5698 Rain 23 1017 69 16093 4.6 60 20:58 30.03.2020
5699 Rain 23 1017 69 16093 4.6 60 20:39 30.03.2020
5700 Rain 23 1017 69 16093 4.6 60 20:20 30.03.2020
5701 Rain 22 1017 73 16093 5.1 70 19:56 30.03.2020
5702 Clouds 22 1017 73 16093 5.1 70 19:37 30.03.2020
5703 Clouds 22 1017 73 16093 5.1 70 19:19 30.03.2020
5704 Rain 22 1017 69 16093 4.6 70 18:42 30.03.2020
5705 Rain 22 1017 69 16093 4.6 70 18:42 30.03.2020
5706 Rain 21 1017 69 16093 4.6 70 18:24 30.03.2020
5707 Rain 22 1016 73 16093 4.6 70 17:58 30.03.2020
5708 Clouds 22 1016 73 16093 4.6 70 17:39 30.03.2020
5709 Clouds 22 1016 73 16093 4.6 70 17:19 30.03.2020
5710 Clouds 22 1016 69 16093 4.1 70 16:57 30.03.2020
5711 Clouds 22 1016 69 16093 4.1 70 16:39 30.03.2020
5712 Clouds 22 1016 69 16093 4.1 70 16:20 30.03.2020
5713 Clouds 22 1016 69 16093 4.1 70 16:20 30.03.2020
5714 Rain 22 1017 69 16093 5.1 70 15:55 30.03.2020
5715 Rain 22 1017 69 16093 5.1 70 15:37 30.03.2020
5716 Rain 22 1017 69 16093 5.1 70 15:19 30.03.2020
5717 Clouds 22 1017 69 16093 3.6 70 14:55 30.03.2020
5718 Clouds 22 1017 69 16093 3.6 70 14:36 30.03.2020
5719 Clouds 22 1017 69 16093 3.6 70 14:18 30.03.2020
5720 Clouds 22 1018 69 16093 4.6 60 13:44 30.03.2020
5721 Clouds 22 1018 69 16093 4.6 60 13:21 30.03.2020
5722 Clouds 22 1018 69 16093 6.2 60 12:59 30.03.2020
5723 Clouds 22 1018 69 16093 6.2 60 12:41 30.03.2020
5724 Clouds 22 1018 69 16093 6.2 60 12:19 30.03.2020
5725 Clouds 22 1018 69 16093 5.1 70 11:57 30.03.2020
5726 Rain 22 1018 69 16093 5.1 70 11:38 30.03.2020
5727 Rain 22 1018 69 16093 5.1 70 11:20 30.03.2020
5728 Clouds 23 1018 69 16093 4.6 60 10:40 30.03.2020
5729 Clouds 23 1018 69 16093 4.6 60 10:22 30.03.2020
5730 Clouds 23 1018 69 16093 4.6 70 09:56 30.03.2020
5731 Clouds 23 1018 69 16093 4.6 70 09:38 30.03.2020
5732 Clouds 23 1018 69 16093 4.6 70 09:19 30.03.2020
5733 Clouds 23 1018 69 16093 4.6 70 09:19 30.03.2020
5734 Clouds 23 1017 64 16093 6.2 80 08:42 30.03.2020
5735 Clouds 23 1017 64 16093 6.2 80 08:22 30.03.2020
5736 Clouds 23 1016 64 16093 5.7 70 07:49 30.03.2020
5737 Clouds 23 1016 64 16093 5.7 70 07:31 30.03.2020
5738 Clouds 23 1016 61 16093 7.7 70 06:57 30.03.2020
5739 Clouds 24 1016 61 16093 7.7 70 06:32 30.03.2020
5740 Clouds 24 1015 57 16093 6.7 70 05:53 30.03.2020
5741 Clouds 25 1015 57 16093 6.7 70 05:22 30.03.2020
5742 Clouds 25 1015 51 16093 8.2 70 04:23 30.03.2020
5743 Clouds 25 1015 51 16093 8.7 80 03:38 30.03.2020
5744 Clouds 26 1016 54 16093 6.2 60 02:38 30.03.2020
5745 Clouds 26 1017 54 16093 7.7 80 01:35 30.03.2020
5746 Clouds 26 1018 54 16093 6.2 80 00:47 30.03.2020
5747 Clouds 26 1018 54 16093 6.2 80 00:21 30.03.2020
5748 Rain 25 1018 61 16093 7.2 60 23:41 29.03.2020
5749 Rain 25 1018 61 16093 7.2 60 23:23 29.03.2020
5750 Rain 25 1018 61 16093 4.6 60 22:57 29.03.2020
5751 Rain 25 1018 61 16093 4.6 60 22:37 29.03.2020
5752 Rain 25 1018 61 16093 4.6 60 22:19 29.03.2020
5753 Rain 23 1018 69 16093 4.6 90 21:40 29.03.2020
5754 Rain 23 1018 69 16093 4.6 90 21:21 29.03.2020
5755 Rain 23 1018 88 16093 2.1 0 20:56 29.03.2020
5756 Rain 23 1018 88 16093 2.1 0 20:56 29.03.2020
5757 Rain 22 1018 88 16093 2.1 0 20:38 29.03.2020
5758 Rain 22 1018 88 16093 2.1 0 20:19 29.03.2020
5759 Rain 22 1017 94 16093 2.6 40 19:59 29.03.2020
5760 Clouds 21 1017 94 16093 2.6 40 19:41 29.03.2020
5761 Clouds 21 1017 94 16093 2.6 40 19:23 29.03.2020
5762 Rain 21 1017 94 16093 2.1 360 18:57 29.03.2020
5763 Rain 21 1017 94 16093 2.1 360 18:39 29.03.2020
5764 Rain 21 1017 94 16093 2.1 360 18:20 29.03.2020
5765 Rain 21 1016 78 14484 4.1 80 17:56 29.03.2020
5766 Rain 21 1016 78 14484 4.1 80 17:38 29.03.2020
5767 Rain 21 1016 78 14484 4.1 80 17:19 29.03.2020
5768 Rain 21 1016 78 16093 2.6 80 16:56 29.03.2020
5769 Rain 21 1016 78 16093 2.6 80 16:38 29.03.2020
5770 Rain 22 1016 78 16093 2.6 80 16:19 29.03.2020
5771 Rain 22 1016 73 16093 2.1 50 15:41 29.03.2020
5772 Rain 22 1016 73 16093 2.1 50 15:41 29.03.2020
5773 Rain 22 1016 73 16093 2.1 50 15:23 29.03.2020
5774 Clouds 22 1016 73 16093 4.6 70 14:58 29.03.2020
5775 Clouds 22 1016 73 16093 4.6 70 14:40 29.03.2020
5776 Clouds 22 1016 73 16093 4.6 70 14:20 29.03.2020
5777 Clouds 22 1017 69 16093 3.6 70 13:57 29.03.2020
5778 Clouds 22 1017 69 16093 3.6 70 13:39 29.03.2020
5779 Clouds 22 1017 69 16093 3.6 70 13:19 29.03.2020
5780 Clouds 22 1017 69 16093 3.6 70 12:55 29.03.2020
5781 Rain 22 1017 73 16093 4.1 70 12:37 29.03.2020
5782 Rain 22 1017 73 16093 4.1 70 12:18 29.03.2020
5783 Clouds 22 1018 73 16093 3.1 80 11:40 29.03.2020
5784 Clouds 22 1018 73 16093 3.1 80 11:21 29.03.2020
5785 Clouds 22 1018 73 16093 4.1 70 10:59 29.03.2020
5786 Clouds 22 1018 73 16093 4.1 70 10:38 29.03.2020
5787 Clouds 22 1018 73 16093 4.1 70 10:18 29.03.2020
5788 Rain 22 1017 69 16093 5.1 70 09:40 29.03.2020
5789 Rain 22 1017 69 16093 5.1 70 09:20 29.03.2020
5790 Clouds 22 1016 73 16093 6.7 70 08:54 29.03.2020
5791 Clouds 22 1016 73 16093 6.7 70 08:30 29.03.2020
5792 Rain 23 1015 69 16093 6.7 70 07:59 29.03.2020
5793 Rain 23 1015 69 16093 6.7 70 07:40 29.03.2020
5794 Rain 23 1015 69 16093 6.7 70 07:20 29.03.2020
5795 Rain 25 1014 57 16093 6.7 70 04:59 29.03.2020
5796 Clouds 25 1015 57 16093 5.7 50 03:55 29.03.2020
5797 Clouds 25 1015 57 16093 5.7 50 03:26 29.03.2020
5798 Clouds 25 1015 51 16093 7.7 60 01:51 29.03.2020
5799 Clouds 26 1015 51 16093 7.7 60 01:23 29.03.2020
5800 Clouds 25 1016 54 16093 6.7 60 00:55 29.03.2020
5801 Clouds 26 1016 54 16093 6.7 60 00:31 29.03.2020
5802 Clouds 25 1017 54 16093 8.2 80 23:42 28.03.2020
5803 Clouds 25 1017 54 16093 8.2 80 23:23 28.03.2020
5804 Rain 24 1018 73 16093 3.6 80 22:57 28.03.2020
5805 Rain 24 1018 73 16093 3.6 80 22:37 28.03.2020
5806 Rain 24 1018 73 16093 3.6 80 22:19 28.03.2020
5807 Clouds 25 1018 57 16093 3.6 40 21:42 28.03.2020
5808 Clouds 25 1018 57 16093 3.6 40 21:24 28.03.2020
5809 Rain 24 1018 64 16093 3.6 60 20:58 28.03.2020
5810 Rain 23 1018 64 16093 3.6 60 20:39 28.03.2020
5811 Rain 24 1018 64 16093 3.6 60 20:21 28.03.2020
5812 Clouds 24 1017 73 16093 4.1 70 19:56 28.03.2020
5813 Clouds 24 1017 73 16093 4.1 70 19:56 28.03.2020
5814 Clouds 23 1017 73 16093 4.1 70 19:37 28.03.2020
5815 Clouds 23 1017 73 16093 4.1 70 19:18 28.03.2020
5816 Clouds 22 1016 73 16093 3.6 70 18:47 28.03.2020
5817 Clouds 22 1016 73 16093 3.6 70 18:23 28.03.2020
5818 Clouds 21 1016 77 16093 3.1 70 17:58 28.03.2020
5819 Clouds 21 1016 77 16093 3.1 70 17:38 28.03.2020
5820 Clouds 21 1016 77 16093 3.1 70 17:19 28.03.2020
5821 Clouds 20 1016 82 16093 4.47 84 16:42 28.03.2020
5822 Clouds 20 1016 82 16093 4.47 84 16:20 28.03.2020
5823 Clouds 20 1016 88 16093 1.5 10 15:56 28.03.2020
5824 Clouds 21 1016 88 16093 1.5 10 15:37 28.03.2020
5825 Clouds 21 1016 88 16093 1.5 10 15:37 28.03.2020
5826 Clouds 21 1016 88 16093 1.5 10 15:18 28.03.2020
5827 Clouds 21 1016 88 16093 4.47 84 14:42 28.03.2020
5828 Clouds 21 1016 88 16093 4.64 89 14:22 28.03.2020
5829 Clouds 21 1016 83 16093 4.64 89 13:46 28.03.2020
5830 Clouds 21 1016 83 16093 4.64 89 13:26 28.03.2020
5831 Rain 21 1017 77 16093 1.5 40 12:57 28.03.2020
5832 Rain 21 1017 77 16093 1.5 40 12:37 28.03.2020
5833 Rain 21 1017 77 16093 1.5 40 12:18 28.03.2020
5834 Clouds 22 1018 73 16093 3.1 70 11:42 28.03.2020
5835 Clouds 22 1018 73 16093 3.1 70 11:42 28.03.2020
5836 Clouds 21 1018 83 16093 3.1 90 11:21 28.03.2020
5837 Clouds 21 1018 83 16093 3.1 90 10:41 28.03.2020
5838 Clouds 21 1018 83 16093 3.1 90 10:22 28.03.2020
5839 Clouds 21 1018 73 16093 5.98 95 09:59 28.03.2020
5840 Clouds 21 1018 73 16093 5.98 95 09:39 28.03.2020
5841 Clouds 22 1018 73 16093 5.98 95 09:20 28.03.2020
5842 Clouds 22 1017 78 16093 1.5 350 08:42 28.03.2020
5843 Clouds 22 1017 78 16093 1.5 350 08:23 28.03.2020
5844 Clouds 22 1017 69 16093 2.1 360 07:49 28.03.2020
5845 Clouds 22 1017 69 16093 2.1 360 07:31 28.03.2020
5846 Rain 22 1016 69 16093 4.1 60 06:42 28.03.2020
5847 Rain 22 1016 69 16093 4.1 60 06:19 28.03.2020
5848 Rain 22 1016 69 16093 5.1 70 05:24 28.03.2020
5849 Rain 23 1015 57 16093 5.1 80 04:43 28.03.2020
5850 Rain 24 1015 57 16093 5.1 80 04:20 28.03.2020
5851 Rain 24 1016 69 16093 3.1 50 02:33 28.03.2020
5852 Rain 23 1016 69 16093 4.6 40 01:45 28.03.2020
5853 Rain 23 1016 69 16093 4.6 40 01:20 28.03.2020
5854 Rain 23 1017 65 16093 7.2 70 00:46 28.03.2020
5855 Rain 24 1017 65 16093 7.2 70 00:20 28.03.2020
5856 Rain 23 1018 69 16093 6.2 60 23:42 27.03.2020
5857 Rain 23 1018 69 16093 6.2 60 23:22 27.03.2020
5858 Rain 24 1018 83 16093 6.2 70 22:56 27.03.2020
5859 Rain 24 1018 83 16093 6.2 70 22:38 27.03.2020
5860 Rain 24 1018 83 16093 6.2 70 22:20 27.03.2020
5861 Rain 22 1018 94 16093 5.1 70 21:45 27.03.2020
5862 Rain 22 1018 94 16093 5.1 70 21:26 27.03.2020
5863 Rain 22 1019 94 8047 4.6 70 20:59 27.03.2020
5864 Rain 22 1019 94 8047 4.6 70 20:41 27.03.2020
5865 Rain 21 1019 94 8047 4.6 70 20:21 27.03.2020
5866 Rain 21 1018 88 12874 2.6 70 19:58 27.03.2020
5867 Rain 21 1018 88 12874 2.6 70 19:40 27.03.2020
5868 Rain 21 1018 73 16093 3.6 60 19:21 27.03.2020
5869 Rain 21 1017 77 16093 4.1 60 18:45 27.03.2020
5870 Rain 21 1017 77 16093 4.1 60 18:25 27.03.2020
5871 Rain 20 1017 77 14484 2.1 40 17:59 27.03.2020
5872 Rain 21 1017 77 14484 2.1 40 17:39 27.03.2020
5873 Rain 20 1017 77 14484 2.1 40 17:20 27.03.2020
5874 Rain 21 1017 77 16093 4.6 60 16:44 27.03.2020
5875 Rain 21 1017 77 16093 4.6 60 16:25 27.03.2020
5876 Clouds 21 1017 77 16093 2.1 60 15:56 27.03.2020
5877 Clouds 21 1017 77 16093 2.1 60 15:38 27.03.2020
5878 Clouds 21 1017 77 16093 2.1 60 15:19 27.03.2020
5879 Clouds 21 1017 77 16093 4.1 60 14:43 27.03.2020
5880 Clouds 21 1017 77 16093 4.1 60 14:24 27.03.2020
5881 Clouds 21 1018 73 16093 4.1 80 13:55 27.03.2020
5882 Clouds 21 1018 73 16093 4.1 80 13:37 27.03.2020
5883 Clouds 21 1018 73 16093 4.1 80 13:18 27.03.2020
5884 Clouds 21 1018 68 16093 3.6 70 12:43 27.03.2020
5885 Clouds 22 1018 68 16093 3.6 70 12:19 27.03.2020
5886 Clouds 22 1019 68 16093 5.1 70 11:55 27.03.2020
5887 Clouds 22 1019 68 16093 5.1 70 11:36 27.03.2020
5888 Clouds 22 1019 68 16093 5.1 70 11:18 27.03.2020
5889 Clouds 21 1020 68 16093 6.7 70 10:42 27.03.2020
5890 Clouds 21 1020 68 16093 6.7 70 10:22 27.03.2020
5891 Clouds 22 1020 64 16093 4.1 60 09:59 27.03.2020
5892 Rain 22 1020 64 16093 4.1 60 09:40 27.03.2020
5893 Rain 22 1020 64 16093 4.1 60 09:22 27.03.2020
5894 Rain 22 1019 64 16093 5.7 60 08:59 27.03.2020
5895 Rain 22 1019 64 16093 5.7 60 08:59 27.03.2020
5896 Clouds 22 1019 64 16093 5.7 60 08:40 27.03.2020
5897 Clouds 22 1019 64 16093 5.7 60 08:21 27.03.2020
5898 Clouds 22 1019 64 16093 6.2 60 07:55 27.03.2020
5899 Clouds 22 1019 64 16093 6.2 60 07:37 27.03.2020
5900 Clouds 22 1019 64 16093 6.2 60 07:19 27.03.2020
5901 Rain 22 1018 69 16093 7.7 70 06:38 27.03.2020
5902 Clouds 22 1017 64 16093 7.7 60 05:44 27.03.2020
5903 Clouds 23 1018 60 16093 8.2 60 02:52 27.03.2020
5904 Clouds 24 1018 54 16093 8.2 50 01:54 27.03.2020
5905 Clouds 24 1019 54 16093 7.2 60 00:56 27.03.2020
5906 Clouds 24 1019 54 16093 7.2 60 00:32 27.03.2020
5907 Clouds 24 1020 50 16093 11.8 60 23:45 26.03.2020
5908 Clouds 24 1020 50 16093 11.8 60 23:25 26.03.2020
5909 Rain 24 1021 60 16093 10.3 70 22:59 26.03.2020
5910 Rain 23 1021 60 16093 10.3 70 22:39 26.03.2020
5911 Rain 23 1021 60 16093 10.3 70 22:20 26.03.2020
5912 Clouds 23 1021 60 16093 8.7 70 21:59 26.03.2020
5913 Clouds 23 1021 60 16093 8.7 70 21:39 26.03.2020
5914 Clouds 23 1021 60 16093 8.7 70 21:21 26.03.2020
5915 Rain 23 1021 64 16093 7.7 70 20:58 26.03.2020
5916 Rain 22 1021 64 16093 7.7 70 20:38 26.03.2020
5917 Rain 22 1021 64 16093 7.7 70 20:20 26.03.2020
5918 Rain 22 1020 68 16093 7.2 70 19:56 26.03.2020
5919 Rain 21 1020 68 16093 7.2 70 19:38 26.03.2020
5920 Rain 21 1020 68 16093 7.2 70 19:38 26.03.2020
5921 Rain 21 1020 68 16093 7.2 70 19:20 26.03.2020
5922 Rain 21 1020 68 16093 5.7 70 18:55 26.03.2020
5923 Rain 21 1020 68 16093 5.7 70 18:55 26.03.2020
5924 Rain 21 1020 68 16093 5.7 70 18:36 26.03.2020
5925 Rain 21 1020 68 16093 5.7 70 18:18 26.03.2020
5926 Rain 21 1020 73 16093 6.2 60 17:42 26.03.2020
5927 Rain 21 1019 60 16093 8.2 70 17:19 26.03.2020
5928 Clouds 21 1019 60 16093 8.2 70 16:45 26.03.2020
5929 Clouds 21 1019 60 16093 8.2 70 16:27 26.03.2020
5930 Clouds 21 1019 60 16093 7.2 50 15:58 26.03.2020
5931 Clouds 21 1019 60 16093 7.2 50 15:40 26.03.2020
5932 Clouds 21 1019 60 16093 7.2 50 15:21 26.03.2020
5933 Clouds 21 1020 60 16093 6.2 60 14:57 26.03.2020
5934 Clouds 21 1020 60 16093 6.2 60 14:38 26.03.2020
5935 Clouds 22 1020 60 16093 6.2 60 14:18 26.03.2020
5936 Clouds 21 1020 64 16093 7.2 60 13:41 26.03.2020
5937 Clouds 22 1020 64 16093 7.2 60 13:23 26.03.2020
5938 Clouds 21 1021 60 16093 7.2 60 12:56 26.03.2020
5939 Clouds 21 1021 60 16093 7.2 60 12:37 26.03.2020
5940 Clouds 22 1022 56 16093 6.2 60 12:18 26.03.2020
5941 Clouds 22 1022 56 16093 6.2 60 11:44 26.03.2020
5942 Clouds 22 1022 56 16093 6.2 60 11:20 26.03.2020
5943 Clouds 22 1022 60 16093 6.7 60 10:55 26.03.2020
5944 Clouds 22 1022 60 16093 6.7 60 10:36 26.03.2020
5945 Clouds 22 1022 60 16093 6.7 60 10:18 26.03.2020
5946 Clouds 21 1022 68 16093 7.7 60 09:42 26.03.2020
5947 Clouds 22 1022 68 16093 7.7 60 09:19 26.03.2020
5948 Rain 22 1022 64 16093 8.7 60 08:44 26.03.2020
5949 Rain 22 1022 64 16093 8.7 60 08:26 26.03.2020
5950 Rain 22 1021 64 16093 9.3 60 07:57 26.03.2020
5951 Clouds 22 1021 64 16093 9.3 60 07:38 26.03.2020
5952 Clouds 22 1021 64 16093 9.3 60 07:20 26.03.2020
5953 Clouds 22 1021 60 16093 6.7 50 06:38 26.03.2020
5954 Clouds 23 1020 57 16093 10.8 60 05:51 26.03.2020
5955 Clouds 24 1020 47 16093 9.8 70 03:48 26.03.2020
5956 Clouds 24 1020 47 16093 9.8 70 03:26 26.03.2020
5957 Clouds 25 1021 47 16093 10.8 60 02:52 26.03.2020
5958 Clouds 25 1021 47 16093 10.8 60 01:19 26.03.2020
5959 Clouds 24 1022 53 16093 10.8 60 00:33 26.03.2020
5960 Rain 24 1023 64 16093 9.8 50 23:44 25.03.2020
5961 Rain 24 1023 64 16093 9.8 50 23:26 25.03.2020
5962 Clouds 24 1023 57 16093 10.3 50 22:55 25.03.2020
5963 Clouds 23 1023 57 16093 10.3 50 22:37 25.03.2020
5964 Clouds 24 1023 57 16093 10.3 50 22:18 25.03.2020
5965 Clouds 23 1024 64 16093 10.3 70 21:43 25.03.2020
5966 Clouds 22 1024 64 16093 10.3 70 21:24 25.03.2020
5967 Clouds 22 1024 69 16093 9.8 70 20:59 25.03.2020
5968 Clouds 22 1024 69 16093 9.8 70 20:38 25.03.2020
5969 Clouds 22 1024 69 16093 9.8 70 20:19 25.03.2020
5970 Clouds 22 1023 78 16093 8.2 70 19:55 25.03.2020
5971 Clouds 22 1023 78 16093 8.2 70 19:36 25.03.2020
5972 Clouds 22 1023 78 16093 8.2 70 19:18 25.03.2020
5973 Rain 21 1023 88 16093 7.7 60 18:42 25.03.2020
5974 Rain 20 1023 88 16093 7.7 60 18:24 25.03.2020
5975 Rain 20 1023 94 16093 5.1 80 17:58 25.03.2020
5976 Rain 20 1023 94 16093 5.1 80 17:58 25.03.2020
5977 Rain 20 1023 94 16093 5.1 80 17:40 25.03.2020
5978 Rain 20 1023 94 16093 5.1 80 17:21 25.03.2020
5979 Rain 20 1022 94 11265 6.2 70 16:55 25.03.2020
5980 Rain 20 1022 94 11265 6.2 70 16:37 25.03.2020
5981 Rain 20 1022 94 11265 6.2 70 16:19 25.03.2020
5982 Rain 20 1022 94 16093 5.7 70 15:42 25.03.2020
5983 Rain 20 1022 94 16093 5.7 70 15:20 25.03.2020
5984 Rain 20 1022 83 16093 7.2 70 14:56 25.03.2020
5985 Rain 20 1022 83 16093 7.2 70 14:37 25.03.2020
5986 Rain 20 1022 83 16093 7.2 70 14:19 25.03.2020
5987 Rain 20 1022 77 16093 6.7 50 13:42 25.03.2020
5988 Rain 21 1022 77 16093 6.7 50 13:22 25.03.2020
5989 Rain 21 1023 77 16093 8.2 70 12:38 25.03.2020
5990 Clouds 21 1023 77 16093 8.2 70 12:20 25.03.2020
5991 Rain 21 1022 73 16093 6.7 50 11:57 25.03.2020
5992 Rain 21 1022 73 16093 6.7 50 11:39 25.03.2020
5993 Rain 21 1022 73 16093 6.7 50 11:20 25.03.2020
5994 Rain 21 1023 73 16093 8.2 50 10:57 25.03.2020
5995 Rain 21 1023 73 16093 8.2 50 10:39 25.03.2020
5996 Rain 21 1023 73 16093 8.2 50 10:18 25.03.2020
5997 Rain 21 1023 83 16093 10.3 60 09:43 25.03.2020
5998 Rain 21 1023 83 16093 10.3 60 09:25 25.03.2020
5999 Rain 21 1022 83 16093 8.7 60 08:58 25.03.2020
6000 Rain 21 1022 83 16093 8.7 60 08:58 25.03.2020
6001 Rain 21 1022 83 16093 8.7 60 08:39 25.03.2020
6002 Rain 21 1022 83 16093 8.7 60 08:19 25.03.2020
6003 Rain 22 1022 73 12874 9.3 60 07:41 25.03.2020
6004 Rain 22 1022 73 12874 9.3 60 07:23 25.03.2020
6005 Rain 22 1021 64 16093 8.7 60 06:50 25.03.2020
6006 Rain 22 1021 64 16093 8.7 60 06:28 25.03.2020
6007 Clouds 22 1021 64 16093 11.8 70 05:57 25.03.2020
6008 Clouds 23 1021 64 16093 11.8 70 05:37 25.03.2020
6009 Clouds 23 1021 64 16093 6.7 60 04:40 25.03.2020
6010 Rain 24 1021 61 16093 8.7 60 03:49 25.03.2020
6011 Rain 24 1021 61 16093 8.7 60 03:28 25.03.2020
6012 Clouds 24 1022 57 16093 9.8 60 01:23 25.03.2020
6013 Clouds 23 1023 61 16093 8.7 40 00:49 25.03.2020
6014 Clouds 23 1023 61 16093 8.7 40 00:24 25.03.2020
6015 Clouds 24 1023 54 16093 8.7 60 23:45 24.03.2020
6016 Clouds 23 1023 54 16093 8.7 60 23:26 24.03.2020
6017 Rain 24 1024 54 16093 8.2 80 22:57 24.03.2020
6018 Rain 24 1024 54 16093 8.2 80 22:38 24.03.2020
6019 Rain 24 1024 54 16093 8.2 80 22:19 24.03.2020
6020 Rain 24 1024 61 16093 8.2 60 21:56 24.03.2020
6021 Rain 24 1024 61 16093 8.2 60 21:37 24.03.2020
6022 Rain 23 1024 61 16093 8.2 60 21:18 24.03.2020
6023 Clouds 24 1023 60 16093 6.2 50 20:56 24.03.2020
6024 Clouds 23 1023 60 16093 6.2 50 20:38 24.03.2020
6025 Clouds 23 1023 60 16093 6.2 50 20:19 24.03.2020
6026 Clouds 22 1023 64 16093 4.6 80 19:41 24.03.2020
6027 Clouds 23 1023 64 16093 4.6 80 19:19 24.03.2020
6028 Clouds 22 1022 56 16093 6.7 70 18:56 24.03.2020
6029 Clouds 22 1022 56 16093 6.7 70 18:37 24.03.2020
6030 Clouds 22 1022 56 16093 8.7 60 18:18 24.03.2020
6031 Clouds 22 1022 56 16093 6.7 70 18:18 24.03.2020
6032 Clouds 22 1022 56 16093 8.7 60 17:42 24.03.2020
6033 Clouds 22 1022 56 16093 8.7 60 17:23 24.03.2020
6034 Clouds 22 1022 49 16093 8.2 70 16:58 24.03.2020
6035 Clouds 22 1022 49 16093 8.2 70 16:40 24.03.2020
6036 Clouds 22 1022 49 16093 8.2 70 16:22 24.03.2020
6037 Clouds 22 1022 49 16093 7.2 70 15:58 24.03.2020
6038 Clouds 21 1022 49 16093 7.2 70 15:37 24.03.2020
6039 Clouds 21 1022 49 16093 7.2 70 15:19 24.03.2020
6040 Clouds 21 1022 53 16093 6.7 60 14:43 24.03.2020
6041 Clouds 21 1022 53 16093 6.7 60 14:19 24.03.2020
6042 Rain 21 1023 64 16093 7.7 70 13:44 24.03.2020
6043 Rain 21 1023 64 16093 7.7 70 13:24 24.03.2020
6044 Clouds 22 1023 56 16093 7.2 60 12:57 24.03.2020
6045 Clouds 22 1023 56 16093 7.2 60 12:37 24.03.2020
6046 Clouds 22 1023 56 16093 7.2 60 12:37 24.03.2020
6047 Clouds 22 1023 56 16093 7.2 60 12:19 24.03.2020
6048 Clouds 22 1023 56 16093 10.8 50 11:40 24.03.2020
6049 Clouds 22 1023 77 16093 3.6 70 11:20 24.03.2020
6050 Clouds 22 1024 88 16093 5.7 60 10:43 24.03.2020
6051 Clouds 22 1024 56 16093 8.2 60 10:20 24.03.2020
6052 Drizzle 22 1024 82 16093 4.6 80 09:59 24.03.2020
6053 Drizzle 22 1024 82 16093 4.6 80 09:40 24.03.2020
6054 Rain 22 1023 64 16093 8.7 80 09:22 24.03.2020
6055 Clouds 22 1023 56 16093 5.1 50 08:39 24.03.2020
6056 Clouds 22 1023 56 16093 5.1 50 08:20 24.03.2020
6057 Clouds 22 1022 56 16093 7.2 50 07:48 24.03.2020
6058 Clouds 22 1022 56 16093 7.2 50 07:25 24.03.2020
6059 Clouds 22 1021 53 16093 7.7 50 06:58 24.03.2020
6060 Clouds 23 1021 53 16093 7.7 50 06:31 24.03.2020
6061 Clouds 23 1020 53 16093 9.8 60 05:22 24.03.2020
6062 Clouds 24 1020 54 16093 10.8 40 04:27 24.03.2020
6063 Clouds 24 1020 54 16093 9.8 60 03:18 24.03.2020
6064 Clouds 25 1020 51 16093 10.8 70 01:47 24.03.2020
6065 Clouds 25 1021 44 16093 8.2 50 00:48 24.03.2020
6066 Clouds 25 1021 44 16093 8.2 50 00:25 24.03.2020
6067 Clouds 25 1021 51 16093 8.7 50 23:45 23.03.2020
6068 Clouds 25 1021 51 16093 8.7 50 23:26 23.03.2020
6069 Clouds 24 1022 54 16093 8.2 50 22:56 23.03.2020
6070 Clouds 24 1022 54 16093 8.2 50 22:56 23.03.2020
6071 Clouds 24 1022 54 16093 8.2 50 22:37 23.03.2020
6072 Clouds 24 1022 54 16093 8.2 50 22:19 23.03.2020
6073 Rain 23 1022 88 14484 3.6 70 21:44 23.03.2020
6074 Rain 23 1022 88 14484 4.6 80 21:21 23.03.2020
6075 Drizzle 22 1022 88 16093 2.1 110 20:58 23.03.2020
6076 Drizzle 22 1022 88 16093 2.1 110 20:39 23.03.2020
6077 Rain 22 1022 69 16093 7.2 60 20:21 23.03.2020
6078 Clouds 21 1022 94 12874 2.6 90 19:46 23.03.2020
6079 Clouds 21 1021 100 16093 1.5 80 19:27 23.03.2020
6080 Rain 21 1021 73 16093 6.7 60 18:59 23.03.2020
6081 Drizzle 21 1022 88 11265 3.1 100 18:41 23.03.2020
6082 Rain 21 1021 73 16093 5.7 80 18:21 23.03.2020
6083 Rain 21 1020 88 14484 4.1 80 17:44 23.03.2020
6084 Rain 21 1020 88 14484 4.1 80 17:22 23.03.2020
6085 Rain 21 1020 88 16093 3.1 100 16:59 23.03.2020
6086 Clouds 21 1020 88 16093 3.1 100 16:41 23.03.2020
6087 Clouds 21 1019 73 16093 6.2 60 16:23 23.03.2020
6088 Clouds 21 1019 64 16093 8.7 60 15:42 23.03.2020
6089 Clouds 22 1019 64 16093 8.7 60 15:20 23.03.2020
6090 Clouds 22 1019 64 16093 7.7 50 14:55 23.03.2020
6091 Clouds 22 1019 64 16093 7.7 50 14:36 23.03.2020
6092 Clouds 22 1019 64 16093 7.7 50 14:18 23.03.2020
6093 Clouds 22 1020 88 16093 4.52 67 13:40 23.03.2020
6094 Clouds 22 1020 64 16093 8.7 50 13:21 23.03.2020
6095 Clouds 22 1020 82 16093 3.57 67 12:46 23.03.2020
6096 Clouds 22 1021 93 16093 2.1 270 12:26 23.03.2020
6097 Clouds 22 1021 82 16093 3.57 67 11:59 23.03.2020
6098 Clouds 22 1021 88 16093 3.57 67 11:40 23.03.2020
6099 Clouds 22 1021 64 16093 6.7 60 11:20 23.03.2020
6100 Clouds 22 1021 64 16093 6.7 60 10:58 23.03.2020
6101 Clouds 22 1021 64 16093 6.7 60 10:38 23.03.2020
6102 Clouds 22 1021 64 16093 6.7 60 10:38 23.03.2020
6103 Clouds 22 1021 64 16093 6.7 60 10:20 23.03.2020
6104 Clouds 22 1022 88 16093 1.5 110 09:44 23.03.2020
6105 Clouds 22 1022 88 16093 1.5 110 09:21 23.03.2020
6106 Clouds 22 1020 64 16093 6.2 60 08:57 23.03.2020
6107 Clouds 23 1020 64 16093 6.2 60 08:36 23.03.2020
6108 Clouds 23 1020 64 16093 6.2 60 08:18 23.03.2020
6109 Clouds 23 1020 64 16093 5.1 90 07:45 23.03.2020
6110 Clouds 23 1020 64 16093 5.1 90 07:27 23.03.2020
6111 Rain 23 1019 64 16093 7.7 80 06:52 23.03.2020
6112 Clouds 23 1019 94 16093 5.13 75 05:54 23.03.2020
6113 Clouds 23 1019 94 16093 5.13 75 05:29 23.03.2020
6114 Clouds 24 1018 83 16093 4.1 80 03:29 23.03.2020
6115 Rain 24 1018 54 16093 8.2 70 01:51 23.03.2020
6116 Rain 25 1018 54 16093 8.2 70 01:33 23.03.2020
6117 Rain 25 1019 78 16093 5.1 60 00:39 23.03.2020
6118 Rain 26 1019 73 16093 6.2 70 23:47 22.03.2020
6119 Rain 26 1019 83 12874 5.1 60 23:26 22.03.2020
6120 Clouds 26 1020 54 16093 7.2 60 22:45 22.03.2020
6121 Clouds 26 1020 54 16093 7.2 60 22:24 22.03.2020
6122 Clouds 25 1021 78 16093 5.1 100 21:56 22.03.2020
6123 Clouds 26 1020 69 16093 6.7 70 21:37 22.03.2020
6124 Clouds 26 1020 69 16093 6.7 70 21:19 22.03.2020
6125 Clouds 25 1020 61 16093 6.2 50 20:46 22.03.2020
6126 Clouds 25 1020 61 16093 6.2 50 20:25 22.03.2020
6127 Clouds 24 1020 64 16093 4.1 70 19:58 22.03.2020
6128 Clouds 23 1020 64 16093 4.1 70 19:40 22.03.2020
6129 Clouds 23 1020 64 16093 4.1 70 19:20 22.03.2020
6130 Clouds 23 1019 69 16093 4.6 50 18:59 22.03.2020
6131 Clouds 23 1019 69 16093 4.6 50 18:41 22.03.2020
6132 Clouds 23 1019 69 16093 4.6 50 18:22 22.03.2020
6133 Clouds 22 1018 69 16093 4.6 60 17:58 22.03.2020
6134 Clouds 22 1018 69 16093 4.6 60 17:38 22.03.2020
6135 Clouds 22 1018 69 16093 4.6 60 17:20 22.03.2020
6136 Clouds 22 1018 93 16093 1.5 320 16:57 22.03.2020
6137 Clouds 22 1018 93 16093 1.5 320 16:39 22.03.2020
6138 Clouds 22 1018 69 16093 4.6 50 16:21 22.03.2020
6139 Clouds 22 1018 88 16093 2.6 79 15:44 22.03.2020
6140 Clouds 22 1018 88 16093 2.6 79 15:26 22.03.2020
6141 Clear 22 1018 69 16093 4.1 50 14:46 22.03.2020
6142 Clear 22 1018 69 16093 4.1 50 14:19 22.03.2020
6143 Clouds 22 1018 93 16093 1.94 84 13:45 22.03.2020
6144 Clear 22 1018 64 16093 4.6 70 13:21 22.03.2020
6145 Clouds 22 1018 64 16093 4.1 90 12:59 22.03.2020
6146 Clouds 22 1018 64 16093 4.1 90 12:41 22.03.2020
6147 Clouds 22 1018 64 16093 4.1 90 12:19 22.03.2020
6148 Clouds 22 1019 88 16093 1.65 85 11:43 22.03.2020
6149 Clouds 22 1019 69 16093 4.6 90 11:25 22.03.2020
6150 Clouds 22 1019 69 16093 3.1 80 10:58 22.03.2020
6151 Clouds 22 1020 69 16093 5.7 60 10:40 22.03.2020
6152 Clouds 22 1020 69 16093 5.7 60 10:22 22.03.2020
6153 Clouds 22 1020 69 16093 5.7 60 10:22 22.03.2020
6154 Clouds 22 1019 69 16093 5.1 60 09:46 22.03.2020
6155 Clouds 22 1019 69 16093 5.1 60 09:46 22.03.2020
6156 Clouds 22 1019 69 16093 5.1 60 09:27 22.03.2020
6157 Clouds 23 1019 64 16093 5.1 60 08:48 22.03.2020
6158 Clouds 23 1019 64 16093 5.1 60 08:48 22.03.2020
6159 Clouds 23 1019 64 16093 5.1 60 08:30 22.03.2020
6160 Clouds 23 1019 94 16093 2.2 84 07:55 22.03.2020
6161 Clouds 23 1018 69 16093 4.6 60 07:37 22.03.2020
6162 Clouds 23 1018 69 16093 5.7 60 06:41 22.03.2020
6163 Clouds 24 1017 65 16093 5.7 60 05:47 22.03.2020
6164 Clouds 24 1017 88 16093 2.6 70 04:39 22.03.2020
6165 Clouds 26 1017 65 16093 6.2 60 01:45 22.03.2020
6166 Rain 26 1018 88 3219 2.24 78 00:50 22.03.2020
6167 Rain 26 1018 58 16093 3.1 70 00:31 22.03.2020
6168 Rain 26 1019 83 16093 1.5 100 23:45 21.03.2020
6169 Clouds 26 1019 74 16093 5.7 150 23:22 21.03.2020
6170 Clouds 26 1020 74 16093 1.63 73 22:58 21.03.2020
6171 Clouds 26 1020 74 16093 1.63 73 22:37 21.03.2020
6172 Clouds 26 1020 74 16093 1.63 73 22:19 21.03.2020
6173 Rain 25 1019 74 16093 4.6 90 21:57 21.03.2020
6174 Rain 25 1019 74 16093 4.6 90 21:38 21.03.2020
6175 Rain 25 1020 78 16093 3.1 160 21:18 21.03.2020
6176 Clouds 24 1019 74 16093 3.6 100 20:42 21.03.2020
6177 Clouds 24 1019 78 16093 3.1 120 20:21 21.03.2020
6178 Clouds 23 1018 83 16093 1.2 97 19:54 21.03.2020
6179 Clouds 23 1018 83 16093 1.2 97 19:36 21.03.2020
6180 Clouds 22 1018 88 16093 1.2 97 19:18 21.03.2020
6181 Clouds 21 1018 88 16093 1.2 97 18:40 21.03.2020
6182 Clouds 21 1018 88 16093 1.2 97 18:20 21.03.2020
6183 Clouds 21 1018 88 16093 2.6 30 17:58 21.03.2020
6184 Clouds 21 1017 88 16093 1.5 50 17:39 21.03.2020
6185 Clouds 21 1017 88 16093 1.5 50 17:21 21.03.2020
6186 Clouds 21 1017 88 16093 1.5 30 16:42 21.03.2020
6187 Clouds 21 1017 88 16093 1.5 30 16:23 21.03.2020
6188 Clouds 22 1017 94 16093 2.1 20 15:58 21.03.2020
6189 Clouds 22 1017 94 16093 2.1 20 15:39 21.03.2020
6190 Clouds 22 1017 94 16093 2.1 20 15:21 21.03.2020
6191 Clouds 22 1017 94 16093 1.09 96 14:55 21.03.2020
6192 Clouds 22 1017 94 16093 1.09 96 14:37 21.03.2020
6193 Clouds 22 1017 88 16093 1.18 101 14:18 21.03.2020
6194 Rain 22 1018 88 14484 1.18 101 13:57 21.03.2020
6195 Rain 22 1018 88 14484 1.18 101 13:38 21.03.2020
6196 Rain 22 1018 88 14484 1.18 101 13:19 21.03.2020
6197 Clouds 22 1019 88 16093 0.83 130 12:41 21.03.2020
6198 Clouds 22 1019 88 16093 0.83 130 12:20 21.03.2020
6199 Rain 22 1018 83 16093 3.1 110 11:59 21.03.2020
6200 Rain 23 1018 83 16093 3.1 110 11:39 21.03.2020
6201 Rain 23 1018 83 16093 3.1 110 11:39 21.03.2020
6202 Rain 23 1018 83 16093 3.1 110 11:20 21.03.2020
6203 Rain 23 1018 83 16093 3.6 120 10:58 21.03.2020
6204 Clouds 23 1020 83 16093 2.1 240 10:39 21.03.2020
6205 Clouds 23 1020 83 16093 2.1 240 10:21 21.03.2020
6206 Clouds 23 1020 100 16093 0.9 21 09:59 21.03.2020
6207 Clouds 23 1020 100 16093 0.9 21 09:39 21.03.2020
6208 Clouds 23 1020 100 16093 0.9 21 09:39 21.03.2020
6209 Rain 23 1019 83 16093 2.6 240 09:20 21.03.2020
6210 Clouds 23 1019 94 16093 1.5 300 08:55 21.03.2020
6211 Clouds 23 1019 94 16093 1.5 300 08:37 21.03.2020
6212 Rain 23 1019 83 16093 2.6 230 08:18 21.03.2020
6213 Rain 23 1019 83 16093 2.6 240 07:37 21.03.2020
6214 Rain 24 1018 83 16093 2.1 220 07:18 21.03.2020
6215 Rain 24 1018 94 16093 2.1 340 06:42 21.03.2020
6216 Rain 24 1018 94 16093 2.6 330 06:23 21.03.2020
6217 Rain 25 1016 74 16093 2.1 30 05:39 21.03.2020
6218 Clouds 25 1017 88 16093 2.1 200 03:39 21.03.2020
6219 Clouds 26 1015 69 16093 4.1 80 02:36 21.03.2020
6220 Drizzle 25 1017 83 16093 2.6 160 01:43 21.03.2020
6221 Clouds 26 1017 74 16093 4.1 190 01:23 21.03.2020
6222 Clouds 26 1018 74 16093 4.1 180 00:39 21.03.2020
6223 Clouds 26 1018 74 16093 4.1 180 00:20 21.03.2020
6224 Clouds 26 1018 78 16093 3.1 180 23:41 20.03.2020
6225 Clouds 26 1018 74 16093 4.6 170 23:20 20.03.2020
6226 Clouds 26 1019 83 16093 3.6 140 22:44 20.03.2020
6227 Clouds 26 1019 83 16093 3.6 140 22:24 20.03.2020
6228 Clouds 25 1019 88 16093 2.6 140 21:58 20.03.2020
6229 Clouds 25 1019 88 16093 2.6 140 21:39 20.03.2020
6230 Clouds 25 1019 88 16093 3.6 130 21:19 20.03.2020
6231 Clouds 24 1019 88 16093 2.6 130 20:57 20.03.2020
6232 Clouds 24 1019 88 16093 2.6 130 20:39 20.03.2020
6233 Clouds 24 1018 83 16093 1.62 157 20:18 20.03.2020
6234 Clouds 23 1018 94 16093 2.1 140 19:46 20.03.2020
6235 Clouds 22 1018 94 16093 1.62 157 19:19 20.03.2020
6236 Clouds 21 1018 100 16093 1.62 157 18:56 20.03.2020
6237 Clouds 21 1017 83 16093 1.62 157 18:37 20.03.2020
6238 Clouds 21 1017 83 16093 1.62 157 18:19 20.03.2020
6239 Clouds 20 1017 100 16093 1.62 157 17:40 20.03.2020
6240 Clouds 20 1017 100 16093 1.93 168 17:22 20.03.2020
6241 Clouds 20 1016 88 16093 1.93 168 16:59 20.03.2020
6242 Clouds 20 1016 88 16093 1.93 168 16:41 20.03.2020
6243 Clouds 20 1016 88 16093 1.93 168 16:41 20.03.2020
6244 Clouds 20 1017 88 16093 1.93 168 16:20 20.03.2020
6245 Clouds 20 1017 88 16093 1.93 168 16:20 20.03.2020
6246 Clouds 20 1017 88 16093 1.93 168 15:43 20.03.2020
6247 Clouds 20 1017 88 16093 1.93 168 15:22 20.03.2020
6248 Clouds 21 1017 83 16093 1.5 360 14:57 20.03.2020
6249 Clouds 21 1017 83 16093 1.5 360 14:38 20.03.2020
6250 Clouds 21 1017 83 16093 1.5 360 14:19 20.03.2020
6251 Clouds 21 1017 83 16093 2.1 350 13:46 20.03.2020
6252 Clouds 21 1017 83 16093 2.1 350 13:20 20.03.2020
6253 Clouds 21 1018 83 16093 2.1 10 12:54 20.03.2020
6254 Clouds 21 1018 83 16093 2.1 10 12:36 20.03.2020
6255 Clouds 21 1018 83 16093 2.1 10 12:18 20.03.2020
6256 Clouds 21 1018 100 16093 1.28 193 11:39 20.03.2020
6257 Clouds 21 1018 100 16093 1.82 87 11:20 20.03.2020
6258 Clouds 22 1018 83 16093 1.5 20 10:43 20.03.2020
6259 Clouds 22 1018 83 16093 1.5 20 10:21 20.03.2020
6260 Clouds 22 1018 83 16093 1.5 20 10:21 20.03.2020
6261 Clouds 21 1018 100 16093 1.5 170 10:00 20.03.2020
6262 Clouds 21 1018 100 16093 1.5 170 09:41 20.03.2020
6263 Clouds 22 1018 83 16093 2.6 80 09:19 20.03.2020
6264 Clouds 22 1018 83 16093 3.1 100 08:43 20.03.2020
6265 Clouds 22 1018 83 16093 3.1 100 08:22 20.03.2020
6266 Clouds 22 1017 78 16093 5.1 100 07:57 20.03.2020
6267 Clouds 22 1017 78 16093 5.1 100 07:38 20.03.2020
6268 Clouds 22 1017 78 16093 5.1 100 07:19 20.03.2020
6269 Clouds 23 1016 69 16093 5.7 130 06:41 20.03.2020
6270 Clouds 23 1015 73 16093 6.2 120 04:54 20.03.2020
6271 Clouds 24 1015 78 16093 6.2 130 03:50 20.03.2020
6272 Clouds 24 1016 78 16093 2.1 0 02:21 20.03.2020
6273 Clouds 24 1017 73 16093 2.6 0 01:33 20.03.2020
6274 Clouds 24 1017 83 16093 3.6 160 00:33 20.03.2020
6275 Clouds 24 1019 94 16093 4.1 180 23:49 19.03.2020
6276 Clouds 24 1019 94 16093 4.1 180 23:30 19.03.2020
6277 Drizzle 23 1020 94 16093 2.1 170 22:58 19.03.2020
6278 Clouds 24 1020 69 16093 2.6 180 22:38 19.03.2020
6279 Clouds 23 1020 69 16093 2.6 180 22:20 19.03.2020
6280 Clouds 23 1019 73 16093 1.5 0 21:55 19.03.2020
6281 Clouds 23 1019 73 16093 1.5 0 21:37 19.03.2020
6282 Clouds 23 1019 73 16093 1.5 0 21:18 19.03.2020
6283 Clouds 23 1019 73 16093 3.6 270 20:42 19.03.2020
6284 Clouds 23 1019 73 16093 4.6 70 20:23 19.03.2020
6285 Clouds 22 1018 78 16093 2.6 190 19:56 19.03.2020
6286 Clouds 22 1018 78 16093 2.6 190 19:38 19.03.2020
6287 Clouds 22 1019 73 16093 2.1 360 19:19 19.03.2020
6288 Clouds 22 1018 73 16093 2.39 94 18:56 19.03.2020
6289 Clouds 21 1018 78 16093 2.39 94 18:38 19.03.2020
6290 Clouds 21 1018 78 16093 2.39 94 18:19 19.03.2020
6291 Clouds 21 1017 78 16093 3.1 80 17:41 19.03.2020
6292 Clouds 21 1017 83 16093 2.6 310 17:19 19.03.2020
6293 Clouds 21 1017 83 16093 2.6 310 16:45 19.03.2020
6294 Clouds 22 1017 83 16093 2.6 310 16:24 19.03.2020
6295 Clouds 21 1016 83 16093 2.6 240 15:54 19.03.2020
6296 Clouds 21 1016 83 16093 2.6 240 15:36 19.03.2020
6297 Clouds 21 1016 83 16093 2.6 240 15:18 19.03.2020
6298 Clouds 21 1016 78 16093 3.24 95 14:42 19.03.2020
6299 Clouds 21 1016 78 16093 2.25 71 14:20 19.03.2020
6300 Clouds 21 1016 78 16093 5.7 50 13:41 19.03.2020
6301 Clouds 21 1016 78 16093 5.7 50 13:19 19.03.2020
6302 Clouds 21 1017 78 16093 2.6 80 12:56 19.03.2020
6303 Clouds 20 1017 100 16093 1.19 92 12:38 19.03.2020
6304 Clouds 21 1017 100 16093 1.19 92 12:19 19.03.2020
6305 Clouds 21 1018 78 16093 3.1 70 11:42 19.03.2020
6306 Clouds 21 1019 83 16093 2.1 280 11:23 19.03.2020
6307 Clouds 21 1019 83 16093 2.1 280 10:56 19.03.2020
6308 Clouds 21 1019 83 16093 2.1 280 10:36 19.03.2020
6309 Clouds 21 1019 83 16093 2.1 280 10:18 19.03.2020
6310 Clouds 21 1019 78 16093 2.1 130 09:44 19.03.2020
6311 Clouds 21 1019 78 16093 2.1 130 09:26 19.03.2020
6312 Rain 21 1019 77 16093 2.1 40 08:57 19.03.2020
6313 Rain 21 1019 77 16093 2.1 40 08:37 19.03.2020
6314 Rain 21 1019 77 16093 2.1 40 08:18 19.03.2020
6315 Rain 21 1017 83 16093 3.1 360 07:42 19.03.2020
6316 Rain 21 1017 83 16093 3.1 360 07:22 19.03.2020
6317 Rain 21 1018 88 16093 4.1 350 06:27 19.03.2020
6318 Rain 21 1017 87 4023 2.1 290 05:25 19.03.2020
6319 Rain 21 1018 88 3219 7.7 340 04:51 19.03.2020
6320 Rain 22 1017 83 9656 6.7 340 04:21 19.03.2020
6321 Rain 25 1017 94 16093 5.1 330 01:58 19.03.2020
6322 Rain 26 1017 88 16093 5.1 320 00:53 19.03.2020
6323 Clouds 26 1018 78 16093 1.31 165 00:19 19.03.2020
6324 Clouds 26 1018 78 16093 2.6 180 23:43 18.03.2020
6325 Clouds 26 1018 78 16093 2.6 180 23:23 18.03.2020
6326 Clouds 26 1019 78 16093 3.1 0 22:43 18.03.2020
6327 Clouds 26 1019 78 16093 3.1 0 22:23 18.03.2020
6328 Clouds 26 1019 74 16093 2.1 0 21:57 18.03.2020
6329 Clouds 26 1019 74 16093 2.1 0 21:39 18.03.2020
6330 Clouds 26 1019 74 16093 2.1 0 21:20 18.03.2020
6331 Clouds 25 1018 69 16093 2.97 134 20:55 18.03.2020
6332 Clouds 25 1018 69 16093 2.97 134 20:37 18.03.2020
6333 Clouds 25 1018 69 16093 0.82 134 20:19 18.03.2020
6334 Clouds 23 1017 83 16093 2.1 350 19:41 18.03.2020
6335 Clouds 22 1017 83 16093 2.1 350 19:21 18.03.2020
6336 Clouds 22 1017 83 16093 2.1 350 19:21 18.03.2020
6337 Clouds 22 1016 88 16093 1.5 250 18:58 18.03.2020
6338 Clouds 22 1016 88 16093 1.5 250 18:58 18.03.2020
6339 Clouds 21 1016 88 16093 1.5 250 18:39 18.03.2020
6340 Clouds 21 1016 88 16093 1.5 250 18:19 18.03.2020
6341 Clouds 21 1016 88 16093 2.1 300 17:55 18.03.2020
6342 Clouds 21 1015 88 16093 1.5 340 17:37 18.03.2020
6343 Clouds 21 1015 88 16093 1.5 340 17:19 18.03.2020
6344 Clouds 21 1014 78 16093 2.97 155 16:42 18.03.2020
6345 Clouds 22 1014 78 16093 2.97 155 16:20 18.03.2020
6346 Clouds 21 1014 78 16093 2.97 155 16:20 18.03.2020
6347 Clouds 21 1014 83 16093 1.5 0 15:57 18.03.2020
6348 Clouds 21 1014 83 16093 1.5 0 15:38 18.03.2020
6349 Clouds 21 1015 88 16093 2.97 155 15:19 18.03.2020
6350 Clouds 22 1014 78 16093 2.6 110 14:42 18.03.2020
6351 Clouds 22 1015 88 16093 2.97 155 14:21 18.03.2020
6352 Clouds 22 1016 100 16093 1.5 160 13:41 18.03.2020
6353 Clouds 22 1016 100 16093 1.5 160 13:19 18.03.2020
6354 Rain 22 1017 83 16093 2.6 110 12:55 18.03.2020
6355 Rain 22 1017 83 16093 2.6 110 12:37 18.03.2020
6356 Rain 22 1017 83 16093 2.6 110 12:18 18.03.2020
6357 Rain 22 1017 83 16093 2.6 110 12:18 18.03.2020
6358 Clouds 22 1017 88 16093 4.6 120 11:38 18.03.2020
6359 Clouds 22 1017 83 14484 1.5 0 11:19 18.03.2020
6360 Clouds 22 1017 83 14484 1.5 0 10:56 18.03.2020
6361 Clouds 22 1017 78 16093 3.6 120 10:37 18.03.2020
6362 Rain 22 1017 78 16093 3.6 120 10:18 18.03.2020
6363 Rain 22 1017 78 16093 3.6 120 10:18 18.03.2020
6364 Rain 22 1017 78 16093 3.6 120 10:18 18.03.2020
6365 Rain 22 1018 83 16093 5.1 120 09:42 18.03.2020
6366 Clouds 22 1018 83 16093 4.6 110 09:23 18.03.2020
6367 Clouds 22 1018 83 16093 5.1 110 08:55 18.03.2020
6368 Clouds 22 1018 83 16093 5.1 110 08:55 18.03.2020
6369 Clouds 22 1017 83 16093 4.6 120 08:36 18.03.2020
6370 Clouds 22 1017 83 16093 4.6 120 08:18 18.03.2020
6371 Rain 22 1016 88 16093 7.2 110 07:40 18.03.2020
6372 Rain 22 1016 88 16093 7.2 110 07:22 18.03.2020
6373 Rain 22 1017 88 16093 6.2 100 06:42 18.03.2020
6374 Rain 22 1017 88 16093 5.1 120 05:47 18.03.2020
6375 Clouds 22 1015 78 16093 1.89 98 05:18 18.03.2020
6376 Rain 21 1015 83 16093 2.6 110 03:21 18.03.2020
6377 Rain 22 1016 88 16093 2.6 100 02:37 18.03.2020
6378 Rain 22 1016 88 16093 2.6 100 02:37 18.03.2020
6379 Rain 22 1016 88 16093 2.6 100 02:37 18.03.2020
6380 Rain 21 1016 94 16093 2.1 80 01:45 18.03.2020
6381 Rain 22 1016 94 16093 1.5 40 01:20 18.03.2020
6382 Rain 21 1017 94 8047 3.6 300 00:22 18.03.2020
6383 Rain 21 1018 88 6437 5.7 270 23:43 17.03.2020
6384 Rain 21 1018 94 16093 5.1 240 23:22 17.03.2020
6385 Rain 21 1018 94 6437 5.1 270 22:47 17.03.2020
6386 Rain 21 1018 94 6437 5.1 270 22:28 17.03.2020
6387 Rain 22 1018 94 3219 6.7 270 21:57 17.03.2020
6388 Rain 22 1017 94 805 13.4 260 21:36 17.03.2020
6389 Rain 22 1017 94 805 13.4 260 21:18 17.03.2020
6390 Rain 23 1017 88 8047 4.1 280 20:38 17.03.2020
6391 Rain 23 1016 83 16093 2.1 330 20:20 17.03.2020
6392 Clouds 22 1016 100 16093 2.6 180 19:42 17.03.2020
6393 Rain 22 1015 83 16093 1.5 70 19:22 17.03.2020
6394 Clouds 22 1015 100 16093 2.1 140 18:59 17.03.2020
6395 Clouds 22 1015 100 16093 2.1 160 18:40 17.03.2020
6396 Clouds 22 1015 100 16093 2.1 160 18:22 17.03.2020
6397 Clouds 22 1014 83 16093 1.98 135 17:56 17.03.2020
6398 Drizzle 22 1014 100 16093 1.5 150 17:38 17.03.2020
6399 Drizzle 22 1014 100 16093 1.5 150 17:19 17.03.2020
6400 Rain 22 1014 100 16093 1.5 160 16:42 17.03.2020
6401 Rain 22 1014 100 8047 2.6 60 16:19 17.03.2020
6402 Rain 22 1014 83 9656 3.1 120 15:47 17.03.2020
6403 Rain 22 1014 83 9656 3.1 120 15:23 17.03.2020
6404 Drizzle 23 1013 100 16093 1.5 160 14:47 17.03.2020
6405 Rain 23 1014 83 11265 4.1 110 14:27 17.03.2020
6406 Clouds 23 1013 73 16093 2.98 146 13:58 17.03.2020
6407 Clouds 23 1013 73 16093 2.98 146 13:40 17.03.2020
6408 Clouds 23 1015 73 16093 4.6 110 13:22 17.03.2020
6409 Clouds 23 1015 73 16093 1.5 20 12:47 17.03.2020
6410 Clouds 23 1015 73 16093 1.5 20 12:25 17.03.2020
6411 Clouds 23 1015 73 16093 3.6 100 11:56 17.03.2020
6412 Clouds 23 1015 73 16093 3.6 100 11:38 17.03.2020
6413 Clouds 23 1015 100 16093 2.1 137 11:20 17.03.2020
6414 Clouds 23 1015 100 16093 2.1 137 10:54 17.03.2020
6415 Clouds 23 1015 78 16093 1.5 100 10:36 17.03.2020
6416 Clouds 23 1015 78 16093 1.5 100 10:18 17.03.2020
6417 Clouds 23 1015 100 16093 2.6 190 09:44 17.03.2020
6418 Clouds 23 1015 78 16093 2.6 80 09:20 17.03.2020
6419 Clouds 23 1016 78 16093 2.6 100 08:51 17.03.2020
6420 Clouds 23 1016 78 16093 2.6 100 08:24 17.03.2020
6421 Clouds 23 1015 74 16093 5.7 110 07:58 17.03.2020
6422 Clouds 23 1016 100 16093 2.6 180 07:39 17.03.2020
6423 Rain 23 1016 100 16093 2.6 180 07:19 17.03.2020
6424 Rain 22 1015 100 16093 1.5 180 06:40 17.03.2020
6425 Clouds 23 1014 100 16093 2.6 140 06:19 17.03.2020
6426 Rain 23 1014 100 3017 5.1 140 04:40 17.03.2020
6427 Rain 23 1013 100 3621 3.1 170 02:56 17.03.2020
6428 Rain 24 1014 83 2816 6.2 130 01:49 17.03.2020
6429 Rain 24 1014 83 16093 6.2 140 01:25 17.03.2020
6430 Drizzle 24 1014 94 14484 3.1 140 00:47 17.03.2020
6431 Clouds 25 1015 69 16093 6.2 140 23:51 16.03.2020
6432 Clouds 24 1015 100 16093 4.1 150 23:32 16.03.2020
6433 Rain 23 1014 78 16093 3.6 150 22:43 16.03.2020
6434 Rain 23 1016 100 2615 6.2 160 22:25 16.03.2020
6435 Rain 24 1016 83 8047 6.7 170 21:58 16.03.2020
6436 Rain 24 1016 83 8047 6.7 170 21:40 16.03.2020
6437 Rain 24 1015 78 8047 4.1 130 21:22 16.03.2020
6438 Rain 23 1016 100 16093 2.6 140 20:56 16.03.2020
6439 Clouds 23 1016 83 16093 4.6 120 20:37 16.03.2020
6440 Rain 23 1016 83 16093 4.6 120 20:19 16.03.2020
6441 Rain 23 1015 83 16093 6.7 140 19:41 16.03.2020
6442 -273 0 0 0 0 0 19:21 16.03.2020
6443 Rain 23 1015 100 16093 4.1 160 18:43 16.03.2020
6444 Rain 23 1014 83 3219 3.18 167 18:22 16.03.2020
6445 Rain 22 1015 100 16093 3.1 160 17:56 16.03.2020
6446 Rain 23 1014 100 16093 2.6 170 17:37 16.03.2020
6447 Rain 23 1014 100 16093 2.6 170 17:18 16.03.2020
6448 Rain 22 1014 100 16093 3.1 160 16:45 16.03.2020
6449 Rain 23 1014 83 16093 5.7 140 16:27 16.03.2020
6450 Drizzle 23 1014 100 16093 3.1 160 15:46 16.03.2020
6451 Rain 23 1013 83 16093 2.1 120 15:28 16.03.2020
6452 Drizzle 23 1014 100 16093 3.6 160 14:49 16.03.2020
6453 Clouds 23 1015 83 16093 5.7 130 14:28 16.03.2020
6454 Rain 23 1014 83 16093 1.5 160 13:59 16.03.2020
6455 Rain 23 1014 83 16093 1.5 160 13:41 16.03.2020
6456 Drizzle 23 1015 100 2816 1.5 150 13:22 16.03.2020
6457 Clouds 23 1015 100 12874 2.1 150 12:45 16.03.2020
6458 Clouds 23 1016 100 16093 1.5 120 12:24 16.03.2020
6459 Rain 23 1016 100 11265 2.1 130 11:47 16.03.2020
6460 Rain 23 1016 83 11265 3.6 140 11:28 16.03.2020
6461 Rain 22 1016 100 16093 2.39 169 10:56 16.03.2020
6462 Rain 22 1016 100 16093 2.39 169 10:37 16.03.2020
6463 Rain 23 1016 83 16093 2.1 90 10:18 16.03.2020
6464 Rain 22 1017 100 9656 2.1 180 09:42 16.03.2020
6465 Rain 23 1017 83 16093 2.6 100 09:21 16.03.2020
6466 Clouds 23 1016 78 16093 3.1 80 08:52 16.03.2020
6467 Clouds 23 1016 78 16093 3.1 80 08:25 16.03.2020
6468 Rain 23 1016 100 16093 2.1 200 07:48 16.03.2020
6469 Rain 23 1016 78 16093 3.6 110 07:25 16.03.2020
6470 Rain 23 1016 94 16093 1.53 107 06:52 16.03.2020
6471 Clouds 24 1015 69 16093 3.1 130 06:24 16.03.2020
6472 Rain 24 1015 83 16093 2.1 160 04:54 16.03.2020
6473 Rain 25 1015 83 16093 3.1 170 02:41 16.03.2020
6474 Rain 24 1015 83 4828 3.1 140 00:52 16.03.2020
6475 Rain 25 1016 78 8047 3.6 100 00:32 16.03.2020
6476 Rain 26 1016 78 6437 2.6 80 23:46 15.03.2020
6477 Rain 26 1017 69 16093 6.7 150 23:20 15.03.2020
6478 Clouds 25 1017 74 16093 2.33 64 22:42 15.03.2020
6479 Clouds 25 1018 78 16093 2.33 64 22:22 15.03.2020
6480 Clouds 25 1018 69 16093 2.6 210 21:55 15.03.2020
6481 Clouds 25 1018 69 16093 2.6 210 21:37 15.03.2020
6482 Clouds 26 1018 69 16093 2.6 210 21:18 15.03.2020
6483 Clouds 26 1017 69 16093 4.1 60 20:42 15.03.2020
6484 Clouds 25 1018 69 16093 1.5 0 20:20 15.03.2020
6485 Clouds 24 1018 88 16093 1.5 320 19:56 15.03.2020
6486 Clouds 24 1018 88 16093 1.5 320 19:38 15.03.2020
6487 Clouds 23 1018 100 16093 2.1 360 19:19 15.03.2020
6488 Clouds 23 1017 83 16093 4.6 330 18:55 15.03.2020
6489 Clouds 22 1017 83 16093 4.6 330 18:36 15.03.2020
6490 Clouds 22 1017 83 16093 4.6 330 18:18 15.03.2020
6491 Clouds 21 1016 78 16093 3.6 320 17:40 15.03.2020
6492 Clouds 21 1016 78 16093 3.6 320 17:20 15.03.2020
6493 Clouds 21 1016 100 16093 2.1 300 16:56 15.03.2020
6494 Clouds 22 1016 100 16093 2.1 300 16:37 15.03.2020
6495 Clouds 22 1016 83 16093 2.1 10 16:18 15.03.2020
6496 Clouds 22 1015 74 16093 4.6 60 15:43 15.03.2020
6497 Clouds 22 1016 83 16093 3.6 330 15:25 15.03.2020
6498 Clouds 23 1017 78 16093 1.5 340 14:47 15.03.2020
6499 Clouds 23 1017 78 16093 1.5 340 14:28 15.03.2020
6500 Clouds 22 1017 78 16093 3.1 320 13:59 15.03.2020
6501 Clouds 22 1017 78 16093 3.1 320 13:39 15.03.2020
6502 Clouds 22 1017 78 16093 3.1 320 13:21 15.03.2020
6503 Rain 23 1017 78 16093 5.1 60 12:57 15.03.2020
6504 Clouds 23 1017 73 16093 2.1 320 12:38 15.03.2020
6505 Clouds 23 1017 73 16093 2.1 320 12:20 15.03.2020
6506 Clouds 23 1017 69 16093 3.6 70 11:40 15.03.2020
6507 Clouds 23 1017 69 16093 3.6 70 11:22 15.03.2020
6508 Clouds 23 1019 73 16093 2.6 340 10:56 15.03.2020
6509 Clouds 23 1019 73 16093 2.6 340 10:37 15.03.2020
6510 Clouds 23 1019 73 16093 2.6 340 10:19 15.03.2020
6511 Clouds 23 1019 100 16093 2.6 320 09:40 15.03.2020
6512 Clouds 23 1019 69 16093 1.5 10 09:22 15.03.2020
6513 Clouds 23 1019 94 16093 3.6 310 08:44 15.03.2020
6514 Clouds 23 1019 94 16093 2.6 310 08:21 15.03.2020
6515 Clouds 22 1017 69 16093 5.1 50 07:51 15.03.2020
6516 Clouds 22 1017 73 16093 4.1 10 07:31 15.03.2020
6517 Clouds 23 1017 69 16093 6.2 50 06:53 15.03.2020
6518 Clouds 24 1016 69 16093 5.1 50 05:50 15.03.2020
6519 Clouds 24 1016 69 16093 5.1 50 05:18 15.03.2020
6520 Clouds 25 1016 57 16093 5.7 50 04:43 15.03.2020
6521 Clouds 25 1016 57 16093 5.7 50 04:24 15.03.2020
6522 Clouds 24 1016 88 16093 4.1 330 03:38 15.03.2020
6523 Clouds 25 1016 83 16093 3.6 60 02:37 15.03.2020
6524 Drizzle 26 1016 78 16093 2.1 180 01:34 15.03.2020
6525 Clouds 26 1016 73 16093 3.1 330 00:45 15.03.2020
6526 Clouds 26 1016 61 16093 2.1 150 00:22 15.03.2020
6527 Clouds 26 1017 73 16093 2.15 70 23:42 14.03.2020
6528 Clouds 26 1017 73 16093 2.74 63 23:22 14.03.2020
6529 Clouds 26 1018 73 16093 3.1 290 22:58 14.03.2020
6530 Clouds 26 1018 73 16093 3.1 290 22:40 14.03.2020
6531 Clouds 26 1018 54 16093 2.1 60 22:22 14.03.2020
6532 Clouds 26 1018 73 16093 2.6 60 21:56 14.03.2020
6533 Clouds 25 1018 73 16093 2.6 60 21:36 14.03.2020
6534 Clouds 26 1018 73 16093 2.6 60 21:18 14.03.2020
6535 Clouds 24 1018 69 16093 2.1 350 20:58 14.03.2020
6536 Clouds 24 1018 69 16093 2.1 350 20:39 14.03.2020
6537 Clouds 24 1018 69 16093 2.1 350 20:18 14.03.2020
6538 Clouds 23 1017 69 16093 3.6 330 19:42 14.03.2020
6539 Clouds 23 1017 69 16093 3.6 330 19:24 14.03.2020
6540 Clouds 21 1016 78 16093 2.36 49 18:41 14.03.2020
6541 Clouds 20 1016 78 16093 2.36 49 18:22 14.03.2020
6542 Clouds 21 1016 77 16093 2.1 330 17:44 14.03.2020
6543 Clouds 21 1016 77 16093 2.1 330 17:24 14.03.2020
6544 Clouds 21 1015 77 16093 3.6 330 17:00 14.03.2020
6545 Clouds 21 1015 77 16093 3.6 330 16:40 14.03.2020
6546 Clouds 21 1015 77 16093 3.6 330 16:21 14.03.2020
6547 Clouds 21 1015 77 16093 3.6 330 16:21 14.03.2020
6548 Clouds 21 1016 73 16093 2.6 310 15:51 14.03.2020
6549 Clouds 21 1016 73 16093 2.6 310 15:25 14.03.2020
6550 Clouds 21 1015 78 16093 1.74 57 14:45 14.03.2020
6551 Clouds 21 1015 78 16093 1.74 57 14:23 14.03.2020
6552 Clouds 21 1015 73 16093 1.5 150 13:57 14.03.2020
6553 Clouds 21 1016 68 16093 3.1 340 13:39 14.03.2020
6554 Clouds 21 1016 68 16093 3.1 340 13:20 14.03.2020
6555 Clouds 21 1016 73 16093 3.1 320 12:45 14.03.2020
6556 Clouds 21 1016 73 16093 3.1 320 12:26 14.03.2020
6557 Clouds 21 1017 73 16093 2.6 340 11:48 14.03.2020
6558 Clouds 21 1017 73 16093 2.6 340 11:48 14.03.2020
6559 Clouds 21 1017 73 16093 2.6 340 11:28 14.03.2020
6560 Clouds 21 1017 73 16093 2.6 340 10:59 14.03.2020
6561 Clear 21 1017 73 16093 4.1 340 10:41 14.03.2020
6562 Clear 21 1017 73 16093 4.1 340 10:23 14.03.2020
6563 Clear 21 1017 69 16093 2.6 350 09:44 14.03.2020
6564 Clear 22 1017 69 16093 2.6 350 09:24 14.03.2020
6565 Clouds 21 1017 88 16093 2.6 340 08:48 14.03.2020
6566 Clouds 21 1016 78 16093 4.1 350 08:29 14.03.2020
6567 Rain 22 1016 69 16093 3.1 340 07:55 14.03.2020
6568 Rain 22 1016 69 16093 3.1 340 07:37 14.03.2020
6569 Rain 22 1016 69 16093 3.1 340 07:18 14.03.2020
6570 Clouds 22 1016 94 16093 2.6 290 06:40 14.03.2020
6571 Clouds 22 1014 78 11265 2.1 300 05:19 14.03.2020
6572 Rain 23 1013 73 16093 3.6 20 03:43 14.03.2020
6573 Rain 24 1013 65 16093 3.6 30 03:23 14.03.2020
6574 Clouds 25 1013 61 16093 4.6 40 02:20 14.03.2020
6575 Clouds 26 1014 65 16093 4.1 160 00:42 14.03.2020
6576 Clouds 25 1015 83 16093 4.6 320 23:45 13.03.2020
6577 Clouds 25 1015 83 16093 4.6 320 23:26 13.03.2020
6578 Clouds 25 1016 83 16093 3.6 300 22:47 13.03.2020
6579 Clouds 25 1015 61 16093 2.54 32 22:25 13.03.2020
6580 Clouds 24 1015 69 16093 3.6 350 21:43 13.03.2020
6581 Clouds 24 1015 69 16093 3.6 350 21:21 13.03.2020
6582 Clouds 24 1015 69 16093 2.6 350 20:57 13.03.2020
6583 Clouds 23 1015 73 16093 1.5 360 20:38 13.03.2020
6584 Clouds 23 1015 73 16093 1.5 360 20:19 13.03.2020
6585 Clouds 21 1015 100 16093 3.1 330 19:42 13.03.2020
6586 Clouds 21 1015 100 16093 3.1 330 19:42 13.03.2020
6587 Clouds 20 1015 100 16093 3.1 330 19:23 13.03.2020
6588 Clouds 20 1015 100 16093 3.1 330 19:23 13.03.2020
6589 Clouds 20 1014 78 16093 1.11 28 18:44 13.03.2020
6590 Clouds 20 1014 88 16093 1.11 28 18:25 13.03.2020
6591 Clouds 20 1013 83 16093 1.5 350 17:55 13.03.2020
6592 Clouds 20 1013 83 16093 1.5 350 17:37 13.03.2020
6593 Clouds 20 1013 88 16093 0.54 344 17:18 13.03.2020
6594 Clouds 20 1013 88 16093 0.54 344 16:40 13.03.2020
6595 Clouds 20 1013 88 16093 0.54 344 16:22 13.03.2020
6596 Clouds 20 1015 100 12874 2.1 330 15:54 13.03.2020
6597 Clouds 20 1013 88 16093 0.54 344 15:36 13.03.2020
6598 Clouds 20 1013 88 16093 0.54 344 15:18 13.03.2020
6599 Clouds 21 1014 88 16093 0.54 344 14:40 13.03.2020
6600 Clouds 20 1013 88 16093 0.4 97 14:22 13.03.2020
6601 Clouds 20 1014 83 16093 0.4 97 13:55 13.03.2020
6602 Clouds 20 1014 83 16093 0.4 97 13:36 13.03.2020
6603 Clouds 20 1014 83 16093 0.97 168 13:18 13.03.2020
6604 Clouds 21 1014 88 16093 0.97 168 12:39 13.03.2020
6605 Clouds 21 1014 88 16093 0.97 168 12:39 13.03.2020
6606 Clouds 21 1014 88 16093 0.97 168 12:20 13.03.2020
6607 Clouds 21 1014 88 16093 0.97 168 11:57 13.03.2020
6608 Rain 21 1014 88 16093 2.1 10 11:37 13.03.2020
6609 Rain 21 1015 100 16093 1.39 183 11:19 13.03.2020
6610 Rain 21 1015 100 16093 1.39 183 10:47 13.03.2020
6611 Rain 21 1015 100 16093 1.39 183 10:26 13.03.2020
6612 Clouds 21 1015 83 16093 1.5 10 09:49 13.03.2020
6613 Clouds 22 1015 83 16093 1.5 10 09:30 13.03.2020
6614 Clouds 21 1015 100 16093 1.39 183 08:59 13.03.2020
6615 Clouds 21 1015 100 16093 1.39 183 08:41 13.03.2020
6616 Clouds 22 1014 83 16093 2.1 30 08:22 13.03.2020
6617 Clouds 22 1015 88 16093 1.92 189 07:44 13.03.2020
6618 Clouds 21 1014 100 16093 1.5 90 07:25 13.03.2020
6619 Clouds 21 1014 94 16093 1.5 120 06:46 13.03.2020
6620 Clouds 21 1014 94 16093 1.5 120 06:46 13.03.2020
6621 Clouds 21 1014 94 16093 1.5 120 06:23 13.03.2020
6622 Rain 21 1013 94 16093 1.5 110 05:46 13.03.2020
6623 Rain 22 1013 100 16093 2.1 140 04:57 13.03.2020
6624 Rain 22 1013 83 4828 4.6 160 04:26 13.03.2020
6625 Clouds 24 1012 88 16093 2.6 150 02:43 13.03.2020
6626 Rain 24 1013 73 16093 2.1 0 01:37 13.03.2020
6627 Rain 24 1013 73 16093 2.1 0 01:18 13.03.2020
6628 Clouds 23 1013 94 16093 2.6 140 00:41 13.03.2020
6629 Clouds 23 1013 94 16093 2.6 140 00:19 13.03.2020
6630 Rain 22 1015 100 16093 4.1 150 23:38 12.03.2020
6631 Rain 22 1015 100 16093 4.1 150 23:19 12.03.2020
6632 Rain 23 1014 73 4828 2.74 189 22:46 12.03.2020
6633 Rain 23 1015 94 16093 2.6 120 22:27 12.03.2020
6634 Clouds 23 1015 94 16093 1.5 110 21:56 12.03.2020
6635 Rain 22 1015 94 16093 1.5 110 21:38 12.03.2020
6636 Rain 22 1015 83 16093 3.1 0 21:20 12.03.2020
6637 Drizzle 22 1015 100 12874 2.1 140 20:42 12.03.2020
6638 Rain 22 1015 78 16093 1.5 0 20:20 12.03.2020
6639 Rain 21 1015 94 2816 1.5 30 19:42 12.03.2020
6640 Rain 21 1015 88 4828 0.77 117 19:21 12.03.2020
6641 Clouds 20 1014 100 16093 0.77 117 18:58 12.03.2020
6642 Clouds 20 1014 100 14484 0.77 117 18:39 12.03.2020
6643 Rain 20 1014 83 16093 2.1 350 18:21 12.03.2020
6644 Rain 20 1014 88 16093 2.1 10 17:41 12.03.2020
6645 Rain 20 1014 88 16093 2.1 10 17:22 12.03.2020
6646 Rain 20 1014 100 16093 1.04 111 16:58 12.03.2020
6647 Rain 20 1013 88 16093 1.5 40 16:40 12.03.2020
6648 Rain 20 1013 88 16093 1.5 40 16:21 12.03.2020
6649 Rain 20 1014 93 16093 1.04 111 15:48 12.03.2020
6650 Rain 20 1014 93 16093 1.04 111 15:28 12.03.2020
6651 Rain 20 1014 93 16093 1.04 111 15:28 12.03.2020
6652 Rain 19 1014 73 16093 1.04 111 14:54 12.03.2020
6653 Rain 20 1014 73 16093 1.04 111 14:54 12.03.2020
6654 Rain 20 1014 73 16093 1.04 111 14:54 12.03.2020
6655 Rain 20 1014 73 16093 1.04 111 14:36 12.03.2020
6656 Rain 20 1014 73 16093 0.69 33 14:18 12.03.2020
6657 Clouds 20 1014 78 16093 1.5 340 13:38 12.03.2020
6658 Clouds 20 1014 78 16093 1.5 340 13:20 12.03.2020
6659 Clouds 21 1015 78 16093 0.8 73 12:43 12.03.2020
6660 Clouds 21 1015 78 16093 0.8 73 12:23 12.03.2020
6661 Clouds 21 1015 78 16093 0.8 73 11:59 12.03.2020
6662 Clouds 21 1015 78 16093 0.8 73 11:39 12.03.2020
6663 Clouds 21 1015 78 16093 0.8 73 11:21 12.03.2020
6664 -273 0 0 0 0 0 11:21 12.03.2020
6665 Clouds 21 1016 73 16093 1.5 0 10:59 12.03.2020
6666 Clouds 21 1016 73 16093 1.5 0 10:41 12.03.2020
6667 Clouds 21 1016 73 16093 1.5 0 10:22 12.03.2020
6668 Rain 21 1016 69 16093 2.6 320 09:48 12.03.2020
6669 Rain 21 1016 69 16093 2.6 320 09:28 12.03.2020
6670 Rain 21 1016 69 16093 2.6 320 09:28 12.03.2020
6671 Rain 21 1015 78 8047 3.1 60 08:54 12.03.2020
6672 Rain 22 1016 69 16093 2.1 330 08:36 12.03.2020
6673 Rain 21 1016 69 16093 2.1 330 08:18 12.03.2020
6674 Rain 22 1015 78 9656 1.03 6 07:45 12.03.2020
6675 Rain 21 1015 83 2414 3.1 130 07:21 12.03.2020
6676 Clouds 23 1015 69 16093 2.6 50 05:57 12.03.2020
6677 Rain 24 1014 61 16093 2.1 0 05:27 12.03.2020
6678 Clouds 27 1013 57 16093 3.1 40 02:43 12.03.2020
6679 Rain 26 1015 54 16093 8.7 220 01:38 12.03.2020
6680 Rain 26 1015 54 160